GFSWCAN_sfc_wetblb_036.txt.gz
Wetbulb
46.02 46.10 46.30 46.01 46.37 46.28 46.45 47.13 46.76 46.35 46.32 46.37 46.15 45.89 45.95 46.05 46.54 42.20 38.96 44.09 42.83 38.63 39.97 43.91 45.98 40.97 41.55 41.34 36.45 39.87 43.11 42.14 34.97 35.05 32.82 31.41 26.87 33.27 32.25 35.49 34.49 34.38 30.26 26.01 24.74 21.88 26.78 38.94 38.38 34.09 36.89 37.53 39.49 39.69
45.58 46.44 46.35 46.19 46.26 46.24 46.09 45.89 45.84 45.67 45.75 45.74 45.56 45.42 45.66 45.98 46.11 43.40 38.64 44.17 45.63 42.67 42.04 46.51 45.58 45.94 45.08 44.94 42.65 41.95 40.97 42.30 41.86 38.20 33.57 33.47 29.02 27.55 32.40 29.98 37.10 33.25 35.85 32.58 33.74 33.05 39.00 39.43 38.49 39.91 39.87 39.87 39.96 40.06
42.75 43.83 44.22 44.51 44.68 45.06 45.11 45.32 45.23 45.23 45.13 44.89 45.10 45.43 45.60 45.82 45.81 43.50 42.34 43.59 43.74 41.81 40.88 42.35 40.90 46.35 48.05 47.65 48.79 42.13 43.56 46.38 44.29 45.70 39.84 37.96 33.68 33.17 30.60 31.70 34.48 36.53 37.88 33.87 34.41 37.63 38.00 39.81 41.15 40.58 40.89 40.14 41.49 41.74
42.60 42.62 43.04 43.64 43.89 44.03 44.30 44.32 44.21 44.10 44.04 44.29 44.95 45.08 45.55 45.81 45.93 44.72 42.32 46.99 45.51 43.18 35.52 40.20 49.43 47.19 51.23 50.19 49.01 48.93 48.13 48.11 46.60 45.94 39.14 36.22 34.57 38.29 31.90 37.05 34.26 36.95 38.60 35.74 34.28 38.44 39.57 40.83 40.35 39.09 38.50 39.30 38.48 37.94
43.19 43.56 43.56 43.61 43.72 43.65 43.57 43.71 43.74 44.07 44.29 44.52 44.94 45.11 45.25 45.84 46.42 45.05 44.85 47.35 47.37 41.17 36.27 38.26 43.15 47.14 49.62 51.26 50.48 50.18 49.59 46.16 42.57 39.29 34.54 36.02 36.46 37.28 32.97 36.59 31.61 39.12 37.79 35.11 35.08 40.25 39.63 39.54 38.98 39.15 38.50 37.03 37.15 36.47
43.55 43.58 43.57 43.76 43.92 44.04 43.97 43.91 44.10 44.36 44.43 44.66 45.11 45.53 45.62 45.84 46.19 43.60 38.60 46.02 48.47 47.93 40.09 33.56 42.89 43.75 48.69 50.13 49.63 49.06 49.76 45.23 43.39 40.02 36.95 40.81 43.93 40.79 34.40 32.60 40.11 41.28 41.35 42.74 41.26 42.36 38.96 38.19 38.17 38.42 36.96 35.98 35.79 34.94
43.15 43.87 43.86 43.79 44.11 44.12 44.19 44.16 44.31 44.56 44.91 45.11 45.47 45.90 45.86 46.11 45.32 39.94 37.90 42.41 47.54 47.54 40.83 34.43 31.51 41.08 49.09 48.90 45.98 46.06 46.35 45.06 44.70 41.48 37.31 39.03 41.07 39.52 30.55 33.03 40.74 42.06 42.34 41.29 40.43 40.17 36.82 37.70 36.05 36.76 35.80 34.92 34.99 33.63
43.01 43.59 43.42 43.11 43.67 44.24 44.27 44.24 44.57 44.82 45.05 45.12 45.76 46.05 46.53 46.30 45.13 41.13 44.22 47.42 47.16 44.23 42.00 34.15 34.16 38.34 47.03 41.23 41.79 45.93 39.04 41.57 42.57 41.15 36.33 35.75 39.07 32.21 33.72 38.04 39.38 39.59 39.78 39.67 38.75 39.40 39.27 37.24 36.28 34.70 34.45 33.82 32.27 31.47
44.26 44.26 44.26 44.36 44.64 44.34 44.73 44.98 45.03 45.12 45.51 46.14 46.42 46.39 44.49 40.94 38.16 39.76 47.14 48.12 48.33 43.42 36.08 35.45 33.94 33.30 43.51 40.46 40.87 37.68 38.85 33.97 40.98 36.13 36.34 37.52 33.45 34.21 35.76 37.78 38.44 38.58 39.43 36.87 36.30 36.45 36.37 34.59 33.53 33.36 32.83 32.12 30.65 30.20
44.33 44.49 44.62 44.26 44.66 45.00 45.15 44.75 44.48 45.58 46.10 46.28 44.33 40.35 32.19 38.60 47.77 47.68 46.23 42.16 42.55 43.19 42.81 34.74 39.43 34.33 41.99 35.60 36.91 35.98 35.45 34.53 31.46 35.24 38.40 33.29 33.70 35.59 36.82 38.18 38.45 38.38 37.62 36.76 33.18 31.79 32.49 31.92 31.79 31.55 31.19 31.57 31.48 30.62
44.35 44.33 44.65 44.83 45.13 45.37 45.64 45.66 45.77 46.21 45.84 42.37 38.88 37.16 43.10 47.72 44.78 40.34 34.18 35.34 36.38 33.38 36.59 36.18 36.98 36.82 42.46 34.80 35.25 35.61 33.98 32.71 32.85 34.62 35.58 32.88 33.66 34.38 37.75 38.59 39.18 38.59 38.53 39.13 37.96 36.18 35.39 34.01 31.81 30.38 29.98 30.53 30.22 30.64
44.84 44.65 44.48 44.50 44.85 45.12 45.62 45.87 46.16 45.11 41.53 41.82 44.49 46.51 45.42 40.15 35.49 33.11 31.75 32.50 32.13 32.73 33.98 34.89 36.31 40.42 38.00 41.21 35.22 35.14 33.35 32.44 31.37 35.66 33.59 31.93 33.63 36.33 36.81 37.33 37.29 37.38 36.02 35.76 36.52 34.49 33.85 33.11 32.44 31.00 30.10 29.55 29.42 28.43
44.39 44.32 44.15 44.12 44.39 44.95 45.37 45.96 46.01 46.29 46.46 45.98 40.56 35.64 35.87 32.04 30.71 27.91 29.16 30.86 31.43 32.32 34.00 33.82 33.64 34.72 36.70 37.91 32.91 33.61 32.31 31.18 33.69 32.76 30.65 31.06 35.47 35.62 36.19 36.19 35.59 36.12 35.55 35.22 34.53 34.26 33.09 31.66 31.45 30.30 28.74 28.60 28.15 26.63
43.90 43.97 44.11 44.21 44.44 44.75 44.98 45.46 45.70 45.53 42.93 35.36 33.95 27.18 29.31 27.43 28.39 28.62 29.37 30.86 31.98 31.99 32.73 33.27 33.09 33.59 32.73 33.42 32.19 31.84 31.45 32.70 29.02 26.24 26.42 31.58 33.53 33.50 34.35 34.65 33.49 32.31 31.85 31.54 31.04 30.68 29.52 28.83 28.28 28.67 28.45 28.11 26.51 25.58
44.43 44.25 44.33 44.36 44.73 45.29 45.24 45.16 43.88 41.79 36.29 32.22 31.48 26.57 27.95 31.07 31.61 31.61 31.81 32.17 32.82 33.94 32.90 33.45 33.73 35.18 32.32 31.86 31.78 31.99 30.32 26.43 26.74 25.71 29.02 31.76 32.64 32.61 31.81 31.53 31.09 30.55 30.42 29.98 29.83 28.25 27.52 27.89 26.98 26.25 26.29 26.24 25.75 24.38
45.19 44.38 43.92 45.43 45.68 45.65 44.10 43.51 41.25 38.06 31.81 31.32 30.13 28.00 30.26 29.38 28.79 29.92 30.16 31.34 34.42 33.02 33.42 33.47 31.78 31.33 29.88 28.27 23.84 22.71 24.91 21.47 24.75 28.25 31.01 31.95 31.52 31.33 30.89 30.78 30.63 30.81 30.36 29.97 29.61 28.54 27.58 26.53 25.88 24.78 23.74 23.16 22.39 21.32
43.40 40.70 44.68 44.58 43.68 43.74 43.55 39.75 35.80 31.89 29.69 28.13 28.18 28.63 27.84 28.78 26.56 27.45 28.55 29.54 33.41 33.24 30.86 30.88 23.99 22.48 27.62 23.58 18.98 22.09 20.85 24.66 27.27 30.05 31.37 31.76 31.16 30.37 30.52 30.27 30.04 29.96 29.40 29.19 28.76 27.99 26.68 26.18 25.52 23.88 21.67 21.88 21.95 20.83
39.17 41.86 44.21 44.19 43.34 42.39 40.01 37.53 31.06 30.75 28.61 30.03 26.08 26.31 26.29 25.65 24.49 25.37 27.50 30.04 31.86 31.87 29.32 25.38 27.01 17.29 14.39 13.73 15.49 20.22 22.39 23.42 30.05 30.02 30.37 31.54 31.54 31.72 31.63 30.64 30.39 29.43 28.64 27.88 27.22 26.47 25.75 25.22 24.70 24.03 22.97 22.11 21.81 22.01
40.24 41.00 43.41 44.15 42.62 38.23 33.32 33.66 33.89 26.97 26.50 28.21 27.03 28.22 26.72 25.34 26.21 26.50 26.87 28.56 29.26 29.26 27.24 23.54 17.83 16.26 16.39 19.43 18.62 20.01 20.37 21.85 25.73 25.19 24.70 26.47 29.56 30.91 30.68 29.85 29.07 28.09 27.20 26.52 25.03 23.87 23.81 23.76 22.73 22.87 22.82 21.92 19.16 18.32
40.51 40.01 41.18 43.05 42.39 34.03 31.38 31.41 35.17 30.35 28.34 25.91 26.47 23.34 23.58 22.82 23.80 23.71 24.28 25.33 25.28 23.97 19.56 16.83 15.92 17.62 18.36 19.57 21.39 21.22 21.00 22.81 26.42 22.63 20.22 21.42 23.51 23.58 23.61 23.86 23.60 23.83 23.06 22.93 22.46 22.55 21.26 19.84 20.22 20.15 20.48 20.66 18.98 16.72
35.65 35.44 35.97 35.48 32.67 32.69 30.81 30.50 30.89 30.92 30.71 28.03 28.06 25.20 22.81 22.69 19.96 18.89 19.52 23.27 19.80 19.02 16.19 18.76 18.74 19.99 21.86 21.57 22.21 22.62 21.04 20.35 18.27 19.80 19.80 17.65 20.01 20.88 20.69 20.86 20.85 20.05 18.28 17.69 16.84 16.86 16.95 16.53 17.02 17.29 16.35 15.69 16.25 16.59
31.33 34.67 27.01 29.45 27.67 27.66 26.62 27.83 28.98 28.89 27.97 26.15 24.46 25.56 21.51 15.51 15.13 18.08 20.24 16.23 16.65 18.05 19.65 18.88 19.10 19.28 18.58 18.55 19.04 20.31 20.77 19.76 19.13 17.62 17.07 16.51 13.77 14.01 14.32 16.69 16.44 15.06 15.19 14.97 14.84 13.56 13.20 13.76 13.99 13.30 12.19 12.13 13.76 11.86
32.21 29.86 24.86 24.39 20.34 19.70 18.51 25.83 20.54 24.56 16.79 16.10 19.33 18.96 16.95 14.71 18.05 20.87 12.81 16.29 16.49 19.61 21.34 20.62 19.44 19.31 17.91 18.31 18.08 18.05 18.37 17.04 15.26 14.87 14.01 12.79 12.24 12.01 11.20 10.77 11.69 11.28 10.38 10.89 12.13 10.66 8.55 9.07 8.23 6.19 6.03 6.40 3.86 2.26
29.98 20.87 14.85 13.47 17.11 10.02 13.13 14.26 21.45 19.48 16.26 14.37 14.06 11.99 17.06 11.18 16.07 10.54 9.66 12.48 15.59 17.18 16.59 17.62 17.83 15.73 15.57 14.92 13.18 13.58 15.23 15.33 13.24 12.91 13.65 11.35 8.66 8.02 8.77 7.90 7.79 7.71 7.90 8.13 6.42 3.54 2.58 -0.30 0.43 0.70 -3.01 -7.30 -6.22 -9.66
20.17 17.68 14.49 9.83 12.30 11.73 7.85 7.20 9.58 13.42 7.20 7.71 10.21 16.11 11.90 11.70 5.14 4.19 7.01 9.87 11.13 9.96 11.13 13.93 14.37 13.38 9.93 10.22 10.53 11.70 13.29 12.29 9.61 7.73 8.67 10.52 6.70 7.82 6.61 6.49 5.72 5.82 5.45 -0.22 -5.14 -9.12 -10.93 -14.56 -15.64 -16.37 -12.56 -16.37 -9.12 -10.39
15.60 19.45 18.32 8.56 11.34 12.43 8.16 7.13 7.92 7.38 5.32 8.02 13.39 16.13 7.30 2.50 -0.80 2.29 10.58 6.15 8.69 8.29 7.92 8.48 6.98 9.72 10.31 11.08 9.06 8.92 10.22 11.98 10.08 5.94 7.12 7.70 5.97 -1.85 -3.88 -1.53 -1.15 2.73 1.17 -9.30 -11.65 -11.65 -10.20 -12.02 -15.10 -12.74 -13.65 -10.39 -10.93 -16.73
15.64 12.82 20.01 21.57 17.37 15.18 9.62 7.43 10.53 8.79 8.81 13.67 6.15 0.83 0.15 -5.52 -2.59 9.66 14.77 14.01 12.15 11.46 12.46 10.53 9.87 7.57 7.88 9.34 10.00 9.85 9.48 9.24 7.94 7.12 7.43 6.32 5.70 4.95 -0.66 -5.31 -3.68 1.48 1.99 -4.25 -8.21 -8.94 -8.94 -9.48 -12.20 -13.11 -14.92 -19.99 -19.45 -17.46
21.49 15.05 8.66 8.48 10.24 11.38 4.84 2.48 3.21 5.85 7.46 16.21 5.82 -4.25 -7.67 -6.59 0.47 9.81 13.37 14.72 13.00 11.71 10.03 8.83 7.34 5.66 4.00 4.69 5.45 6.23 5.36 2.42 3.76 1.73 1.00 0.76 -0.99 -3.74 -5.86 -7.30 -6.77 2.30 -10.20 -14.01 -12.38 -12.92 -13.29 -10.02 -8.03 -9.66 -12.74 -13.11 -10.57 -15.28
10.99 7.68 11.63 4.95 5.92 9.05 10.96 6.07 6.02 12.20 13.27 5.52 -3.91 -1.32 1.36 7.17 6.32 6.10 11.65 12.48 12.31 8.83 4.24 3.05 2.88 0.04 -1.62 -1.47 -2.71 -3.91 -4.39 -8.74 -8.19 -11.54 -15.82 -16.01 -15.10 -7.41 -7.51 -12.20 -14.19 -17.09 -19.45 -15.46 -4.22 0.67 2.26 -1.68 -2.59 -8.03 -10.39 -12.02 -9.49 -7.89
9.69 5.61 6.13 0.97 4.19 6.24 5.36 3.50 -0.24 -2.09 6.20 2.23 7.79 8.44 6.33 4.80 9.04 11.48 8.78 7.12 4.66 -1.51 -10.20 -12.74 -13.83 -8.62 -12.38 -10.93 -11.29 -6.40 -8.04 -14.74 -13.48 -10.81 -15.28 -15.64 -11.13 -8.07 -12.02 -15.46 -15.82 -16.01 -16.91 -19.63 -20.36 -16.20 -8.21 -16.91 -12.92 -18.18 -18.38 -16.60 -18.02 -16.04
5.92 4.88 5.36 6.05 9.27 6.62 4.52 -0.93 -4.85 -2.76 -5.53 -4.43 -6.62 -6.63 -5.54 -0.83 2.54 6.08 3.11 -0.97 -4.22 -7.49 -6.76 -9.84 -10.02 -16.19 -12.92 -14.19 -16.73 -16.19 -12.20 -13.13 -15.64 -12.92 -12.92 -15.82 -15.28 -16.91 -18.18 -18.18 -19.09 -21.26 -22.53 -23.08 -24.35 -23.98 -22.53 -22.35 -24.89 -23.98 -23.80 -20.36 -18.39 -18.00
1.64 -2.41 2.74 3.55 9.04 8.13 5.74 7.95 -4.58 -2.97 -5.67 -7.30 -5.85 -8.57 -10.05 -9.89 -10.75 -3.87 -0.11 -5.28 -9.66 -10.11 -11.47 -15.64 -13.29 -8.75 -11.11 -13.29 -17.46 -18.91 -12.38 -16.19 -16.55 -16.01 -15.28 -14.37 -14.74 -16.37 -18.36 -19.81 -23.80 -24.71 -23.80 -24.35 -26.34 -25.43 -24.89 -23.44 -23.80 -24.71 -26.88 -25.25 -21.44 -20.72
-4.52 -5.53 -4.50 -0.09 5.54 6.53 6.78 7.42 4.29 1.12 -2.61 -3.50 -4.22 -5.85 -8.21 -9.27 -9.33 -3.82 -0.34 -10.42 -10.22 -11.93 -12.20 -14.37 -15.64 -16.01 -10.57 -12.39 -14.74 -17.09 -11.12 -17.09 -18.54 -8.39 -6.76 -5.67 -10.57 -12.02 -18.91 -23.08 -24.89 -25.07 -23.08 -24.16 -25.61 -26.52 -23.26 -22.53 -23.26 -24.89 -25.61 -25.61 -24.16 -22.90

GFSWCAN_sfc_wetblb_039.txt.gz
Wetbulb
46.57 46.27 46.45 45.55 45.97 46.08 46.50 46.72 46.67 46.54 46.42 47.09 46.78 46.78 46.98 47.13 46.74 43.21 40.40 44.28 41.74 37.96 39.06 42.38 41.83 41.47 41.22 40.63 35.97 39.91 40.50 41.48 38.22 35.41 35.47 35.46 33.90 37.00 37.06 38.19 36.54 36.46 34.28 33.52 31.09 32.66 32.92 41.99 40.49 39.19 44.29 43.11 43.72 44.36
46.48 46.06 46.18 45.90 45.80 46.15 46.46 46.34 46.48 46.73 46.85 46.57 46.30 46.62 46.89 46.63 46.39 44.07 38.14 44.70 45.14 40.07 39.70 45.61 46.15 46.09 44.67 45.89 42.23 43.02 40.65 41.52 41.53 39.43 36.91 35.41 34.65 33.39 36.26 35.02 38.83 37.14 39.63 37.74 38.83 39.38 44.60 42.72 45.57 44.96 43.97 44.82 43.61 45.08
45.02 45.75 46.02 46.08 45.86 46.02 46.37 46.51 46.51 46.75 46.43 46.43 46.53 46.53 46.62 46.80 46.23 43.75 40.82 41.97 41.86 38.90 37.57 39.94 40.32 45.57 47.97 46.46 48.94 41.15 43.10 46.79 44.58 47.01 41.02 40.28 35.25 36.47 33.63 34.82 37.32 38.63 40.13 40.10 40.53 42.74 42.21 43.16 43.78 45.08 44.52 45.02 44.48 45.71
43.99 44.38 45.02 45.79 45.66 45.86 46.36 46.23 46.18 46.13 46.25 46.27 45.93 46.00 45.99 46.17 46.25 44.38 42.07 42.82 41.06 40.97 33.02 37.13 47.61 45.36 51.20 49.11 47.97 48.73 48.53 48.60 47.83 46.68 40.87 37.94 37.26 42.06 37.42 39.97 38.28 39.97 40.80 38.39 39.20 40.65 42.61 44.04 44.47 44.97 42.93 43.61 43.08 42.53
43.45 43.68 44.30 44.56 44.90 45.25 45.27 45.52 45.80 46.00 46.02 46.18 45.99 45.95 46.20 46.29 45.50 42.89 43.10 43.96 43.78 40.89 35.35 37.40 43.81 46.09 47.97 48.28 48.40 48.83 48.28 47.70 44.81 41.55 37.40 39.16 39.13 39.23 36.59 38.80 36.57 41.20 40.42 38.43 38.51 43.95 44.14 44.54 46.05 42.96 41.96 42.10 42.12 39.98
43.77 43.40 43.25 43.60 43.88 44.18 44.16 44.35 44.70 45.03 44.88 45.28 45.64 45.83 45.65 45.43 44.53 41.77 36.85 43.76 46.87 46.32 37.90 33.09 43.29 42.87 47.64 50.24 49.62 48.35 48.10 47.34 47.47 43.29 39.18 41.13 44.57 41.12 36.91 36.84 43.19 43.97 44.68 45.11 43.70 44.34 40.47 39.70 41.21 41.82 40.59 39.98 39.73 39.57
43.72 43.98 43.88 43.56 43.51 43.73 43.77 43.82 43.98 44.19 44.35 44.32 44.70 45.34 45.39 45.34 43.61 39.57 37.67 41.99 45.39 47.43 39.96 33.78 34.73 42.33 46.08 49.08 48.32 48.19 49.00 47.42 46.61 43.80 40.54 41.99 42.79 42.59 35.27 36.90 43.48 43.25 44.27 43.23 42.27 42.17 39.88 39.50 39.62 39.29 38.32 37.32 37.36 36.65
43.51 44.01 44.14 43.97 43.85 43.85 43.82 43.81 44.09 44.45 44.64 44.76 44.94 45.20 45.31 45.19 43.95 41.52 44.76 46.84 47.29 43.80 41.81 32.47 32.94 37.38 46.61 40.67 41.59 46.49 43.70 44.68 44.02 42.40 39.16 40.09 40.25 36.74 34.92 40.23 41.29 41.58 41.90 41.16 40.79 40.51 42.28 39.24 37.66 35.86 35.91 35.61 34.14 33.11
43.67 43.69 43.95 43.99 43.98 43.94 43.98 44.32 44.45 44.68 44.77 44.98 45.23 45.22 43.72 42.17 39.62 40.09 46.50 46.75 47.09 42.72 33.88 33.09 31.79 33.60 44.08 40.98 41.34 40.59 41.75 37.97 42.40 37.44 39.16 40.84 36.27 36.95 39.29 39.44 39.98 40.00 40.40 38.91 37.80 37.94 37.95 37.15 35.04 34.55 34.76 34.36 32.97 32.30
44.16 43.98 43.98 43.99 44.01 43.83 44.06 44.26 44.63 44.90 44.95 45.06 43.34 39.94 33.41 40.25 45.53 46.46 43.87 40.39 39.88 41.00 41.37 34.72 39.40 36.17 41.35 35.99 36.17 36.09 36.70 35.98 36.17 37.21 39.29 36.90 36.35 37.27 37.80 38.75 40.16 39.16 38.47 38.50 35.16 34.22 34.36 33.84 33.73 33.35 33.39 33.96 33.45 32.59
44.10 44.40 44.84 44.79 44.48 44.33 44.33 44.52 44.99 45.39 45.03 42.38 38.22 36.45 41.36 46.41 42.82 38.13 32.67 33.72 35.38 33.97 37.01 36.56 37.30 37.01 42.22 36.20 35.40 37.13 33.95 34.09 33.60 36.87 36.89 34.86 35.33 35.03 38.35 38.22 39.03 39.05 39.17 39.41 39.04 37.02 37.16 36.00 33.87 32.73 32.30 32.75 32.53 32.22
45.16 45.16 45.21 45.28 44.89 44.96 45.24 45.25 44.89 44.38 42.87 42.13 42.63 44.80 44.49 40.29 36.09 32.47 30.96 31.91 32.25 33.29 34.66 35.38 36.67 40.17 37.95 41.36 35.18 35.88 33.63 32.49 32.29 36.63 34.48 32.88 33.66 36.18 37.72 37.68 37.95 38.60 37.92 36.68 36.59 34.60 34.21 33.52 33.46 32.17 31.66 31.04 29.73 28.63
44.52 44.72 44.90 45.04 45.41 45.55 45.27 45.54 45.70 45.66 45.89 45.56 39.80 35.33 36.54 32.68 31.08 29.02 28.53 30.87 31.07 32.11 33.59 33.98 33.45 35.75 36.79 38.12 33.38 33.05 31.61 31.76 34.94 32.89 29.65 30.66 34.18 34.74 35.67 35.68 34.74 35.73 35.45 34.68 33.62 33.22 32.50 31.77 31.78 30.67 29.02 29.01 28.89 28.07
44.09 44.16 44.48 44.51 44.80 44.91 45.28 44.15 44.10 44.68 41.98 33.48 32.50 28.71 29.12 26.24 27.87 28.51 29.13 30.28 31.76 31.78 32.17 33.24 33.06 33.77 33.09 32.68 31.82 31.82 31.81 31.78 29.79 26.48 26.64 30.18 32.31 32.68 32.82 33.35 32.92 31.62 31.42 31.11 30.71 30.48 29.70 28.95 28.34 28.93 28.53 28.71 27.69 26.43
43.98 44.18 44.49 44.29 44.70 44.97 44.71 44.00 43.38 41.69 36.13 31.55 30.50 25.92 27.17 30.86 30.96 31.60 31.58 31.99 32.14 33.38 32.86 33.60 33.78 35.14 32.18 32.18 31.58 31.31 29.97 24.67 24.67 23.98 27.79 30.52 31.96 31.88 31.22 31.18 30.76 30.26 29.55 29.01 29.15 28.37 27.79 27.71 26.93 26.38 27.60 27.98 27.15 25.86
44.28 43.70 42.72 44.55 45.18 45.24 44.53 43.53 41.02 37.29 33.41 30.72 26.21 24.47 26.92 26.84 24.48 26.39 26.42 28.29 32.34 31.79 33.59 33.95 31.72 30.30 27.92 26.87 24.17 20.65 22.94 18.76 21.77 24.48 29.51 31.48 30.28 30.32 30.28 30.40 30.07 30.05 29.38 28.80 28.77 28.48 27.58 26.20 25.03 24.59 24.76 24.35 24.06 23.44
43.89 41.11 44.93 44.53 44.21 43.65 43.05 39.68 35.93 31.89 31.07 28.95 25.14 25.65 24.25 24.49 23.21 24.47 25.57 26.85 30.95 33.08 29.15 28.48 21.09 19.81 25.87 20.83 17.50 20.18 17.17 20.70 21.42 25.38 29.93 30.93 30.19 30.02 30.26 30.22 30.16 29.80 28.97 28.30 27.71 27.08 25.99 25.66 25.47 24.62 22.59 22.76 22.77 22.23
40.88 43.60 44.08 44.19 43.24 42.12 39.80 36.60 30.90 29.66 25.83 26.48 23.20 23.34 23.85 23.56 21.84 23.12 25.34 27.55 30.70 29.64 27.03 22.85 24.96 16.95 14.50 13.98 14.50 17.92 20.27 21.34 26.12 24.03 23.25 28.04 30.43 30.41 30.10 28.59 28.70 28.25 27.36 27.03 27.09 26.96 26.58 25.28 23.50 22.52 22.49 22.61 22.43 22.09
43.10 43.44 43.48 43.57 42.01 37.48 33.06 33.41 32.69 23.46 23.61 25.62 24.86 24.96 23.42 21.28 23.47 24.67 25.45 26.19 27.20 27.85 25.74 21.72 15.80 13.90 14.63 17.25 16.44 18.32 18.86 20.05 23.04 21.76 21.95 23.20 24.48 25.25 25.42 25.35 24.98 24.59 24.48 24.43 23.96 23.23 22.90 23.47 23.66 23.57 23.25 22.46 20.52 20.82
43.16 42.48 43.81 41.68 40.99 33.92 31.49 31.05 34.74 28.18 24.01 24.76 25.49 21.10 20.28 19.48 20.37 21.17 21.87 23.29 22.66 21.43 17.21 14.97 14.08 15.41 16.48 17.73 20.13 19.22 19.35 21.71 24.72 19.49 18.08 19.62 21.85 21.41 21.14 21.72 21.43 21.66 20.90 20.32 19.87 20.54 19.74 18.67 19.27 19.71 20.04 20.47 19.33 18.16
36.62 36.61 39.39 37.29 33.21 32.57 30.17 30.29 30.41 30.21 29.45 26.84 27.32 23.94 20.11 20.38 17.79 16.53 17.19 21.26 17.51 16.25 14.01 16.84 17.29 18.62 20.21 20.11 21.09 20.51 19.09 18.15 16.31 17.89 17.12 14.82 17.30 18.60 18.41 18.48 18.60 18.13 16.89 16.01 15.01 14.32 14.56 14.35 15.52 16.61 16.68 16.27 16.92 17.33
32.35 34.64 29.62 30.83 28.96 28.60 27.46 27.74 28.43 27.83 25.97 24.59 23.11 23.92 18.53 14.04 12.06 15.72 18.47 13.83 14.30 16.22 18.26 17.45 17.94 17.96 17.08 17.00 17.82 19.13 19.05 17.78 16.75 15.46 14.81 14.49 12.23 12.15 12.04 14.38 14.18 12.55 12.47 12.62 12.14 10.99 10.85 10.59 11.38 11.44 11.28 11.22 12.66 12.13
32.12 29.34 25.05 24.07 20.55 20.10 18.52 26.20 20.29 23.27 16.70 16.73 19.31 18.13 14.36 12.03 16.20 19.96 11.75 14.25 14.72 17.47 19.37 19.23 18.46 18.44 16.70 16.90 16.71 16.39 16.62 15.31 13.29 12.75 11.67 10.59 10.33 9.94 9.39 9.05 10.13 9.63 8.21 8.55 9.62 8.13 6.34 6.21 6.97 6.55 7.15 6.47 6.76 6.82
29.46 20.16 13.66 12.45 16.63 10.05 13.11 13.89 20.90 18.70 16.15 15.75 15.75 14.17 15.34 12.02 14.49 10.25 8.58 11.24 14.20 15.70 15.23 16.17 16.48 14.64 14.28 12.95 11.46 11.37 13.68 13.46 11.47 10.45 11.78 9.77 7.72 7.31 7.93 7.72 7.75 7.21 7.10 7.31 5.79 4.14 2.44 0.81 0.24 2.58 0.82 2.64 1.99 2.83
19.11 16.49 14.44 9.86 11.55 11.22 7.90 8.09 10.59 13.86 9.89 12.32 11.59 13.34 9.30 11.91 5.39 4.48 6.99 10.53 11.46 9.79 11.40 13.30 13.32 12.19 9.26 9.51 9.85 10.23 11.48 11.00 8.56 6.63 7.99 8.68 7.91 8.06 7.01 6.70 5.99 5.66 6.41 5.19 2.26 2.48 2.25 0.90 0.40 0.82 1.16 0.03 0.56 -0.03
14.00 16.22 15.64 7.82 10.38 14.46 11.49 9.09 8.98 6.44 8.90 8.59 10.41 11.46 5.50 3.44 0.90 3.13 9.62 9.36 9.98 10.24 9.59 9.45 9.59 9.44 9.34 10.07 8.83 8.83 9.72 11.45 9.58 5.99 6.44 7.42 6.26 3.84 3.07 2.35 2.88 3.38 4.17 0.39 2.39 1.61 1.80 1.05 0.01 -0.53 0.84 0.84 -5.22 -2.99
12.36 9.40 18.03 19.38 15.69 13.71 9.15 7.55 10.10 7.95 7.67 9.78 6.17 0.88 -0.34 -4.83 -2.44 8.62 13.08 12.38 10.35 8.92 9.44 7.99 8.89 9.31 9.15 8.88 8.77 8.09 8.49 8.43 7.38 6.21 6.80 6.34 5.74 5.08 3.32 1.07 0.36 2.35 2.24 0.18 -0.16 -0.47 -0.83 -1.04 -1.45 -0.90 -1.38 -0.66 -0.91 -3.72
17.05 14.05 7.70 6.07 9.69 10.17 4.45 1.18 1.73 4.00 6.17 13.02 3.95 -3.56 -7.52 -5.06 1.83 8.02 11.73 11.63 10.48 9.80 8.09 6.88 6.24 6.06 5.74 5.73 6.18 6.22 5.69 4.82 4.29 4.34 4.58 4.13 1.91 1.36 -0.56 -1.55 -2.44 -0.99 -3.24 -2.84 -0.61 -1.72 -0.31 -0.77 -0.52 -1.10 -1.79 -2.47 -3.76 -2.86
8.44 4.43 9.91 1.71 3.90 5.81 7.67 2.97 3.84 8.43 10.44 3.17 -3.65 -3.17 1.01 5.78 6.09 6.45 10.86 11.81 11.17 7.82 3.23 2.24 1.74 -0.66 -0.01 1.08 -1.50 -1.75 -1.12 1.00 1.00 -4.47 -5.82 -4.13 -3.96 0.11 -1.22 -3.62 -4.25 -4.07 -5.70 -3.11 -1.39 2.91 4.61 1.88 0.60 -2.08 -4.27 -5.64 -6.05 -6.56
6.94 4.84 5.21 0.02 0.90 2.45 -1.35 -0.17 -3.39 -3.96 4.28 2.99 7.31 7.00 5.00 4.43 7.11 9.65 8.45 7.22 4.88 0.24 -4.62 -6.61 -7.15 -2.09 -3.41 -1.81 -2.62 -1.48 -3.90 -6.07 -3.85 -2.56 -4.07 -4.80 -3.22 -1.75 -5.16 -5.34 -4.25 -4.62 -7.52 -6.79 -6.80 -5.41 -4.63 -5.80 -3.89 -5.56 -7.80 -7.88 -8.06 -8.06
4.90 3.42 5.63 6.35 7.20 2.45 0.38 -4.44 -10.06 -5.93 -5.76 -4.33 -6.14 -5.23 -3.59 1.11 4.72 6.04 4.95 1.16 -3.54 -6.61 -2.68 -3.89 -4.98 -9.69 -4.12 -5.89 -4.44 -5.71 -3.86 -4.09 -12.77 -8.24 -6.43 -6.07 -6.07 -5.70 -4.98 -5.89 -7.34 -9.15 -9.33 -9.51 -9.87 -9.69 -9.33 -8.24 -9.69 -10.06 -9.44 -10.60 -11.90 -12.24
-0.32 -3.89 2.45 3.43 5.79 3.75 5.15 -1.00 -7.34 -4.99 -8.79 -5.17 -8.61 -9.33 -7.76 -6.67 -8.79 -1.85 0.54 -4.36 -4.72 -4.78 -8.61 -10.06 -7.70 -3.17 -7.15 -8.06 -11.51 -10.24 -11.87 -7.71 -6.61 -7.52 -8.97 -6.61 -4.25 -4.07 -5.34 -6.79 -10.42 -10.24 -8.42 -9.33 -10.78 -11.32 -12.23 -10.96 -10.24 -10.60 -11.69 -12.07 -13.29 -13.69
-6.36 -7.19 -4.32 0.62 3.21 2.91 4.24 2.85 0.85 -0.73 -5.34 -5.89 -6.07 -8.42 -11.69 -6.33 -6.80 -2.21 -1.28 -9.21 -3.75 -4.00 -6.26 -7.15 -7.34 -8.97 -10.24 -11.51 -8.06 -7.70 -8.16 -7.74 -12.23 -8.42 -6.25 -4.25 -6.97 -5.89 -6.43 -8.06 -10.24 -10.50 -9.59 -9.15 -10.24 -11.69 -10.69 -11.69 -10.71 -11.81 -12.06 -14.15 -14.51 -14.22

GFSWCAN_sfc_wetblb_042.txt.gz
Wetbulb
46.17 46.19 44.45 45.68 45.89 45.32 44.95 46.10 46.00 46.07 46.22 46.12 46.15 46.31 47.31 47.00 47.05 45.07 44.47 49.80 46.10 42.17 43.07 43.73 44.40 42.56 43.06 43.63 39.99 43.98 43.51 44.92 44.39 39.80 39.53 39.99 39.87 41.06 40.50 43.44 40.80 39.40 38.97 38.63 40.66 38.43 36.48 47.24 45.62 44.71 50.61 50.46 51.17 51.12
45.61 45.96 45.51 45.86 45.67 45.61 45.93 45.74 45.74 45.77 45.99 45.75 45.98 46.93 46.99 46.77 47.13 45.88 41.59 48.27 49.72 44.60 40.86 46.26 44.84 46.83 45.96 48.08 46.29 46.77 43.85 44.32 45.67 42.32 44.21 44.42 41.95 40.22 42.29 37.92 44.85 38.96 44.50 43.74 43.40 43.82 50.96 49.13 51.42 51.88 53.21 52.11 50.70 51.54
45.81 46.05 45.88 45.91 46.05 45.77 45.91 45.84 45.79 45.89 45.63 46.10 46.77 46.90 46.92 47.25 46.77 45.87 44.29 46.59 45.70 42.76 39.82 39.71 41.33 46.08 48.41 50.14 52.21 43.89 46.46 47.75 47.22 50.53 47.39 46.72 42.66 44.60 40.51 41.84 44.58 44.64 44.32 43.31 43.35 48.51 48.53 50.37 51.71 51.08 51.00 51.49 51.28 51.82
45.61 45.91 45.86 46.00 46.17 46.07 46.18 45.98 45.86 45.77 45.86 46.60 46.60 46.69 46.90 47.01 45.82 45.65 44.34 46.97 45.47 42.18 35.45 38.10 47.67 45.24 49.42 50.50 51.02 50.59 49.85 51.27 51.81 50.48 47.80 44.99 44.01 47.41 45.20 46.05 44.11 47.59 44.02 44.87 45.71 49.27 47.45 49.43 50.91 51.76 50.29 49.79 49.22 51.20
44.77 45.62 45.69 45.91 46.10 46.12 46.02 46.10 45.96 46.51 46.62 46.72 46.74 47.01 46.78 45.84 45.72 45.77 46.73 46.01 46.40 42.01 36.28 37.82 43.64 46.21 47.65 46.89 47.00 50.69 49.21 49.53 48.30 47.14 42.91 42.51 46.88 45.83 45.50 44.92 44.30 46.67 45.98 43.76 44.99 51.00 50.31 52.06 52.97 52.88 50.54 48.40 49.45 49.52
44.20 44.47 45.08 45.39 45.65 46.11 46.17 46.01 45.89 45.77 45.87 45.95 47.03 46.96 45.84 45.18 45.04 41.85 36.61 44.19 48.00 47.28 38.84 33.91 44.70 44.00 46.51 46.63 46.61 47.85 48.95 48.45 48.44 46.68 46.60 47.82 48.01 47.00 42.88 41.94 46.89 49.03 49.90 50.61 48.77 48.61 49.91 48.36 48.42 52.28 49.90 49.32 49.68 48.94
43.73 44.08 44.28 44.85 45.35 45.35 45.58 45.52 45.84 45.87 45.71 45.85 45.53 45.13 45.19 44.75 44.60 40.35 38.63 43.71 46.58 47.31 37.96 33.81 37.08 43.73 46.10 46.87 48.26 47.68 49.55 49.05 48.00 46.82 46.27 47.33 46.81 46.91 44.57 41.60 47.49 50.07 50.50 50.01 47.66 46.29 46.17 45.30 46.30 46.14 47.70 47.75 45.96 47.61
43.87 43.97 43.91 44.02 44.25 44.56 44.36 44.68 44.88 44.99 45.22 45.39 45.22 44.89 44.81 44.72 44.47 42.85 46.76 46.39 48.61 43.19 41.38 34.82 35.35 39.27 46.34 44.53 42.50 49.10 46.85 46.88 46.10 45.03 45.00 45.44 46.40 44.87 41.50 46.55 48.88 49.33 46.78 46.51 46.51 45.73 44.36 45.39 44.98 44.25 44.25 43.62 42.43 41.57
43.89 43.81 43.87 43.70 43.84 43.87 44.05 44.18 44.11 44.19 44.69 45.08 45.42 44.92 44.41 43.41 39.33 40.77 45.78 46.07 48.05 44.85 37.12 35.70 34.11 35.45 44.77 41.54 42.45 41.26 44.54 41.05 45.98 43.01 44.78 45.91 43.23 40.51 43.75 45.00 44.86 45.02 44.26 44.88 42.50 43.80 42.79 42.44 40.78 39.93 40.28 40.77 40.59 38.17
43.85 43.80 43.80 43.94 44.02 44.01 44.14 44.35 44.56 44.95 44.97 44.66 43.76 39.42 34.99 40.20 45.65 46.79 43.43 37.94 40.09 42.86 43.07 36.99 39.73 32.78 40.02 40.50 41.11 37.77 37.31 36.35 35.86 40.54 44.94 41.62 42.63 43.34 41.92 42.89 43.82 43.81 42.81 42.81 40.25 38.73 39.41 37.74 38.08 39.30 39.21 40.39 39.28 38.22
44.25 43.93 44.03 44.24 44.28 44.36 44.43 44.47 44.94 44.88 44.41 43.10 38.33 36.89 44.54 45.81 45.20 42.69 34.81 34.54 35.67 33.45 39.52 38.99 39.44 34.61 42.13 38.50 38.55 42.22 35.99 34.03 33.86 38.30 40.17 38.70 39.35 38.15 40.09 41.52 42.64 42.08 42.78 42.63 43.16 42.61 42.35 41.92 39.85 37.47 37.27 38.40 38.01 36.68
45.25 44.56 44.32 44.21 44.41 44.39 44.47 44.62 44.52 44.60 43.81 43.31 44.62 46.44 46.05 42.18 39.29 33.60 31.96 33.68 33.46 33.16 38.19 36.71 37.90 39.48 41.16 45.30 41.90 39.39 37.47 35.68 33.68 38.39 38.28 35.13 33.18 35.74 37.72 39.12 40.26 41.53 41.42 40.53 41.34 40.29 40.39 39.52 38.99 37.93 36.50 34.01 32.00 31.03
45.19 44.97 44.81 44.44 44.83 45.18 44.83 45.17 45.24 45.51 46.24 47.24 42.96 38.94 37.82 34.98 30.77 29.88 29.86 32.22 32.41 33.50 34.98 35.46 35.30 39.29 42.33 43.32 37.34 35.93 33.86 34.41 35.25 33.12 28.37 28.34 32.66 33.77 34.37 35.12 34.89 35.86 36.11 35.61 35.46 34.75 34.18 33.78 33.55 32.31 30.41 30.40 30.49 29.66
44.85 45.00 45.08 45.11 44.56 44.15 44.01 44.20 44.51 44.59 42.57 36.25 33.68 29.46 31.33 29.04 29.79 30.26 30.41 32.23 34.59 32.78 33.68 35.31 34.59 35.80 35.31 34.05 32.96 33.86 32.78 33.77 31.14 27.35 25.00 28.17 30.96 32.07 32.91 33.24 32.00 30.66 30.89 30.68 30.33 30.51 29.25 28.50 28.66 29.38 29.68 29.89 29.45 28.57
44.16 44.38 44.83 44.85 44.81 44.36 43.73 42.92 42.33 41.41 36.24 31.17 31.94 26.84 27.95 30.20 29.14 29.67 30.59 32.04 32.87 32.90 33.14 34.23 34.35 34.73 32.40 32.05 31.43 32.70 29.96 25.19 25.17 23.16 26.96 28.16 32.01 31.99 31.54 31.09 30.18 29.60 29.29 29.11 28.95 28.12 28.06 28.21 28.14 28.46 29.11 29.04 28.64 27.58
43.46 43.31 43.81 44.81 44.68 44.42 44.05 43.03 41.12 39.02 35.34 29.06 25.00 22.92 25.36 26.00 24.08 25.02 25.54 26.66 30.66 30.40 32.40 33.26 32.23 30.35 27.11 26.69 24.05 21.84 23.00 17.95 20.71 22.67 25.41 29.87 30.56 30.32 30.43 30.18 29.83 29.83 29.30 29.00 28.82 28.28 27.83 27.22 26.49 25.98 26.55 26.54 26.32 25.95
43.74 42.56 44.68 43.34 43.22 42.82 43.05 40.73 38.23 33.38 30.62 27.12 24.17 25.21 23.42 23.89 22.18 24.03 26.05 26.55 30.62 32.97 29.63 28.28 22.91 22.17 28.23 22.56 18.74 21.17 17.91 20.52 22.35 23.12 24.65 28.46 29.04 29.25 29.86 29.86 29.72 29.59 29.05 28.60 28.09 27.50 27.10 27.48 27.57 26.02 23.86 24.39 24.90 24.76
42.31 44.58 44.16 43.64 43.76 42.77 40.96 38.88 32.81 29.10 24.23 24.67 22.58 23.51 23.82 23.71 22.41 24.02 26.34 29.39 32.16 29.70 27.41 23.15 25.45 18.68 17.89 17.08 17.04 19.74 21.56 23.71 24.50 23.17 22.51 25.05 26.08 26.28 26.99 26.51 27.16 27.70 27.37 27.65 27.73 27.39 26.93 25.94 24.68 24.61 24.80 24.88 24.14 23.84
43.86 44.27 43.54 43.20 42.71 40.33 35.91 35.20 33.44 23.45 23.52 24.85 24.30 25.48 24.50 23.57 25.65 26.37 28.03 28.62 28.94 29.64 26.93 23.37 18.16 15.90 16.00 18.44 18.45 20.52 22.14 24.47 22.12 21.92 22.43 22.83 23.59 24.50 24.63 24.72 24.31 23.77 23.91 24.01 23.71 22.88 23.17 23.92 24.61 24.84 25.02 24.93 23.66 24.19
43.47 42.43 41.31 41.78 41.82 36.26 33.47 33.41 35.70 27.97 24.00 25.34 26.62 23.33 22.98 22.83 24.67 25.20 25.45 27.36 25.50 23.28 18.28 16.14 15.78 17.46 18.40 19.91 21.01 20.35 21.41 24.87 24.76 20.54 18.94 20.22 22.08 21.46 21.23 22.10 21.77 22.34 21.66 21.07 20.43 21.34 21.50 20.50 21.37 21.49 21.88 21.99 21.57 20.89
40.15 39.06 38.43 38.84 36.51 35.13 32.20 32.82 31.36 30.15 29.65 28.09 29.25 26.95 24.18 25.54 22.86 21.36 21.61 25.07 21.33 18.05 15.76 18.91 19.01 19.99 21.15 21.53 22.24 21.74 19.72 19.85 19.20 20.17 18.72 17.08 19.27 20.16 19.65 19.67 19.70 19.71 18.79 18.47 17.46 16.51 16.56 16.48 17.29 18.68 18.97 18.58 18.92 19.09
36.99 35.46 35.59 35.51 33.62 32.69 31.31 32.19 32.67 32.84 31.14 29.54 28.57 26.88 22.83 20.85 20.30 19.93 21.94 17.77 15.33 17.53 19.53 19.16 19.56 20.02 18.60 18.29 19.18 20.25 20.18 19.49 19.01 17.99 17.36 17.46 15.84 15.54 15.81 17.06 17.10 15.04 14.77 14.82 14.38 13.52 13.29 13.05 15.04 15.18 15.09 15.82 16.23 15.12
34.62 33.70 31.28 31.27 28.89 30.10 26.28 32.95 28.29 27.76 24.98 26.05 28.04 22.28 20.65 19.99 20.74 23.47 15.98 16.63 16.27 19.29 21.16 19.98 19.28 19.55 18.25 19.04 18.25 17.71 18.53 17.97 16.57 16.00 15.67 15.19 15.15 15.04 14.31 13.97 14.86 13.80 12.50 12.39 13.72 12.69 11.23 10.29 11.07 12.20 12.89 12.87 13.36 13.07
32.43 25.97 23.27 23.69 27.24 22.47 26.52 24.64 27.57 25.55 25.29 24.58 22.64 19.07 18.37 19.70 21.52 17.26 12.08 14.20 16.41 18.81 18.58 18.56 20.16 18.93 18.31 16.95 15.55 15.17 16.80 17.91 16.10 15.64 16.68 15.84 13.58 12.64 13.49 12.80 12.75 12.69 12.46 12.61 12.12 11.26 10.62 10.52 9.60 11.00 9.94 10.19 9.42 9.10
24.80 21.98 25.08 21.29 25.07 22.68 21.54 21.15 21.27 22.80 20.51 21.49 19.41 18.53 17.24 21.51 14.47 12.64 11.20 14.67 15.81 16.14 16.69 17.80 17.55 17.32 15.43 15.29 15.56 14.68 15.33 16.64 14.69 12.45 13.74 15.50 14.96 14.53 12.94 12.25 10.93 10.22 11.64 11.31 10.09 10.02 9.43 9.25 9.51 8.92 8.84 7.90 5.80 6.42
17.90 20.29 21.21 21.53 21.59 21.88 21.32 18.15 18.42 18.44 19.52 17.61 16.91 16.93 19.01 15.30 10.50 9.31 12.84 15.88 15.84 15.53 15.25 16.16 16.56 15.33 14.46 15.92 14.86 14.06 13.73 16.03 15.50 11.66 11.17 12.54 12.34 11.73 10.27 9.21 9.54 8.15 9.84 9.04 8.48 7.98 7.77 7.13 6.73 5.79 6.28 6.09 4.01 4.55
17.43 18.56 21.41 22.34 22.69 21.36 19.76 20.54 20.81 18.52 15.65 15.06 15.71 12.99 13.79 7.52 7.36 11.24 15.70 16.60 15.56 14.09 14.75 15.59 17.45 16.17 14.16 13.23 13.39 13.43 13.64 13.37 12.10 10.97 11.47 10.77 10.06 9.85 9.01 6.91 5.20 6.46 8.88 7.41 7.19 6.31 5.32 5.18 5.13 4.93 4.95 5.84 5.38 4.01
20.17 20.55 14.53 15.90 17.26 18.76 14.36 14.93 14.48 13.39 14.54 15.98 15.10 6.53 6.25 6.46 8.40 13.47 15.00 14.88 14.49 14.42 13.74 13.57 13.89 14.71 14.21 13.23 13.38 13.19 12.25 10.90 10.13 10.49 10.74 10.20 9.67 8.66 6.91 7.78 6.20 4.63 6.19 5.75 6.85 6.81 6.60 5.77 4.90 4.66 3.18 2.76 2.40 3.33
17.12 18.51 18.23 8.55 13.05 12.94 11.20 12.15 12.42 12.67 13.21 14.57 10.07 7.22 6.82 9.79 11.87 14.04 14.88 15.48 15.70 14.97 12.59 10.62 9.58 11.13 10.60 10.03 9.84 10.30 11.23 11.69 7.20 2.81 2.18 5.30 6.97 6.63 7.15 7.07 7.36 6.43 6.51 6.08 5.21 5.65 6.25 5.96 4.98 3.26 2.26 2.07 2.49 3.38
16.39 18.45 15.09 10.10 8.09 9.36 10.08 11.00 10.50 11.17 11.79 12.46 12.16 10.26 9.21 10.10 11.67 14.99 15.42 15.02 14.48 12.77 10.91 10.91 10.29 12.61 9.88 11.04 8.76 7.50 7.04 6.87 6.01 5.97 5.36 4.28 4.63 5.83 5.99 5.66 5.29 5.16 4.71 4.40 3.51 4.11 3.38 3.67 3.74 4.02 1.82 1.53 1.76 -0.06
16.29 20.27 15.83 14.33 10.87 11.71 11.78 12.06 12.22 12.14 11.43 10.31 10.66 9.14 7.45 9.40 11.45 11.94 11.31 10.82 9.56 8.94 10.78 9.36 8.13 9.25 9.06 8.15 8.84 7.41 5.82 6.16 1.75 1.83 3.12 5.31 5.94 6.22 5.97 4.64 4.97 4.54 4.02 2.84 1.85 1.88 0.53 1.63 2.12 0.59 0.17 -1.52 -2.70 -2.80
14.58 13.91 13.78 10.80 10.53 12.05 13.15 14.16 13.97 12.54 11.97 11.58 8.70 8.84 7.89 9.31 6.93 9.47 10.65 11.25 10.62 10.83 4.98 7.91 9.41 9.15 6.99 6.53 4.84 5.70 -3.54 4.50 5.36 4.10 2.08 4.49 6.42 5.97 5.63 5.01 3.83 3.35 2.67 1.68 1.64 0.86 -0.40 -1.07 -0.51 -1.08 -1.42 -2.02 -3.17 -4.32
13.11 14.83 14.90 13.26 11.06 9.82 13.34 13.98 12.09 9.72 10.87 10.07 9.04 8.36 8.75 9.36 5.73 9.46 7.76 7.83 10.91 11.01 9.46 9.18 8.98 7.76 5.11 3.71 4.45 5.51 2.34 5.05 -0.07 -0.79 -0.53 -0.19 -1.24 1.24 2.37 4.58 3.32 2.04 0.40 0.50 0.79 -0.18 -1.61 -2.03 -1.68 -2.36 -2.56 -4.18 -4.52 -4.87

GFSWCAN_sfc_wetblb_045.txt.gz
Wetbulb
45.88 46.64 46.22 46.00 46.43 46.25 46.07 46.04 46.14 46.07 46.27 46.32 46.41 46.56 46.77 46.76 47.35 45.88 44.57 50.62 47.15 42.70 43.24 45.03 46.25 42.81 43.65 44.51 40.66 43.40 43.74 44.86 45.19 40.18 39.65 39.37 39.94 41.32 40.15 40.47 40.93 39.54 39.19 39.80 41.84 39.16 36.77 50.31 49.09 45.23 50.45 54.29 53.91 53.85
46.23 46.55 46.39 46.00 46.11 45.91 45.72 45.77 46.50 46.92 46.59 45.85 46.23 46.42 46.73 46.52 47.03 46.86 43.38 49.34 51.65 45.08 41.46 47.55 48.62 49.57 48.22 47.62 46.05 46.05 44.92 45.44 46.27 43.16 43.79 42.55 42.85 46.00 41.06 36.72 44.31 39.04 44.30 42.89 44.22 44.39 51.70 51.33 51.93 53.23 54.46 53.78 54.69 54.39
46.34 46.23 45.90 45.78 45.70 45.67 45.83 45.93 45.61 45.81 45.81 45.84 46.11 46.59 46.52 47.17 46.76 46.82 46.56 48.70 47.39 42.27 42.82 43.97 43.19 48.41 49.57 49.50 52.50 42.71 47.43 49.13 48.05 50.46 46.48 45.35 41.35 46.53 39.72 40.86 42.00 45.85 48.33 45.43 46.21 49.33 50.25 52.02 51.98 53.62 54.64 54.82 55.63 55.25
46.02 46.29 46.13 45.92 45.70 45.44 45.34 45.67 45.55 45.78 45.83 45.91 46.05 46.26 46.67 46.94 46.71 46.98 46.36 48.35 46.39 42.76 37.96 40.63 48.42 46.21 50.18 48.06 48.71 51.16 50.19 51.47 52.67 50.70 47.74 45.89 43.58 46.83 44.86 45.47 44.35 47.27 48.05 46.14 46.45 48.75 50.53 51.88 52.95 53.98 54.53 54.70 54.38 54.20
45.96 45.88 45.97 46.04 45.83 45.88 45.65 45.62 45.57 45.59 45.57 46.07 46.37 46.99 47.10 46.41 46.90 47.16 47.34 48.52 48.60 42.64 38.58 40.05 45.57 47.02 49.82 48.07 46.70 49.33 50.66 49.76 48.89 47.55 46.96 43.70 46.55 46.41 48.16 47.61 45.37 48.45 47.07 45.99 44.78 49.53 51.07 51.93 54.34 54.56 54.48 53.97 53.40 52.61
45.60 45.82 45.91 45.88 45.84 45.86 45.72 45.48 45.67 45.67 46.04 46.66 46.76 46.85 46.23 46.55 45.74 44.23 37.40 45.74 48.55 47.04 42.58 36.32 45.88 44.81 47.25 46.64 45.75 47.04 49.31 49.07 49.19 46.47 47.10 47.15 48.30 46.41 43.63 42.00 46.42 47.98 50.84 51.23 49.17 52.40 52.18 53.00 53.54 53.20 53.86 54.54 54.18 53.07
45.06 45.67 45.98 45.85 45.87 45.96 46.16 45.96 46.06 46.35 46.53 45.89 45.59 45.71 45.97 45.67 45.52 41.78 40.09 44.52 47.29 48.67 41.97 37.29 37.76 45.00 47.02 46.44 46.35 47.14 49.80 48.10 47.97 45.37 45.98 46.82 47.22 47.62 46.21 42.03 46.56 47.39 47.73 48.72 51.51 51.89 48.09 49.82 49.88 50.92 52.44 53.90 51.78 53.04
44.54 45.01 45.42 45.44 45.43 45.60 45.36 45.50 45.86 45.93 45.38 45.14 45.20 45.41 45.39 45.08 45.16 43.90 47.60 46.43 48.01 43.91 43.57 35.78 36.62 40.38 47.08 43.05 41.96 48.58 46.68 47.53 47.00 45.01 46.94 45.44 47.31 47.11 41.81 45.91 47.74 49.17 50.10 51.23 50.85 51.34 50.60 49.12 48.40 48.46 49.66 49.59 48.31 49.61
43.71 44.36 44.41 44.49 44.88 45.07 44.73 44.75 44.85 45.00 45.17 45.14 44.81 44.83 44.08 43.39 40.80 42.98 45.71 45.98 49.11 44.86 36.90 37.40 34.61 34.03 41.02 41.56 44.55 44.97 44.99 40.59 47.25 43.80 44.29 45.88 43.87 40.21 44.33 45.81 47.24 48.37 46.99 47.30 46.90 46.88 47.73 46.27 46.79 44.87 45.60 45.95 46.47 45.95
43.73 43.61 43.94 43.55 43.87 43.91 44.07 44.25 44.62 44.70 44.48 44.65 44.87 41.05 36.82 42.58 45.81 45.48 42.56 39.02 41.62 43.08 43.37 37.74 41.21 34.62 36.46 38.43 37.03 39.09 42.78 38.25 35.95 39.50 46.56 42.54 42.58 44.53 42.02 44.97 46.31 46.17 46.57 46.69 44.31 44.30 44.73 43.98 44.58 43.46 44.23 45.19 45.29 42.77
44.43 44.24 44.10 44.04 44.08 44.08 44.27 44.59 44.71 44.46 44.31 45.02 40.43 39.20 44.44 45.27 42.44 41.50 35.36 33.54 34.38 35.05 39.45 39.55 40.03 36.73 43.07 36.04 36.32 41.97 37.19 37.59 34.49 39.68 42.30 40.39 38.63 32.73 35.94 39.74 43.26 44.89 45.21 45.52 45.91 46.11 45.87 45.69 45.18 43.22 42.33 42.77 42.11 41.61
44.82 44.55 44.47 44.35 44.59 44.63 44.41 44.23 44.31 45.65 45.06 43.20 44.84 46.42 46.60 42.86 39.91 34.74 32.57 34.03 33.95 34.50 39.07 38.84 39.24 40.70 39.97 41.17 38.39 40.74 34.87 37.39 33.78 39.48 39.25 29.24 29.15 32.22 33.30 35.01 36.32 38.60 41.18 42.06 43.32 42.85 43.05 42.71 42.62 41.00 38.79 35.58 33.56 32.43
44.46 44.62 44.73 44.57 44.58 44.64 44.98 44.87 45.08 45.41 46.94 48.39 44.40 39.61 39.90 36.39 30.94 29.69 29.36 33.23 32.68 34.14 35.80 38.35 36.25 39.40 39.92 39.99 38.64 38.13 34.67 33.78 34.49 31.51 27.26 28.56 30.68 31.61 32.43 33.49 32.79 33.16 33.29 34.25 33.53 33.45 33.32 32.62 32.76 31.96 30.62 30.82 30.24 29.00
44.79 44.34 44.14 43.83 43.79 43.68 43.67 43.18 43.57 44.76 45.91 37.94 35.36 30.52 31.78 30.59 30.29 28.68 29.30 30.85 32.87 32.51 33.20 36.86 34.50 35.05 36.68 37.04 32.69 33.23 32.51 35.48 31.06 27.74 25.26 28.33 30.25 31.46 31.91 31.23 30.02 28.87 29.38 29.18 29.06 29.35 28.78 28.64 28.83 29.74 29.97 30.36 29.69 28.67
44.00 44.14 44.38 43.60 43.31 43.19 42.80 42.64 43.40 43.17 38.36 31.19 31.73 25.12 26.77 29.45 29.41 29.83 31.57 32.22 33.43 33.43 33.60 34.50 33.93 35.07 32.06 32.15 32.41 34.85 31.29 25.54 24.76 23.37 25.74 28.01 31.14 31.31 30.74 30.51 29.84 29.29 29.03 28.99 29.35 29.38 29.04 29.00 28.36 28.22 29.01 28.97 28.10 26.70
44.35 44.21 44.13 44.40 44.51 44.17 43.32 42.91 42.66 41.95 35.47 28.47 25.03 23.44 24.57 27.16 26.13 27.16 28.31 28.21 31.75 29.93 32.86 34.25 32.69 30.12 27.66 28.69 25.17 23.99 23.57 19.91 22.62 25.26 26.30 29.20 29.76 30.00 29.90 30.04 30.30 30.12 29.78 29.35 29.14 28.68 27.87 27.00 26.79 26.98 27.62 27.71 27.85 27.71
44.57 43.43 43.50 43.09 42.85 42.65 42.89 40.53 37.06 31.19 29.34 26.67 24.33 25.16 23.75 24.29 23.01 25.34 27.35 28.46 33.01 32.78 30.33 30.20 24.29 23.34 28.71 22.57 18.71 20.73 18.10 21.14 23.62 24.30 26.52 26.67 26.24 27.23 28.29 28.71 28.92 29.18 28.80 28.63 28.02 28.02 27.73 28.25 27.79 26.44 24.66 25.36 25.43 25.41
43.66 44.52 43.57 43.62 44.68 43.13 39.87 37.69 32.47 28.85 23.68 24.15 23.21 24.10 24.99 25.31 23.76 25.70 28.10 29.08 32.11 29.67 28.04 24.36 27.00 20.59 19.71 18.49 18.37 22.05 23.92 24.24 24.36 23.41 23.41 25.49 25.96 25.26 25.77 25.52 25.99 26.08 25.39 25.43 26.14 27.08 27.55 26.81 25.65 25.65 25.72 26.17 25.55 25.16
44.73 45.01 42.89 43.04 43.55 41.02 35.40 34.32 32.79 24.13 24.17 26.41 25.81 26.58 26.58 25.61 26.96 28.40 29.81 30.18 29.76 30.80 28.09 24.80 19.79 17.37 17.99 20.81 22.21 23.92 25.80 25.35 22.93 23.24 23.19 23.60 24.71 25.28 25.07 24.67 24.10 23.84 24.01 24.15 23.56 23.41 23.36 23.60 24.54 25.31 25.47 25.02 23.69 25.11
41.88 41.71 41.68 41.51 42.98 38.13 33.16 32.52 35.94 29.45 25.59 26.98 28.70 26.08 25.53 25.04 27.25 28.63 28.42 29.56 27.43 25.19 20.33 17.38 16.92 18.95 19.75 21.27 23.08 23.29 25.24 28.01 25.25 21.67 21.06 22.92 23.65 22.93 23.13 23.56 23.55 23.89 22.90 22.13 21.74 22.47 22.50 21.61 22.29 22.17 22.33 22.15 21.57 20.42
40.62 39.63 40.25 42.07 39.67 37.35 34.79 33.99 32.16 32.20 31.33 29.15 30.63 29.37 27.25 28.64 25.71 24.75 24.46 25.85 22.51 20.29 18.12 20.48 20.18 21.67 23.15 23.92 24.53 23.43 22.67 23.30 22.45 22.54 21.12 20.01 22.45 22.48 21.96 21.94 21.58 21.24 20.21 19.54 18.32 16.98 17.54 17.79 18.83 20.13 20.01 19.52 18.85 19.76
38.63 36.44 39.05 38.55 35.40 34.61 33.45 35.64 33.43 34.94 32.10 31.08 29.61 29.44 26.20 24.06 23.40 23.09 24.27 19.71 18.27 19.25 21.34 20.84 21.34 21.50 20.28 20.46 21.60 22.65 22.58 22.12 22.11 21.33 20.86 20.98 19.06 19.20 19.17 19.99 19.23 17.47 17.41 17.47 16.83 15.97 15.69 15.40 17.90 17.90 17.70 18.54 18.44 16.46
37.34 38.49 36.41 35.63 33.44 32.73 28.79 36.32 30.23 30.72 26.87 28.11 29.36 24.29 23.70 23.46 23.69 27.10 19.36 19.00 18.71 22.86 22.29 21.62 21.62 22.17 20.71 20.79 20.50 21.04 22.14 21.70 20.89 20.43 20.19 19.86 19.65 19.40 18.63 18.11 18.74 17.11 15.95 16.15 17.13 16.32 14.87 14.14 14.91 15.62 16.43 16.08 16.28 15.77
35.94 31.23 28.54 29.16 30.65 25.80 31.67 27.93 30.87 28.48 28.46 26.48 23.60 20.11 20.75 22.93 25.65 20.80 15.28 16.87 19.76 22.07 21.42 22.15 23.49 21.41 21.01 19.69 18.83 19.43 20.96 21.66 20.32 20.27 21.02 19.69 17.72 16.72 17.40 16.58 16.42 16.68 16.93 17.16 16.56 15.40 14.74 14.73 13.51 14.65 13.32 12.48 11.83 11.99
27.58 23.82 28.32 24.78 29.77 27.12 24.95 24.62 25.06 25.58 22.43 23.99 21.10 20.75 21.06 25.57 19.12 16.94 15.07 16.88 18.64 19.32 20.23 21.28 21.81 21.44 19.56 19.26 18.74 17.99 19.58 20.52 18.36 16.15 18.10 20.16 19.79 19.40 17.46 16.04 14.02 13.73 15.07 14.51 13.22 13.46 12.48 12.77 11.89 11.59 11.26 9.87 7.71 8.59
20.55 22.97 23.69 24.54 25.15 25.06 24.94 22.16 22.58 22.46 22.76 20.37 19.70 22.07 24.61 20.77 15.35 13.78 16.03 18.32 18.29 18.41 18.99 19.96 19.93 19.28 18.58 19.57 17.89 16.61 17.09 20.37 19.39 15.36 14.57 15.66 15.24 15.15 13.79 12.69 12.75 11.07 13.52 12.80 11.63 10.98 10.41 10.17 9.42 8.62 9.21 9.48 7.21 7.24
20.62 21.77 23.73 27.01 26.79 26.29 24.93 25.46 25.68 23.25 20.06 18.79 21.03 19.02 19.29 12.89 11.83 14.04 17.88 20.05 17.78 18.33 19.26 20.99 20.73 19.04 17.42 16.95 16.93 17.03 17.14 16.31 15.07 14.11 14.86 14.31 13.66 13.34 12.20 10.28 7.84 9.13 12.29 10.85 11.01 10.07 9.28 8.65 8.45 8.05 7.76 8.70 8.25 7.00
22.70 22.98 18.09 21.46 21.27 23.92 19.30 19.99 19.03 17.78 18.63 20.10 20.97 12.95 11.70 12.46 12.40 17.46 17.80 18.45 19.32 19.02 18.31 18.09 18.85 19.06 18.48 17.51 17.85 17.77 16.44 15.25 14.08 14.81 15.37 14.55 13.58 12.45 11.23 11.68 9.17 7.76 9.76 8.93 9.14 9.54 9.48 8.83 8.15 7.76 6.91 5.86 5.88 7.06
21.39 23.53 20.16 12.99 17.29 16.28 15.21 16.79 16.58 16.11 16.55 20.27 16.86 12.99 11.33 13.37 17.92 16.38 17.51 18.39 19.68 18.66 16.46 15.43 15.28 16.47 15.66 15.35 15.09 15.38 15.20 14.81 11.69 6.21 5.05 9.85 11.50 10.25 11.08 10.86 10.75 10.27 10.20 10.03 8.44 7.68 7.78 7.87 7.22 6.32 5.60 6.56 7.14 7.76
20.28 25.23 17.75 13.91 12.55 12.39 13.90 16.92 14.61 15.45 17.09 17.16 15.73 13.41 12.70 13.32 15.38 20.13 18.47 18.61 18.03 16.75 16.44 16.35 16.64 17.34 15.31 15.34 13.04 11.15 11.88 11.48 10.07 10.01 9.36 8.33 8.47 9.70 10.28 9.60 9.12 9.28 9.29 8.76 8.05 8.29 6.47 7.51 7.91 8.02 6.40 5.88 6.46 4.05
24.92 23.74 18.59 16.65 13.23 15.02 16.31 17.81 17.93 18.00 17.01 15.98 17.43 15.30 12.46 12.83 14.62 16.38 16.53 16.67 16.17 15.72 15.31 13.50 13.68 15.37 14.04 13.19 13.92 11.32 10.08 10.22 6.02 6.84 7.49 9.85 10.15 10.34 9.67 8.29 9.15 8.41 8.35 7.55 6.72 6.39 5.20 4.73 6.29 5.69 4.98 3.32 2.48 1.89
21.18 19.70 16.77 12.83 13.30 16.24 18.89 19.70 19.10 17.60 17.51 16.54 13.66 14.72 13.80 14.38 11.40 13.45 15.73 16.88 15.65 15.15 10.52 14.46 14.10 12.76 12.58 11.78 10.72 9.38 4.98 9.53 9.71 8.13 3.76 8.18 9.66 9.21 9.02 8.76 8.53 7.93 6.93 5.44 5.92 5.72 4.63 3.45 3.90 3.95 3.47 2.84 2.02 0.40
20.60 19.84 18.91 17.04 15.02 15.34 17.92 19.07 16.64 14.73 16.58 15.06 13.98 14.34 14.10 14.87 10.45 14.16 14.17 16.36 16.27 15.84 14.33 14.81 14.15 12.87 10.00 8.29 9.27 9.65 8.05 9.74 3.75 2.81 2.03 2.64 2.08 3.62 4.94 7.83 7.93 6.57 5.18 4.64 4.94 5.22 3.78 3.07 2.47 2.20 1.56 0.91 0.58 -0.08

GFSWCAN_sfc_wetblb_048.txt.gz
Wetbulb
45.36 45.43 46.10 46.66 46.51 46.41 46.60 46.65 46.78 46.53 46.72 46.11 46.44 46.46 46.43 46.82 47.34 45.67 43.14 47.49 44.86 41.46 43.74 44.82 44.46 41.40 42.47 43.27 38.83 43.17 42.93 44.33 39.99 38.06 38.88 37.82 37.34 39.33 37.74 40.65 39.23 37.28 36.51 36.86 39.12 36.58 34.15 50.18 48.48 43.41 48.49 52.70 53.92 53.19
45.43 46.44 46.74 46.55 46.21 45.90 46.27 46.00 46.21 46.32 46.72 46.71 46.69 46.25 46.42 46.72 47.22 46.12 40.60 47.23 48.71 44.32 42.96 47.40 47.41 48.83 47.17 46.98 44.92 44.63 43.88 43.53 44.52 40.77 41.96 42.44 41.46 41.62 39.74 34.19 44.13 36.94 40.39 39.33 42.05 42.26 49.75 50.72 49.45 52.19 53.72 54.26 54.23 54.14
46.35 46.97 46.76 46.13 45.69 45.71 45.90 45.56 46.19 46.48 46.41 46.50 46.46 46.41 46.43 46.86 47.15 46.38 44.14 46.39 46.09 42.26 42.28 43.02 42.55 48.55 50.95 50.90 52.72 44.56 46.09 47.97 46.90 47.66 45.08 45.08 40.35 43.64 40.29 39.68 41.78 44.75 47.61 42.83 42.00 45.27 48.24 50.63 51.28 52.88 53.01 52.87 54.69 55.27
46.30 46.23 46.04 45.98 45.67 45.56 45.46 45.59 46.17 46.32 46.28 46.41 46.23 46.18 46.51 46.86 46.61 46.80 43.99 46.62 45.72 43.68 37.29 38.69 46.57 46.70 50.94 50.50 49.94 50.53 49.38 49.54 50.48 50.15 45.10 44.17 41.14 46.37 41.46 43.97 41.89 44.26 46.05 45.00 44.78 46.93 48.10 48.86 49.59 51.86 53.53 54.71 54.84 54.29
45.96 45.90 45.93 45.95 45.74 45.83 45.80 45.55 45.96 45.93 46.05 46.21 46.37 46.60 47.01 47.04 47.02 47.34 47.12 47.03 49.75 42.86 36.47 38.85 45.24 47.55 49.27 48.74 47.56 48.75 48.62 47.44 47.21 43.31 43.42 41.67 43.96 45.13 46.99 46.05 43.67 46.89 45.08 42.74 43.69 48.79 48.32 49.75 51.70 53.72 52.55 51.83 53.37 53.71
46.10 46.00 45.89 45.77 45.68 45.58 45.39 45.44 45.59 45.70 45.77 46.16 46.53 46.73 46.60 46.62 47.20 44.51 37.07 45.34 48.73 47.19 40.61 35.14 44.80 44.74 47.50 47.49 45.82 45.03 46.75 47.19 47.31 44.36 44.28 46.64 48.93 46.15 43.24 40.54 45.64 47.38 48.81 49.13 48.08 52.30 51.31 52.56 51.77 53.11 52.11 52.16 53.95 54.20
45.74 45.87 45.96 45.98 45.72 45.63 45.62 45.49 45.51 45.64 45.78 46.06 46.13 46.11 46.55 46.51 45.68 42.73 40.52 44.50 47.69 48.71 40.58 36.28 37.56 43.71 46.00 46.31 45.76 45.00 47.07 45.07 45.65 44.60 43.54 44.81 46.16 46.11 42.56 38.57 44.56 46.97 47.78 47.99 48.56 49.90 48.36 49.63 49.56 50.72 50.33 51.27 52.34 53.96
45.33 45.70 45.40 45.69 45.82 45.88 45.47 45.53 45.88 45.88 45.90 45.91 45.81 46.05 46.13 46.53 46.77 43.92 46.38 46.66 48.18 43.72 41.76 35.30 36.23 39.87 46.00 41.54 40.43 46.35 44.25 45.57 45.31 44.35 45.95 44.75 46.23 45.44 39.41 43.93 46.21 47.69 48.45 48.89 48.28 49.69 50.23 50.38 49.49 49.48 49.30 49.58 49.51 49.75
44.83 44.82 45.10 45.01 45.12 44.88 45.07 45.32 45.10 45.57 45.52 45.62 45.76 45.84 44.56 43.83 41.46 42.95 46.05 46.34 50.96 44.21 36.76 36.77 33.96 33.37 41.06 42.37 43.55 44.41 45.56 38.85 45.75 42.65 42.75 45.11 42.69 37.50 36.39 39.42 43.09 45.50 45.72 45.80 47.02 47.46 47.78 47.42 47.52 47.41 45.63 46.11 45.29 45.62
44.00 44.22 44.44 44.50 44.53 44.48 44.53 44.54 44.74 45.01 45.24 45.71 44.70 40.62 36.34 42.78 45.90 46.00 43.88 40.10 40.31 41.99 41.88 37.12 40.47 35.53 39.42 35.82 38.18 38.75 42.17 37.63 35.77 41.21 44.51 39.93 38.29 35.02 33.78 35.60 37.85 39.04 43.28 45.65 43.46 43.03 43.97 44.18 45.89 46.13 44.86 45.49 45.95 44.74
44.35 44.26 44.17 44.38 44.24 44.20 44.35 44.42 44.73 45.34 45.41 44.26 40.96 37.65 43.34 45.93 44.01 40.55 34.85 34.29 35.45 33.15 38.44 39.33 40.10 36.57 39.96 34.45 33.52 39.42 37.56 34.79 34.66 38.85 38.65 37.88 31.42 30.00 33.01 33.95 36.33 37.01 40.12 41.50 43.22 44.19 44.08 44.09 44.37 44.40 42.28 40.15 38.31 35.70
45.03 44.77 44.69 44.50 44.45 44.45 44.42 44.69 44.86 45.32 44.38 43.33 43.51 44.45 43.20 38.37 36.86 33.77 32.34 32.96 32.44 32.71 39.61 38.50 39.19 39.65 38.72 40.01 33.31 35.71 34.07 34.25 32.24 41.00 35.03 26.41 28.25 31.66 31.47 31.69 31.42 33.08 35.08 34.70 35.59 35.32 35.44 35.90 35.98 34.25 32.49 31.35 30.56 30.27
44.67 44.78 44.70 44.54 44.41 44.78 44.70 44.99 44.97 44.81 47.10 46.97 43.02 38.86 38.70 36.17 31.03 29.97 26.68 30.36 32.00 31.56 33.66 38.39 36.09 38.44 38.57 38.01 31.88 32.98 31.71 31.30 34.02 30.39 25.55 25.76 28.82 30.59 30.43 30.11 29.31 30.02 30.20 30.05 29.73 30.34 29.93 29.46 29.81 29.35 28.23 28.36 27.75 26.62
44.17 44.29 44.21 44.01 43.70 43.62 43.97 44.48 44.02 45.36 45.39 38.53 35.15 29.13 31.05 27.53 27.42 27.05 27.24 29.75 32.03 32.07 30.90 33.28 34.79 33.16 32.44 32.06 31.89 32.07 31.89 32.66 29.44 24.70 20.97 25.55 28.58 29.84 30.32 29.90 28.63 27.89 28.62 28.54 28.12 27.99 27.23 26.76 26.66 27.31 27.76 27.39 26.42 25.53
44.05 44.21 43.89 43.40 43.22 43.23 43.25 43.38 43.58 42.98 36.18 29.49 30.00 23.60 24.90 28.14 28.88 28.96 30.93 31.84 32.08 33.16 31.74 33.89 33.34 34.92 32.14 31.95 31.65 33.37 29.52 21.99 22.18 19.43 22.58 26.98 28.77 29.30 28.93 29.12 28.62 28.07 27.39 27.00 27.38 26.76 26.48 26.60 26.34 26.10 26.50 26.09 25.42 24.73
44.58 44.24 43.18 43.96 43.94 43.54 42.84 42.76 41.92 40.53 34.21 27.74 24.35 23.08 25.50 26.33 25.05 26.74 27.92 29.00 32.86 31.31 32.90 34.38 32.44 29.98 26.53 27.49 24.17 22.12 22.31 17.64 19.84 23.31 25.19 26.69 26.74 27.25 27.90 28.25 28.15 28.33 27.92 27.38 27.36 26.98 26.36 25.23 24.66 24.63 25.16 25.24 25.35 25.24
44.07 42.88 43.22 42.46 42.10 41.71 42.38 40.06 36.40 29.81 27.82 26.62 24.11 26.19 25.75 25.22 24.22 26.96 28.54 28.31 31.73 31.05 30.29 29.94 24.12 24.28 28.78 22.02 18.30 21.05 17.99 20.41 22.86 24.04 25.20 24.69 24.24 25.08 25.59 25.32 25.49 26.32 26.90 27.12 26.85 26.65 26.06 26.24 25.70 24.49 23.12 24.34 24.66 24.45
42.92 43.05 43.44 43.92 44.12 43.21 39.05 36.90 31.70 28.28 22.79 24.97 23.37 24.82 26.58 26.85 25.81 28.02 29.14 30.38 32.27 29.44 28.33 23.83 25.84 18.72 17.13 16.66 16.92 21.93 21.44 22.38 22.81 21.99 23.13 24.59 24.43 24.25 24.55 24.20 24.52 24.80 24.09 23.93 23.87 24.43 25.35 25.10 24.66 24.87 25.53 25.67 25.08 24.65
43.89 43.39 42.27 42.97 43.63 40.64 34.22 33.83 33.23 23.78 24.82 26.82 26.62 27.00 26.74 26.59 26.87 28.91 30.00 29.91 28.60 29.18 27.39 23.76 18.14 16.33 16.70 20.30 21.80 23.88 23.29 22.74 21.14 21.58 22.22 23.33 24.64 24.99 24.56 23.92 22.96 22.43 23.12 23.35 22.87 21.87 21.77 22.11 22.05 22.80 23.54 22.58 20.46 22.36
41.80 41.31 41.46 41.29 43.31 38.11 32.49 31.98 36.87 29.33 25.26 26.49 28.63 25.61 25.11 24.50 26.52 25.15 24.67 27.01 26.19 22.96 18.62 16.17 16.42 18.86 19.13 21.39 24.00 24.70 26.30 25.91 23.83 21.19 21.11 22.70 23.40 22.65 22.78 22.96 23.00 22.50 20.81 19.50 19.76 20.69 20.28 19.86 20.79 20.40 19.47 19.45 19.44 18.17
40.40 40.83 41.37 42.79 40.00 38.51 35.76 34.26 31.77 31.90 30.95 28.67 30.24 28.33 26.47 27.27 23.29 22.08 23.38 24.75 21.62 19.81 17.16 19.68 19.52 21.75 23.90 24.16 24.32 24.10 23.73 24.33 23.07 22.49 20.49 19.73 22.07 21.48 20.79 21.03 21.15 20.39 18.77 18.05 16.52 15.72 16.84 17.12 17.99 19.52 18.94 17.67 16.63 17.63
38.77 38.84 40.45 40.98 35.92 35.41 34.33 36.95 33.52 35.02 31.49 30.49 29.66 29.40 26.03 24.21 23.67 22.98 23.88 20.08 17.99 19.68 21.53 21.04 21.45 21.24 21.23 21.58 22.55 23.33 23.14 22.93 22.70 22.04 21.60 21.33 19.04 19.27 19.21 20.09 18.97 17.39 17.33 17.18 16.18 14.86 15.25 14.18 17.04 17.38 16.43 17.48 17.57 15.43
37.76 39.12 37.94 37.51 32.82 32.64 29.00 36.76 30.51 31.23 27.03 27.71 28.81 24.59 24.01 23.31 24.44 27.15 18.80 19.24 20.29 23.08 22.88 22.33 22.21 22.24 20.84 21.52 22.13 22.59 23.44 22.35 20.80 20.41 20.47 19.93 19.68 19.73 18.80 18.23 18.60 17.43 16.19 15.99 16.78 15.72 14.73 13.72 14.32 14.96 15.14 14.59 14.96 14.62
37.81 32.76 30.35 30.49 31.19 26.40 32.47 28.52 31.14 28.56 28.53 25.75 23.75 20.21 21.28 23.41 26.13 20.47 14.93 17.30 20.33 22.77 23.12 24.04 23.37 21.31 20.97 20.16 19.07 19.96 21.21 22.26 20.92 21.42 21.69 19.52 16.90 16.02 15.99 14.96 14.81 15.96 16.47 16.43 15.58 14.65 14.20 13.84 12.46 13.43 12.09 10.48 10.25 10.80
27.96 24.36 29.01 26.03 31.84 27.89 25.57 25.25 25.88 25.51 22.70 24.31 21.10 20.99 21.73 25.62 19.83 17.45 15.24 17.59 19.46 20.98 22.09 22.78 22.35 21.23 18.83 18.29 18.37 18.68 20.72 20.33 17.57 15.47 17.78 19.47 19.23 19.17 16.73 14.42 13.15 13.04 14.91 13.65 12.63 12.23 11.58 12.23 11.42 11.06 10.71 8.84 6.96 8.06
20.50 23.35 24.86 25.68 26.15 26.09 25.79 22.90 23.50 23.23 23.06 20.97 20.53 22.74 25.18 21.61 16.84 14.22 16.47 19.05 18.76 19.26 20.79 21.99 20.72 18.71 17.88 18.98 16.68 16.09 16.94 20.77 18.67 13.97 13.79 14.94 14.58 14.85 13.72 12.36 11.59 9.84 12.89 12.86 11.15 10.74 9.96 9.95 9.06 8.61 8.60 8.51 5.26 6.60
21.12 21.58 24.83 29.54 28.73 27.57 25.92 26.51 26.72 23.58 20.95 19.75 21.36 20.96 20.51 14.47 12.51 14.51 18.93 20.34 18.06 19.68 21.40 22.26 21.47 19.23 17.02 16.54 17.10 16.90 16.69 16.09 15.20 14.09 15.16 14.23 13.59 13.25 11.46 8.86 6.52 7.55 11.80 10.30 10.56 9.68 8.84 8.41 8.22 8.04 7.66 8.02 7.48 6.55
23.02 24.06 19.62 22.56 21.56 25.01 20.74 20.78 19.88 18.76 18.79 21.09 21.61 14.73 13.60 14.05 13.17 17.98 17.89 19.82 19.91 20.04 19.44 19.39 19.28 19.20 17.90 17.71 18.38 17.96 17.24 16.25 14.90 16.21 15.47 14.29 13.82 12.93 12.12 11.73 10.05 9.89 10.69 9.50 8.85 8.67 8.48 7.89 7.66 7.48 6.48 5.65 6.39 7.83
22.20 23.02 19.65 14.62 17.10 16.33 16.43 17.61 16.51 16.35 17.59 21.10 17.93 13.51 11.84 15.76 18.18 17.50 18.47 19.87 20.76 19.61 17.21 15.92 15.86 17.53 16.78 16.50 15.72 15.43 14.77 13.91 12.58 9.00 8.79 10.08 10.88 9.73 11.63 11.26 11.11 10.54 10.39 10.60 10.37 9.75 7.85 7.39 6.81 5.99 5.49 6.17 7.29 8.42
21.37 25.20 17.20 14.73 13.21 11.37 14.15 17.45 15.83 19.24 18.91 17.20 15.89 14.22 13.39 14.71 18.79 20.94 19.83 20.22 19.26 17.60 17.62 17.52 17.88 17.97 16.00 16.08 13.44 11.88 12.14 11.25 9.87 9.69 8.92 8.06 8.19 9.67 10.62 10.07 9.37 9.75 9.74 9.37 8.44 8.47 9.75 7.40 9.24 9.00 7.04 7.03 6.47 4.53
25.85 23.51 18.16 16.14 12.89 15.26 16.63 19.27 20.03 19.46 19.49 18.41 19.14 14.42 11.91 13.14 15.60 18.15 17.98 18.20 17.50 17.19 16.04 14.86 15.04 15.93 14.70 13.70 13.55 12.23 10.37 9.80 7.48 7.14 7.20 9.64 9.96 10.47 10.20 8.80 9.87 9.37 8.67 8.22 7.18 6.84 6.45 4.91 5.45 5.51 5.89 4.71 3.73 3.11
23.65 19.80 15.93 12.40 13.07 17.58 20.29 21.88 20.17 18.66 18.71 16.20 14.50 15.43 15.85 15.73 12.18 13.97 17.09 18.14 16.90 16.38 11.12 16.12 14.79 13.33 13.12 12.18 11.23 8.74 5.72 9.88 10.22 8.72 8.13 7.99 9.61 8.98 8.95 8.35 9.15 9.27 7.99 6.27 5.77 6.03 5.99 4.89 3.99 4.00 3.57 3.41 2.96 1.64
21.77 21.21 19.44 17.42 16.29 17.19 19.25 20.28 18.16 16.43 17.53 15.60 14.51 16.03 15.27 15.90 11.61 13.90 16.33 17.87 17.85 17.29 15.59 15.94 14.82 13.26 10.90 10.85 11.24 9.57 6.41 9.24 4.80 5.39 4.74 3.99 1.13 2.87 3.26 6.90 7.67 6.11 4.58 4.33 4.63 4.95 4.91 4.47 3.93 2.92 1.78 1.02 1.22 1.57

GFSWCAN_sfc_wetblb_051.txt.gz
Wetbulb
45.36 45.39 45.54 45.94 46.03 46.28 46.67 46.76 46.62 46.88 46.80 46.90 46.81 46.62 46.36 46.48 46.88 45.19 42.31 43.36 39.61 34.09 40.13 42.21 44.08 39.60 39.95 39.91 34.15 37.11 37.70 37.96 36.45 31.93 30.96 29.73 28.17 35.00 34.84 36.85 33.29 35.11 33.18 30.43 33.98 31.11 29.39 45.17 45.96 40.68 43.18 47.13 48.13 48.44
45.33 45.94 46.19 46.37 46.43 46.27 46.27 46.09 46.13 46.27 46.42 46.55 46.78 46.75 46.30 46.45 46.61 46.42 41.16 43.81 44.42 37.64 41.08 46.14 46.45 46.61 45.24 45.52 41.68 40.47 37.76 38.56 38.34 34.18 35.23 34.24 29.54 33.46 33.55 28.08 40.42 34.43 38.00 34.98 36.60 34.95 44.42 45.15 46.13 49.22 49.50 49.25 49.31 48.63
46.08 46.26 46.44 46.50 46.28 45.90 45.77 46.07 46.18 46.18 46.04 46.35 46.44 46.83 46.48 46.58 46.50 46.11 42.44 43.63 42.35 37.10 39.43 42.51 42.27 47.36 49.34 47.70 49.04 40.54 40.14 42.20 42.00 42.22 38.41 38.67 31.92 35.74 30.39 32.36 36.18 39.49 42.66 37.45 38.71 42.20 43.29 44.99 47.55 49.38 50.15 48.13 49.84 50.53
46.26 46.28 46.14 46.18 45.86 45.77 45.76 45.71 45.82 45.80 46.00 46.32 46.56 46.44 46.44 46.71 46.56 46.23 42.16 44.40 42.47 40.59 33.94 37.67 46.28 44.84 48.65 47.56 46.84 47.48 46.15 46.18 45.13 43.32 39.29 37.57 33.86 41.55 32.25 37.57 35.60 38.51 41.90 40.83 39.94 43.02 44.94 46.44 47.29 48.81 50.31 50.66 49.95 50.86
46.21 45.71 45.82 45.66 45.64 45.50 45.90 46.05 45.94 46.32 46.59 46.32 46.51 46.63 46.79 46.95 46.63 45.70 44.71 45.34 46.96 41.41 34.50 35.98 42.60 44.78 47.05 47.34 45.60 46.63 45.87 43.45 41.56 38.26 34.99 33.90 38.85 39.03 38.26 38.18 34.48 40.98 39.20 37.14 35.03 45.15 44.64 45.64 48.19 50.52 49.38 49.08 50.50 49.86
46.03 45.55 45.46 45.54 45.57 45.62 45.87 45.93 45.95 45.90 46.28 46.57 46.74 46.90 46.76 46.50 46.62 43.90 38.60 43.82 44.93 47.17 39.44 30.83 41.45 42.69 45.41 46.34 43.96 43.15 43.61 42.92 42.64 40.16 39.71 40.95 43.91 41.36 33.56 31.23 41.31 43.00 44.11 44.56 43.10 45.88 47.70 48.25 49.54 50.85 49.11 49.62 50.05 48.93
45.77 45.78 45.59 45.50 45.54 45.64 45.56 45.63 45.49 45.67 45.75 46.07 46.30 46.16 46.32 46.16 45.04 40.57 37.42 43.21 46.57 47.05 39.28 32.07 33.64 41.46 44.62 43.72 41.78 41.05 42.34 41.96 41.02 39.53 39.05 40.71 41.39 42.22 30.22 29.33 40.85 43.31 44.78 45.44 46.73 46.65 43.37 44.64 43.78 46.63 46.79 47.44 48.35 49.03
45.65 45.69 45.50 45.45 45.31 45.45 45.57 45.68 45.79 46.11 46.14 46.25 46.14 45.97 46.32 46.98 46.25 42.48 45.39 46.73 46.74 41.41 38.82 29.58 28.52 33.87 42.81 35.70 34.96 41.66 38.13 40.10 39.28 38.47 40.46 36.76 39.61 37.84 32.73 35.49 37.28 38.75 42.51 43.67 43.90 45.27 44.71 45.60 45.54 44.47 44.86 44.83 44.46 44.46
44.66 45.03 45.32 45.27 45.22 45.10 45.28 45.41 45.70 45.84 45.91 46.39 46.28 45.91 44.62 43.19 39.85 41.34 46.28 46.72 47.08 41.51 32.60 30.24 27.18 26.47 38.90 36.17 37.15 37.77 39.95 32.70 39.72 32.66 36.27 38.89 32.19 29.86 31.24 32.25 34.45 36.49 37.47 39.80 42.80 43.61 43.58 43.29 43.98 43.02 42.79 42.61 41.67 40.07
44.60 44.40 44.96 44.58 44.77 44.91 45.03 45.33 45.41 45.49 45.72 45.70 44.42 38.98 34.50 40.23 45.80 45.47 42.48 38.98 39.06 38.85 38.05 30.64 34.49 31.07 36.70 33.86 35.34 35.88 33.86 29.54 27.65 31.79 41.20 33.35 28.83 32.24 31.45 33.41 34.38 34.79 37.56 38.80 37.42 35.41 37.33 37.51 40.57 37.06 36.54 36.13 34.23 32.31
44.87 44.64 44.49 44.49 44.71 44.59 44.76 45.03 45.44 45.65 45.83 43.45 38.71 36.63 41.87 45.55 41.89 37.87 30.91 30.56 32.06 28.55 33.99 33.40 32.07 31.13 36.37 31.83 32.38 34.27 32.61 32.44 31.06 31.98 33.28 31.15 23.86 27.87 30.65 30.68 31.42 32.94 35.16 35.13 36.64 35.75 35.73 35.20 34.57 33.20 31.51 31.05 29.32 27.83
45.04 44.93 44.80 44.71 44.73 44.85 44.80 45.01 45.34 44.11 42.48 42.09 41.75 43.94 41.76 37.82 36.27 30.33 27.75 30.85 30.02 29.67 34.02 29.35 31.36 34.99 36.01 36.28 30.29 33.35 32.08 31.84 28.90 34.79 29.83 21.91 25.47 28.66 28.93 28.85 29.10 30.51 31.43 31.58 32.34 31.40 31.38 31.09 30.17 28.70 26.99 26.08 25.48 25.10
44.58 44.45 44.31 44.07 44.18 44.49 44.96 44.65 44.39 45.14 45.70 44.47 41.66 34.40 35.71 32.46 27.61 24.64 25.19 28.55 29.26 30.00 31.30 33.37 32.78 30.06 35.43 34.86 30.03 31.80 30.18 30.59 32.75 27.08 19.94 21.66 26.24 27.39 27.78 28.22 28.06 29.04 28.52 27.84 27.36 27.72 27.29 26.94 27.25 26.56 25.23 25.24 24.89 24.08
43.97 43.99 43.53 43.69 43.51 43.50 43.85 43.74 44.07 43.66 41.24 34.36 31.15 22.48 25.52 23.05 24.13 23.33 24.23 26.13 29.67 30.76 30.08 31.06 32.25 32.41 31.90 28.82 30.98 30.14 30.42 29.73 23.32 18.92 15.70 22.17 25.11 26.38 27.84 27.80 26.63 25.82 26.18 25.94 25.62 25.46 24.81 24.06 23.60 24.12 24.13 24.27 23.44 22.59
44.34 44.08 43.90 43.70 43.77 43.40 43.22 42.95 42.32 37.34 31.50 24.73 24.43 19.19 19.04 26.29 25.91 26.79 28.32 29.25 30.74 31.69 29.99 31.72 31.89 32.91 30.36 29.53 28.82 29.65 24.57 17.51 18.54 15.05 19.79 22.64 24.63 26.06 25.85 26.40 25.85 25.29 24.89 24.30 24.42 23.67 23.59 23.90 23.55 23.55 24.45 24.69 24.40 23.92
44.20 44.08 42.12 41.86 42.66 42.96 42.98 41.32 37.81 36.68 30.40 23.15 20.98 16.79 20.12 18.24 15.26 20.97 25.31 26.22 30.50 29.54 31.30 32.55 30.92 27.29 24.38 23.58 19.93 17.74 17.00 13.69 15.84 19.29 21.81 23.53 22.92 22.88 23.09 24.91 25.51 25.45 24.83 24.47 24.28 24.10 23.71 22.75 22.36 22.51 23.44 23.47 23.18 23.02
44.21 40.78 42.99 43.04 43.79 41.42 41.58 37.70 32.06 27.20 25.41 23.25 19.00 23.32 18.83 18.09 20.52 24.43 26.07 25.34 30.78 30.02 27.25 27.03 19.47 18.60 25.04 15.13 12.99 16.59 11.92 16.17 19.45 20.31 21.68 21.84 21.84 22.23 22.91 23.01 23.01 23.10 22.73 23.73 24.81 24.97 24.68 24.49 24.10 22.87 21.35 22.58 22.82 22.25
40.57 41.80 43.11 44.11 44.75 41.36 36.57 34.69 29.18 26.60 21.85 22.69 19.59 22.29 24.35 21.99 21.25 24.78 25.91 26.50 28.97 28.49 26.68 21.89 23.88 16.25 14.54 13.50 13.58 16.73 17.75 19.01 20.22 21.12 21.64 21.63 21.40 21.22 21.87 21.37 22.27 22.17 21.44 21.27 21.05 20.80 21.11 21.41 20.82 19.89 21.50 23.25 22.08 21.41
41.29 41.17 42.44 42.80 42.28 37.76 30.99 31.70 31.17 22.87 23.62 25.15 24.44 24.76 25.16 23.72 24.23 24.46 26.26 27.29 26.37 26.74 25.20 21.49 15.88 14.59 14.71 19.01 18.63 19.23 19.78 19.48 18.60 19.64 20.28 21.27 22.73 22.70 21.76 20.94 19.77 18.85 19.68 19.93 19.76 18.86 18.79 18.95 17.99 18.66 19.30 18.64 17.46 19.50
42.41 41.84 41.59 41.99 42.73 35.18 30.37 30.38 34.22 27.21 24.20 24.62 24.68 21.98 21.37 21.14 23.45 22.56 22.39 24.31 23.54 21.31 17.21 14.95 14.98 17.02 17.70 19.16 22.23 22.18 22.72 23.47 21.63 18.47 18.23 19.44 20.47 20.04 19.30 19.26 18.43 18.07 16.87 16.63 16.34 17.02 16.81 16.85 17.02 15.76 14.49 14.96 14.37 13.46
41.08 40.81 40.62 40.99 38.10 36.38 32.84 30.97 30.02 29.59 28.87 26.84 27.25 25.58 22.70 22.12 18.89 18.02 18.49 21.80 17.78 16.61 15.09 17.59 17.64 19.70 21.85 22.09 22.43 21.45 20.76 21.25 20.02 19.44 18.12 17.21 19.45 19.04 17.92 17.78 17.52 16.20 14.21 13.06 11.42 10.87 12.02 13.12 13.39 15.30 12.44 7.86 9.29 12.67
37.93 40.08 36.05 37.92 31.67 32.41 29.94 31.61 29.93 30.85 27.57 26.52 24.32 25.41 18.67 13.79 13.69 16.38 19.41 15.19 15.76 16.37 18.07 17.89 18.91 19.72 20.50 20.82 21.18 21.85 21.99 21.53 20.64 19.11 18.41 18.02 15.32 14.93 15.10 15.03 13.86 11.44 12.02 11.28 9.84 6.94 7.42 10.75 11.97 10.19 9.22 10.42 8.65 7.56
38.61 37.50 33.07 32.04 26.72 25.52 23.12 31.61 24.35 28.26 20.61 22.46 23.50 20.08 19.00 16.44 20.55 22.26 13.13 17.67 18.56 20.86 21.12 20.70 21.11 21.65 20.13 20.95 21.08 21.30 21.61 20.06 17.24 16.38 15.18 14.33 13.60 11.36 11.35 11.59 11.97 8.43 8.80 10.93 12.23 9.88 7.15 9.09 7.08 3.07 3.01 4.45 2.67 4.18
36.72 29.67 25.73 25.24 25.51 18.99 24.65 21.19 26.72 25.13 22.24 19.90 17.70 14.13 15.67 17.13 20.01 13.45 12.38 16.00 18.20 22.49 21.75 21.09 20.22 17.66 17.10 16.70 15.69 17.36 18.60 17.71 15.21 15.02 15.83 13.39 10.89 10.19 10.63 9.91 9.58 10.75 12.18 12.70 9.64 4.95 5.06 -1.60 2.79 3.05 -4.37 -5.84 -6.76 -8.14
21.27 19.65 22.85 18.87 25.49 19.09 16.13 16.51 17.69 18.69 14.27 16.79 12.50 14.63 15.37 20.35 12.11 11.75 11.51 15.15 17.50 17.53 18.59 20.75 18.72 17.07 12.74 10.53 13.04 14.68 15.95 15.41 11.71 9.61 10.68 13.40 13.85 12.16 10.01 9.23 8.07 8.94 9.23 2.71 2.78 -5.06 -5.05 -6.24 -5.40 -4.35 -5.21 -10.63 -4.81 -7.61
14.42 18.55 19.73 20.80 20.09 17.76 19.16 13.36 13.02 12.87 13.12 11.46 15.13 20.03 17.95 10.31 5.41 8.59 14.62 14.22 12.37 13.81 17.13 15.73 11.61 12.28 13.22 13.97 11.44 10.73 12.32 15.93 12.89 7.86 9.80 10.60 9.32 2.77 1.89 4.01 1.85 1.80 5.56 0.14 -3.95 -0.59 -4.59 -4.11 -7.17 -6.17 -7.07 -0.88 -5.86 -9.82
12.70 18.13 24.01 27.00 25.03 23.60 18.89 19.77 20.53 14.76 11.36 15.36 15.37 13.41 7.83 0.64 2.22 11.60 16.49 15.03 11.46 15.41 17.99 18.09 16.13 13.84 12.64 12.36 12.87 12.04 11.23 11.47 9.60 10.45 10.42 10.43 9.83 8.07 2.55 -4.52 -5.76 -0.23 4.35 -2.09 -5.25 -5.40 -4.13 -5.22 -6.86 -5.23 -7.31 -10.19 -9.14 -9.72
21.61 20.76 14.83 17.24 14.72 18.58 12.14 11.88 11.13 10.28 9.71 16.00 14.09 3.21 1.60 3.25 5.97 14.44 12.95 14.19 13.97 15.68 14.96 14.47 14.76 14.57 13.94 13.97 14.37 12.73 10.15 7.98 5.54 9.42 9.66 8.46 5.53 1.96 3.43 2.31 2.16 7.33 2.51 -1.34 -5.87 -7.56 -7.87 -9.57 -9.39 -8.66 -10.69 -10.48 -7.96 -7.92
17.07 17.98 15.66 8.62 10.68 11.55 12.33 10.55 9.06 12.40 15.54 15.51 5.37 3.67 5.18 14.07 11.51 12.11 12.76 13.57 15.99 14.01 7.53 5.99 5.69 5.09 6.12 7.57 6.78 4.91 3.74 2.35 -1.41 -5.28 -6.82 -1.95 -0.70 -0.95 -2.23 -2.31 -2.62 -3.02 -4.25 -2.71 5.67 3.08 -2.59 -4.91 -6.75 -6.91 -8.26 -9.38 -8.73 -3.78
17.36 18.69 11.81 8.21 6.00 6.39 11.61 12.71 14.68 10.36 12.17 9.52 11.55 12.58 12.35 12.55 14.77 14.65 15.93 17.80 15.75 11.62 9.97 8.32 11.76 10.54 9.62 8.10 -1.23 -2.87 -3.06 -5.94 -6.49 -5.22 -5.40 -5.22 -3.07 -4.91 -1.48 -5.48 -5.61 -4.32 -6.19 -5.24 -4.86 -4.75 4.18 -5.53 -4.19 -3.58 -3.31 -5.22 -6.57 -12.44
21.66 17.03 11.97 10.91 8.27 9.86 8.08 12.17 15.07 14.84 13.96 11.19 8.16 6.13 3.88 5.57 8.45 13.58 10.44 7.19 5.94 5.17 4.24 2.89 3.91 4.44 3.63 -0.37 0.18 -0.19 -4.49 -5.04 -7.57 -6.74 -6.50 -6.86 -4.90 1.03 -3.46 -7.24 -3.61 -5.80 -6.33 -5.76 -9.08 -9.59 -8.67 -10.14 -11.04 -11.03 -10.51 -9.85 -9.35 -8.31
17.61 12.01 7.96 5.12 9.11 13.07 16.06 17.28 11.66 9.69 8.87 3.38 2.61 3.62 6.46 6.22 2.74 5.05 7.74 11.04 11.03 6.25 5.54 9.73 6.13 0.58 -2.50 -2.87 -5.76 -7.42 -3.35 -3.40 -2.33 -5.77 -7.03 -8.30 -6.85 -10.29 -9.39 -7.95 -6.68 -0.40 -4.75 -9.79 -9.58 -8.84 -8.84 -7.21 -9.57 -10.48 -11.56 -10.66 -12.57 -13.47
15.42 14.54 11.87 9.04 8.09 9.02 13.72 12.68 10.14 10.42 9.39 5.43 3.06 5.70 5.13 5.27 0.91 4.32 5.97 8.67 12.98 10.30 8.98 6.21 1.58 -2.39 -3.36 -0.84 -2.24 -5.75 -2.01 -7.23 -5.76 2.76 -1.59 -3.22 -6.85 -6.67 -12.11 -11.56 -10.66 -12.49 -12.32 -12.66 -12.84 -11.21 -7.03 -6.12 -7.76 -7.40 -8.50 -11.56 -12.29 -12.83

GFSWCAN_sfc_wetblb_054.txt.gz
Wetbulb
45.31 45.40 45.12 45.38 45.62 45.88 45.83 46.15 46.20 46.12 46.33 46.47 46.52 46.36 46.18 46.65 46.81 44.30 42.95 44.81 39.31 33.39 35.82 39.91 42.30 37.03 37.49 36.75 31.87 34.71 34.52 34.82 32.91 28.78 27.48 26.77 24.09 32.00 30.90 34.75 32.06 31.90 32.75 31.82 32.71 30.96 27.64 44.04 45.24 38.87 41.60 44.31 45.76 47.54
45.34 45.37 45.70 46.00 45.95 46.17 46.56 46.59 46.65 46.47 46.47 46.59 46.57 46.59 46.31 46.46 46.60 46.30 40.27 44.24 45.15 39.09 37.01 42.14 43.60 46.51 43.39 42.72 39.41 36.86 35.80 36.61 36.90 31.77 30.86 30.33 26.48 25.67 29.91 26.79 37.11 31.35 35.00 33.89 35.54 35.08 42.91 44.68 45.19 47.35 47.57 46.04 46.19 46.26
45.73 46.11 46.32 46.15 45.94 45.99 46.10 46.24 46.12 45.80 46.01 46.29 46.47 46.79 46.62 46.66 46.81 45.64 41.40 42.17 41.74 36.79 36.87 37.30 37.69 45.86 48.99 47.08 46.46 37.89 38.78 41.62 39.30 39.26 35.70 34.48 29.30 30.42 25.87 28.05 33.65 37.16 40.85 36.64 37.68 41.15 43.23 45.57 46.26 48.88 47.71 47.03 48.41 49.03
46.36 46.15 45.76 45.83 45.93 45.90 45.81 45.85 45.85 45.99 46.06 46.01 46.43 46.66 46.49 46.80 46.74 45.88 41.64 43.30 41.01 37.88 31.88 36.19 43.44 40.84 48.49 47.16 46.90 45.90 44.40 46.14 44.82 41.71 35.44 31.58 30.10 38.42 28.64 34.70 32.15 37.59 41.34 39.79 38.60 41.21 43.44 44.59 45.14 46.34 46.90 48.50 49.12 50.02
45.90 45.39 45.37 45.61 45.60 45.52 45.84 45.91 45.88 45.60 45.76 46.41 46.61 46.87 46.85 47.09 46.66 45.40 44.55 43.94 43.38 38.88 32.15 35.02 42.47 44.71 46.53 44.64 44.57 45.05 44.73 43.64 41.67 37.49 34.14 31.30 35.78 35.54 34.70 37.02 35.80 40.79 39.19 36.99 34.63 42.31 42.56 42.60 45.14 46.92 47.01 47.96 48.83 48.95
45.82 45.30 45.44 45.61 45.63 45.86 45.95 45.79 45.79 45.69 45.79 46.22 46.64 47.02 46.97 46.65 46.04 42.96 37.76 43.81 44.32 44.33 39.60 32.18 40.71 42.23 44.15 44.06 42.07 41.71 43.46 42.79 42.46 39.05 36.79 38.41 41.68 39.76 32.67 31.51 37.84 39.30 40.94 42.92 40.14 43.50 44.30 46.25 47.15 48.36 47.82 47.03 47.32 47.32
45.59 45.40 45.50 45.58 45.51 45.53 45.69 45.63 45.79 45.95 46.01 46.13 46.41 46.70 46.36 45.99 44.25 38.80 36.74 40.97 45.67 44.14 37.28 32.69 33.28 41.58 44.45 42.78 40.46 40.12 41.44 40.79 40.87 38.58 37.14 38.75 39.26 40.92 32.89 31.55 35.55 37.76 38.33 41.63 42.71 43.62 42.72 43.23 41.93 44.09 44.99 45.69 45.56 45.45
45.40 45.29 45.41 45.37 45.37 45.49 45.44 45.63 45.67 45.97 45.83 46.38 46.24 46.31 46.04 46.11 44.86 41.42 44.64 45.59 44.86 39.75 40.09 30.12 31.72 34.00 41.02 36.44 35.95 41.58 38.29 38.96 39.18 37.33 35.88 36.21 38.97 38.85 32.59 31.14 33.71 35.73 37.29 39.05 39.93 41.16 41.60 42.86 42.97 42.27 43.34 43.10 39.21 35.47
44.83 44.78 44.87 45.12 45.47 45.56 45.35 45.35 45.48 45.72 45.76 45.86 45.72 45.67 44.70 41.59 39.35 42.12 45.11 45.20 44.36 41.59 32.13 29.03 28.20 30.01 37.13 34.62 34.55 36.84 37.30 31.27 36.77 32.64 31.32 35.74 30.93 24.88 27.62 29.49 31.88 32.06 33.69 35.47 39.13 37.51 38.09 38.32 36.61 36.05 36.18 35.65 32.84 30.14
44.63 44.68 44.67 44.80 44.90 45.08 45.17 45.39 45.41 45.55 44.94 44.89 44.00 39.01 32.10 41.26 46.52 45.82 42.57 38.26 37.62 36.72 35.72 27.96 31.77 32.04 35.52 30.01 34.11 33.07 30.29 27.03 30.80 31.79 36.28 27.76 24.87 30.23 29.19 30.38 30.19 31.55 33.85 35.29 35.09 34.07 34.65 35.09 33.92 31.81 31.08 30.07 29.17 27.69
44.95 44.73 44.69 44.90 44.89 44.78 45.06 45.20 45.28 45.50 45.55 41.39 38.14 36.18 42.31 45.28 41.38 36.57 30.92 29.58 30.75 28.64 31.04 30.39 29.19 29.91 35.01 27.62 29.60 33.81 31.91 32.59 29.21 30.99 29.29 24.67 20.60 25.42 28.40 27.91 29.63 31.27 32.56 32.63 34.00 33.22 32.66 32.27 31.05 29.38 27.67 26.81 26.00 25.29
45.05 44.74 44.64 44.60 44.52 44.54 44.47 44.71 45.16 42.75 40.73 40.65 41.35 42.31 38.90 37.20 33.31 27.19 26.86 27.95 27.23 29.86 32.83 27.56 30.53 33.48 33.25 35.08 29.54 33.10 31.83 31.53 28.39 33.25 24.30 15.86 22.70 26.07 26.59 26.91 27.75 28.79 28.88 28.12 28.47 27.63 28.01 27.61 27.08 26.02 25.26 24.13 23.92 23.93
44.12 44.14 43.71 43.97 44.08 44.29 44.15 44.25 44.93 44.98 44.14 43.32 38.42 34.39 32.87 28.03 19.89 18.77 22.01 24.20 25.66 29.41 29.87 31.93 32.98 33.64 33.73 33.31 30.09 31.29 29.81 29.50 31.76 22.09 16.14 19.38 23.79 25.41 25.49 26.12 25.45 26.79 26.78 25.82 25.12 25.13 24.57 24.12 24.61 24.25 22.99 23.04 23.17 22.44
44.15 44.05 43.06 43.56 43.06 42.75 42.74 42.16 43.49 40.79 37.31 29.13 25.96 17.17 17.93 16.34 20.08 19.54 18.31 18.31 25.25 29.47 28.80 30.34 31.86 32.23 31.88 26.56 30.76 28.42 26.35 26.10 17.77 9.79 13.03 19.76 22.99 24.41 25.11 25.44 24.15 22.94 23.65 23.56 23.47 23.71 23.17 22.70 22.51 23.17 23.17 23.39 22.10 20.80
42.76 42.74 42.85 42.74 43.13 43.47 41.42 41.30 40.01 35.48 29.54 23.82 22.97 14.56 16.11 21.52 19.43 21.75 25.08 22.15 27.31 30.15 29.59 31.32 31.68 31.82 28.09 26.34 24.38 25.09 17.53 13.77 14.71 11.69 15.35 19.96 21.53 23.37 22.98 23.25 23.26 22.84 22.51 22.29 22.47 22.10 21.95 22.06 21.35 21.34 22.29 22.80 22.54 22.02
44.30 42.21 41.04 43.61 41.98 42.72 41.09 37.97 34.86 33.65 27.72 21.61 20.53 14.68 17.63 15.95 17.30 19.79 23.93 22.33 27.93 28.62 30.19 30.80 29.21 25.22 21.43 20.09 16.16 13.58 13.60 10.10 13.58 17.01 20.40 21.49 20.89 21.24 21.08 22.18 23.33 23.87 23.43 23.04 23.03 23.03 22.64 21.68 21.09 20.89 21.64 21.28 20.96 21.35
42.38 39.23 43.14 44.22 42.16 40.44 40.91 33.89 30.04 26.05 22.44 19.38 16.01 16.52 14.18 12.69 15.10 19.21 22.14 23.22 28.75 28.66 22.75 23.79 16.06 17.63 22.40 16.68 13.54 15.84 11.83 15.08 17.26 18.32 20.04 20.62 20.23 20.62 21.13 21.06 21.24 21.14 20.35 20.22 20.74 21.45 21.39 22.71 22.42 20.83 18.97 20.21 20.65 20.23
39.60 41.25 43.36 43.66 43.54 39.13 34.72 31.78 27.13 24.57 19.30 20.79 16.28 19.53 18.35 15.86 16.02 16.50 23.79 25.33 27.16 26.86 24.24 19.73 22.42 15.65 14.50 13.47 11.92 14.80 16.32 17.93 19.86 19.66 19.63 19.42 19.01 18.49 18.93 18.55 19.39 19.68 19.19 19.07 19.05 18.64 18.36 18.65 18.18 18.04 20.07 19.62 18.70 18.38
40.67 41.21 42.36 43.02 40.69 33.85 28.76 28.81 28.79 21.10 21.82 21.73 21.66 21.45 21.48 20.51 22.30 23.04 24.32 25.35 24.74 25.55 23.25 19.91 14.54 12.02 12.79 16.78 15.10 16.87 17.55 17.39 16.48 17.39 18.07 19.42 20.12 19.16 18.60 18.30 17.71 16.79 16.92 17.73 17.77 16.39 15.79 15.98 15.42 16.08 16.08 16.50 15.43 15.73
42.48 41.66 41.31 41.75 41.14 31.61 28.06 28.35 32.35 25.65 22.37 22.26 22.59 19.62 19.49 19.32 21.06 20.88 21.38 22.58 21.75 19.90 16.13 13.71 13.21 15.08 16.00 19.72 20.34 20.00 20.84 20.92 18.49 15.69 15.71 17.28 18.69 18.17 17.14 16.84 15.80 15.83 14.88 14.27 14.13 14.47 14.03 13.24 12.38 11.93 11.73 11.83 10.47 10.50
39.39 38.55 39.97 39.10 36.26 33.64 30.43 29.89 28.35 27.10 25.69 24.57 24.26 22.49 19.38 20.40 17.46 16.83 17.09 20.89 16.67 15.50 14.22 16.53 16.60 18.82 20.78 21.18 21.60 21.41 20.73 20.34 18.37 17.38 15.81 14.39 16.89 16.82 15.85 14.99 14.41 13.06 11.29 10.03 9.53 9.85 10.50 9.69 11.20 10.88 6.92 3.90 5.09 7.37
35.35 38.94 31.74 33.90 31.20 30.23 29.00 30.61 29.34 29.23 26.79 25.47 24.65 24.78 18.76 14.54 13.68 15.63 18.90 14.19 13.82 15.03 17.33 17.17 18.86 19.20 18.93 18.72 19.74 20.31 19.78 19.07 18.12 16.29 15.33 14.85 11.84 11.48 10.97 10.12 9.88 8.72 7.79 6.00 6.00 -0.13 1.64 6.26 6.44 6.32 3.62 -1.59 3.51 2.48
36.38 34.45 29.91 28.39 24.82 23.05 21.77 28.42 23.29 27.20 17.83 19.29 20.46 16.73 13.33 8.53 14.05 20.15 10.81 16.79 17.15 20.15 19.93 19.07 19.22 20.65 19.43 19.93 19.11 19.15 19.23 17.10 13.93 12.54 11.02 10.09 9.30 5.25 8.16 8.78 7.94 3.41 6.80 8.68 8.12 5.88 2.88 2.14 0.13 -3.18 -1.85 -1.51 -3.37 -3.61
33.85 27.45 25.19 18.90 20.83 17.38 19.54 18.43 24.98 22.65 18.96 17.05 15.39 10.83 15.02 9.92 16.46 10.36 10.26 15.10 18.39 19.42 18.33 18.09 17.25 15.21 15.32 15.07 14.35 14.77 14.64 14.04 12.05 10.39 9.77 9.50 7.68 7.26 7.64 7.08 7.48 8.68 6.70 7.80 4.39 -0.51 -0.58 -8.11 -3.81 -4.49 -8.45 -7.35 -11.20 -12.10
19.77 18.30 19.22 14.83 19.18 15.52 12.29 11.55 12.46 15.56 11.20 11.75 10.31 11.08 11.49 15.14 6.42 4.06 7.15 13.51 13.98 14.30 12.01 14.79 14.66 13.35 9.29 8.74 9.49 10.90 12.71 12.25 9.41 7.94 9.67 11.07 7.58 7.28 6.24 6.28 5.35 6.99 5.99 -0.19 -6.66 -10.47 -12.11 -11.21 -12.11 -11.46 -10.90 -13.19 -8.61 -14.28
12.64 17.22 17.27 15.80 14.70 15.22 14.14 9.19 8.69 9.63 9.32 12.33 12.02 16.72 9.99 3.53 0.24 4.37 10.82 7.11 9.60 7.33 8.61 1.64 8.61 9.51 10.19 11.05 8.16 8.56 10.03 12.10 10.13 5.94 7.72 8.99 7.10 -0.64 -2.51 -4.87 -5.03 -2.33 0.29 -8.29 -5.62 -8.11 -7.75 -11.56 -13.19 -9.56 -9.92 -9.94 -11.38 -14.64
11.31 16.64 22.12 22.75 20.11 19.41 13.56 13.27 15.06 10.52 7.88 7.36 9.91 5.36 0.43 -5.95 -4.30 8.10 13.21 12.00 10.23 7.89 12.42 10.76 11.98 10.63 9.66 9.67 10.37 10.07 9.43 9.23 7.70 8.12 8.05 7.77 6.38 4.10 -2.53 -8.53 -7.93 -0.12 -3.98 -8.54 -11.21 -11.19 -11.92 -12.28 -11.19 -13.55 -15.36 -16.63 -17.36 -15.54
18.55 13.74 6.70 7.43 10.13 13.12 5.27 4.34 2.86 3.30 4.37 13.73 7.22 -3.07 -4.88 -4.31 2.52 9.14 7.81 10.06 8.89 12.92 12.59 12.14 12.37 12.12 10.53 10.11 7.35 5.15 4.96 3.08 5.79 6.17 6.92 4.89 1.88 -3.62 -4.51 -4.68 -3.97 3.85 -2.70 -8.16 -11.93 -15.36 -14.46 -15.18 -14.46 -15.54 -16.99 -15.73 -14.64 -11.19
9.19 9.85 11.11 3.61 5.77 6.74 8.43 4.21 4.91 10.89 12.80 8.32 -3.25 -2.49 4.34 10.75 4.51 9.32 10.72 11.22 9.27 10.49 6.07 6.17 1.32 0.86 1.66 2.79 -0.52 -3.60 -6.31 1.98 0.01 -5.57 -7.93 -9.92 -7.93 -2.19 -7.02 -10.11 -8.84 -11.01 -13.19 -8.11 1.46 -1.42 -2.22 -8.01 -11.74 -11.37 -8.31 -8.15 -8.93 -8.48
11.09 10.84 6.17 2.26 1.75 3.65 7.93 6.31 0.90 0.63 8.26 5.17 10.36 11.99 10.07 10.35 14.16 11.15 12.21 13.01 4.40 -0.36 -2.52 -1.62 -2.49 -0.36 -5.21 -5.41 -10.83 -6.51 -10.66 -16.63 -13.91 -7.44 -11.38 -11.01 -7.60 -4.91 -10.47 -12.64 -11.74 -12.46 -16.45 -12.64 -12.46 -10.70 -1.95 -10.85 -8.67 -13.24 -13.42 -10.67 -10.66 -13.20
14.91 8.42 7.34 6.53 5.66 6.76 3.73 6.04 9.24 7.08 1.44 -1.43 -4.67 -1.03 -0.58 4.40 6.84 10.76 8.50 3.40 -0.19 0.10 3.03 0.38 0.55 -8.29 -1.50 -5.57 -10.83 -13.91 -11.56 -10.65 -15.43 -13.91 -11.01 -11.19 -7.93 -11.19 -14.28 -15.00 -15.73 -12.10 -9.02 -13.01 -17.18 -17.72 -15.91 -13.91 -13.01 -15.91 -17.72 -17.36 -17.36 -16.63
7.70 2.41 3.75 5.01 7.26 10.14 7.85 3.62 -1.64 -3.59 -6.84 -4.32 -6.30 -10.29 -4.49 -4.32 -5.03 -1.06 6.92 1.43 4.11 1.30 -2.85 -5.39 -3.94 -6.48 -11.92 -14.28 -16.45 -15.73 -7.96 -10.84 -13.19 -13.91 -12.82 -15.36 -16.81 -18.45 -18.45 -15.91 -15.00 -16.45 -16.99 -18.08 -19.53 -19.17 -18.81 -15.73 -13.37 -12.10 -12.46 -12.10 -11.92 -16.09
10.18 10.69 4.49 5.13 4.47 2.04 3.90 5.09 1.81 2.87 -2.36 -5.94 -0.19 -0.54 -1.27 -2.61 -4.32 1.48 5.10 1.29 0.38 1.30 -2.52 -7.57 -11.01 -12.46 -8.67 -9.05 -9.42 -11.92 -9.76 -13.01 -13.01 -1.22 -5.57 -7.02 -11.37 -10.11 -18.45 -20.44 -21.16 -21.16 -18.63 -19.53 -21.16 -21.35 -16.63 -16.45 -18.26 -19.71 -20.44 -20.80 -20.80 -21.35

GFSWCAN_sfc_wetblb_060.txt.gz
Wetbulb
45.02 45.03 45.28 45.21 45.20 45.36 45.45 45.59 45.47 45.61 45.58 45.75 45.92 45.92 46.33 46.60 46.83 45.28 42.37 44.93 40.66 33.65 38.03 40.37 40.88 37.25 36.71 36.02 30.64 34.43 34.21 31.97 29.31 25.80 26.54 28.61 23.57 27.42 26.84 30.19 31.56 30.99 30.38 26.83 30.68 28.11 23.66 40.07 40.29 37.91 40.16 42.28 42.97 43.71
44.94 44.99 44.89 44.93 45.55 46.10 46.06 45.96 45.54 45.66 45.59 45.51 45.75 45.87 45.64 45.47 46.35 46.81 37.93 45.03 44.43 39.12 38.53 42.77 43.93 43.55 42.47 41.29 37.80 37.66 33.98 33.02 33.23 28.20 27.27 27.73 23.60 21.72 28.01 24.05 33.36 26.87 31.10 28.84 30.75 30.48 38.14 39.93 40.95 43.51 44.31 43.45 44.16 44.39
44.78 44.67 45.17 45.97 46.13 46.13 46.05 46.19 46.15 45.85 46.01 46.10 45.96 46.07 46.05 45.89 45.72 44.97 40.99 41.90 39.54 35.00 37.75 37.89 37.55 41.97 44.40 43.99 44.49 34.95 35.74 37.94 34.96 35.96 31.02 29.83 25.71 26.99 22.17 25.16 29.20 32.23 36.04 31.81 32.09 34.29 37.42 38.92 40.63 42.78 43.51 43.98 45.62 46.88
44.83 45.57 46.18 45.91 45.48 45.59 45.61 45.71 45.96 45.92 46.05 46.10 46.05 46.22 46.08 46.12 46.06 45.19 40.91 42.79 40.54 38.03 32.35 35.55 42.34 41.53 45.26 45.86 45.26 43.78 41.31 43.29 40.31 38.46 32.44 29.16 27.27 33.80 25.79 30.44 28.15 31.77 34.87 33.19 32.55 36.95 39.41 40.13 41.51 42.58 41.73 44.53 44.86 46.12
45.98 45.68 45.47 45.51 45.51 45.65 45.76 45.97 45.64 45.66 45.98 46.42 46.31 46.22 46.54 46.40 46.35 44.52 43.12 43.03 43.16 38.44 31.31 32.43 40.03 41.53 42.76 43.41 42.61 44.42 43.81 41.26 39.01 35.60 29.75 31.62 31.92 33.05 31.19 32.14 30.20 36.70 34.63 31.51 29.59 38.26 38.34 38.76 41.12 39.96 40.16 41.18 40.37 39.84
45.66 45.54 45.19 45.43 45.51 45.48 45.52 45.67 45.90 45.90 45.85 46.26 46.74 46.70 46.67 46.63 46.26 41.56 36.14 42.33 43.98 44.13 37.01 29.04 37.86 40.10 40.44 40.56 40.81 42.03 43.24 42.39 39.35 37.20 34.62 35.24 38.25 35.68 31.95 26.63 35.69 37.50 37.39 37.90 37.30 38.23 37.83 38.97 40.45 37.61 36.28 38.08 37.24 35.51
45.52 45.54 45.44 45.30 45.70 45.65 45.68 45.87 45.76 45.67 45.83 46.26 46.47 46.77 46.51 46.27 42.87 38.01 34.24 40.72 44.41 43.77 36.40 30.95 32.63 40.31 41.41 41.33 40.02 39.86 42.63 42.60 41.41 38.38 35.92 34.18 35.66 39.18 33.27 30.35 32.06 33.89 33.81 35.07 38.85 37.81 37.70 38.41 35.91 35.44 34.95 35.51 34.41 31.57
45.15 45.20 45.01 45.18 45.23 45.47 45.46 45.19 45.53 45.73 45.91 45.98 46.12 46.42 46.11 44.54 44.57 41.47 41.53 44.12 43.83 39.58 37.10 30.07 32.05 36.10 42.06 36.90 35.93 40.90 38.44 40.05 39.23 37.50 35.39 33.66 36.14 35.84 31.58 27.83 30.94 31.38 31.60 34.10 34.32 35.85 37.37 37.76 35.53 32.73 32.67 31.49 28.88 26.74
44.81 44.34 44.40 44.65 45.06 45.04 45.22 45.29 45.48 45.98 46.08 46.20 46.27 44.62 42.85 39.43 37.52 40.76 44.76 43.70 42.43 38.20 29.59 29.42 29.37 29.65 39.51 36.08 37.48 36.37 38.31 31.76 36.64 32.41 31.34 34.27 31.63 26.73 24.04 25.22 26.85 27.82 28.54 29.96 32.57 34.24 36.73 35.60 31.64 29.98 28.98 28.20 26.32 25.31
44.26 43.87 44.12 44.27 44.11 44.33 44.80 45.29 45.44 45.47 45.02 44.31 42.01 36.59 31.62 40.18 44.86 44.52 40.06 36.03 35.19 34.78 37.19 31.35 32.44 31.22 35.92 32.86 32.38 33.37 32.15 29.28 26.36 29.78 31.07 24.97 22.34 24.86 25.56 26.33 27.00 27.31 29.25 30.18 29.68 30.10 29.45 30.29 29.21 26.53 25.73 25.91 25.71 24.63
44.31 43.68 43.44 44.23 44.78 44.91 44.56 44.51 44.83 45.18 44.76 40.30 36.88 35.38 41.54 44.15 39.12 36.12 30.82 29.83 31.37 29.89 33.00 32.09 32.30 32.59 36.32 28.29 31.14 30.87 30.20 31.76 27.71 27.57 26.81 23.62 19.36 21.90 24.47 24.26 25.55 26.86 27.39 27.13 28.42 27.57 26.89 26.90 26.06 25.22 23.82 23.75 23.15 22.58
44.00 43.80 43.11 43.65 44.91 44.60 45.01 44.90 45.14 42.19 41.32 41.42 41.01 41.68 38.10 33.49 30.43 28.46 27.57 28.84 29.59 28.65 31.16 32.29 32.29 34.11 34.17 31.70 30.26 32.50 29.30 31.02 24.12 27.36 21.86 14.62 20.25 22.82 23.99 23.14 23.70 24.86 25.04 24.54 25.32 24.51 24.80 24.37 24.34 23.45 22.49 21.25 20.73 20.48
43.46 43.46 42.69 42.42 42.46 42.39 43.33 44.88 45.02 44.40 42.83 37.34 32.65 27.18 27.18 23.20 17.71 18.98 17.39 20.65 22.76 27.12 28.47 32.11 31.37 32.45 32.44 32.92 31.52 31.05 28.49 22.45 26.19 18.35 14.06 15.64 20.45 22.03 22.87 22.69 22.24 23.57 23.79 23.47 23.02 23.10 22.67 21.71 21.95 21.20 19.69 20.07 20.32 19.59
42.60 42.45 43.27 41.45 41.97 41.33 40.16 40.12 40.75 37.49 32.77 26.11 20.99 11.53 12.66 8.72 14.21 15.32 14.44 15.63 24.65 27.47 27.93 31.53 31.71 30.72 30.95 28.65 27.48 23.29 19.48 19.47 10.08 8.09 10.80 16.43 19.90 20.55 21.35 22.27 20.78 20.37 20.88 20.41 20.17 20.33 19.79 19.13 18.90 19.57 19.43 19.49 18.47 17.44
43.45 43.46 41.52 41.69 41.26 40.16 39.38 38.47 36.78 32.29 26.97 21.15 18.99 9.11 12.80 18.44 19.90 20.61 21.73 22.63 25.47 27.77 29.29 29.49 24.17 26.66 19.28 15.27 18.94 18.71 12.05 9.22 11.10 7.02 13.05 17.14 18.49 19.06 19.15 20.62 20.99 20.43 19.86 19.30 19.67 18.90 18.39 18.36 17.87 17.62 18.39 18.38 17.98 17.26
42.80 42.55 41.59 41.06 40.68 39.70 37.87 35.73 33.45 31.52 26.03 20.16 17.36 12.22 13.67 11.70 14.00 13.77 16.30 17.42 24.89 25.35 25.12 25.95 18.67 15.40 12.99 15.28 11.56 9.32 10.57 6.43 7.55 12.12 16.39 17.62 17.58 18.29 18.64 19.30 19.17 19.71 19.89 19.90 19.88 19.64 19.02 17.92 17.04 16.99 17.60 16.88 16.36 15.94
42.76 39.59 42.83 43.20 40.33 38.22 37.57 31.51 28.89 24.18 20.76 16.86 14.89 15.32 11.91 11.52 11.17 14.76 17.48 20.90 25.39 23.74 18.32 21.50 14.84 15.86 20.59 11.90 8.20 11.90 3.74 7.32 11.31 14.31 16.70 17.61 17.23 17.25 18.13 18.24 18.24 18.39 17.48 17.69 18.01 18.90 18.39 18.79 18.45 16.81 14.47 15.65 16.37 16.29
37.52 39.59 42.40 42.71 39.02 35.57 31.45 29.10 25.32 21.47 14.62 13.96 10.31 14.18 16.18 16.39 14.95 15.82 20.74 23.31 25.39 24.18 22.59 18.34 20.41 13.44 9.92 9.46 8.93 12.50 14.81 16.06 16.91 16.31 16.31 16.50 16.48 16.64 17.15 16.43 16.96 17.08 16.38 16.02 16.35 16.35 16.63 16.03 15.53 14.71 14.68 14.48 13.28 12.56
40.61 40.15 41.46 41.30 36.15 30.89 27.36 26.07 24.75 14.90 13.90 15.08 16.87 18.63 17.91 16.91 21.13 21.98 23.21 24.42 24.40 24.70 22.11 18.64 13.36 11.44 11.56 14.42 13.11 14.46 15.36 15.82 14.50 15.21 15.68 16.66 16.99 16.41 16.03 16.12 15.54 14.69 14.61 14.60 14.17 13.07 12.90 13.29 12.81 12.72 12.21 11.17 8.81 9.36
42.12 40.60 40.95 40.80 37.16 29.23 26.83 25.21 27.55 21.04 16.51 18.79 20.58 18.06 18.51 18.52 20.30 20.38 20.33 21.86 20.82 18.72 14.54 12.01 11.11 13.54 14.30 15.41 16.23 15.68 16.37 17.53 15.55 12.14 11.89 13.47 14.67 13.98 12.98 13.40 12.61 13.06 11.97 10.88 9.34 9.83 9.81 8.52 7.75 7.16 7.07 6.16 4.13 1.00
36.01 36.10 38.23 35.71 31.02 30.01 27.34 25.01 23.32 22.32 21.91 19.82 20.90 19.72 17.92 19.14 16.75 16.22 16.73 19.43 14.78 13.51 11.36 13.88 12.36 15.51 17.64 17.88 18.17 17.49 16.88 16.35 13.46 12.86 11.82 10.42 12.55 12.00 10.66 9.87 9.37 7.91 5.59 3.22 3.26 3.27 3.91 3.19 4.35 3.00 -1.70 -9.85 -10.57 -7.49
31.59 37.63 29.58 31.71 28.18 27.83 26.07 27.30 24.54 25.49 24.29 23.19 22.78 21.41 15.64 12.70 12.57 13.89 16.63 11.48 11.64 12.51 15.74 15.89 16.60 16.93 16.45 16.19 16.80 17.14 16.61 15.65 14.64 12.97 12.23 11.76 8.50 6.60 4.08 2.07 4.74 0.21 0.89 -3.68 -0.85 -7.31 -1.51 3.11 0.35 -1.98 -6.59 -14.02 -4.70 -4.83
34.30 32.57 27.95 27.40 23.35 23.07 24.25 29.04 23.71 25.49 17.16 17.93 18.46 13.11 7.58 3.65 9.79 17.59 8.42 13.79 14.59 17.85 17.75 16.85 17.11 17.05 15.23 15.77 15.01 15.03 15.64 13.43 10.22 8.53 7.27 6.34 5.64 -0.25 3.83 3.11 -0.88 -2.30 -1.15 1.71 2.49 -1.63 -5.32 -1.85 -3.90 -11.48 -12.39 -11.68 -15.84 -16.38
31.19 23.99 17.80 15.74 20.54 13.93 17.09 15.64 22.71 19.07 16.42 14.81 13.13 8.59 6.91 4.83 12.18 7.48 7.44 10.90 14.82 17.57 16.30 16.53 15.80 13.70 12.94 12.11 10.13 10.57 10.89 10.04 7.67 3.95 4.97 6.28 4.43 4.53 4.82 4.36 2.76 1.28 0.65 3.65 -0.75 -7.91 -8.09 -18.55 -12.93 -10.21 -19.82 -20.54 -22.72 -20.73
18.30 16.60 15.37 9.21 15.30 13.85 10.31 8.08 9.74 12.85 7.83 9.07 7.80 6.72 5.18 10.70 3.32 2.56 3.85 8.87 9.31 6.56 8.95 12.29 11.32 9.33 2.44 2.82 7.21 8.53 10.27 10.49 7.55 5.74 1.00 5.82 3.06 3.40 3.16 3.24 2.19 3.61 0.03 -9.31 -14.20 -16.37 -16.92 -21.45 -21.63 -19.82 -17.83 -21.81 -15.47 -16.92
12.77 14.38 11.15 10.85 9.36 12.18 10.27 5.14 4.48 6.06 5.52 3.88 6.07 5.93 4.11 1.99 -0.58 -0.43 7.56 1.89 7.68 1.36 -2.79 -1.04 2.63 5.37 7.61 8.41 5.81 5.92 7.72 10.10 8.43 1.84 6.06 7.61 4.18 -5.82 -9.85 -8.76 -7.13 -3.56 -2.84 -11.12 -14.02 -17.10 -15.83 -17.82 -19.09 -16.01 -18.01 -15.65 -16.92 -21.27
5.58 8.32 15.85 16.77 15.66 14.48 7.51 7.12 10.23 6.01 1.21 3.37 3.07 -4.80 -4.26 -8.79 -8.04 4.53 8.82 6.76 4.98 1.21 7.90 5.56 7.52 7.20 7.25 6.72 6.99 6.18 6.00 5.81 4.48 4.22 4.04 3.81 3.54 2.39 -4.68 -10.80 -9.49 -3.95 -8.04 -12.58 -16.19 -15.83 -15.29 -16.37 -17.10 -17.46 -18.91 -21.99 -20.36 -20.00
11.52 9.14 3.62 0.36 4.12 6.34 -3.71 -3.33 -4.05 -2.42 2.79 10.31 2.71 -8.24 -10.03 -8.31 0.32 6.10 7.59 9.14 9.95 9.38 7.46 6.24 6.97 6.59 5.04 3.48 1.12 2.15 -0.49 -1.93 0.67 -0.06 0.44 0.17 -2.33 -8.40 -11.48 -12.75 -8.40 0.85 -11.12 -17.83 -19.28 -21.27 -18.91 -19.28 -19.46 -19.46 -21.45 -19.64 -19.46 -22.90
2.09 0.33 4.94 -3.18 -0.78 0.47 2.01 -3.87 -1.52 6.55 9.20 -0.49 -7.19 -5.68 1.00 6.90 3.60 4.35 8.05 9.36 7.83 7.58 3.09 -0.27 -3.70 -8.76 -5.52 -5.35 -8.95 -11.84 -9.12 -7.67 -7.91 -11.84 -15.11 -15.11 -18.01 -8.45 -12.75 -16.01 -17.28 -19.09 -21.45 -14.74 -4.23 -9.85 -8.04 -14.20 -17.46 -19.82 -20.18 -20.54 -16.56 -19.28
2.34 0.77 -1.05 -7.60 -5.22 -2.96 -3.14 -0.66 -2.98 -1.57 5.27 3.29 7.86 9.95 6.39 6.00 9.24 7.83 4.62 3.41 4.23 0.73 -7.31 -8.40 -14.40 -13.64 -13.25 -12.38 -13.85 -10.53 -15.11 -18.01 -10.22 -4.79 -9.30 -15.11 -11.95 -14.76 -19.64 -16.92 -16.92 -19.46 -22.90 -21.63 -19.46 -14.93 -5.86 -14.92 -12.57 -18.37 -19.82 -21.63 -24.35 -24.35
5.01 -1.45 -0.67 0.44 -0.47 0.02 -0.10 -6.06 5.27 1.47 -4.88 -4.15 -8.58 -4.00 -3.88 -0.83 5.54 7.65 3.08 -7.31 -8.24 -6.79 -5.17 -10.57 -12.02 -17.28 -11.54 -16.92 -17.47 -16.01 -12.04 -15.83 -21.81 -19.46 -19.10 -21.09 -21.09 -20.00 -18.73 -20.36 -23.99 -24.53 -20.54 -20.91 -23.08 -23.81 -22.54 -23.45 -25.80 -24.71 -23.81 -22.90 -24.17 -25.44
-4.84 -8.04 -2.35 -2.29 -0.09 0.39 -0.53 -10.94 -9.13 -9.50 -14.38 -8.40 -9.30 -14.92 -10.04 -7.74 -9.30 -0.92 0.75 -2.48 -4.95 -4.23 -8.22 -13.11 -10.39 -7.67 -11.48 -17.46 -21.99 -22.18 -14.93 -15.29 -18.37 -18.91 -17.10 -18.73 -20.00 -23.45 -24.35 -22.90 -27.80 -26.89 -25.62 -25.80 -27.07 -26.53 -24.53 -24.71 -25.44 -26.16 -26.89 -26.71 -27.80 -27.98
-0.74 3.56 -1.94 0.03 -1.70 -3.68 -3.34 -2.45 -3.71 -6.22 -10.21 -9.67 -8.40 -12.39 -14.75 -10.78 -7.35 -2.23 -0.00 -5.50 -2.80 -0.54 -4.45 -8.60 -14.02 -18.73 -17.64 -17.64 -16.19 -18.55 -16.19 -19.09 -18.73 -4.05 -11.30 -10.57 -16.01 -16.92 -25.80 -27.43 -27.43 -26.35 -23.45 -25.08 -27.25 -27.07 -25.08 -24.35 -25.44 -27.07 -27.98 -29.07 -28.52 -29.79

GFSWCAN_sfc_wetblb_063.txt.gz
Wetbulb
44.79 44.79 44.95 44.93 45.10 45.21 45.11 45.42 45.47 45.56 45.44 45.42 45.22 45.62 45.80 45.73 46.14 44.41 41.67 44.62 40.33 33.44 37.28 40.29 40.74 37.85 37.66 36.52 32.24 35.55 34.78 34.48 33.59 29.96 29.49 28.96 28.36 30.71 29.92 32.36 33.53 32.04 30.92 31.13 32.70 30.14 26.35 41.14 42.44 37.62 41.82 44.94 45.10 45.98
44.49 44.68 44.94 44.97 45.14 45.26 45.48 45.59 45.94 45.94 45.61 45.65 45.56 45.30 45.09 44.76 46.33 46.13 40.46 44.95 44.24 38.48 37.16 42.89 43.07 44.51 43.09 41.78 38.65 38.18 36.40 34.34 34.81 31.82 31.86 32.47 29.41 29.35 31.12 27.48 35.37 30.34 35.65 34.24 34.81 34.76 40.20 42.83 42.41 43.54 44.41 43.51 44.54 44.84
44.59 44.44 44.61 45.01 45.14 45.79 45.94 46.22 46.28 46.27 46.03 45.47 45.82 45.84 45.82 45.35 45.87 45.47 39.80 43.45 41.94 37.18 36.52 37.89 38.29 43.38 44.96 44.77 45.86 36.78 38.03 39.85 37.22 38.59 34.65 33.54 30.17 31.82 29.17 30.25 32.60 35.69 37.96 35.68 35.42 37.66 39.79 41.70 43.63 44.05 43.42 43.62 43.84 42.03
44.17 44.38 45.26 45.83 45.81 45.90 45.87 45.59 45.70 45.85 46.01 45.99 45.73 46.05 45.82 45.65 45.37 42.57 40.77 42.15 40.67 37.67 33.07 35.56 43.08 41.51 46.31 46.07 44.79 44.38 42.94 43.39 41.58 41.03 36.02 33.16 32.36 35.72 31.99 33.69 33.02 35.59 37.33 35.80 35.51 38.67 41.29 42.01 41.68 40.84 41.45 42.05 40.77 40.27
45.26 45.83 45.74 45.74 45.67 45.60 45.66 45.57 45.43 45.62 45.86 46.06 46.03 46.28 46.26 45.92 45.45 44.02 43.39 42.35 42.99 38.79 32.28 34.75 40.21 42.02 44.35 44.58 44.00 44.71 43.68 42.21 41.66 38.09 34.08 34.30 35.55 36.77 35.05 35.38 34.39 38.71 36.82 35.63 34.60 37.13 36.72 39.00 42.13 39.39 38.91 38.37 37.48 36.21
45.58 45.32 45.24 45.38 45.49 45.61 45.49 45.49 45.53 45.67 45.57 45.98 46.42 46.63 46.42 45.58 45.17 40.85 34.68 42.15 43.90 43.53 36.41 31.92 38.81 39.33 41.58 43.97 43.05 42.69 42.91 42.30 41.43 38.70 37.05 38.54 40.01 38.67 32.96 31.55 36.27 37.83 37.16 36.16 35.50 38.02 38.56 40.16 40.15 37.59 36.26 36.64 35.39 32.50
44.73 44.97 45.33 44.98 45.08 45.63 45.27 45.61 45.51 45.71 45.68 45.96 46.42 46.23 46.28 45.58 43.17 37.99 35.86 40.47 44.38 44.86 36.09 32.30 33.11 40.01 41.12 40.97 40.71 41.46 43.32 41.75 41.11 39.09 37.41 37.73 39.20 39.88 34.66 31.26 33.31 33.12 33.46 34.09 36.44 36.24 38.20 38.59 36.18 34.94 34.23 34.52 33.27 31.55
44.44 44.77 44.77 44.85 45.45 45.26 45.63 45.81 45.63 46.03 45.71 46.10 46.15 46.07 46.47 45.23 44.01 40.89 42.77 44.53 44.39 40.20 37.81 31.51 31.86 35.91 41.53 36.34 36.26 41.76 39.03 40.13 39.67 37.80 37.25 36.97 38.80 37.98 31.09 28.57 29.92 29.79 30.64 33.53 31.95 33.79 34.38 36.45 34.70 32.20 32.29 31.50 29.79 28.36
44.00 44.44 44.62 44.68 45.19 44.90 45.29 45.65 45.85 45.92 46.06 46.26 46.22 45.58 41.33 38.64 36.75 40.66 44.68 44.71 44.06 39.41 31.92 31.29 30.48 29.23 39.92 36.97 38.02 37.64 39.23 32.66 37.62 34.06 33.58 37.03 34.11 30.59 24.01 24.95 26.15 27.01 27.17 28.38 30.58 32.24 33.15 32.75 29.75 28.63 27.84 27.52 26.48 25.63
43.81 44.34 44.53 44.32 44.11 44.67 45.08 45.39 45.57 45.80 45.54 43.97 41.87 37.62 31.81 36.82 44.95 44.24 40.34 35.33 36.24 36.58 37.54 30.26 34.68 31.99 37.12 35.00 32.89 33.62 33.91 31.95 30.72 33.26 33.11 28.49 21.55 24.32 24.93 25.73 25.42 25.97 27.58 28.30 27.12 27.67 26.68 26.94 26.88 25.26 24.55 25.14 25.07 23.52
44.13 44.86 44.72 44.64 44.58 44.55 44.36 43.96 44.10 44.17 44.03 40.57 36.88 34.98 41.23 44.55 39.97 36.54 32.10 29.45 29.82 28.77 33.17 33.73 33.55 32.40 34.41 32.15 32.04 33.64 32.22 32.29 28.00 29.48 30.82 24.52 19.61 21.83 24.89 23.72 24.38 25.52 26.02 25.96 27.41 26.64 26.23 26.11 25.21 24.00 22.71 22.98 22.35 21.41
43.07 43.98 44.08 44.23 44.57 45.15 44.93 44.65 44.55 41.66 40.97 40.90 39.22 39.00 36.33 31.83 31.31 27.78 27.89 29.53 29.42 28.56 31.86 32.09 32.60 34.72 33.73 35.44 33.53 33.10 31.06 31.50 25.13 27.70 23.39 15.63 19.88 22.21 23.11 22.32 22.64 24.21 24.39 23.76 24.32 23.47 23.67 23.21 22.99 22.16 20.99 20.02 19.81 19.36
42.44 42.44 42.18 43.15 44.83 45.24 44.95 43.89 41.89 42.23 39.23 35.60 31.14 26.12 26.57 21.16 16.12 17.81 19.49 21.62 22.23 26.04 28.89 31.96 31.80 32.85 33.68 34.47 32.78 32.13 27.76 22.12 25.35 18.08 13.97 16.26 19.87 21.31 21.82 22.07 21.74 22.72 22.55 22.09 21.73 21.85 21.38 20.54 21.09 20.03 18.57 19.40 18.92 17.58
41.93 42.08 41.11 41.21 41.18 40.27 40.81 40.13 39.28 36.26 32.33 25.84 21.78 13.10 13.13 12.19 16.22 17.23 16.90 18.57 24.91 26.96 27.28 32.45 30.22 29.29 28.79 27.91 26.29 22.74 20.91 21.30 13.51 11.13 9.96 16.43 19.17 20.36 21.34 22.19 20.49 19.79 20.25 19.63 19.44 19.44 18.62 18.05 17.80 18.67 18.87 18.51 16.99 15.59
43.36 41.55 40.47 41.21 40.52 39.47 38.59 37.99 36.62 31.65 27.19 20.83 19.48 11.23 12.62 17.73 18.98 20.09 21.44 23.39 25.31 27.23 30.09 28.75 24.02 26.00 19.82 17.94 20.41 19.50 14.43 10.10 11.85 10.20 13.96 17.55 18.82 19.09 19.28 20.18 20.09 19.69 19.36 18.92 19.35 18.24 17.62 17.25 16.49 16.17 17.46 17.62 17.18 16.32
42.78 42.05 41.33 40.20 39.40 38.38 37.30 34.98 32.31 29.85 25.43 19.58 16.44 13.92 14.79 14.60 14.89 16.03 18.37 20.50 25.23 25.25 27.87 25.62 19.84 15.60 13.88 14.89 12.10 10.37 11.54 8.28 10.22 14.24 16.95 18.38 17.56 18.01 18.13 18.66 19.06 19.48 19.61 19.24 19.06 18.66 17.94 16.86 16.30 16.35 16.77 16.48 15.96 15.30
42.26 37.94 42.24 42.69 39.30 37.28 36.46 30.36 27.62 23.01 20.05 16.78 13.95 15.01 13.02 13.86 13.91 16.30 18.58 20.62 25.30 25.32 18.81 20.33 14.83 16.03 18.91 10.81 8.23 11.78 8.31 10.64 13.05 15.81 17.57 17.87 17.16 17.43 18.00 17.94 18.16 18.13 17.92 18.16 18.69 18.45 17.72 18.10 17.64 15.99 13.86 15.23 15.73 15.24
38.80 37.98 41.71 42.24 37.67 34.86 30.83 28.54 23.99 20.22 14.47 15.36 13.79 15.70 17.09 17.66 16.58 18.13 22.10 24.21 24.92 23.57 21.30 17.56 19.95 12.57 10.62 9.13 9.47 13.36 14.90 16.13 16.88 16.18 16.37 16.46 16.49 16.71 17.57 16.46 17.00 17.49 16.72 16.58 16.70 16.87 16.81 16.45 15.25 14.53 14.66 14.24 13.18 12.33
39.10 38.98 41.34 39.39 35.69 30.86 26.89 25.04 23.88 14.44 14.93 13.57 17.16 19.29 18.90 18.34 21.60 21.82 22.27 24.00 24.18 24.54 21.95 18.35 13.02 11.32 11.56 14.47 13.82 14.91 15.98 15.92 13.92 14.20 15.11 16.37 17.02 16.58 16.42 16.53 15.76 15.02 14.79 14.98 14.59 13.33 13.09 13.37 13.15 12.96 12.54 12.22 10.61 10.92
40.28 40.08 40.22 39.17 36.17 28.89 25.39 23.97 26.78 20.01 15.95 18.45 20.33 18.14 18.59 18.38 20.32 19.94 19.58 20.99 20.58 18.47 14.22 11.51 10.84 13.45 14.42 15.78 17.20 16.76 16.85 16.87 15.38 12.60 12.19 13.44 14.74 14.13 13.66 14.08 13.43 13.60 12.71 11.73 10.95 11.37 11.26 9.74 8.88 9.09 9.02 8.85 8.25 6.21
35.05 35.60 37.06 33.85 30.25 29.61 26.51 24.68 22.03 21.51 20.93 18.59 20.45 20.08 18.40 19.49 17.02 16.55 16.11 18.87 15.41 13.39 11.39 14.14 14.17 16.10 18.21 18.70 19.16 18.89 17.85 17.65 15.46 14.87 12.77 10.56 12.48 12.75 11.55 11.00 10.69 9.71 8.33 7.59 7.59 6.47 6.77 6.57 6.76 6.33 5.68 3.19 3.44 5.85
31.74 36.11 29.13 31.72 28.07 27.46 26.10 26.89 23.99 24.98 23.56 21.53 21.34 19.81 15.40 13.00 13.08 14.10 17.06 11.91 11.56 12.85 15.34 15.43 16.14 16.26 15.88 15.74 16.31 16.79 16.28 15.32 13.97 13.12 12.71 12.19 9.69 8.62 7.27 7.15 7.50 5.12 5.13 5.25 5.84 4.57 5.30 5.63 5.21 4.51 4.10 2.69 3.56 4.03
33.56 31.67 27.23 26.77 21.37 21.28 25.12 30.00 23.89 24.87 18.12 18.96 18.99 13.89 11.33 8.74 12.40 17.28 9.93 13.08 14.07 17.55 17.25 16.64 16.36 16.51 14.73 15.05 14.82 14.89 15.28 13.64 10.83 9.55 8.48 7.62 7.11 6.14 6.85 6.06 5.87 5.09 4.88 5.05 5.93 4.96 3.68 1.86 -0.38 0.73 0.87 1.62 2.44 1.59
30.53 22.51 15.80 15.95 20.80 15.48 18.86 17.55 22.94 18.67 16.93 15.18 13.14 8.23 8.17 7.97 12.71 9.30 7.65 10.97 14.69 16.81 16.15 15.71 15.16 13.42 13.08 12.10 10.82 10.50 10.44 10.30 8.27 7.40 8.76 8.21 6.59 6.11 6.66 6.02 5.85 5.78 6.25 5.41 3.54 1.65 0.17 -1.48 -3.82 0.72 -1.60 -0.66 -1.98 -0.04
19.11 14.28 14.39 10.74 15.80 13.67 10.83 7.95 8.66 11.52 6.40 7.83 6.95 5.27 5.39 11.43 4.92 4.16 5.61 10.19 11.59 9.78 10.15 13.01 11.91 10.39 6.72 7.62 9.03 10.02 11.58 11.19 9.27 7.02 7.26 8.04 6.50 6.15 5.51 5.21 4.61 5.16 4.33 3.75 1.61 1.07 -1.47 -4.10 -2.78 -1.10 -1.10 -0.86 0.19 -1.67
10.66 12.40 10.60 9.36 7.51 10.89 8.78 3.33 2.15 4.00 3.97 2.26 2.79 4.69 4.87 2.72 0.20 0.99 8.25 7.48 10.23 8.08 5.49 5.87 7.78 8.92 9.00 10.18 8.54 8.67 8.97 11.10 9.71 6.28 7.30 8.59 6.59 3.82 2.20 2.12 2.83 3.66 2.10 0.65 0.80 1.39 0.28 -3.08 -2.57 -2.46 -1.57 -3.70 -11.00 -4.21
1.46 3.80 13.20 14.26 13.70 12.22 5.47 5.80 9.45 6.08 1.88 2.77 1.21 -2.77 -1.29 -5.94 -5.35 5.91 10.13 9.28 9.45 5.79 9.10 8.73 10.67 10.14 8.61 7.52 7.24 6.72 6.86 7.03 7.15 6.22 5.66 5.69 5.14 5.13 3.30 1.86 0.74 3.50 1.19 -0.10 -0.13 1.09 1.50 -0.51 -1.54 -2.09 -2.10 -3.45 -4.18 -3.90
8.80 7.06 2.03 -1.41 1.93 4.37 -5.18 -3.73 -3.72 -1.91 4.40 8.91 3.67 -5.59 -6.03 -5.43 1.52 8.04 8.87 9.93 8.21 7.86 6.29 5.56 6.73 7.75 6.76 4.92 4.12 3.90 2.91 2.43 3.18 3.94 4.77 4.30 1.96 -0.07 -1.27 -0.36 -0.21 0.63 -1.05 -2.84 -1.92 -4.26 -1.44 -1.23 -1.30 -2.02 -3.54 -2.63 -2.67 -4.63
0.51 -1.16 3.24 -6.65 -3.32 -1.57 0.37 -3.57 0.18 6.00 7.66 0.40 -3.51 -1.00 3.17 6.14 4.76 7.12 9.27 9.66 8.96 7.14 3.71 2.05 -1.09 -2.05 -1.38 -1.11 -3.97 -3.08 0.50 1.88 2.25 -3.73 -4.63 -2.10 -2.70 1.43 -2.93 -2.86 -2.56 -3.90 -5.17 -1.09 -3.74 -1.59 -0.49 -1.50 -2.30 -2.48 -3.38 -3.90 -4.63 -8.43
0.80 0.51 -2.38 -8.95 -6.52 -3.18 -3.18 0.15 -0.90 0.13 3.98 4.43 9.07 8.76 5.93 6.49 8.69 9.63 8.99 8.37 6.20 2.20 -2.69 -1.86 -5.57 -1.35 -1.28 -0.17 -2.10 -1.45 -5.73 -7.16 -3.05 1.12 -1.02 -1.07 -0.74 -2.86 -5.53 -2.99 -2.27 -5.17 -6.98 -3.36 -1.95 -0.78 -1.96 -3.87 -3.17 -5.77 -6.15 -6.28 -6.45 -6.29
4.43 -0.51 -1.27 -0.88 -1.73 1.76 1.04 -3.57 3.76 1.27 -3.17 -1.23 -3.64 -2.26 -0.77 1.59 6.65 6.14 1.28 -4.30 -4.10 -4.25 -1.52 -2.28 -5.10 -8.99 -4.46 -5.84 -3.11 -3.70 -2.04 -4.68 -13.87 -10.43 -8.71 -7.59 -7.34 -5.71 -5.89 -7.89 -9.70 -9.88 -7.89 -6.62 -6.63 -6.44 -6.44 -7.53 -8.43 -8.07 -7.49 -8.10 -10.42 -12.64
-0.69 -5.58 -2.38 -1.85 -0.14 1.17 -1.65 -9.35 -9.88 -6.28 -8.43 -3.20 -4.81 -10.43 -6.03 -3.37 -5.53 2.87 2.02 1.84 1.01 -1.55 -4.81 -4.81 -2.45 1.15 -4.46 -6.47 -10.25 -10.06 -12.98 -5.01 -6.44 -8.25 -7.71 -6.50 -5.04 -7.90 -9.52 -10.08 -13.51 -11.20 -8.90 -8.81 -9.34 -9.34 -10.16 -9.53 -8.85 -9.98 -10.67 -11.05 -12.45 -13.89
-0.04 2.73 -0.62 -0.31 -1.38 -3.36 -4.81 -3.74 -3.12 -4.45 -7.53 -8.43 -8.98 -12.78 -13.87 -6.89 -4.86 0.93 1.06 -2.43 2.26 3.86 -0.88 -2.34 -5.23 -8.25 -8.98 -9.53 -5.96 -7.34 -11.75 -7.18 -11.51 -3.90 -10.06 -8.98 -13.34 -9.71 -10.35 -10.97 -11.51 -10.61 -9.16 -8.61 -9.88 -10.98 -10.36 -11.36 -10.51 -11.95 -12.49 -14.96 -15.02 -15.09

GFSWCAN_sfc_wetblb_066.txt.gz
Wetbulb
44.03 44.59 44.70 44.84 44.74 44.88 45.11 45.25 45.30 45.06 45.11 45.35 45.37 45.64 45.59 45.00 45.04 43.08 40.67 43.85 39.86 34.81 37.77 40.61 41.61 38.56 39.16 38.54 33.75 37.13 35.95 36.50 36.07 32.07 31.84 32.28 32.07 34.38 32.91 35.56 34.57 32.91 31.76 31.40 32.98 29.89 28.84 44.68 43.78 38.51 43.24 46.34 47.06 47.59
44.53 44.67 44.51 44.79 44.78 44.82 45.12 45.59 45.73 45.72 45.63 45.45 45.42 45.33 45.50 45.43 45.41 45.02 39.59 44.13 44.23 38.63 37.90 43.47 44.39 45.70 44.13 43.20 40.24 39.66 36.93 37.45 38.11 35.17 36.31 36.93 33.17 36.64 34.43 30.70 39.12 33.66 38.00 36.60 37.02 36.77 44.79 46.33 44.90 47.24 46.84 45.69 46.79 46.46
44.12 44.49 44.32 44.29 44.34 44.71 45.06 45.50 45.57 45.86 46.19 46.08 46.00 45.56 45.30 45.77 45.82 45.05 41.62 42.99 41.78 37.18 37.16 39.55 37.87 44.43 47.19 47.20 48.76 38.08 39.38 41.40 40.95 43.66 40.35 38.35 33.45 38.00 32.66 34.07 36.67 39.41 41.47 38.72 37.90 41.14 42.96 44.80 46.46 46.39 46.58 45.74 45.39 45.27
44.07 44.35 44.51 44.95 45.55 45.76 46.08 46.03 46.05 46.24 46.12 46.30 46.21 45.52 45.54 44.90 45.30 45.10 41.40 43.65 41.79 37.84 33.85 36.51 44.30 40.88 46.14 47.64 47.08 46.42 43.53 44.43 43.62 43.36 39.28 38.01 35.39 40.63 37.34 37.85 37.03 40.03 40.62 37.74 38.28 41.64 43.61 44.46 45.24 44.11 44.54 45.38 44.00 43.41
45.51 45.47 45.53 45.53 45.74 45.80 45.99 45.92 45.77 45.65 46.09 46.37 46.46 46.21 45.93 45.58 44.76 44.70 43.83 44.78 43.96 40.16 34.06 35.48 41.51 43.32 44.95 45.60 45.35 45.00 43.29 41.73 40.77 38.57 37.99 36.86 41.14 39.96 40.93 40.57 37.96 42.89 39.67 38.10 37.13 39.97 38.78 40.85 42.78 41.91 41.58 41.97 41.82 39.71
45.12 45.19 45.18 45.30 45.43 45.25 45.49 45.64 45.75 45.58 45.70 45.96 46.46 46.40 46.16 45.04 44.17 40.94 34.16 41.54 45.08 45.64 37.15 32.57 41.59 40.68 43.41 45.17 43.86 43.16 43.38 41.93 40.93 39.35 39.39 41.86 42.82 41.21 36.83 34.86 40.47 41.82 41.08 40.58 39.46 41.09 40.97 42.36 40.38 38.38 37.33 37.52 39.02 38.12
44.87 44.93 45.05 45.12 45.34 45.56 45.47 45.45 45.59 45.64 45.68 46.05 46.23 46.16 45.87 44.44 42.79 39.84 38.98 41.10 44.01 45.22 37.51 34.25 35.16 40.20 42.38 43.21 43.13 42.40 43.43 41.52 40.47 39.14 38.68 39.57 40.67 41.19 37.39 34.08 38.10 35.66 36.39 37.61 37.61 38.07 39.43 37.21 36.28 35.54 35.95 35.91 34.87 33.24
44.65 44.87 44.78 44.99 45.46 45.59 45.33 45.34 45.59 45.77 45.70 46.10 46.12 45.93 45.49 44.00 43.86 42.08 45.03 44.23 44.51 41.11 40.38 33.99 33.82 36.07 42.08 37.47 36.89 42.30 39.05 41.14 40.00 38.83 38.87 39.11 40.71 39.84 33.51 30.18 30.77 31.50 34.45 34.90 34.11 34.35 34.38 36.65 34.44 32.06 32.89 33.39 31.05 28.93
44.86 44.55 44.44 45.03 45.26 45.50 45.45 45.61 45.50 45.41 45.75 45.98 46.08 45.79 42.34 40.26 38.53 42.05 44.79 45.15 46.77 41.06 34.97 35.33 32.41 31.17 41.00 38.13 38.63 39.66 40.07 34.73 38.96 35.21 37.20 37.72 36.64 30.58 25.05 26.37 26.56 27.55 28.71 29.49 32.08 34.03 32.31 31.01 29.22 28.39 28.24 27.81 27.04 25.03
44.64 44.61 44.36 44.59 44.99 45.17 45.24 45.38 45.58 45.97 45.00 43.44 41.52 35.76 31.83 38.12 45.18 44.31 39.71 35.29 36.45 37.66 39.34 36.04 37.79 33.45 39.17 37.81 36.43 36.39 38.24 35.32 32.74 34.06 36.40 34.15 24.63 26.50 26.10 26.52 26.76 27.70 28.15 29.11 28.08 30.39 29.80 29.44 28.14 26.42 25.47 25.99 25.63 25.02
44.81 44.69 44.72 44.07 44.42 44.35 44.33 44.46 44.31 44.79 44.71 42.56 37.15 35.03 41.41 44.94 41.36 37.09 32.90 33.66 34.10 32.28 36.90 36.77 36.67 34.00 38.28 34.63 33.70 37.41 34.18 35.06 30.46 32.25 32.68 29.61 24.83 24.07 26.50 25.48 26.27 26.84 27.39 27.55 28.41 27.97 27.93 27.95 27.45 25.93 24.70 23.97 23.68 22.47
44.43 44.47 44.69 44.72 44.30 44.26 44.37 44.77 44.71 44.20 42.99 41.44 38.88 38.60 36.26 34.05 35.06 32.29 30.74 31.69 31.54 30.20 33.16 33.05 34.24 37.13 35.84 38.15 35.50 34.16 33.43 34.02 28.95 33.57 31.96 25.11 21.64 24.12 24.66 24.05 24.36 25.27 25.70 25.15 25.79 25.15 25.45 25.12 25.01 23.96 22.68 21.44 20.89 20.33
43.77 44.52 44.25 42.70 42.60 42.96 43.23 43.74 42.71 42.60 42.16 39.13 35.12 28.84 30.29 27.36 24.33 26.56 24.46 27.02 28.52 30.13 31.26 33.09 32.74 35.35 33.51 35.96 34.37 35.77 30.55 27.30 31.33 27.95 22.48 20.29 22.19 23.77 23.85 24.03 23.40 24.48 24.53 24.09 23.33 23.65 23.22 22.58 22.89 21.49 19.78 20.14 20.19 18.94
42.52 41.87 41.38 41.33 41.12 40.45 39.37 38.77 39.02 38.71 36.61 29.86 27.34 19.36 22.73 20.33 21.92 23.09 25.15 26.63 28.77 30.33 30.03 34.72 32.18 33.40 34.06 31.54 30.17 27.55 25.37 28.37 23.32 20.76 16.43 21.23 21.00 22.00 22.72 23.34 22.46 21.00 21.21 21.07 20.68 20.39 19.61 19.32 19.38 19.54 19.34 19.34 18.15 16.96
41.28 40.80 40.73 40.39 40.13 38.76 38.26 37.61 36.00 34.76 29.70 24.41 24.83 17.86 19.64 22.85 24.40 24.40 26.38 28.12 29.49 30.84 33.25 33.12 31.78 32.68 28.12 26.73 27.40 25.98 22.37 18.60 20.34 19.72 20.12 21.47 21.58 21.53 21.61 22.18 20.96 20.60 20.13 19.97 20.09 19.03 18.48 18.62 18.25 17.94 18.68 18.85 18.02 17.02
43.45 42.71 39.55 39.63 39.39 38.17 37.24 36.27 34.52 33.31 28.18 23.50 21.04 19.62 22.92 24.37 22.97 24.83 25.37 27.17 29.40 30.60 33.62 33.27 28.66 25.82 21.91 23.64 21.30 17.29 21.00 17.66 17.55 20.31 21.26 21.80 20.18 20.10 20.12 20.67 21.09 21.47 21.07 20.76 20.28 19.60 18.78 17.95 17.35 17.58 17.69 17.01 16.70 16.24
42.47 40.78 41.61 37.82 37.71 36.55 36.23 33.45 30.92 24.69 22.54 20.75 19.59 22.93 22.38 22.85 21.27 23.27 24.91 26.10 29.74 31.48 27.86 28.09 23.08 19.25 24.45 19.55 15.12 19.20 17.61 18.34 19.80 20.58 21.93 21.48 20.61 19.85 20.18 20.34 20.32 20.84 20.73 20.61 20.18 19.75 19.28 19.83 19.42 18.13 16.31 17.71 17.36 16.80
40.45 42.06 41.36 41.02 38.57 35.41 32.29 30.88 26.39 23.12 18.21 20.99 19.06 20.24 22.46 23.29 23.37 23.89 25.48 27.16 30.16 28.33 26.86 22.08 25.05 18.65 17.12 13.73 16.32 17.43 18.56 20.15 21.02 20.62 20.41 20.38 20.77 20.79 21.52 20.39 20.42 20.45 19.76 19.33 19.77 19.80 19.65 19.27 18.39 17.55 17.14 17.10 16.26 15.53
40.96 42.54 40.30 39.77 38.86 34.80 28.56 26.98 27.28 18.80 19.76 22.20 22.97 23.58 23.09 23.51 24.78 25.04 25.98 27.08 27.59 28.18 25.54 22.86 17.83 15.86 15.56 18.61 17.72 18.22 19.03 19.33 18.13 18.69 19.07 19.65 20.12 19.23 19.22 19.19 18.99 18.73 18.46 18.97 18.92 17.82 17.45 17.30 17.83 18.05 17.84 17.56 16.38 16.12
40.16 39.69 39.11 39.31 39.14 32.76 25.89 25.47 30.49 23.33 20.21 21.72 23.65 21.91 21.90 21.86 23.60 24.36 23.26 23.73 23.61 21.91 17.41 15.29 15.15 17.45 18.67 20.42 21.92 21.28 21.15 21.52 20.88 18.16 17.82 18.82 19.69 19.03 18.96 19.58 19.12 18.76 17.98 17.11 16.78 16.88 17.07 15.86 15.68 15.50 15.94 15.98 15.52 13.90
39.94 39.63 38.67 39.38 36.17 33.75 29.51 26.81 24.50 24.52 23.80 21.86 23.83 23.58 21.33 22.86 20.78 20.24 19.32 21.76 18.06 16.48 15.24 17.95 18.63 19.85 22.07 22.42 23.21 22.89 22.16 23.00 21.94 22.70 19.54 17.28 18.43 18.81 17.48 17.35 16.83 17.05 16.53 16.29 15.41 13.87 14.10 13.71 13.79 14.17 14.03 12.94 13.29 13.28
38.50 36.96 38.44 37.83 32.33 31.00 28.95 30.17 26.89 27.78 25.08 23.54 22.72 22.63 19.79 18.51 18.85 18.30 21.27 17.42 15.86 16.85 19.41 19.66 19.86 20.51 20.03 19.52 20.38 21.28 20.11 19.47 18.68 17.86 16.92 17.54 16.57 15.86 15.13 15.92 15.98 14.19 13.90 14.23 14.24 13.30 12.86 13.06 13.41 13.22 12.44 11.90 12.08 12.12
36.67 36.87 34.18 32.94 28.87 28.39 25.81 31.78 25.91 25.65 21.42 21.22 22.07 17.89 17.08 18.38 19.19 22.51 16.42 16.73 17.43 20.02 20.41 19.71 19.27 19.76 18.38 18.41 18.35 18.29 18.89 18.50 17.29 16.43 15.85 15.28 14.97 15.30 14.99 14.43 15.16 13.67 12.67 12.41 14.07 13.85 12.01 7.41 8.50 11.67 11.36 12.52 12.35 10.91
32.97 26.33 24.55 26.17 27.65 22.33 27.12 23.79 25.51 22.83 22.93 20.31 17.75 14.40 15.16 18.02 20.12 17.17 12.80 15.48 17.88 20.39 19.06 18.52 19.59 17.87 17.95 17.45 16.85 16.03 16.18 17.16 15.68 15.54 16.36 16.02 14.26 13.36 14.29 13.55 13.67 13.45 13.26 12.92 12.59 12.02 11.51 10.88 6.04 11.84 10.54 10.74 10.10 10.09
25.12 18.06 22.20 19.89 23.71 21.92 20.03 19.47 18.93 19.74 17.20 17.77 15.41 15.37 15.77 19.88 14.61 12.98 11.79 14.95 17.33 18.06 18.42 19.40 19.04 18.72 16.67 15.53 16.07 15.43 16.02 17.92 16.56 13.97 14.69 15.71 14.23 13.75 12.77 12.75 12.48 12.27 13.61 13.31 11.53 10.98 9.49 9.66 9.87 10.06 9.33 9.48 7.15 5.38
14.77 15.79 17.50 18.72 19.93 20.30 19.52 16.61 17.14 17.14 17.11 14.35 13.82 14.94 18.05 15.49 11.45 10.31 14.05 16.94 17.52 18.16 17.98 18.52 17.99 16.81 16.06 17.33 15.82 15.76 15.15 17.25 17.07 14.99 13.46 14.75 14.09 14.56 13.43 11.93 11.73 10.97 12.57 13.03 12.29 11.16 9.57 8.53 8.37 4.71 7.64 3.21 -0.37 3.76
13.20 13.64 16.04 17.02 19.08 18.98 17.54 18.23 19.10 18.07 14.56 13.15 14.01 12.07 13.35 7.74 7.56 11.23 15.62 17.12 17.59 17.08 18.09 18.57 19.27 18.55 16.24 14.41 14.35 14.11 14.60 14.62 13.83 12.97 12.97 12.76 12.41 12.63 12.79 11.42 7.20 10.26 11.48 10.38 10.59 9.95 9.05 8.29 7.71 7.00 6.81 8.31 7.50 5.81
13.10 13.09 10.59 8.88 10.33 12.73 9.43 10.46 10.52 9.76 11.94 13.52 13.72 5.84 6.32 6.65 8.54 14.26 15.23 15.83 16.47 16.50 15.25 15.24 16.76 16.70 15.29 13.31 13.14 12.50 11.47 11.02 10.47 11.52 11.87 11.34 10.99 10.55 9.00 10.17 8.93 5.60 9.47 8.82 9.85 8.62 8.38 7.49 7.38 6.95 5.80 5.54 5.60 6.59
10.71 12.27 11.13 1.27 6.50 7.43 6.56 7.17 8.78 10.65 11.61 13.00 9.50 7.72 7.97 10.32 11.68 14.17 14.68 15.23 16.27 16.27 13.87 11.86 10.32 11.81 11.32 10.84 10.31 13.01 13.41 14.07 8.98 4.51 3.24 8.99 9.85 9.80 9.97 10.07 10.24 9.14 9.43 9.16 2.66 5.79 6.72 6.70 6.47 6.16 5.62 5.57 5.70 4.37
9.54 13.05 7.06 4.05 2.64 4.36 7.47 8.83 9.49 10.20 11.78 12.51 13.06 11.17 10.80 11.02 12.34 16.29 15.88 15.92 15.45 14.34 13.70 13.07 11.91 14.57 12.00 12.44 9.74 8.75 10.05 9.53 8.55 9.29 8.69 8.19 8.62 8.57 8.82 8.73 8.67 7.83 7.03 7.69 7.36 6.41 4.27 5.81 3.92 4.90 3.81 3.95 4.94 3.60
13.34 12.28 8.44 8.09 5.75 8.61 9.68 13.35 13.38 12.91 13.00 11.58 13.18 10.63 8.87 11.35 13.13 11.67 10.30 10.69 11.12 11.15 11.90 10.07 8.88 10.56 10.33 9.92 12.06 10.10 9.50 7.17 1.44 1.65 4.91 6.73 7.12 7.79 6.91 4.74 5.08 5.77 5.68 4.88 4.25 4.17 3.51 3.68 3.82 1.87 1.72 0.49 -0.90 -2.39
11.10 8.21 7.05 5.20 6.90 10.91 11.21 12.81 12.42 11.27 12.31 12.36 10.76 12.17 10.94 12.34 8.70 11.63 10.03 12.15 12.58 13.08 7.68 12.06 13.08 12.66 9.96 8.68 6.55 6.53 0.70 6.07 5.47 4.29 1.98 5.79 6.21 3.70 4.25 3.86 2.41 3.91 4.01 2.97 2.97 2.44 0.26 0.04 0.87 0.19 -0.17 -1.19 -2.19 -3.50
11.19 11.33 11.21 10.06 8.62 8.99 10.09 11.62 11.58 10.34 11.09 10.56 8.62 6.91 6.85 9.39 6.49 9.82 9.08 8.82 11.87 13.40 13.06 12.11 9.97 8.11 5.73 6.34 7.24 5.44 4.80 5.12 1.43 2.21 -1.37 -1.43 -3.38 0.30 4.26 5.11 4.07 2.82 0.96 1.86 2.11 0.94 -0.58 -1.09 -0.66 -1.46 -1.85 -3.51 -3.87 -3.88

GFSWCAN_sfc_wetblb_069.txt.gz
Wetbulb
43.52 43.80 43.88 44.35 44.80 45.02 45.28 45.37 45.42 45.37 45.49 45.49 45.72 45.75 45.91 45.56 45.15 45.02 43.09 46.36 40.32 34.86 37.50 40.43 41.31 38.25 39.35 38.50 35.26 38.95 36.49 36.78 34.99 33.41 33.10 33.47 33.06 35.33 34.44 37.36 35.07 33.59 32.37 31.78 33.40 30.83 28.71 46.27 44.62 39.58 44.08 47.60 47.87 47.84
43.82 44.05 43.96 44.13 44.55 44.91 45.16 45.33 45.44 45.47 45.42 45.34 45.46 45.72 46.00 45.61 45.21 45.20 41.08 46.13 45.57 38.03 37.76 44.91 44.21 45.62 45.15 42.48 39.85 39.30 37.35 37.31 38.79 35.91 37.43 37.88 34.77 37.48 35.68 31.35 41.17 34.06 37.91 36.29 36.86 36.60 45.66 47.84 46.25 47.60 48.47 46.89 46.27 46.42
43.70 44.05 44.32 44.62 44.74 45.06 45.03 45.15 45.28 45.31 45.70 46.04 45.57 45.70 45.67 45.60 46.05 44.50 40.65 43.02 41.18 35.54 36.65 39.79 40.17 45.39 47.70 47.77 48.48 38.47 41.18 42.58 41.59 43.86 39.32 39.16 34.75 39.31 33.49 35.41 37.56 40.74 43.24 40.33 39.57 43.26 43.71 46.16 47.38 47.04 47.61 46.50 46.58 46.26
44.08 44.49 44.67 45.51 45.86 45.32 45.51 45.57 45.82 45.68 46.02 45.95 46.44 46.14 45.60 45.70 46.30 44.84 41.09 42.98 40.71 37.84 33.11 37.97 45.84 42.93 48.04 48.00 47.25 46.48 43.55 46.08 44.73 44.46 40.11 38.48 36.50 41.88 38.00 37.98 38.98 40.23 41.74 39.56 39.86 42.57 44.97 46.13 45.64 44.92 45.82 46.19 45.42 45.41
44.11 45.01 45.35 45.41 45.50 45.82 45.77 45.94 46.07 46.03 46.35 46.49 46.51 46.53 45.79 45.60 45.81 44.89 43.58 43.79 44.62 39.96 35.39 36.73 43.87 45.41 45.65 45.17 45.01 45.21 43.58 43.12 41.05 38.97 38.86 37.57 42.05 41.03 42.33 41.49 38.47 42.59 40.57 38.10 37.94 42.50 42.90 43.43 43.99 43.76 43.09 42.21 42.86 42.38
45.32 45.21 45.14 45.21 45.34 45.37 45.43 45.64 45.81 46.00 46.00 46.53 46.74 46.30 45.44 45.21 45.78 41.86 34.56 43.20 44.82 45.70 38.23 34.45 42.45 42.06 43.83 44.74 43.87 42.31 43.10 42.56 41.03 38.40 39.59 41.76 44.26 41.76 37.99 35.96 41.92 42.65 42.58 42.60 41.08 42.38 42.82 42.81 41.19 41.35 40.01 39.71 40.07 39.45
44.81 45.28 45.11 44.96 45.22 45.55 45.53 45.46 45.45 45.68 45.79 46.12 46.37 45.58 45.58 45.26 42.59 39.32 38.64 41.76 45.37 45.04 37.53 33.47 36.11 42.05 44.61 44.42 44.14 43.37 43.69 41.54 40.28 38.26 39.87 40.85 41.51 42.68 39.00 34.66 35.52 38.05 39.94 40.25 40.37 40.19 39.83 39.30 36.61 37.78 36.66 37.67 37.98 37.45
44.97 44.72 45.01 45.31 45.54 45.74 45.46 45.53 45.59 45.75 45.72 46.11 46.26 45.70 45.21 44.42 44.21 41.48 44.40 45.47 45.79 41.31 39.81 34.12 34.86 37.25 43.67 38.74 37.95 42.69 39.30 39.80 39.14 38.58 41.13 39.94 41.92 40.69 34.38 31.84 33.26 34.31 37.30 37.87 36.46 38.27 36.56 36.92 35.14 33.05 33.69 34.30 32.98 30.57
44.77 44.60 44.74 45.24 45.56 45.60 45.51 45.42 45.66 45.83 45.74 46.12 45.73 44.92 42.66 40.86 39.34 42.05 45.04 46.02 47.06 41.65 35.83 36.19 33.83 31.31 41.12 38.57 39.70 39.34 40.33 33.49 39.89 35.19 37.36 41.05 37.23 27.33 26.85 27.85 28.62 29.74 29.62 30.70 34.39 36.93 35.77 33.84 31.85 31.11 31.07 30.65 30.22 29.82
44.60 44.30 44.58 45.01 44.94 45.13 45.23 45.38 45.51 45.74 46.12 45.85 41.20 35.87 32.03 40.63 44.73 44.17 39.93 35.32 36.89 39.67 40.57 35.68 40.53 34.40 38.81 38.42 36.44 36.66 38.13 36.24 31.22 34.99 39.09 36.31 26.44 28.16 29.28 29.61 29.21 29.23 30.23 31.45 29.56 29.43 29.83 30.16 30.80 29.52 28.73 29.25 28.56 27.22
44.77 44.34 44.49 44.61 44.94 44.99 44.92 44.73 44.92 44.43 43.60 40.64 34.66 35.25 41.73 44.75 41.58 38.18 34.01 33.83 35.43 33.79 38.14 37.89 38.44 35.64 40.92 35.75 35.44 39.48 36.35 36.97 31.41 34.33 33.96 31.44 24.22 25.47 28.34 28.27 29.09 29.24 29.93 29.73 30.10 29.31 29.00 28.57 28.31 28.19 26.24 26.06 25.30 24.56
44.57 43.81 44.00 44.37 44.84 44.75 44.28 44.27 44.62 44.75 43.66 42.10 38.79 40.01 39.84 38.25 35.25 32.54 32.58 33.83 33.91 32.50 36.23 35.16 36.41 38.82 38.95 41.30 37.02 36.97 33.96 35.63 29.49 36.64 32.90 26.91 23.97 26.18 26.55 25.95 26.50 27.29 27.37 26.79 27.22 26.43 26.44 26.06 26.89 25.55 24.34 22.88 22.32 22.01
42.77 42.71 43.22 42.32 42.92 43.43 44.29 43.93 43.72 43.14 44.21 42.48 36.40 32.50 34.56 32.07 29.09 29.36 25.30 28.67 29.01 32.56 33.59 36.09 34.19 36.83 38.57 37.98 35.76 35.15 31.43 31.06 34.74 30.98 26.12 23.54 24.78 24.58 25.05 25.48 24.86 25.66 25.98 25.12 24.21 24.42 24.07 23.06 23.44 22.58 21.12 21.70 21.86 21.03
41.64 41.66 41.78 41.01 40.13 40.06 40.71 40.14 40.78 41.78 40.68 33.69 30.27 22.73 28.24 25.80 26.35 27.07 28.90 29.92 30.37 32.90 33.47 35.99 34.05 35.40 35.21 33.39 33.30 29.66 29.07 31.81 27.81 25.55 21.64 22.97 22.68 23.40 23.93 24.38 23.43 21.81 22.04 21.69 21.30 21.21 20.71 20.25 20.12 20.65 20.60 20.74 19.78 18.18
40.98 41.19 40.48 39.31 38.94 38.76 38.39 38.04 37.95 39.70 35.18 28.62 29.12 22.26 22.89 26.04 27.28 28.25 30.19 31.61 31.96 33.08 33.49 35.54 35.36 36.22 32.00 29.93 31.10 28.90 26.03 23.42 25.00 23.31 22.90 23.46 23.43 23.31 23.29 23.18 22.08 21.34 21.29 21.24 21.64 20.50 19.79 19.76 19.10 18.89 19.76 19.78 18.98 18.33
43.33 42.89 38.55 39.86 38.48 38.08 38.05 37.16 36.26 35.43 31.71 27.26 25.29 24.30 27.13 28.58 27.60 28.29 29.52 29.71 31.25 32.26 36.23 36.42 31.33 28.83 26.02 29.11 25.97 21.57 25.71 22.94 21.48 23.17 23.14 23.13 21.74 22.01 22.06 22.56 22.59 22.84 22.79 21.98 21.90 21.31 20.65 19.41 18.94 18.80 18.88 18.42 18.02 17.77
42.97 42.48 38.34 37.87 37.82 36.79 38.35 36.57 33.83 27.55 25.52 24.36 23.69 26.57 26.85 26.26 26.11 26.91 28.78 28.87 32.57 32.70 30.82 33.49 27.19 23.00 28.94 24.84 20.43 22.88 20.65 21.22 22.12 23.31 24.50 24.01 22.29 21.88 22.12 22.27 22.51 23.01 22.60 22.14 21.74 21.59 21.20 21.54 21.55 20.54 18.53 19.39 18.83 17.84
42.89 42.52 38.58 38.67 39.92 37.47 34.33 34.09 30.13 26.68 21.60 25.74 23.19 25.20 26.17 27.52 27.72 27.72 29.57 31.48 32.73 32.97 31.64 25.56 30.50 23.80 22.05 19.31 19.96 20.20 22.03 23.68 23.78 22.87 22.60 23.01 23.32 23.70 23.71 22.65 22.67 22.81 22.06 21.92 21.96 22.19 22.33 21.87 20.94 19.69 19.26 19.12 18.58 18.04
43.19 41.82 41.71 40.39 39.77 36.33 30.69 29.85 31.55 22.66 23.35 25.92 26.91 27.24 27.60 27.34 27.73 28.44 29.47 31.11 31.81 32.65 30.47 27.78 22.15 19.95 19.02 22.31 20.77 21.36 22.40 22.73 21.02 21.44 21.73 22.48 22.72 21.94 22.10 22.21 22.24 22.27 21.98 22.25 22.19 21.12 20.43 20.32 21.03 21.68 21.60 21.65 20.03 19.67
39.96 40.39 40.21 39.94 39.14 34.36 27.99 28.42 34.45 27.03 23.52 24.61 26.75 25.17 25.04 25.12 26.98 27.26 26.99 27.41 27.32 25.33 20.48 18.69 18.84 21.73 22.12 24.48 25.31 23.81 23.86 24.50 23.98 21.71 21.27 22.02 22.91 22.70 22.82 23.00 21.94 21.86 21.06 20.73 20.64 20.57 20.51 19.60 19.01 18.58 19.18 19.29 19.48 17.64
39.75 39.59 39.01 41.63 38.11 36.07 31.99 30.04 27.67 27.60 26.82 24.37 27.03 26.38 24.37 26.20 24.35 23.91 23.76 25.90 22.43 20.46 18.67 21.06 21.17 23.11 25.03 25.22 25.79 25.92 25.49 26.20 25.46 25.41 22.84 20.55 21.95 22.11 21.29 21.58 21.61 21.71 21.35 21.24 20.48 18.21 18.15 18.06 18.12 18.37 18.45 17.03 16.90 16.52
41.00 38.55 41.16 39.64 33.78 32.42 30.58 32.30 28.88 29.54 27.18 25.51 25.82 26.78 24.05 22.69 22.44 21.57 24.63 20.58 18.44 21.12 22.99 21.99 22.26 22.59 22.06 22.01 22.70 23.26 22.99 22.63 22.40 22.39 21.42 21.54 20.68 20.59 20.39 21.21 21.19 19.10 19.07 19.13 19.08 18.16 17.64 17.46 17.47 17.42 16.98 16.06 16.23 15.67
38.15 40.17 38.08 35.91 30.78 29.33 26.17 34.25 27.55 27.70 23.86 23.53 25.89 22.17 22.52 22.59 22.73 26.85 19.31 19.50 19.74 23.42 23.19 22.39 22.06 22.46 20.81 21.33 21.50 22.10 23.03 22.89 21.87 21.12 20.82 20.59 20.24 20.39 19.99 19.58 19.94 18.80 17.87 17.04 18.48 18.53 15.97 11.17 13.55 15.73 15.52 16.42 16.37 14.46
35.55 30.15 29.44 30.27 29.34 24.62 29.34 26.10 28.45 26.00 25.59 23.58 21.40 18.38 19.75 22.14 24.95 21.78 16.71 18.19 20.53 22.54 21.41 21.26 22.41 21.19 21.93 21.54 20.74 20.13 20.86 21.89 20.79 20.55 21.40 20.73 19.00 18.05 18.86 18.31 18.00 17.48 17.03 17.28 16.86 16.47 16.00 15.09 10.08 15.57 14.16 14.31 13.87 12.64
27.94 21.15 26.60 23.46 28.57 25.58 23.46 23.26 22.59 23.62 20.42 21.45 19.16 19.57 20.21 24.70 20.22 18.34 16.08 17.29 19.69 21.14 21.24 22.55 22.95 23.26 21.21 20.44 20.01 19.08 20.38 22.45 20.77 18.25 19.30 20.16 18.99 18.78 17.66 17.30 16.64 15.93 17.40 17.56 16.29 15.58 14.02 13.48 13.74 13.63 12.68 12.70 10.77 9.56
18.73 19.50 21.74 23.60 24.54 24.11 24.27 21.02 21.60 21.55 21.06 18.64 18.17 20.56 23.88 21.87 17.17 15.65 18.09 20.00 20.32 20.96 21.87 22.08 21.97 21.41 20.94 21.83 20.17 19.66 19.03 21.16 21.80 18.67 17.35 18.54 17.95 17.66 17.03 16.01 16.16 15.27 16.07 15.53 15.49 14.51 13.78 12.64 11.55 8.75 10.49 9.16 5.84 7.13
18.07 18.18 20.40 22.73 25.10 24.59 23.39 24.46 25.19 22.65 19.39 17.19 19.57 18.59 19.47 13.92 12.94 14.99 19.67 22.27 20.69 22.03 22.86 23.72 24.30 22.98 20.73 19.12 18.81 18.71 19.06 18.27 17.64 16.83 17.39 16.76 16.37 16.35 15.94 14.58 11.20 13.57 15.41 13.66 13.76 12.61 11.81 11.33 10.83 10.13 10.20 11.38 11.48 10.27
17.55 17.58 14.37 16.15 17.34 20.43 16.55 17.66 17.06 16.23 17.78 19.12 20.30 12.72 12.23 13.12 13.31 19.03 19.57 21.07 21.55 21.78 21.57 21.81 22.35 21.89 20.32 18.73 18.42 17.62 16.46 15.84 15.46 16.34 16.51 15.98 15.77 14.86 13.30 13.34 11.97 9.05 12.09 11.21 12.01 11.61 11.23 10.43 10.11 10.13 9.92 9.21 9.21 9.93
15.80 18.26 14.82 7.60 13.00 13.34 12.28 13.64 14.59 14.76 15.99 19.57 16.44 13.50 11.76 13.64 18.48 17.41 18.76 20.24 21.86 20.97 18.58 17.22 16.88 18.16 17.44 17.03 17.98 18.85 19.09 18.10 12.75 8.00 7.51 13.01 14.29 13.40 14.17 13.80 13.84 12.69 12.90 12.42 7.94 8.57 9.75 9.86 9.22 9.00 8.65 9.13 9.46 9.31
13.89 19.49 12.30 9.73 8.55 9.03 11.25 15.08 13.46 16.44 17.30 17.53 15.99 13.69 13.34 14.23 18.12 20.89 20.39 20.85 20.22 19.27 19.16 18.72 18.88 19.18 16.71 16.31 13.86 13.66 15.27 14.70 13.17 12.51 12.22 11.79 11.71 12.35 13.18 12.79 11.91 11.72 10.85 11.10 10.68 9.88 9.16 9.63 9.65 8.98 8.01 8.21 8.77 8.57
19.19 18.76 13.95 12.68 9.94 13.65 15.24 16.63 17.85 18.34 18.56 17.97 19.03 15.25 13.19 14.16 16.03 16.97 17.40 18.37 18.36 18.24 17.28 15.63 15.88 16.93 15.51 15.38 16.49 14.13 12.94 11.44 7.88 8.29 10.81 11.81 12.18 12.38 10.58 8.96 9.80 9.95 10.01 8.91 8.08 8.24 6.93 6.63 7.99 7.13 6.55 5.50 4.42 2.88
17.30 13.57 11.80 8.59 9.96 14.22 17.30 17.31 17.07 16.53 16.90 16.32 15.00 16.66 17.13 16.47 13.02 15.45 16.10 18.74 17.93 17.12 14.30 17.28 16.21 14.82 14.76 13.43 12.47 11.25 9.48 10.47 9.55 8.94 7.86 9.97 10.63 8.15 9.15 9.08 8.80 9.07 8.01 6.82 7.28 6.61 5.67 4.66 4.77 5.13 4.61 4.11 3.71 2.06
16.96 16.82 15.90 14.52 12.70 13.88 14.94 17.93 16.59 15.12 16.71 15.34 14.26 14.84 14.54 15.69 11.10 13.63 14.92 15.98 16.85 18.04 16.35 15.39 14.76 12.86 11.24 11.48 11.59 10.43 10.12 8.96 6.14 5.77 4.39 3.57 2.31 4.38 7.54 10.12 8.72 7.68 5.75 6.03 6.28 6.23 4.43 3.87 3.59 3.63 2.76 2.09 1.60 1.58

GFSWCAN_sfc_wetblb_072.txt.gz
Wetbulb
42.76 43.40 43.75 43.74 43.89 44.35 44.80 44.96 45.22 45.52 45.76 45.69 45.50 45.38 45.59 45.36 45.29 44.00 42.17 46.07 40.40 35.26 35.95 38.56 39.29 36.10 37.77 38.01 34.23 38.45 36.31 37.33 34.94 29.81 30.46 32.02 32.20 34.32 34.15 36.62 34.18 32.38 30.93 30.61 31.94 29.78 27.95 45.30 44.18 38.86 43.00 46.01 46.02 45.81
43.20 43.42 43.54 43.68 43.83 44.37 44.66 44.97 45.08 45.27 45.45 45.40 45.54 45.57 45.56 45.73 45.43 45.07 39.22 44.70 45.93 38.29 36.27 42.12 42.67 43.51 42.33 41.32 39.35 37.08 36.72 36.70 37.64 34.69 35.76 35.95 34.16 36.17 34.77 30.43 40.34 32.40 36.78 34.66 35.10 35.32 44.54 46.25 44.80 47.08 46.95 44.64 44.24 44.41
43.07 43.28 43.37 44.08 44.40 44.89 45.15 45.30 45.44 45.53 45.53 45.68 45.76 45.96 46.06 45.97 45.99 44.59 42.16 44.46 42.80 36.44 36.48 36.86 36.54 42.59 45.45 46.27 47.45 37.38 39.76 40.51 39.04 43.26 38.94 37.25 33.83 38.23 32.94 34.35 36.33 39.82 42.69 38.38 39.24 42.14 42.87 43.89 45.38 46.14 45.75 44.36 44.59 44.62
43.13 43.39 43.99 44.50 45.00 45.17 45.79 45.99 45.72 45.67 45.67 45.62 45.78 45.94 45.73 45.92 46.18 45.67 40.38 43.36 41.61 37.48 30.59 34.13 43.65 42.11 45.12 46.69 46.71 46.13 43.72 44.60 43.81 43.80 37.55 37.00 35.33 41.02 36.83 38.21 37.62 40.27 40.69 39.85 38.83 41.04 41.03 41.88 42.75 43.94 43.33 43.87 43.33 43.70
43.31 43.70 44.42 45.26 45.69 45.60 45.76 45.79 45.88 45.81 45.93 46.17 46.13 46.47 46.27 45.99 46.04 45.22 42.91 43.74 43.92 37.78 32.30 33.82 41.34 44.01 46.31 44.80 44.71 45.39 44.12 42.50 40.41 38.17 37.53 35.79 39.46 39.21 40.24 40.61 36.69 41.09 38.91 37.74 35.76 40.06 39.98 39.40 41.02 42.86 41.05 40.64 40.97 39.81
43.83 44.24 44.86 45.25 45.33 45.47 45.60 45.54 45.79 45.88 46.32 46.47 46.47 46.75 46.77 45.90 45.73 41.14 32.99 42.26 44.98 43.85 35.52 32.17 41.08 42.15 44.66 44.50 43.02 42.16 43.33 41.52 41.11 38.50 37.75 40.61 43.18 39.80 36.22 34.50 36.35 39.24 40.19 38.95 36.13 40.95 41.40 41.10 39.34 39.67 38.50 38.49 39.08 37.60
44.06 44.75 45.20 45.18 45.32 45.48 45.36 45.45 45.42 45.90 46.27 46.43 46.41 46.57 46.36 45.57 43.88 37.94 37.41 42.07 44.70 44.30 35.43 33.29 34.02 41.79 43.73 42.79 42.17 42.25 43.60 41.25 40.46 38.17 37.41 39.17 40.26 41.03 37.51 32.29 33.23 34.99 39.52 37.50 38.50 39.95 37.57 35.87 34.29 36.22 36.79 37.48 36.40 34.58
44.59 45.07 44.95 44.88 45.33 45.73 45.55 45.64 45.52 45.64 46.13 46.27 46.41 45.77 44.90 44.69 43.23 40.72 45.07 45.35 44.67 40.07 38.58 32.65 33.73 36.95 43.40 38.69 37.78 43.20 38.91 39.51 38.72 38.16 39.77 38.44 40.99 40.35 29.31 29.53 31.15 32.44 35.76 34.67 35.97 38.15 36.22 36.13 35.03 33.87 35.12 35.04 33.10 30.33
44.76 44.55 44.84 45.06 45.33 45.74 45.52 45.56 45.67 45.74 46.24 46.22 45.47 45.03 42.95 40.62 38.13 41.38 45.53 45.12 45.78 40.48 34.82 34.93 31.41 31.33 42.08 39.56 39.74 39.66 39.04 33.17 39.06 35.07 36.92 39.43 34.28 25.54 26.83 28.16 27.99 29.35 29.81 31.18 35.14 34.18 34.35 33.51 33.08 32.43 32.04 31.33 30.13 28.34
44.36 44.53 44.81 44.96 45.12 45.21 45.30 45.36 45.36 45.97 46.07 44.88 41.22 36.07 32.08 39.33 45.32 44.50 40.09 34.01 35.85 37.91 39.71 35.13 38.53 33.83 38.96 38.53 36.23 35.20 37.63 34.70 32.19 35.10 39.39 32.65 25.24 29.20 30.19 29.49 29.20 29.22 30.24 30.90 29.22 27.97 28.70 28.97 29.78 28.50 27.55 27.65 27.24 25.76
44.34 44.41 44.44 45.18 45.41 45.33 45.47 45.43 45.55 44.67 43.79 39.79 35.07 35.33 42.19 45.10 41.84 37.55 32.61 33.17 34.31 32.74 37.26 38.02 37.62 34.54 40.82 35.19 34.13 38.75 34.34 36.39 30.80 32.98 33.07 30.03 24.30 25.70 28.66 27.93 28.48 28.63 29.01 28.43 28.94 28.14 28.09 27.89 27.27 26.23 24.72 24.33 23.60 22.86
44.28 43.95 44.16 44.31 45.12 44.93 45.04 44.65 43.98 44.41 42.81 40.39 39.84 42.02 41.03 38.07 35.78 32.82 31.09 34.00 33.17 31.58 37.15 36.56 37.59 38.78 38.91 39.96 36.19 36.73 33.69 35.31 29.59 36.90 32.60 24.35 23.52 26.20 26.62 25.76 25.84 26.71 26.67 25.55 26.38 25.41 25.39 25.24 25.02 23.79 22.60 21.40 21.12 21.35
43.33 42.94 43.60 43.86 44.17 44.66 45.16 44.54 44.07 43.35 43.89 42.49 38.33 35.05 35.75 32.65 29.53 28.86 25.23 28.95 30.70 34.17 34.98 36.39 34.73 38.24 38.69 39.11 36.85 35.47 30.89 30.33 35.15 30.76 24.48 22.66 23.75 24.92 25.34 25.48 24.27 25.00 24.64 23.93 23.11 23.23 22.36 21.79 22.41 21.34 20.13 20.83 20.28 19.12
41.89 41.30 41.15 41.42 40.39 41.90 43.29 43.31 43.23 42.58 40.57 34.16 31.77 24.76 28.86 26.25 27.36 27.19 28.54 29.90 31.95 34.51 35.71 36.31 35.03 35.99 36.44 33.20 33.53 28.65 30.08 31.85 27.87 25.40 20.54 21.97 22.75 23.03 23.66 23.99 22.50 21.36 21.60 20.93 20.54 20.54 20.05 19.94 19.44 19.84 19.70 19.22 18.26 16.62
41.21 40.76 40.73 39.03 39.55 40.35 40.03 39.72 41.10 41.34 36.14 30.10 30.72 23.06 23.74 26.79 28.40 29.91 31.83 32.64 32.49 34.22 34.26 35.93 36.61 35.66 32.14 30.92 31.93 29.33 26.11 24.12 23.55 20.31 21.81 22.77 23.30 23.54 22.78 22.41 21.78 21.43 21.60 21.17 20.92 19.99 19.64 19.24 18.66 18.43 19.02 18.84 18.15 17.37
41.99 41.62 38.19 39.50 39.11 38.71 39.21 39.37 39.05 37.57 32.98 27.84 27.07 26.20 29.31 29.18 28.53 29.54 31.12 30.47 32.91 33.53 34.96 37.86 32.42 30.12 27.32 29.83 27.06 24.59 26.25 22.14 21.14 21.59 22.60 22.91 22.03 22.21 22.10 22.55 22.93 22.76 22.29 21.62 21.32 20.61 19.83 19.11 18.43 17.99 18.25 18.09 17.78 17.48
43.62 40.16 38.49 38.88 39.30 39.28 39.97 36.49 33.79 29.06 27.59 25.72 24.40 28.33 29.05 28.24 27.04 28.19 30.35 30.53 34.59 32.99 32.06 33.68 27.68 24.95 29.73 24.94 20.95 22.38 20.58 21.15 23.19 23.66 24.07 23.28 21.89 21.73 22.45 22.76 23.10 22.82 22.15 21.86 21.68 21.50 20.91 21.47 21.57 20.19 18.20 18.66 18.35 17.12
41.96 38.17 39.00 40.35 39.80 38.07 36.15 35.69 30.97 27.55 23.33 26.79 24.53 25.76 26.52 28.07 28.25 28.79 30.32 32.76 34.06 32.82 31.49 27.04 31.24 24.65 21.77 21.19 18.99 21.70 22.71 23.96 24.07 23.39 22.97 23.52 24.04 24.15 24.26 22.85 23.25 22.84 22.17 22.06 22.21 22.29 22.08 21.36 20.53 19.33 18.98 18.86 18.45 18.45
43.05 40.86 39.35 38.97 39.20 36.68 31.31 31.77 33.02 23.20 25.15 27.64 27.66 28.88 28.60 28.16 29.38 29.94 31.10 32.67 32.67 33.75 31.70 27.86 22.36 19.96 19.72 22.87 21.70 22.10 22.89 22.51 21.17 21.88 22.54 23.19 23.26 22.78 22.76 23.07 22.93 22.63 22.31 22.70 22.31 21.03 20.49 20.35 20.81 21.21 21.22 21.17 19.52 19.06
41.48 41.78 41.26 40.47 39.65 34.22 28.96 29.85 35.23 27.83 25.21 25.92 28.35 26.49 26.35 26.99 28.84 29.30 29.54 29.22 28.62 26.37 21.85 20.17 20.76 23.10 23.18 24.66 25.83 25.05 24.85 24.85 23.27 20.60 20.44 22.03 23.70 23.46 23.49 23.32 22.32 22.41 21.74 21.35 21.00 21.30 20.73 19.56 19.25 18.45 17.57 17.17 18.64 17.09
40.07 39.08 39.36 40.41 38.01 36.34 33.06 30.32 27.66 28.07 27.77 25.96 28.32 27.81 25.71 27.59 25.84 25.27 24.57 26.94 23.35 21.25 19.10 22.21 22.61 24.58 26.73 26.69 27.36 27.63 27.33 27.72 27.30 24.96 21.89 20.47 22.69 22.63 22.11 22.21 22.51 22.43 21.78 21.14 20.37 18.37 18.06 17.64 17.83 17.88 17.94 16.94 16.77 15.90
40.06 38.60 40.56 39.53 34.06 33.18 30.92 33.12 29.24 30.66 28.09 26.96 27.15 27.86 25.45 23.65 23.06 22.62 25.33 20.84 20.08 22.29 22.88 22.01 22.64 23.46 22.90 22.66 23.09 24.12 24.59 24.55 24.12 23.16 22.28 22.72 21.32 21.02 20.59 21.23 21.01 19.38 19.11 19.00 18.74 17.92 17.38 16.61 14.76 17.23 16.85 15.85 15.16 13.71
38.28 40.45 38.50 35.93 29.95 28.76 26.43 34.50 27.94 28.73 24.45 24.10 26.91 23.58 23.51 22.66 23.72 27.28 19.28 19.65 20.88 23.89 24.03 23.22 22.72 22.81 21.60 22.75 23.49 23.89 24.85 23.79 22.05 21.71 21.70 21.19 20.84 21.21 20.34 19.89 20.10 18.74 17.64 17.04 17.98 17.64 15.45 8.48 13.24 14.91 15.11 15.25 15.58 13.96
36.70 31.93 30.89 30.29 29.06 24.68 30.08 26.74 29.05 26.71 26.55 24.50 22.41 19.96 21.76 22.79 25.92 21.61 16.98 18.58 21.11 22.86 22.12 22.12 22.86 21.53 22.30 22.29 21.01 21.12 22.25 23.08 21.66 21.52 22.22 21.18 19.04 18.29 18.93 18.39 18.01 17.29 16.87 16.96 16.61 16.01 15.25 14.80 7.78 14.55 13.48 13.21 13.24 11.73
28.34 22.28 27.56 24.74 30.15 26.13 23.95 24.05 24.31 24.47 21.65 22.59 20.89 20.62 21.37 25.51 21.44 19.02 16.92 18.05 21.19 22.20 23.01 24.18 25.29 24.59 21.36 20.13 19.97 20.00 22.89 23.34 20.88 18.34 19.82 20.64 19.43 18.83 17.64 17.37 16.63 15.97 17.04 16.78 16.17 14.98 13.50 12.81 13.48 12.82 11.83 12.15 9.83 9.91
19.84 20.83 23.67 25.30 25.80 25.41 24.89 22.00 22.89 23.15 22.65 20.24 20.12 22.47 25.47 23.35 19.26 16.74 18.44 20.98 21.56 22.23 23.46 24.10 23.19 22.20 21.82 22.47 20.34 19.51 19.41 21.89 22.48 17.93 17.60 18.80 17.92 17.49 16.64 15.59 15.54 13.82 15.98 15.30 14.45 13.82 13.89 12.71 11.57 10.46 10.37 10.14 3.95 7.21
19.85 19.73 22.28 26.28 27.04 26.82 25.38 26.45 26.62 24.05 20.76 18.85 21.06 21.42 21.28 15.74 14.10 16.47 23.15 24.11 22.89 24.87 25.58 25.81 25.40 23.45 20.79 19.30 19.38 19.13 18.90 18.46 17.92 17.13 17.55 17.03 16.47 16.37 15.30 13.37 11.96 12.02 14.96 13.50 13.46 12.48 11.42 10.92 10.89 10.75 10.55 11.49 11.75 11.28
19.42 20.37 16.23 19.90 20.42 22.81 19.37 19.87 19.44 18.69 19.03 21.81 21.98 15.61 15.37 15.56 14.55 20.44 21.19 23.17 23.76 23.60 23.07 22.86 23.44 22.59 20.68 19.54 19.21 17.83 16.83 16.66 16.58 17.22 16.78 16.40 16.09 15.15 14.09 12.51 11.35 11.25 11.46 11.31 10.53 11.01 10.94 10.32 9.65 9.72 9.93 9.66 9.70 10.78
18.57 19.23 16.17 10.76 15.47 14.60 14.77 16.12 16.07 16.10 17.82 21.65 18.00 14.19 12.37 16.52 19.68 20.03 20.98 21.85 22.72 21.21 18.84 17.78 17.94 19.43 19.01 19.56 19.60 19.80 19.22 17.76 15.63 11.27 11.31 12.91 13.95 11.93 14.04 13.58 13.50 12.83 12.76 12.33 10.60 9.41 10.30 9.31 9.07 8.24 7.80 7.61 8.90 9.56
16.78 21.84 14.45 12.41 10.85 9.89 13.40 18.06 15.97 17.97 18.69 17.46 16.60 16.52 16.52 18.15 20.11 22.95 22.42 22.46 21.22 19.94 19.75 19.99 20.15 19.46 17.14 15.94 14.18 13.86 14.84 14.64 13.24 12.87 12.17 11.44 11.08 12.18 12.66 12.31 11.79 11.76 11.48 11.17 10.31 10.46 11.84 10.21 10.68 10.32 8.11 8.30 9.21 8.39
21.87 20.95 15.86 14.50 12.12 14.25 17.32 20.45 22.08 21.47 20.12 18.35 19.02 14.41 12.25 14.03 16.48 18.87 20.23 20.46 19.84 19.40 18.72 17.54 17.28 18.11 16.64 16.53 15.93 14.26 11.40 10.89 8.85 9.31 11.80 12.33 12.13 11.88 9.72 9.03 9.74 9.59 10.18 9.43 8.45 8.30 7.12 5.93 7.34 7.37 7.40 6.24 4.92 3.89
20.40 16.07 13.26 9.34 12.00 17.88 19.81 20.07 18.64 16.81 17.21 16.48 15.80 17.41 17.65 17.10 13.35 15.36 17.12 20.15 20.17 18.03 17.25 18.59 16.14 13.76 14.32 13.22 12.27 11.57 9.84 11.07 10.11 9.83 9.88 10.63 10.59 9.26 9.81 9.71 9.72 9.78 8.31 6.96 7.66 7.61 6.93 5.31 4.95 4.89 4.63 4.48 4.01 2.71
18.56 17.56 16.08 14.14 12.86 14.46 17.00 19.42 17.49 16.58 17.46 16.18 15.05 16.98 16.38 16.68 11.63 13.66 17.36 18.11 19.19 18.65 16.30 15.30 14.43 13.46 12.86 12.70 11.78 11.19 9.65 8.06 5.64 7.33 5.56 4.33 2.06 3.95 5.75 9.92 8.83 8.38 7.03 6.29 6.41 6.69 5.82 5.04 4.02 3.16 2.17 1.74 1.87 1.87

GFSWCAN_sfc_wetblb_075.txt.gz
Wetbulb
41.67 42.18 42.77 43.29 43.52 43.89 43.74 43.78 44.43 44.86 45.38 45.38 45.77 45.49 44.82 45.16 45.54 41.64 37.88 40.57 36.92 31.92 32.90 35.59 36.48 32.79 34.06 34.49 31.74 34.81 34.56 36.20 31.97 24.99 25.66 25.98 25.52 30.67 31.69 33.50 31.76 29.06 28.81 27.13 28.50 26.03 24.81 44.31 42.88 37.91 41.80 44.69 42.95 42.46
41.51 42.61 43.02 43.40 43.69 43.85 43.82 44.33 44.91 45.06 45.14 45.24 45.59 45.61 45.70 45.66 45.85 44.25 35.97 40.48 41.66 36.18 32.40 38.39 38.59 39.56 38.47 37.77 36.57 34.53 34.44 34.84 36.03 31.96 30.13 31.73 30.34 32.36 32.36 28.56 37.85 30.02 33.23 30.95 31.79 31.31 42.13 44.29 43.78 44.35 43.74 41.64 41.49 41.24
41.96 43.04 43.20 43.20 43.49 43.79 44.47 44.47 45.12 45.39 45.48 45.60 45.73 45.78 45.91 45.96 45.77 44.64 39.29 38.11 37.52 33.40 33.37 33.29 32.70 38.38 41.12 41.45 43.51 34.23 37.39 39.40 37.32 41.58 36.91 35.09 31.57 35.20 28.43 31.09 34.95 38.33 40.04 36.14 36.39 39.93 40.60 41.39 42.46 42.94 43.22 41.83 41.87 40.96
42.44 42.71 43.11 43.57 43.88 44.22 45.07 45.58 45.58 45.74 46.04 45.97 46.08 45.91 45.92 46.28 46.05 45.33 40.42 39.80 37.88 33.88 24.84 29.90 40.25 37.47 41.57 41.54 41.54 42.49 40.45 43.21 41.49 39.45 35.25 33.96 32.49 39.08 33.67 36.14 34.18 35.28 39.51 37.44 33.65 34.77 38.18 38.73 40.17 40.64 40.57 41.27 40.09 39.07
42.52 42.91 43.09 43.79 44.31 44.71 45.35 45.72 45.81 45.87 46.12 46.17 46.29 46.42 46.12 46.40 46.70 45.22 43.04 41.68 41.53 34.77 29.84 32.07 37.50 40.88 41.98 41.94 39.94 40.67 41.90 40.54 36.38 34.40 35.60 33.74 38.22 37.14 37.27 37.59 32.04 35.99 32.43 33.02 32.09 36.59 35.42 35.21 38.24 39.49 37.67 37.18 36.04 35.63
42.78 43.27 43.84 44.03 44.67 45.05 45.47 45.58 45.81 45.80 46.03 46.17 46.42 46.52 46.56 46.12 46.19 40.56 32.37 40.96 42.77 41.04 33.22 27.04 38.48 38.62 40.51 41.59 39.22 39.68 39.67 38.21 36.69 37.59 36.04 37.43 41.77 37.27 32.87 30.44 33.23 34.01 35.56 35.58 35.58 38.39 36.81 36.04 35.83 37.55 35.87 34.29 32.83 30.97
43.09 43.69 44.25 44.60 45.03 45.28 45.51 45.40 45.63 45.72 46.04 46.15 46.45 46.54 46.42 46.43 43.21 37.39 35.06 39.25 43.15 42.97 33.93 29.87 30.59 37.88 40.55 40.14 38.10 37.84 39.58 38.76 37.85 36.95 36.00 36.58 38.35 39.38 32.77 27.13 30.32 31.89 33.48 34.45 36.88 37.80 32.70 32.80 31.19 34.83 35.72 33.78 32.40 29.32
43.26 43.92 44.90 45.07 45.04 45.13 45.45 45.15 45.63 45.79 45.97 46.27 46.36 46.51 46.42 45.37 43.16 39.46 44.11 44.06 43.64 38.64 37.22 29.51 29.82 35.07 40.72 34.01 34.45 40.00 38.08 38.58 37.98 37.33 37.09 36.12 37.52 34.19 24.31 27.60 28.99 29.89 32.18 31.71 34.20 35.42 34.66 33.92 32.68 31.29 32.42 31.68 28.27 26.28
44.52 44.64 44.55 44.62 44.94 45.34 45.41 45.43 45.82 45.88 46.06 46.38 46.34 45.61 41.95 40.03 36.73 39.90 45.48 44.10 44.19 38.97 30.96 31.31 28.16 28.49 39.43 37.09 38.36 38.10 38.62 31.38 38.23 33.55 34.57 36.86 28.95 21.98 25.97 25.93 26.26 27.67 27.65 28.04 32.05 30.39 31.30 30.53 29.41 28.44 28.02 27.65 25.48 24.86
44.55 44.34 44.18 44.92 45.14 45.40 45.42 45.55 45.63 45.82 45.95 43.84 41.23 36.05 31.81 39.13 45.33 44.33 38.38 35.77 35.19 37.42 37.39 32.49 35.11 29.75 36.75 34.04 33.28 34.02 34.11 32.46 30.64 32.54 37.15 27.38 23.58 27.30 26.93 26.72 26.64 27.01 27.29 28.12 25.38 24.85 26.21 26.97 24.92 23.96 23.74 24.59 23.74 22.18
44.20 44.35 44.99 45.29 45.36 45.30 45.39 45.44 45.49 43.95 43.62 39.54 35.38 34.85 41.10 44.91 40.19 36.14 30.26 31.20 32.12 30.07 32.56 33.68 34.12 32.72 38.19 32.54 32.09 33.56 32.27 31.09 27.31 31.34 31.37 26.75 22.10 24.05 25.19 24.53 25.68 26.34 26.06 25.93 26.02 25.09 25.14 25.16 23.23 21.93 21.11 21.04 20.57 19.56
44.03 44.85 45.44 45.45 45.40 45.29 44.72 43.83 43.75 42.69 41.23 39.71 40.34 41.76 40.34 37.21 34.64 30.64 29.68 30.99 29.59 26.29 30.23 31.13 34.42 37.03 36.49 38.82 33.11 32.42 30.94 31.24 27.48 34.15 30.61 19.32 21.68 23.92 23.42 22.58 23.22 24.18 23.57 22.53 22.94 22.15 22.49 21.70 21.57 21.04 20.31 19.17 19.23 18.72
44.12 42.59 43.75 44.80 44.25 44.60 44.97 45.03 44.75 43.85 43.96 41.53 37.92 33.76 34.59 31.14 26.28 22.34 22.30 21.79 27.31 32.51 33.41 33.40 33.25 35.13 35.83 37.61 33.22 31.88 28.32 26.41 29.77 26.66 16.83 18.49 21.76 22.83 23.28 22.29 21.39 22.19 21.80 21.14 20.22 20.25 19.69 19.18 19.28 17.97 16.39 15.07 15.37 15.32
42.08 41.51 42.47 41.77 42.79 43.60 44.32 44.33 42.69 41.91 38.82 33.11 27.74 16.65 25.13 25.25 24.97 25.42 26.61 28.26 30.85 32.34 33.25 32.75 32.48 32.33 32.99 30.75 31.77 27.24 28.26 29.88 23.14 16.33 15.00 17.78 17.71 18.75 20.32 21.56 20.18 18.02 17.77 16.71 13.83 14.79 14.48 14.27 14.62 14.20 14.58 11.83 12.30 12.41
41.61 40.61 40.39 40.58 41.31 41.18 41.77 41.39 41.65 38.27 33.04 27.25 26.12 19.41 20.28 23.77 22.71 28.27 30.44 30.67 30.91 32.90 32.89 30.77 30.40 32.29 30.07 27.36 28.99 25.82 25.11 22.66 18.03 10.93 14.26 18.85 19.73 18.99 16.51 17.89 18.67 16.27 14.66 14.82 12.46 13.20 11.77 11.65 12.38 13.75 11.76 11.98 12.37 10.67
41.81 40.51 38.28 39.88 40.47 41.11 40.40 39.61 37.23 35.98 30.73 26.42 23.95 22.91 25.07 24.93 24.88 27.98 29.64 28.70 31.67 31.78 32.87 30.61 30.08 26.89 25.89 27.24 22.47 17.41 21.47 13.04 11.76 13.58 17.97 16.83 15.44 14.72 18.78 19.22 15.00 14.08 13.86 13.60 12.45 12.96 12.78 10.08 10.63 11.64 10.97 9.78 7.35 7.91
43.23 37.34 39.96 40.43 40.40 40.36 40.24 35.61 32.43 28.26 25.96 24.10 19.99 23.85 26.37 20.81 22.31 25.90 28.06 29.49 32.84 31.77 30.85 28.05 22.90 23.94 26.22 19.44 15.58 18.01 12.10 15.80 18.55 19.20 18.24 14.97 13.73 12.13 14.49 16.05 17.47 18.31 19.04 19.04 17.11 15.05 12.39 12.33 13.56 14.22 13.01 11.35 13.00 12.34
36.25 37.90 39.09 39.58 38.94 37.75 35.40 33.60 28.90 26.14 22.47 23.81 20.19 20.96 19.27 24.34 25.13 25.67 28.77 28.34 30.91 27.33 25.85 23.44 26.08 16.18 12.48 13.95 11.79 15.86 17.77 19.85 18.99 18.12 18.06 17.58 17.45 19.82 20.92 19.31 19.94 19.34 17.86 16.12 15.11 15.41 16.80 15.12 16.31 13.83 15.58 16.07 15.95 16.30
36.86 38.43 40.58 40.02 39.26 35.09 29.76 29.96 30.26 21.72 24.29 23.67 26.53 26.84 26.70 26.42 28.31 28.48 28.06 28.65 26.61 26.24 26.90 23.88 18.19 13.90 14.84 16.20 17.19 17.38 16.25 17.64 18.35 19.29 20.10 19.33 16.82 16.86 18.02 20.41 19.39 18.42 19.43 19.93 19.55 16.82 17.57 18.11 16.61 15.85 16.77 17.76 15.59 14.79
40.01 40.02 40.31 39.75 39.32 31.87 27.97 27.62 32.54 25.98 23.72 25.07 27.12 25.38 25.98 25.85 27.85 26.37 26.03 26.69 25.65 23.51 18.90 17.32 16.90 19.77 17.99 21.23 21.05 20.84 21.29 21.55 19.60 16.79 16.71 16.22 21.32 20.86 21.22 20.28 16.32 17.02 17.64 19.07 17.51 16.10 17.54 16.01 14.81 13.34 12.26 13.68 13.34 9.80
39.43 38.77 40.23 39.23 35.66 33.86 29.59 26.99 26.30 26.34 26.84 25.20 27.45 26.00 24.11 25.50 23.20 21.35 20.27 24.04 20.21 18.20 16.84 19.09 20.22 22.39 24.46 24.35 24.14 23.27 24.15 23.76 18.38 16.59 18.33 17.60 15.79 17.35 17.20 18.05 19.31 19.37 18.36 16.46 13.51 10.10 10.73 9.85 10.43 12.12 6.03 0.59 -0.53 -0.09
36.47 39.34 37.23 36.71 30.68 29.92 27.82 29.55 27.09 28.04 26.23 25.72 25.58 26.27 22.61 18.49 17.31 18.29 21.56 17.70 18.11 19.67 19.77 20.49 20.90 20.51 20.03 19.48 20.08 22.44 22.38 22.64 21.12 19.36 17.16 19.01 17.68 17.03 14.50 14.14 15.47 7.87 8.74 6.40 8.82 6.22 6.37 7.76 7.00 10.79 7.08 0.11 4.82 1.98
38.79 38.74 33.97 31.40 24.54 22.49 24.59 31.51 25.88 27.64 20.90 21.76 24.96 21.95 20.19 17.14 20.40 24.08 15.88 18.24 19.39 21.29 20.99 20.07 20.59 21.89 20.23 20.76 21.32 22.36 22.90 21.53 18.59 17.66 15.83 14.69 13.84 10.15 12.49 12.17 12.12 8.64 9.85 8.90 11.43 10.57 3.37 3.61 4.19 -1.27 3.17 4.55 6.95 3.30
35.78 29.22 27.64 23.07 24.01 22.09 26.29 22.31 26.58 24.75 24.04 22.14 19.17 17.55 19.66 18.17 22.81 17.66 14.57 15.98 16.73 18.10 18.45 18.78 19.33 18.89 19.69 19.64 17.06 17.63 18.83 18.92 16.07 13.79 15.59 15.79 12.41 11.17 12.38 11.71 10.45 8.38 8.36 11.14 9.57 4.84 3.48 -0.32 -1.17 7.69 0.82 -4.37 3.60 -4.20
21.88 17.10 19.84 16.37 23.54 17.95 16.73 18.37 20.74 21.97 15.21 17.36 16.37 15.38 16.32 22.35 16.56 12.92 11.53 15.42 18.16 18.12 15.52 19.21 21.03 20.92 15.26 10.60 12.23 13.82 18.13 19.83 15.78 12.94 10.24 14.37 10.46 11.42 11.54 11.94 9.74 9.79 10.26 9.76 7.67 4.44 -2.11 -3.59 -3.06 -3.41 -2.39 -6.40 -4.29 -6.19
12.97 14.23 18.25 20.47 20.48 19.06 19.88 14.13 15.33 16.42 16.23 14.07 14.33 18.99 20.10 17.30 10.55 9.59 13.81 17.90 18.65 15.05 17.38 19.15 16.19 16.77 17.70 17.86 14.47 12.96 13.81 17.33 16.88 10.91 12.70 14.01 12.09 4.83 4.32 6.06 7.85 5.80 6.97 0.33 -1.72 -1.71 6.41 4.39 -1.81 -3.08 -4.48 -1.31 0.55 -5.70
11.71 13.64 20.42 24.88 24.74 24.58 19.63 21.17 22.33 17.97 13.60 11.43 14.48 13.59 10.47 2.61 3.19 14.18 20.50 17.88 19.51 22.67 23.19 22.52 22.35 17.17 14.97 14.21 14.39 13.92 13.16 13.12 12.59 12.75 12.27 12.56 11.88 10.64 5.18 0.95 1.54 3.61 4.76 2.64 1.93 -4.83 -4.97 -5.52 -6.06 -3.08 -3.65 -4.57 -0.08 1.72
15.91 18.69 9.66 17.60 14.69 17.84 13.44 13.12 12.82 11.92 10.66 17.69 14.74 4.66 3.98 3.22 8.75 16.72 19.56 21.06 19.37 18.24 17.41 17.64 18.53 17.37 15.51 14.13 11.84 9.29 6.44 6.14 7.59 9.99 10.29 8.57 6.10 3.14 1.02 -0.55 -0.38 8.15 -0.60 -3.57 -5.48 -5.48 -5.12 -6.30 -7.15 -5.88 -1.89 -2.62 -4.64 -4.25
13.79 15.14 13.59 5.99 9.95 10.41 10.38 10.34 9.48 11.54 15.10 15.30 5.65 4.07 5.92 14.73 17.68 17.82 18.01 18.32 18.22 16.37 13.59 12.65 9.96 10.68 14.23 14.48 14.25 12.33 9.63 7.02 3.80 -2.04 -3.58 1.86 1.72 0.88 0.54 -1.02 2.44 0.43 -3.66 -2.43 5.90 2.12 -1.00 -3.08 -5.61 -6.13 -6.53 -7.45 -7.95 -8.42
13.70 17.27 9.92 5.78 2.87 4.56 9.91 15.63 10.21 11.11 12.47 11.16 14.67 15.15 14.44 15.68 18.67 17.66 17.20 18.41 16.60 13.51 10.26 9.32 9.71 8.21 4.65 5.09 0.27 1.68 2.80 -0.18 -2.80 -1.54 0.24 -1.17 0.22 -1.24 -1.91 -2.84 -4.43 -4.07 -3.93 -4.55 -5.77 -4.11 5.22 -1.72 -2.48 -1.32 -1.46 -3.16 -5.17 -8.72
19.59 14.57 9.64 9.18 7.29 13.82 15.75 17.90 16.86 15.21 13.96 12.36 11.08 9.38 7.39 11.06 12.44 17.27 17.44 14.12 12.84 12.72 14.08 8.54 9.95 7.13 5.82 5.00 2.17 2.23 -3.34 -3.16 -5.11 -4.08 -2.96 -3.18 -0.50 -4.10 -6.85 -6.85 -6.17 -6.37 -3.90 -6.17 -7.59 -7.91 -8.83 -10.05 -10.82 -10.98 -10.33 -10.10 -11.04 -13.06
13.78 7.86 5.45 4.10 8.60 15.48 19.16 11.89 9.30 12.22 11.81 9.68 6.97 4.49 5.92 7.92 4.21 9.89 10.63 13.51 16.31 12.91 11.90 11.58 5.44 2.81 -0.48 -1.38 -1.24 2.48 0.89 -2.13 -4.43 -4.79 -4.79 0.62 -5.70 -6.42 -4.81 -2.71 -4.88 -5.25 -7.41 -8.29 -8.27 -6.80 -7.08 -10.20 -11.74 -12.98 -14.04 -13.19 -13.32 -13.18
11.68 10.74 9.88 7.03 6.00 7.73 11.99 11.14 10.72 12.47 13.16 10.00 9.66 12.16 7.88 5.64 1.51 6.54 11.82 15.19 15.76 11.11 9.11 8.24 4.92 2.41 2.11 1.62 1.43 0.95 -1.28 -6.79 -4.61 2.64 -0.98 -2.80 -6.60 -5.88 -8.80 -7.34 -10.10 -10.34 -9.74 -10.44 -10.46 -9.88 -9.02 -9.41 -10.80 -12.49 -13.09 -14.14 -14.48 -15.19

GFSWCAN_sfc_wetblb_078.txt.gz
Wetbulb
41.90 41.75 41.90 42.47 42.86 42.70 42.75 43.42 43.93 44.01 44.24 44.61 44.87 45.20 45.43 45.06 44.93 42.11 38.00 38.75 35.12 31.33 31.04 33.91 34.67 30.24 30.72 31.63 28.42 32.54 31.97 35.31 32.45 25.00 24.60 24.74 22.58 27.83 27.62 32.63 31.42 28.49 26.63 25.77 27.06 26.14 23.92 43.62 42.10 36.39 39.89 42.50 42.36 42.06
41.48 41.25 42.23 42.75 42.86 43.52 43.56 43.80 44.13 44.35 44.76 45.09 45.32 45.42 45.44 45.57 45.39 44.14 36.76 39.03 39.17 33.62 29.64 37.15 37.51 37.64 35.89 36.12 32.80 35.27 33.97 34.18 34.12 29.88 27.97 30.24 27.26 29.51 31.54 27.48 36.49 29.84 32.21 28.12 30.47 30.39 41.22 42.68 42.17 43.62 43.20 40.48 39.56 40.40
40.62 41.17 42.29 42.57 43.25 43.38 43.72 44.21 44.34 44.83 45.04 45.37 45.51 45.71 45.48 45.86 45.67 44.23 38.98 36.44 35.43 32.24 31.51 31.21 31.09 36.73 39.85 38.62 40.16 30.82 36.91 37.01 36.74 38.98 36.29 35.27 30.56 33.80 28.73 31.24 34.54 34.65 38.98 34.45 34.81 36.30 37.59 38.62 40.90 40.86 39.66 37.81 37.22 37.49
40.81 42.00 42.47 42.88 43.00 43.51 43.91 44.49 44.90 45.52 46.02 46.02 46.39 46.16 45.86 46.04 46.09 45.09 39.87 39.58 34.73 31.05 20.20 26.23 37.59 34.61 38.86 38.53 38.07 39.33 39.34 40.52 39.94 39.32 35.45 33.71 31.10 36.98 32.79 32.27 29.76 32.41 34.81 35.40 33.12 33.65 36.55 36.44 36.86 37.76 37.76 37.30 34.67 33.81
41.86 42.36 42.65 42.81 43.38 43.71 44.25 44.71 45.27 45.52 45.95 46.20 46.48 46.43 46.09 46.11 46.37 44.79 42.95 40.86 38.83 30.88 24.79 28.73 35.48 38.15 39.31 38.28 37.68 39.64 39.64 39.00 38.04 34.98 33.13 33.33 36.96 36.90 34.90 33.54 27.48 32.34 29.76 32.44 30.59 33.92 34.01 34.03 35.30 35.58 33.03 31.48 32.36 30.90
41.90 42.24 42.51 43.09 43.58 44.20 44.55 44.90 45.48 45.84 45.81 46.09 46.36 46.52 46.48 46.13 46.23 41.99 32.84 41.26 41.53 38.31 30.92 24.16 33.77 37.09 38.75 39.10 38.39 37.21 38.71 39.42 37.17 35.62 35.46 36.16 41.11 35.74 31.69 27.26 29.56 31.86 33.52 34.98 33.24 34.61 33.59 33.74 35.28 34.08 30.79 29.16 28.71 27.98
41.94 42.38 42.91 43.55 44.08 44.53 45.05 45.16 45.43 45.95 46.04 46.25 46.22 46.48 46.37 45.97 42.32 37.41 34.22 38.42 42.97 41.96 34.22 25.73 27.33 35.63 39.50 38.59 38.52 36.50 38.17 36.83 35.23 36.17 35.53 35.03 37.48 37.19 29.18 23.73 27.75 30.75 32.40 33.44 35.27 35.83 30.48 30.92 29.36 32.76 30.81 29.39 28.13 25.52
42.31 43.09 43.40 43.96 44.47 44.73 45.12 45.19 45.55 45.73 46.09 46.18 46.25 46.30 46.34 45.20 43.71 39.99 43.52 43.65 43.24 37.89 36.24 27.07 26.27 32.12 39.39 33.20 34.47 36.01 34.98 35.49 37.37 36.62 36.04 34.99 34.60 30.89 23.16 25.94 27.05 28.74 30.19 30.29 31.52 33.00 31.10 30.56 29.81 30.25 30.11 28.33 24.82 23.22
42.79 44.06 44.38 44.58 44.96 44.96 45.00 44.95 45.60 45.73 46.07 46.23 46.16 46.34 41.85 39.68 36.09 38.94 44.78 44.21 43.60 37.18 29.05 29.57 27.43 24.79 39.27 35.32 36.92 36.48 38.08 31.33 37.72 33.41 33.80 34.08 25.77 20.20 23.55 23.41 24.08 24.97 25.59 27.44 28.97 30.14 29.37 26.80 25.93 26.49 26.22 25.28 23.87 23.06
44.14 44.56 44.23 44.37 44.61 44.90 45.20 45.40 45.53 46.01 46.11 44.82 41.59 35.83 31.54 39.36 45.11 43.72 39.97 35.13 34.68 35.81 36.94 30.88 33.83 29.94 36.31 34.22 32.64 32.81 34.38 32.13 29.02 31.63 33.68 25.45 21.10 24.38 24.24 24.55 24.48 24.74 25.40 25.52 24.60 23.60 25.99 23.50 22.57 21.87 22.04 22.33 21.44 20.29
44.49 44.71 44.78 45.10 45.39 45.43 45.66 45.62 45.73 45.34 43.99 39.27 34.19 34.24 41.30 44.50 39.90 35.88 29.99 30.33 31.00 29.02 31.20 29.97 33.53 32.59 38.46 31.87 30.62 34.01 30.73 32.20 28.04 29.51 29.37 23.79 20.18 21.16 23.77 23.38 23.86 23.53 23.31 23.30 23.15 22.99 23.19 23.32 21.47 20.26 19.75 19.82 19.51 18.73
43.77 45.12 45.57 45.52 45.45 45.56 45.60 44.93 44.37 42.23 40.00 39.25 40.33 41.96 40.58 35.68 33.30 30.46 28.40 30.11 28.00 25.65 27.66 31.80 32.51 35.59 35.27 38.15 31.98 32.93 29.70 31.30 26.63 33.68 24.69 14.02 19.73 21.56 21.51 21.09 21.58 21.87 21.25 20.45 21.37 21.06 21.10 21.17 20.80 19.75 19.17 17.95 16.70 15.99
44.52 45.08 45.31 44.95 44.49 44.60 44.59 44.55 44.33 44.20 43.59 41.41 37.38 33.38 33.39 31.12 26.20 21.62 22.18 25.09 27.35 32.38 32.99 33.91 32.49 34.43 33.49 35.94 32.53 31.45 24.13 27.01 30.64 17.84 14.37 16.36 21.17 21.75 20.96 20.36 20.01 20.62 20.23 19.57 18.87 19.24 18.66 17.35 16.90 16.02 14.43 12.67 12.79 12.55
43.27 43.43 44.82 44.68 44.19 44.26 44.43 44.56 44.74 41.85 38.16 32.00 27.07 18.27 20.16 23.74 24.10 19.85 22.92 27.73 30.47 32.23 32.79 31.57 32.41 30.00 32.55 29.45 30.75 25.50 26.26 27.43 20.21 11.76 12.70 15.64 17.12 18.58 19.49 20.10 17.90 14.12 13.90 13.40 10.68 11.83 11.20 11.45 10.79 10.62 8.37 4.78 7.16 7.86
42.08 42.22 41.85 41.89 42.10 41.47 40.77 41.50 40.52 35.77 30.78 25.95 25.20 16.63 14.82 20.86 21.97 27.61 28.75 30.36 30.68 32.43 32.78 31.41 27.62 29.10 27.23 26.39 28.18 26.47 22.94 18.48 16.16 14.47 12.39 16.64 16.11 16.04 14.86 15.56 14.27 12.37 10.23 10.08 7.13 8.52 6.12 6.78 8.54 9.53 4.14 5.09 7.26 5.84
40.87 39.72 39.48 41.11 42.22 41.12 39.69 37.48 35.25 34.21 28.74 24.74 22.31 20.49 24.23 21.66 22.27 25.86 28.40 28.71 31.63 31.64 32.61 29.65 28.88 26.48 25.33 26.25 19.03 16.03 18.46 12.73 8.94 9.01 12.07 17.24 14.58 13.53 14.68 14.07 10.90 9.59 9.92 7.75 7.31 8.16 7.94 5.75 7.09 5.99 5.76 5.16 2.17 4.48
40.29 35.54 40.62 41.15 41.24 40.38 39.63 32.65 30.46 28.05 25.43 21.65 17.76 15.78 13.49 13.04 21.91 21.58 27.44 28.08 32.26 31.89 29.68 27.66 24.06 23.43 25.90 14.34 11.28 14.46 6.58 8.36 14.96 15.41 13.68 10.50 12.00 12.82 12.24 15.03 14.89 15.68 12.64 9.90 9.02 8.81 7.59 6.31 6.84 10.49 9.05 6.67 10.36 8.95
35.37 39.47 41.35 40.05 38.14 36.83 35.01 32.55 28.21 25.61 20.70 20.92 17.59 17.29 11.99 14.71 16.75 20.71 27.16 29.29 29.21 26.78 24.41 22.27 23.12 12.37 6.00 8.13 7.63 10.20 13.81 14.23 15.04 14.14 9.45 9.43 11.92 16.84 18.22 16.77 14.48 14.68 12.29 10.35 12.42 14.29 15.58 14.19 15.67 12.85 14.03 14.45 14.25 13.94
37.39 39.79 39.60 39.66 39.32 33.38 28.75 28.46 28.11 19.91 18.27 17.36 20.19 19.54 18.29 19.09 23.92 24.19 23.91 25.04 25.06 25.09 23.70 19.39 11.66 8.52 9.01 11.34 13.69 11.95 10.33 15.91 16.60 17.11 17.33 17.66 17.36 16.36 15.25 15.47 15.07 13.51 16.22 17.86 18.60 15.94 16.60 16.79 15.44 15.38 16.59 17.09 14.05 14.69
40.64 40.48 39.26 39.05 39.12 30.68 27.66 26.92 30.42 25.06 20.61 22.89 23.38 22.14 21.78 22.34 22.57 22.53 23.13 23.77 24.28 21.99 16.63 12.69 13.50 16.21 13.00 10.53 12.38 17.44 18.17 19.06 17.73 15.34 12.39 13.74 13.89 15.50 13.62 15.50 14.11 15.54 17.01 17.06 15.09 15.02 15.08 12.87 12.38 11.60 10.46 12.61 8.60 6.03
38.83 38.80 39.82 39.24 34.13 31.91 28.14 26.20 25.28 26.04 26.90 24.48 26.57 24.78 22.16 24.50 21.05 19.09 20.04 23.59 18.95 17.77 14.69 15.80 15.75 20.36 20.99 21.08 21.57 21.02 18.76 18.55 13.53 12.89 15.77 14.71 11.80 18.43 17.65 17.66 19.69 18.19 15.87 13.35 10.02 6.55 6.80 5.21 6.97 7.99 0.46 -5.41 -6.50 -3.40
35.56 40.00 34.62 34.47 29.12 28.52 26.29 27.11 26.10 27.18 26.64 26.26 26.29 25.86 20.46 15.74 13.90 14.79 20.62 15.94 15.80 17.01 17.79 18.33 18.63 19.51 19.49 18.95 20.48 21.38 20.86 21.47 19.07 16.74 14.62 15.26 15.00 12.68 11.07 10.86 11.80 4.76 5.04 3.60 6.62 0.72 1.30 5.94 4.56 2.39 -3.62 -5.05 -1.88 -1.43
38.44 36.96 30.84 28.33 21.97 20.26 22.98 29.96 23.89 25.99 18.91 20.79 23.47 20.44 15.37 12.08 15.06 21.90 11.27 16.05 15.99 18.61 16.72 18.64 19.64 20.98 19.45 20.53 20.66 21.10 22.01 20.34 17.03 15.62 14.62 14.45 12.07 6.30 9.23 7.85 5.82 4.18 4.32 5.66 8.21 3.65 0.02 1.92 -0.43 -5.19 -6.51 -3.32 -3.07 0.21
33.57 28.30 22.00 18.13 20.46 19.36 20.69 17.81 25.07 24.27 23.63 21.01 18.17 15.80 14.93 14.81 21.05 13.96 11.11 13.44 14.02 16.38 17.14 17.73 18.97 17.99 18.02 17.72 15.62 16.43 17.13 16.68 13.55 8.82 11.45 13.27 10.57 8.43 9.61 8.60 7.16 5.41 6.11 9.16 6.68 1.09 -0.45 -6.77 -4.55 -1.65 -9.77 -9.40 -10.32 -8.86
19.60 15.12 15.73 12.73 18.64 13.72 12.61 13.94 16.43 17.44 10.85 13.41 11.72 11.17 14.11 20.48 9.12 6.75 6.64 10.59 10.46 6.50 9.47 15.59 17.80 16.01 10.70 5.87 9.75 12.49 15.72 16.54 13.13 11.00 8.64 11.66 6.76 9.65 9.21 9.20 7.19 7.61 6.12 3.29 -2.33 -3.24 -5.32 -11.23 -11.42 -9.30 -9.03 -13.21 -7.73 -8.94
9.81 9.98 16.71 15.07 17.49 15.65 15.56 10.23 9.08 10.45 10.59 8.62 9.79 16.37 16.54 9.62 3.35 4.84 10.91 8.28 10.57 7.59 9.82 16.84 15.66 11.04 13.83 14.62 11.82 11.34 11.68 15.12 14.08 7.49 10.16 12.01 9.65 3.85 2.48 1.40 -0.70 0.36 2.10 -6.32 -7.59 -7.77 -4.33 -0.94 -3.81 -5.34 -9.23 -6.87 -5.78 -10.03
6.02 7.25 18.67 23.78 22.35 22.56 17.72 18.04 19.13 14.19 8.13 8.45 9.11 7.11 3.92 -3.62 -3.06 10.15 13.86 9.87 13.54 15.47 18.93 19.26 17.90 15.02 12.46 11.45 11.62 10.99 10.92 11.80 10.34 10.40 9.96 9.89 8.95 6.27 1.58 1.06 -1.43 2.04 -0.97 -5.10 -9.95 -9.78 -9.58 -11.40 -11.40 -11.22 -10.49 -9.04 -3.96 -3.96
14.84 13.03 7.74 9.33 9.74 12.63 6.54 6.12 3.90 4.72 5.42 14.66 10.99 -0.06 -2.61 -0.44 5.30 14.46 15.06 15.49 15.39 16.03 15.97 16.06 16.24 14.56 12.04 10.06 7.05 6.98 5.03 6.04 7.34 7.81 8.23 5.84 2.54 -3.16 -3.81 -5.44 -4.54 4.37 -6.34 -10.39 -10.92 -13.21 -12.30 -12.85 -12.30 -13.03 -13.21 -12.30 -12.12 -14.30
6.92 8.60 10.08 2.05 3.87 4.55 6.85 3.47 5.07 10.07 13.58 9.81 -0.70 -2.15 3.26 12.34 11.61 14.30 15.19 14.32 14.78 15.40 12.70 10.80 8.71 11.13 9.63 7.28 4.46 2.74 -0.58 0.30 -0.58 -4.15 -7.77 -6.32 -7.23 -1.30 -6.50 -5.23 -5.23 -8.87 -12.49 -6.68 0.75 0.35 -1.89 -5.37 -7.05 -9.58 -9.77 -9.77 -11.08 -16.84
8.48 8.80 4.36 -1.93 -0.59 1.97 4.99 4.83 2.70 3.82 8.76 7.55 12.43 14.30 12.78 14.25 17.19 16.99 15.20 12.63 10.65 8.40 4.14 10.42 4.80 7.21 0.48 0.19 -8.50 -4.75 -6.87 -12.67 -10.31 -3.52 -7.60 -8.13 -5.27 -3.47 -9.77 -10.67 -11.03 -12.85 -14.84 -13.39 -13.03 -9.43 -1.63 -10.70 -6.21 -10.60 -10.82 -10.95 -13.40 -16.34
12.50 5.04 2.77 2.88 6.06 6.81 9.80 11.83 11.77 9.65 3.39 4.75 1.18 2.07 3.16 9.90 12.04 13.54 13.00 5.64 10.55 11.30 10.28 7.45 2.19 -2.74 0.50 -6.87 -9.58 -10.49 -8.32 -7.99 -13.57 -9.40 -4.18 -5.23 -11.40 -13.21 -13.57 -13.57 -14.48 -15.02 -14.30 -15.20 -15.57 -15.75 -14.30 -15.75 -18.65 -18.83 -18.29 -17.38 -17.74 -19.56
1.15 -2.74 0.72 2.10 6.22 9.31 5.64 -0.63 0.11 0.64 -3.07 -2.31 -2.18 -5.05 2.20 0.97 -0.56 5.62 12.34 9.54 8.53 6.30 -1.79 2.64 3.89 -0.16 -6.14 -5.23 -7.77 -9.04 -5.62 -8.50 -12.85 -9.04 -9.58 -12.49 -15.93 -16.65 -11.40 -7.95 -13.75 -15.75 -15.75 -16.29 -17.20 -17.20 -16.47 -16.47 -17.38 -18.11 -18.65 -17.74 -18.83 -18.29
3.50 0.01 -0.93 0.58 0.39 3.79 7.96 4.23 3.52 7.52 3.52 3.40 4.60 5.11 -0.58 -4.55 -3.64 3.41 7.25 10.40 4.59 7.44 3.69 -0.81 1.08 -1.18 -0.91 -0.43 -2.61 -7.59 -8.35 -11.03 -10.85 0.02 -5.41 -7.23 -11.22 -10.31 -17.38 -19.01 -19.92 -19.74 -16.90 -17.74 -18.83 -19.37 -16.65 -15.57 -16.47 -17.56 -18.83 -20.64 -20.82 -21.55

GFSWCAN_sfc_wetblb_081.txt.gz
Wetbulb
42.04 41.91 42.03 42.38 41.77 41.71 41.73 42.34 42.72 43.23 43.92 44.03 44.23 44.56 44.83 45.16 45.49 43.05 38.21 37.91 33.89 26.93 29.82 33.38 33.99 29.00 29.47 29.03 22.05 29.05 28.08 30.91 31.51 26.74 25.42 24.95 22.79 26.96 25.96 28.63 28.04 26.69 24.98 24.72 24.82 23.18 21.09 41.28 41.07 33.56 38.33 40.98 40.78 40.51
42.24 41.38 41.90 41.39 41.47 41.91 42.27 42.81 43.45 43.92 44.45 44.45 44.38 44.71 44.95 45.21 45.53 44.11 36.85 39.67 37.51 32.55 28.60 36.19 37.47 36.34 34.48 33.96 30.09 31.95 28.96 31.56 32.78 28.89 27.10 30.09 26.61 26.69 27.56 23.21 35.18 28.26 30.90 28.01 29.62 28.07 38.70 40.55 41.39 42.29 40.29 38.83 38.73 39.67
41.37 41.11 41.07 40.99 41.54 42.04 42.65 43.20 43.72 43.99 44.48 44.81 45.02 45.00 45.27 45.48 45.60 43.96 38.20 38.66 38.31 33.62 31.42 29.33 29.71 34.97 38.54 37.85 38.77 30.75 33.29 37.18 34.45 37.14 35.07 33.52 28.20 33.58 25.98 29.12 29.05 31.23 34.29 33.71 33.51 33.87 34.65 37.19 37.07 36.59 35.64 34.00 35.44 36.30
40.72 40.46 40.48 41.03 41.78 42.78 42.88 43.40 43.78 44.21 44.89 45.50 45.91 45.75 46.18 45.75 45.72 45.01 39.13 39.64 35.14 29.99 20.43 25.22 35.62 32.80 37.09 37.73 37.01 38.06 37.56 39.13 38.30 38.15 34.89 32.15 30.76 36.65 31.84 30.10 27.54 29.09 31.49 33.31 33.10 34.21 35.13 33.93 33.40 34.88 33.30 32.73 31.50 31.60
40.38 40.52 41.34 41.95 42.08 42.71 43.06 43.76 44.08 44.80 45.32 45.85 46.26 46.28 46.33 45.98 45.98 44.68 42.00 40.24 38.64 30.07 22.87 27.00 33.18 36.33 37.95 36.14 35.00 36.20 36.68 36.08 35.61 33.62 30.13 31.54 36.30 34.95 33.13 31.70 24.47 29.42 27.84 27.68 28.54 32.61 32.22 31.89 32.46 32.08 29.37 28.36 28.83 27.60
40.05 41.38 41.90 42.07 42.49 42.83 43.34 43.77 44.49 45.11 45.44 45.94 46.19 46.54 46.51 46.14 45.90 42.26 33.52 40.43 40.85 37.39 29.59 21.52 31.40 33.05 36.16 36.27 35.04 35.45 36.55 36.10 36.20 36.10 31.69 34.74 38.96 35.79 30.16 24.87 27.59 29.79 31.10 32.78 31.81 33.49 33.10 32.50 30.96 30.05 27.27 26.77 26.58 25.55
40.46 40.98 41.73 42.32 42.55 42.97 43.46 44.18 44.81 45.20 45.59 45.77 45.82 46.25 46.39 45.67 43.04 38.14 34.21 38.07 42.24 41.37 33.13 25.89 25.20 33.00 37.72 36.08 35.18 36.39 37.61 36.87 37.60 34.83 32.86 34.79 35.71 33.67 27.25 21.46 25.49 28.83 30.69 31.92 33.62 34.71 29.44 31.30 28.50 29.11 27.28 25.81 25.78 23.98
40.85 41.55 42.17 42.46 43.00 43.50 43.96 44.42 44.98 45.62 45.78 45.82 46.03 46.07 45.93 45.89 44.17 39.80 41.45 43.70 42.77 37.37 35.18 26.46 24.62 30.23 37.58 30.91 32.54 36.70 33.34 37.23 35.57 32.64 36.00 35.10 32.03 30.04 20.96 24.26 26.05 26.76 29.15 29.21 30.66 30.12 28.80 29.40 29.05 27.87 27.27 25.41 22.83 21.67
41.51 41.94 42.31 42.95 43.45 44.12 44.46 44.73 45.19 45.67 45.92 46.17 46.07 46.05 42.31 39.29 36.29 39.24 44.28 44.12 43.19 36.96 28.85 28.28 24.34 25.08 37.10 33.52 35.54 35.30 33.64 31.06 35.52 32.86 33.97 30.98 24.51 18.20 22.16 22.89 23.02 24.20 24.06 25.02 28.50 27.62 26.24 24.50 23.95 24.60 24.40 23.62 22.14 20.91
41.36 42.03 43.05 43.66 44.38 44.58 44.78 44.99 45.42 45.71 46.00 45.32 41.57 35.84 30.94 37.83 45.10 43.63 40.24 34.03 34.37 35.51 35.78 28.11 30.32 26.20 35.43 32.10 32.55 32.30 33.61 31.70 29.57 31.85 31.31 23.82 18.96 23.07 23.87 23.90 23.52 23.81 23.29 24.02 23.87 22.93 23.42 21.38 21.16 21.11 20.65 21.13 20.58 19.58
42.62 43.75 44.47 44.47 44.50 44.39 44.71 45.06 45.19 45.64 45.42 39.34 33.25 33.32 40.27 44.09 39.14 35.67 29.75 29.36 29.97 28.51 31.21 31.16 31.61 30.24 36.82 31.81 29.82 33.26 30.31 31.74 27.26 29.79 28.65 21.33 18.09 20.31 23.25 22.57 22.21 22.28 22.47 22.47 22.19 22.26 22.41 21.94 20.57 19.64 18.83 19.06 18.68 17.58
44.38 44.57 44.76 45.17 45.45 45.60 45.76 45.43 45.42 43.22 40.24 39.41 39.96 41.41 39.83 35.03 32.73 28.89 26.62 29.93 26.61 24.32 25.06 30.63 32.51 34.13 35.09 35.92 32.15 32.86 29.65 31.08 26.16 32.90 22.97 10.58 17.51 21.07 21.31 20.78 20.52 20.69 20.39 20.49 21.56 20.61 20.97 20.61 20.14 19.15 17.88 16.07 14.73 13.42
45.29 45.14 45.59 45.50 45.54 45.99 45.86 45.58 44.18 44.00 43.17 41.00 36.96 32.57 32.87 31.08 26.33 21.27 21.90 25.47 25.86 29.48 31.24 33.53 32.39 33.67 33.37 35.52 32.37 31.39 26.26 23.13 30.65 12.21 10.46 13.01 19.88 20.71 20.60 20.31 19.59 20.41 19.75 19.26 18.53 18.60 17.34 15.70 15.27 14.67 12.16 9.83 10.28 9.10
45.04 44.69 44.77 44.54 44.43 44.55 44.47 44.57 44.15 42.10 38.78 32.36 29.26 22.21 24.68 23.64 19.25 18.75 16.15 17.88 28.20 32.19 32.90 33.04 32.52 32.00 31.86 29.74 30.78 18.56 22.74 23.80 11.09 9.14 9.92 13.20 17.82 19.07 19.12 18.89 16.01 12.11 11.88 11.90 9.21 10.28 9.31 8.64 5.95 3.76 2.14 -0.12 4.53 3.28
43.01 43.46 43.11 41.43 41.24 41.28 42.45 42.00 39.83 36.26 31.87 27.32 26.30 17.73 12.78 22.03 25.09 28.27 29.95 30.50 30.82 32.57 32.48 30.87 29.46 31.41 25.92 23.07 26.37 25.88 19.52 11.04 12.32 9.74 6.73 14.14 15.88 15.68 14.23 13.93 11.53 9.76 7.39 7.82 4.34 6.04 2.70 4.71 5.67 4.51 0.68 2.73 4.93 2.83
41.67 40.83 40.58 41.28 40.19 39.79 39.32 38.09 36.09 34.31 29.26 25.68 22.00 21.66 23.30 22.35 22.57 26.40 28.25 28.66 31.98 32.04 32.34 29.94 25.47 22.43 21.56 22.02 20.43 15.18 17.70 13.08 7.78 4.63 9.69 14.58 12.53 12.70 12.52 12.29 8.57 6.29 7.46 5.31 3.96 4.85 4.88 3.42 5.06 3.43 3.22 1.91 -1.55 0.52
39.41 36.50 40.18 41.45 39.62 40.42 38.86 33.43 31.52 27.98 25.42 22.76 18.44 19.12 14.12 17.58 18.51 24.88 26.98 27.30 31.50 32.22 28.25 23.09 17.27 18.50 23.61 14.42 12.65 13.69 8.45 5.48 7.32 12.32 13.47 9.00 12.18 9.46 6.92 9.37 10.89 12.10 10.20 7.59 5.85 6.06 4.71 3.68 4.47 8.60 7.53 4.97 8.47 6.78
36.44 39.40 40.99 40.72 38.26 36.70 33.66 31.80 27.62 25.13 21.04 19.81 16.98 21.16 22.53 19.56 15.63 24.40 26.10 26.51 29.32 27.55 23.50 19.02 22.07 11.09 7.44 10.60 5.91 7.45 13.23 8.75 10.47 12.67 8.14 6.15 9.64 12.22 14.90 11.55 9.92 11.56 9.68 7.98 9.96 9.13 9.10 8.45 12.39 10.92 12.17 12.64 12.18 12.15
38.97 39.05 40.09 40.40 38.96 31.82 28.78 27.31 27.50 19.98 17.92 17.96 18.96 21.66 16.77 16.54 19.25 21.85 24.86 26.37 25.50 25.33 22.61 17.89 10.34 5.75 4.29 6.41 5.38 9.56 9.84 10.81 14.97 15.33 15.46 12.56 13.41 13.96 12.13 13.09 12.64 11.28 13.34 14.35 15.57 13.84 15.28 15.34 14.37 13.57 14.40 15.90 13.08 13.05
40.30 39.20 39.26 39.59 39.30 29.87 26.76 25.71 28.51 23.37 18.30 21.13 21.96 20.99 20.69 18.38 20.84 17.41 20.46 22.81 23.45 21.27 15.75 10.67 7.91 12.91 9.98 8.99 8.93 15.83 15.84 17.90 17.91 15.28 12.99 13.72 11.86 14.28 11.71 14.63 12.05 14.37 15.31 16.26 15.07 13.00 13.07 11.77 11.31 10.24 8.91 9.93 7.77 6.75
39.55 38.49 38.90 38.94 33.64 31.45 27.20 25.19 24.65 24.93 25.03 21.04 22.15 20.87 18.11 20.70 16.53 16.17 17.36 22.08 16.88 14.70 10.73 11.33 17.68 19.14 18.96 19.44 20.54 19.59 17.43 17.45 12.92 12.12 12.39 14.56 10.07 14.60 14.51 13.91 15.72 14.44 12.04 8.61 9.02 6.18 7.00 5.30 6.37 7.15 -2.77 -6.18 -9.26 -7.63
36.24 39.68 34.86 34.64 29.97 29.06 27.05 27.17 25.01 25.62 24.52 24.57 23.91 23.55 15.54 10.68 10.58 13.04 18.55 14.56 13.24 11.97 13.46 14.85 17.37 19.67 18.97 17.50 16.50 19.26 18.18 18.59 16.98 14.67 13.33 13.55 11.18 11.57 10.87 7.40 10.48 4.52 6.53 3.99 7.06 0.39 0.81 4.37 2.60 0.06 -6.00 -8.18 -4.56 -3.17
38.59 36.12 30.46 28.61 23.71 23.18 23.08 30.38 24.08 25.31 16.78 19.81 21.50 17.04 11.15 9.77 13.65 20.67 10.01 13.44 12.00 15.56 18.48 19.06 19.22 20.76 19.47 20.06 20.86 21.03 21.36 19.58 16.48 15.15 12.80 11.18 9.72 3.56 7.46 5.46 3.56 3.53 1.94 4.17 6.07 1.63 -1.66 -0.25 -2.47 -8.18 -8.18 -6.36 -9.63 -8.90
32.57 27.35 20.16 18.22 21.70 19.29 22.00 19.46 25.80 23.89 22.98 18.87 16.12 11.88 12.23 10.98 17.82 10.27 8.48 12.37 13.92 17.87 18.14 17.98 18.26 16.95 17.12 17.02 14.94 16.00 16.31 15.56 11.97 8.37 10.82 11.63 8.96 7.13 7.91 6.61 4.93 3.67 4.34 7.55 4.70 -1.32 -3.34 -9.34 -7.99 -6.00 -12.89 -12.89 -15.79 -10.36
19.64 14.82 15.90 14.09 17.86 14.33 12.66 11.96 13.15 14.58 8.59 10.64 9.41 8.77 12.14 16.71 6.99 5.12 7.07 8.94 11.03 8.77 7.94 14.54 15.67 14.91 8.99 3.59 8.40 11.99 14.53 15.82 13.10 10.05 5.90 9.92 7.27 8.14 7.15 7.25 4.74 5.62 3.77 -2.39 -4.91 -7.81 -9.63 -13.98 -14.88 -13.10 -11.45 -15.97 -10.54 -12.02
10.19 9.40 13.81 14.50 14.42 14.22 14.14 9.43 8.13 9.08 8.82 7.40 8.84 15.08 14.70 6.43 2.21 1.20 9.05 6.77 6.47 2.65 4.11 11.23 10.52 11.15 12.01 13.61 11.14 10.94 10.87 13.85 12.79 6.63 8.99 10.78 8.74 4.42 1.21 -0.66 -1.54 -0.62 -0.08 -7.63 -9.63 -11.26 -7.45 -5.82 -8.72 -8.90 -10.89 -9.08 -10.17 -14.52
5.79 5.65 18.19 20.76 19.90 20.35 15.04 14.76 17.40 12.64 6.26 6.48 7.67 6.82 3.05 -2.77 -2.92 7.48 8.98 7.04 10.35 5.04 13.93 15.62 15.50 13.72 11.96 9.90 10.57 9.86 10.41 10.05 9.46 9.06 7.90 7.63 6.64 4.90 1.98 -2.18 -1.15 1.76 -2.77 -8.58 -12.16 -11.80 -11.62 -13.25 -12.89 -11.80 -11.98 -11.98 -9.08 -9.08
12.24 11.36 8.99 6.62 7.80 10.35 2.37 0.81 0.49 1.80 5.32 14.09 9.89 -1.92 -1.59 -0.08 3.19 10.44 9.12 13.58 14.59 15.03 14.14 13.83 13.86 12.60 10.04 7.54 5.86 6.59 5.28 5.94 5.78 5.73 5.53 4.59 1.74 -3.22 -6.38 -7.09 -6.19 2.34 -10.19 -14.55 -14.34 -17.60 -15.79 -15.61 -15.79 -16.88 -17.60 -15.43 -14.52 -16.88
6.29 6.68 9.40 1.19 2.84 3.88 5.85 1.06 1.97 8.85 12.66 8.12 -1.64 -2.56 2.66 9.75 7.75 8.21 14.38 11.04 14.53 13.63 10.06 8.08 4.83 5.23 3.16 1.90 -1.39 -2.42 -5.09 2.20 -1.46 -6.00 -9.99 -10.35 -11.26 -3.85 -7.99 -11.44 -12.71 -14.16 -16.51 -10.35 -2.19 -5.09 -6.18 -9.49 -10.71 -12.89 -14.16 -16.51 -13.98 -18.33
7.07 6.41 2.69 -3.34 -2.14 0.88 0.82 2.77 2.25 3.63 9.99 5.65 9.57 11.45 8.54 9.68 13.73 13.95 11.41 11.05 8.22 6.51 4.09 6.79 3.88 5.02 -1.33 1.23 -5.82 -3.13 -9.26 -14.70 -8.23 -1.80 -7.30 -10.53 -5.98 -8.02 -9.63 -9.99 -11.98 -16.51 -20.32 -17.24 -15.61 -12.02 -3.46 -13.44 -9.47 -16.16 -17.09 -18.16 -21.41 -21.77
8.54 2.41 0.81 2.13 1.61 2.42 4.84 3.07 5.91 4.24 -1.64 -1.43 -0.74 0.49 0.28 8.82 12.88 13.44 11.15 7.01 8.99 8.45 6.06 -0.59 -5.46 -9.26 -1.49 -7.23 -11.37 -9.84 -7.48 -7.47 -13.98 -12.34 -8.38 -8.73 -13.61 -15.97 -16.51 -17.78 -19.05 -21.41 -20.87 -19.42 -19.78 -19.60 -17.78 -19.42 -22.68 -21.77 -20.68 -19.05 -18.87 -22.86
-2.26 -5.65 -0.52 -0.26 2.30 3.77 -0.05 -3.85 -1.66 -0.62 -1.24 -1.95 -0.18 -7.63 -2.78 -1.41 -3.30 3.12 9.65 5.25 3.70 1.19 -5.64 0.12 0.78 -2.74 -9.63 -11.81 -12.00 -12.02 -3.02 -4.41 -9.99 -11.44 -10.72 -13.80 -17.60 -19.42 -17.78 -17.24 -21.41 -21.05 -19.96 -20.68 -22.13 -21.95 -20.68 -19.60 -21.05 -21.23 -21.41 -20.50 -19.42 -21.23
-3.68 -6.24 -6.42 -1.50 2.18 1.41 3.10 -0.45 -2.04 -1.06 -1.14 0.20 0.24 -1.67 -9.27 -6.46 -4.24 0.67 5.55 5.39 2.59 3.20 -0.21 -5.47 -3.85 -3.15 -5.18 -3.08 -1.92 -4.09 -5.05 -10.71 -13.80 -2.74 -8.18 -9.63 -14.16 -14.16 -21.41 -23.77 -24.13 -23.04 -20.53 -21.59 -23.59 -22.68 -20.32 -19.42 -19.78 -20.87 -22.13 -23.59 -21.23 -20.54

GFSWCAN_sfc_wetblb_084.txt.gz
Wetbulb
41.02 41.10 41.83 42.26 41.73 42.36 42.39 42.00 42.07 42.13 42.73 43.09 43.67 44.09 44.33 44.55 45.10 42.71 39.15 39.44 35.66 29.29 27.59 31.94 32.78 28.14 28.87 27.77 23.68 28.47 27.39 28.47 30.25 26.69 26.28 25.02 23.52 26.60 26.55 28.17 27.36 26.23 25.46 24.95 26.68 23.66 19.86 38.08 39.48 33.60 37.28 36.56 34.17 33.96
40.48 41.42 41.79 41.86 42.41 41.65 41.33 41.65 42.13 42.63 43.02 43.77 44.02 44.15 44.26 44.67 45.10 44.00 37.16 39.66 38.79 32.32 28.09 33.31 35.37 35.67 33.45 32.78 29.60 31.06 29.43 31.62 32.39 30.40 29.19 29.70 26.40 26.67 26.63 22.25 31.64 26.60 30.71 28.04 28.82 28.08 35.45 35.43 35.42 36.53 36.33 34.08 35.96 33.90
40.67 41.42 41.85 41.70 41.55 41.10 41.33 41.89 42.57 43.16 43.32 43.54 44.00 44.41 44.45 44.74 45.21 43.94 37.94 38.35 37.86 34.34 31.97 29.14 29.40 34.25 36.77 36.35 36.72 29.18 32.66 36.11 34.36 36.49 33.45 32.12 28.80 32.54 26.89 25.26 27.05 26.78 33.16 29.06 32.66 32.32 31.49 33.13 34.03 33.33 32.95 31.58 32.88 33.40
40.56 41.42 41.48 41.07 40.83 40.83 41.27 42.17 42.90 42.83 43.15 43.89 44.37 45.18 45.46 45.26 45.61 44.63 38.58 38.32 36.02 31.06 25.72 25.17 34.00 31.38 35.63 35.88 35.88 36.88 36.49 39.22 36.68 36.13 33.07 31.06 27.98 35.52 30.69 28.10 23.38 26.25 28.79 27.09 31.47 33.28 32.67 30.53 31.20 31.29 30.50 30.66 29.10 29.48
40.98 41.32 40.73 40.51 40.63 41.04 41.74 42.41 42.81 43.15 43.83 44.38 45.15 45.97 46.34 45.73 45.90 44.12 41.39 40.10 38.67 31.78 21.54 25.37 31.43 34.40 36.09 34.47 34.38 35.31 35.31 35.20 32.29 28.50 32.39 27.14 33.67 34.67 32.77 29.86 21.82 27.27 25.40 24.43 25.52 31.68 30.21 28.18 29.47 29.96 27.62 26.21 26.79 26.26
40.85 40.57 40.38 40.30 40.86 41.82 42.28 42.82 42.91 43.73 44.49 45.02 45.69 46.04 46.54 46.02 45.68 42.06 33.13 40.06 40.47 38.44 31.14 20.90 29.70 31.13 34.13 34.34 33.21 32.54 33.42 34.25 33.30 33.69 33.90 33.15 37.56 34.84 28.49 23.20 25.04 27.93 29.78 31.23 30.34 31.85 30.04 29.08 28.37 28.11 25.61 24.44 24.56 24.07
40.47 40.29 40.12 40.81 41.25 41.49 42.07 42.92 43.27 43.90 44.63 45.47 45.83 46.15 46.22 46.06 43.07 37.72 34.49 37.48 42.00 40.42 32.66 25.91 24.39 30.88 35.77 34.79 32.92 32.88 35.68 34.95 32.67 35.04 30.93 32.35 33.18 33.07 26.15 20.71 25.13 26.79 29.79 30.84 30.79 33.78 28.63 28.01 25.51 26.21 25.03 24.05 23.96 22.10
39.83 39.72 40.01 40.80 41.35 41.84 42.71 42.95 43.52 44.24 44.98 45.52 45.67 45.85 45.99 45.81 43.59 39.58 40.33 43.01 41.79 37.06 35.54 25.89 23.69 27.04 36.12 29.52 30.11 33.45 31.21 33.27 34.02 33.34 32.59 33.81 31.04 29.11 20.82 24.19 25.28 25.55 28.33 28.75 28.21 28.67 27.59 27.07 26.37 25.19 25.14 23.83 21.24 19.99
39.08 39.60 40.62 41.46 42.08 42.57 42.81 43.45 44.08 44.80 45.35 45.74 45.73 45.88 43.28 39.89 37.02 39.59 44.07 43.46 42.48 36.91 28.11 28.30 24.11 19.87 36.28 34.47 35.27 34.02 34.53 26.06 32.49 31.53 32.91 31.11 23.73 17.26 21.80 22.42 22.28 22.95 22.38 23.14 26.43 25.29 24.19 22.59 21.89 22.25 22.38 22.61 20.58 19.35
39.08 40.34 41.29 41.68 42.03 42.48 43.39 44.13 44.35 45.04 45.52 45.67 41.75 35.80 30.17 37.04 44.80 42.77 38.47 32.92 33.45 33.98 35.32 23.76 26.88 25.40 33.79 32.72 30.39 28.93 32.39 29.60 29.25 32.23 29.83 22.94 16.68 22.60 22.33 22.32 22.24 22.27 22.08 23.16 23.98 21.38 22.39 20.47 20.22 19.77 19.68 20.50 19.47 18.51
40.12 41.29 41.69 41.97 42.78 43.59 44.24 44.77 45.06 45.19 45.26 39.77 34.16 33.10 40.35 44.54 38.12 34.32 29.75 29.35 30.03 27.98 30.20 30.62 27.85 25.58 36.79 30.69 29.67 32.60 30.16 31.53 27.32 30.24 28.25 21.04 15.82 20.47 22.75 21.24 21.24 21.47 21.90 21.40 21.96 21.48 21.35 20.58 19.93 18.82 17.82 17.76 17.02 15.58
41.22 41.98 42.82 43.53 43.97 44.70 44.97 44.98 45.10 43.41 40.15 39.32 39.41 40.73 39.12 34.97 32.18 29.11 26.02 28.82 27.05 23.47 28.07 28.22 29.67 31.13 34.24 34.80 31.65 32.38 28.78 30.49 24.87 31.02 23.52 12.04 17.29 21.31 20.76 20.12 19.59 19.99 20.00 19.54 20.16 19.23 19.47 19.02 18.44 17.20 15.89 14.28 12.78 11.19
41.80 43.53 44.52 44.63 44.67 45.08 45.15 45.02 45.11 43.95 43.44 40.79 37.16 32.18 32.87 30.85 25.47 18.71 20.78 24.34 23.40 22.57 28.77 32.56 31.35 32.96 33.73 34.88 31.65 31.23 27.72 25.88 28.82 16.33 13.24 11.95 18.90 20.28 19.49 19.53 19.14 19.80 19.30 18.03 16.53 16.39 15.39 13.80 13.49 13.03 10.21 7.46 8.41 6.86
44.46 44.60 44.60 45.19 45.30 45.31 45.52 45.52 44.68 43.30 39.06 33.12 29.55 23.36 24.96 22.49 19.48 21.05 23.24 20.19 24.48 31.98 31.92 33.10 32.16 31.73 32.01 30.67 30.43 19.02 23.65 28.26 19.40 12.13 11.79 14.21 16.36 17.17 18.14 18.44 15.32 10.93 10.95 10.73 8.03 9.15 8.00 6.83 3.40 2.99 1.01 -1.92 2.72 0.91
42.60 41.94 41.99 43.11 44.38 44.75 44.82 43.54 41.68 37.45 32.90 27.93 26.34 20.91 15.49 20.22 22.31 28.44 30.29 30.22 31.03 32.92 33.13 31.55 30.30 31.76 25.11 23.08 24.28 24.42 22.12 19.05 13.95 11.45 5.89 12.02 15.27 14.94 12.24 11.83 9.19 6.85 4.88 5.99 3.60 4.24 0.86 3.76 4.72 2.49 -0.95 -0.17 2.17 -1.59
41.79 40.81 39.49 40.91 40.84 40.22 39.66 38.38 36.44 34.50 29.26 26.05 20.74 17.75 22.37 21.05 24.24 26.94 28.58 29.06 32.13 32.21 32.50 29.63 24.77 20.25 19.27 22.38 21.90 18.09 16.36 12.11 7.52 2.43 7.69 13.64 10.97 11.07 11.23 12.56 9.83 7.74 6.66 3.81 1.60 3.60 3.66 1.59 3.02 1.22 0.18 -0.91 -3.86 -2.70
40.59 37.76 40.45 40.71 40.33 39.30 38.60 32.87 30.93 27.55 25.01 21.56 16.14 19.15 15.52 16.10 22.09 24.84 26.97 27.44 30.95 31.94 25.25 22.60 17.52 18.95 23.07 15.82 14.31 14.54 10.10 6.32 5.65 10.07 10.41 10.34 11.86 10.16 7.63 7.26 8.31 9.72 8.15 5.71 3.85 4.65 3.13 1.92 2.73 7.40 6.77 3.86 7.37 5.77
37.73 40.55 39.83 39.17 37.71 36.86 33.87 31.64 28.08 25.66 20.50 20.30 17.74 18.63 21.65 17.72 22.62 23.47 23.48 26.14 29.26 25.87 23.95 19.84 23.16 13.38 9.54 13.35 7.97 6.13 6.98 6.93 7.72 12.06 8.74 4.83 6.81 8.15 11.60 9.39 8.93 10.39 8.85 6.12 7.94 6.93 7.14 7.71 11.64 11.59 11.28 11.25 10.86 10.98
38.66 39.72 40.57 40.34 37.89 32.96 28.49 27.15 27.93 20.18 19.48 19.46 20.34 20.21 18.04 16.59 23.13 24.13 23.44 25.05 25.00 23.47 21.75 16.82 10.75 7.33 6.08 4.57 3.14 3.40 9.62 9.59 13.67 10.96 8.11 6.56 11.15 12.39 11.02 12.05 11.36 9.17 10.89 11.08 15.59 13.60 13.71 15.32 13.77 12.02 13.10 14.32 10.81 11.18
40.30 40.40 40.69 40.38 37.52 28.89 26.65 25.10 28.15 23.12 18.27 20.17 19.81 19.59 18.50 16.66 19.53 20.69 22.05 23.21 23.33 21.05 15.50 10.60 6.24 11.15 7.25 7.51 8.44 14.48 14.08 16.80 16.46 14.62 11.40 11.40 11.28 13.56 10.72 13.82 11.79 14.36 16.41 16.51 13.32 11.84 11.81 10.15 9.47 8.47 7.07 7.06 2.94 1.77
38.24 38.12 39.71 36.93 31.34 28.93 26.01 25.04 24.11 23.99 23.81 19.75 20.88 20.89 18.39 20.39 16.49 15.30 16.50 20.96 16.72 14.70 9.86 9.88 17.64 17.85 14.92 15.49 18.44 18.37 17.42 17.62 12.06 12.09 13.28 12.40 12.28 13.80 13.18 12.18 14.63 12.42 10.15 7.38 5.93 4.05 5.04 4.53 4.88 5.16 -5.12 -9.65 -11.65 -10.74
36.71 39.16 33.83 34.18 29.57 27.72 25.36 25.88 24.67 24.86 23.48 23.78 22.62 21.44 14.41 10.42 9.95 12.65 18.21 14.03 11.29 10.17 10.70 16.68 19.07 17.72 17.32 16.25 16.23 17.97 16.91 17.65 15.88 14.17 13.15 13.86 12.80 11.64 8.44 6.64 10.82 4.13 4.37 2.55 4.27 -0.67 -0.63 2.58 0.96 -1.57 -6.93 -9.47 -6.39 -4.95
38.66 35.91 30.54 29.05 23.93 20.31 20.79 28.01 20.69 23.63 15.86 19.57 19.97 15.15 10.47 9.23 12.90 19.83 10.17 12.20 9.97 14.06 14.71 18.29 18.70 20.38 19.53 18.88 19.46 19.70 20.15 18.43 15.23 13.87 11.24 9.84 7.87 2.11 6.12 4.09 2.71 2.18 1.54 3.25 4.63 0.44 -2.73 -2.05 -4.24 -10.20 -11.65 -10.02 -13.10 -12.37
32.11 27.35 24.51 23.32 24.52 19.63 23.88 18.46 24.70 22.30 21.74 18.51 14.84 10.59 10.82 9.81 15.80 8.82 6.11 9.33 11.17 16.75 17.90 18.16 18.20 17.36 17.81 16.78 14.44 14.08 14.90 14.29 10.91 7.68 9.27 11.14 8.30 6.12 6.40 5.40 4.17 2.76 3.09 6.27 3.75 -3.33 -5.14 -12.38 -10.74 -8.20 -15.45 -14.91 -17.99 -15.45
23.25 18.39 20.04 17.13 20.34 18.94 16.49 13.49 11.39 13.49 9.05 8.78 8.61 7.03 10.09 14.11 4.32 1.86 5.73 7.47 10.12 11.75 11.15 13.66 15.34 15.04 9.85 7.34 10.74 10.81 13.37 15.35 12.82 9.33 4.12 9.01 6.36 6.52 5.71 5.81 3.28 4.03 2.33 -4.58 -6.75 -8.75 -9.11 -15.45 -16.90 -15.09 -12.73 -17.45 -11.65 -12.92
12.54 13.51 14.13 15.14 14.08 13.98 14.04 9.34 5.40 6.29 5.69 4.49 5.79 12.42 10.88 3.95 1.49 1.01 7.87 5.71 8.92 6.20 6.66 9.96 9.65 11.31 11.29 12.56 10.20 9.56 9.80 13.01 12.31 6.38 7.79 9.81 7.81 2.93 -1.05 -2.46 -1.94 -1.07 -1.57 -8.56 -10.56 -12.92 -11.65 -11.10 -10.02 -6.93 -8.38 -8.20 -10.92 -16.36
5.76 6.37 17.41 18.87 18.01 18.44 10.89 10.37 14.03 8.32 3.11 4.02 5.87 4.24 1.40 -0.16 -1.86 5.49 8.39 6.60 9.21 3.12 10.82 12.24 14.20 13.20 11.67 9.52 9.98 8.90 9.13 9.22 8.65 7.79 6.20 5.91 5.04 3.84 1.21 -3.48 -2.11 0.61 -3.01 -8.25 -13.28 -12.92 -12.37 -14.00 -15.09 -15.64 -16.18 -18.54 -17.27 -15.82
9.98 9.64 8.72 4.81 5.75 8.60 -0.51 -1.89 -2.41 -0.77 3.52 12.45 8.53 -2.15 -0.42 0.22 2.19 7.16 9.70 13.63 12.69 13.04 11.00 10.27 11.29 11.56 9.61 7.25 6.32 5.49 3.55 4.06 3.83 4.13 4.31 3.49 -0.20 -4.06 -6.58 -7.30 -1.86 0.86 -12.56 -16.55 -16.54 -19.44 -16.90 -16.36 -16.54 -17.81 -19.08 -17.27 -17.09 -15.82
3.76 4.01 8.15 -0.51 0.99 2.45 3.34 -0.78 0.31 7.74 11.61 6.29 -2.04 -2.76 2.46 7.76 5.62 5.63 14.23 13.36 12.27 12.29 7.97 5.35 0.14 0.53 0.99 -0.24 -3.53 -4.21 -1.53 1.40 -1.74 -6.76 -10.20 -10.92 -11.28 -3.21 -10.20 -14.73 -15.64 -17.27 -19.62 -13.82 -6.03 -6.39 -10.92 -11.65 -14.55 -17.27 -17.81 -19.26 -17.81 -21.26
4.34 3.45 0.86 -5.39 -4.96 -2.04 -0.50 1.12 0.41 1.99 8.10 5.23 7.43 9.21 6.76 5.01 10.55 12.81 11.73 7.36 6.61 4.65 0.56 4.41 -1.12 2.87 0.96 1.34 -4.76 -4.94 -14.37 -16.18 -9.00 -2.44 -5.87 -7.84 -2.96 -8.21 -13.28 -14.55 -15.64 -20.17 -22.71 -18.54 -16.72 -13.64 -5.12 -15.27 -12.19 -18.90 -20.35 -20.53 -24.16 -24.34
6.09 -0.01 -0.62 -0.24 -1.68 -0.46 1.63 -0.26 1.09 2.14 -3.54 -4.24 -7.11 -3.92 -1.36 4.57 11.08 12.01 9.86 8.71 7.36 6.67 4.47 -1.73 -7.11 -10.92 -0.88 -3.68 -6.75 -5.66 -4.40 -7.66 -14.18 -12.55 -9.50 -6.77 -7.66 -12.92 -17.99 -19.44 -21.98 -24.88 -23.97 -22.34 -21.62 -21.62 -20.71 -21.80 -24.70 -23.25 -22.16 -20.71 -18.35 -23.97
-4.71 -7.84 -2.48 -4.21 -0.41 1.62 -0.16 -6.58 -4.58 -2.26 -1.39 0.37 -2.96 -10.92 -6.02 -3.17 -4.76 2.13 6.58 7.49 7.39 4.18 -0.86 1.78 0.41 -4.63 -10.02 -10.79 -11.00 -9.68 -2.59 -4.44 -10.56 -7.71 -4.96 -8.56 -16.90 -21.44 -20.89 -20.53 -25.24 -24.52 -23.25 -23.43 -24.52 -24.16 -22.71 -21.26 -22.52 -23.25 -23.79 -22.34 -22.34 -23.43
-9.00 -9.50 -8.94 -3.68 -0.52 -2.58 -2.58 -2.37 -3.16 -1.64 -2.11 -0.98 -1.49 -11.47 -14.91 -7.75 -3.81 -1.66 4.44 4.47 4.62 4.81 1.33 -7.48 -6.58 -3.60 -3.17 -3.12 -2.88 -3.53 -4.79 -9.29 -9.83 -1.13 -7.30 -9.29 -14.73 -16.54 -24.70 -26.69 -26.51 -24.70 -21.62 -23.25 -25.24 -25.24 -22.52 -22.34 -21.98 -23.43 -23.79 -24.88 -22.34 -20.73

GFSWCAN_sfc_wetblb_087.txt.gz
Wetbulb
41.49 41.41 41.10 41.37 41.78 41.73 42.62 42.28 42.44 42.29 42.57 42.49 42.80 43.29 43.70 44.11 44.53 42.00 39.81 40.35 35.83 28.96 29.33 32.40 33.52 30.23 30.12 29.27 25.22 29.28 29.21 30.84 31.13 27.73 27.52 26.91 26.03 28.03 28.10 29.65 28.42 27.61 26.22 25.92 26.51 23.90 20.79 34.40 37.23 31.82 35.18 34.51 34.01 32.02
41.14 41.16 41.24 41.16 41.61 41.52 42.05 41.83 41.47 41.58 42.09 42.65 43.13 43.80 44.23 44.20 44.61 43.66 37.82 40.46 40.05 33.71 31.27 34.71 36.28 36.37 34.40 34.30 31.77 32.00 30.50 31.91 33.09 28.27 29.73 30.73 26.54 29.17 27.15 24.58 32.15 27.78 29.25 26.09 30.51 28.95 32.39 32.90 31.46 32.86 33.98 32.89 32.89 31.99
40.29 40.34 40.98 41.64 41.84 41.91 41.66 41.27 41.60 42.07 42.59 43.16 43.61 43.62 44.22 44.35 44.72 43.41 38.49 39.16 37.11 33.78 32.33 30.99 30.87 35.17 37.56 37.51 39.04 30.24 33.37 36.05 34.91 36.47 32.07 32.58 27.85 32.59 27.67 25.17 26.43 26.21 29.81 28.58 27.94 29.27 28.80 30.28 31.55 31.35 30.71 29.45 30.49 30.91
39.83 40.10 40.57 40.98 41.93 41.63 41.08 40.97 41.47 42.25 43.02 42.95 43.16 43.94 44.57 44.76 45.06 43.20 38.86 39.66 37.28 31.72 25.70 27.75 34.98 33.07 36.89 37.06 36.87 37.37 35.66 39.02 38.05 36.86 31.11 31.78 27.70 35.31 28.96 27.20 24.79 26.15 28.11 25.89 29.49 30.59 30.38 28.14 28.95 29.20 29.06 29.52 28.28 28.03
39.54 40.13 41.03 41.30 41.43 40.91 40.71 40.83 41.43 42.47 42.47 42.81 43.82 44.59 45.32 45.79 45.44 43.26 41.22 40.31 38.99 33.11 25.54 27.75 33.02 34.89 36.64 35.61 35.02 35.84 35.30 34.49 34.05 30.80 31.49 30.55 34.11 34.40 32.29 28.08 22.65 27.07 25.06 24.65 23.56 29.35 26.63 25.34 27.63 28.07 25.59 25.64 26.34 25.24
39.65 40.24 40.93 41.07 40.88 40.43 40.63 41.12 42.04 42.29 42.48 43.29 44.31 45.18 45.84 46.28 45.44 41.58 32.92 40.01 40.45 39.39 32.29 24.37 32.45 32.73 35.34 35.05 34.29 34.07 35.00 34.85 35.00 32.98 32.71 35.09 37.48 34.79 28.18 23.21 25.88 27.97 30.41 29.43 29.52 29.31 27.49 26.67 26.68 27.08 24.26 23.36 23.39 22.35
40.00 40.41 40.80 40.85 40.38 40.38 41.08 41.95 42.05 42.15 42.89 43.67 44.77 45.56 45.98 46.03 43.22 37.48 34.98 37.65 41.55 40.66 32.83 26.19 26.76 32.34 36.90 35.25 34.22 34.58 35.91 35.68 35.44 34.10 33.62 33.93 32.79 32.53 27.16 21.83 24.40 26.61 29.86 29.12 31.17 30.20 26.01 26.70 23.93 25.82 24.24 22.94 23.29 21.50
40.38 40.38 40.60 40.33 40.15 40.83 41.24 42.09 42.05 42.37 43.07 44.02 45.03 45.74 46.09 45.85 43.67 39.65 41.84 42.69 41.54 37.23 34.02 26.58 25.90 29.09 37.26 32.66 32.42 36.00 32.62 35.07 36.24 34.50 34.64 33.61 30.94 29.32 21.11 23.47 24.72 24.99 27.77 27.65 26.67 27.73 26.52 26.23 25.38 24.24 24.25 23.35 20.88 19.72
39.97 40.38 40.06 40.01 40.28 40.44 41.50 41.94 42.36 42.93 43.59 44.42 45.32 45.26 42.85 40.12 37.07 39.24 43.39 42.88 42.69 37.17 28.87 27.98 24.07 23.29 36.45 34.57 36.01 35.13 35.47 29.93 34.12 32.72 32.81 32.33 24.90 18.90 22.19 23.09 22.11 22.36 22.22 23.52 25.25 24.72 24.08 22.26 22.15 22.66 23.12 21.39 19.81 18.95
39.46 39.41 39.41 39.97 39.92 40.93 41.85 42.43 42.91 43.41 44.31 44.97 42.39 36.81 30.90 37.02 44.23 42.40 38.04 33.44 33.81 34.13 35.20 27.20 29.10 25.99 33.53 33.59 31.22 31.38 33.49 30.41 27.26 32.08 30.22 25.08 18.90 22.46 22.57 22.27 22.36 22.21 22.45 24.99 24.18 21.87 21.98 20.47 20.41 19.96 19.53 19.78 18.72 17.60
39.12 39.02 38.99 39.35 40.34 41.38 41.83 42.28 43.31 44.34 44.58 40.01 34.67 33.63 39.61 44.00 37.88 33.60 30.15 29.88 30.76 27.98 31.05 31.74 28.35 27.99 36.56 30.71 30.25 31.60 30.81 31.43 27.26 30.18 29.94 23.03 18.26 21.25 22.49 21.18 21.36 22.44 22.55 22.53 22.32 22.02 21.95 21.79 20.22 18.85 18.04 17.48 16.72 15.72
38.85 39.14 39.60 40.88 41.83 41.81 42.20 43.24 44.46 43.07 40.01 38.62 39.39 41.16 39.83 35.23 32.73 29.00 26.79 28.75 27.40 25.17 29.09 28.27 29.62 32.41 34.74 36.70 31.90 32.82 30.20 30.96 26.08 31.24 26.41 20.57 19.60 21.83 20.94 19.91 20.01 20.94 20.62 20.06 20.98 20.15 19.88 19.47 19.15 17.73 16.30 14.80 13.10 11.94
40.30 40.63 40.71 40.94 42.46 42.82 43.80 44.36 44.56 43.74 43.29 41.59 36.37 32.30 32.47 31.07 26.39 22.20 18.46 24.65 23.97 26.54 26.51 31.19 30.25 32.53 34.72 35.44 32.38 32.35 28.68 27.79 30.15 24.10 22.25 17.59 20.86 20.84 20.06 19.69 19.52 19.90 19.15 18.08 17.02 17.02 16.34 15.27 14.87 13.84 11.35 10.25 10.81 8.33
40.09 41.06 41.59 42.24 43.09 43.87 44.14 44.82 44.60 43.37 40.01 33.63 30.92 25.04 25.67 23.37 24.12 21.82 23.98 25.76 27.81 27.98 30.18 32.32 32.50 31.94 32.44 30.89 31.81 26.53 27.38 28.88 22.87 20.27 20.37 18.34 19.48 19.27 19.44 19.09 16.30 13.37 12.77 12.64 11.79 11.83 10.46 9.12 6.86 6.14 5.90 6.80 7.87 6.22
41.39 42.90 44.16 43.54 43.81 44.43 44.79 44.80 44.11 40.15 33.16 29.69 28.36 21.00 19.82 21.97 22.90 27.46 27.32 30.42 31.39 32.85 33.57 32.77 32.26 32.49 28.73 27.26 27.24 25.79 24.80 22.19 23.14 21.68 16.51 17.79 18.02 16.21 14.26 13.45 11.65 10.16 8.96 9.16 9.84 8.74 7.92 8.38 8.54 6.85 5.55 7.37 6.47 4.85
41.10 40.64 40.40 44.44 44.87 45.32 44.77 44.11 36.48 34.50 30.55 26.74 22.91 17.47 20.23 22.90 26.47 28.61 28.33 29.81 32.68 32.92 33.54 31.94 28.53 27.12 25.47 24.21 24.03 23.96 21.59 19.08 19.32 14.45 13.53 15.66 13.28 13.01 13.19 13.47 11.18 10.99 10.91 9.81 9.92 10.36 9.88 8.86 9.89 9.02 7.71 7.17 5.08 6.39
40.12 36.68 40.23 41.14 41.53 41.15 39.92 34.25 32.26 28.87 26.32 21.36 14.55 12.66 15.30 17.28 22.19 25.34 28.23 28.80 31.09 32.73 29.10 26.14 21.84 23.66 24.59 19.25 18.96 18.70 18.28 16.04 11.95 13.20 15.55 14.91 14.40 12.67 11.60 11.92 11.90 12.83 12.00 11.68 11.27 11.59 10.29 8.90 9.59 13.11 12.98 11.99 12.39 10.68
36.99 39.60 40.49 39.63 38.09 35.99 32.73 31.76 28.84 25.44 19.07 19.04 16.63 15.60 19.42 18.31 23.09 24.49 25.31 27.33 29.98 28.64 27.01 24.79 25.42 21.16 19.25 18.70 17.33 14.82 12.91 11.78 13.96 15.71 14.92 13.45 12.65 12.44 14.65 13.21 13.06 13.89 13.07 11.81 12.94 12.05 11.50 12.10 14.37 15.33 14.03 13.80 13.05 12.98
38.70 40.09 40.67 39.98 37.75 32.71 29.02 28.38 28.83 20.03 19.81 19.08 21.23 21.88 21.01 20.49 23.38 23.58 24.71 26.87 26.72 26.59 24.72 20.84 17.79 17.74 17.17 13.95 13.04 10.73 13.90 15.87 14.88 13.86 13.16 12.98 14.47 14.49 13.83 14.25 13.86 13.87 14.04 14.40 15.87 16.42 16.58 16.59 16.79 16.57 16.80 16.35 14.79 14.72
40.47 39.83 39.23 38.55 37.39 29.02 26.59 26.04 29.56 24.06 19.98 22.65 23.33 22.06 21.64 21.10 22.04 21.94 22.66 23.47 23.46 22.18 19.01 16.16 15.14 15.38 14.89 14.47 13.99 17.31 16.81 18.37 17.75 15.35 14.54 15.07 15.75 15.72 16.09 16.50 16.73 17.10 17.97 18.09 16.91 15.29 15.43 14.46 14.11 13.83 13.70 12.98 14.12 12.98
38.52 38.19 38.71 36.36 32.17 29.57 27.20 26.16 24.58 24.58 23.87 21.07 21.90 22.34 20.21 20.89 18.46 18.32 18.97 21.25 18.82 15.44 14.34 14.24 17.83 17.36 16.00 16.25 19.80 19.88 19.46 20.02 18.24 17.68 17.11 14.92 16.38 17.61 17.19 18.07 18.79 18.44 16.89 15.55 14.64 12.83 12.23 13.76 12.78 11.76 11.61 9.91 7.29 8.27
36.95 38.50 32.72 33.03 28.80 27.69 26.30 26.28 24.70 24.81 23.51 23.51 22.80 21.60 17.73 15.81 14.99 16.54 19.24 15.37 13.72 14.47 15.17 19.18 18.58 18.14 18.43 18.21 18.84 19.64 18.73 18.16 17.32 16.60 15.39 16.61 16.11 16.02 16.37 16.52 16.00 14.09 13.97 13.21 13.59 12.83 12.25 11.38 10.68 9.96 10.10 9.04 4.90 9.15
37.94 35.09 30.67 28.73 22.19 19.17 20.74 28.22 21.12 23.18 16.41 19.76 19.66 15.74 13.74 12.62 15.28 19.76 13.03 14.61 13.53 16.39 18.17 19.98 19.65 19.87 18.54 19.34 19.72 19.86 20.16 19.11 17.27 16.76 16.12 15.53 13.92 13.19 13.46 12.66 13.19 12.30 11.97 11.20 11.58 10.85 10.72 2.85 4.56 7.24 5.78 6.41 6.55 8.26
32.16 27.28 24.69 22.77 20.29 14.11 21.68 17.00 24.42 22.07 21.52 18.26 14.90 11.05 11.82 12.38 16.26 11.94 10.42 12.39 14.65 18.29 18.86 19.15 19.32 17.79 18.40 17.93 16.36 16.69 16.47 15.97 13.29 11.97 14.51 14.11 11.89 10.12 11.40 11.17 10.75 10.84 11.91 11.37 10.80 8.91 7.34 5.79 -2.32 6.25 3.35 5.14 3.52 4.28
22.22 19.15 22.15 16.24 19.30 12.49 12.81 14.10 12.77 13.99 9.14 9.62 9.74 8.63 11.17 15.27 8.74 6.62 9.83 10.46 13.69 15.05 15.72 17.74 18.07 17.58 14.03 12.05 13.52 14.39 15.77 16.98 15.30 12.50 11.48 12.85 10.56 10.38 9.66 9.40 8.61 8.85 8.57 9.24 7.75 7.44 5.60 0.57 1.09 2.52 3.52 3.12 4.44 3.65
16.04 16.05 18.76 19.64 17.73 14.62 14.35 9.51 5.60 6.93 7.69 5.40 7.35 13.51 11.99 8.55 5.04 6.39 10.53 9.68 12.24 11.54 12.85 14.98 14.27 14.78 14.03 15.33 13.78 14.24 14.02 15.57 14.81 11.49 10.85 12.35 12.10 10.97 9.00 8.46 8.52 8.65 6.18 7.02 5.55 5.74 4.27 1.39 1.97 2.01 3.24 2.54 -3.57 -1.52
13.18 13.80 17.38 18.11 17.82 17.98 9.78 9.90 13.35 9.39 4.09 6.24 9.71 10.40 6.45 3.04 3.98 7.87 11.05 10.02 13.54 10.70 14.26 16.09 17.68 16.98 14.28 11.88 11.19 10.60 11.22 11.41 12.04 10.62 8.71 8.63 8.18 8.72 9.14 7.92 6.79 8.94 5.00 3.82 3.97 5.14 4.89 2.55 1.51 0.49 0.62 0.20 -0.42 -1.23
12.34 11.19 9.63 6.42 6.96 8.60 1.05 -0.72 -1.37 -0.25 4.57 12.14 9.42 0.40 5.45 4.71 5.75 10.06 11.43 13.31 11.48 13.44 11.19 9.93 11.69 13.91 12.36 9.78 8.28 7.03 5.88 5.96 5.68 6.63 7.42 6.44 3.87 2.25 1.85 4.24 4.91 3.51 0.73 -0.33 1.32 -1.05 1.31 1.87 1.89 0.87 -0.45 0.42 0.01 -1.83
4.17 5.00 8.97 0.36 1.96 2.01 2.24 -0.81 1.67 8.47 10.71 7.40 1.09 1.20 3.78 8.36 8.25 7.18 13.31 13.53 13.39 12.40 8.80 6.51 2.47 4.47 3.16 1.82 0.53 3.30 7.19 7.89 6.04 1.62 0.64 2.37 2.73 4.56 0.03 1.51 1.05 -1.02 -1.31 2.10 -2.63 -0.65 -0.65 0.46 0.04 -0.08 -1.36 -1.39 -2.41 -7.14
4.00 4.09 1.31 -5.07 -4.51 -0.80 1.75 3.28 3.20 4.37 8.26 6.72 9.00 8.74 7.37 7.31 10.26 12.56 12.80 11.56 10.54 8.98 5.62 6.53 3.32 7.07 4.95 5.51 2.36 2.35 -2.83 -3.16 0.84 5.44 4.93 4.38 4.64 3.03 0.55 1.72 1.14 -3.15 -3.96 0.46 1.03 1.82 -0.79 -1.27 -0.89 -3.44 -3.39 -3.08 -3.07 -3.96
5.16 0.99 -0.35 0.05 -1.88 1.11 3.01 2.50 2.09 3.42 -1.17 -1.25 -4.62 0.28 2.46 5.49 10.07 10.75 9.51 9.02 6.93 6.85 6.12 1.69 -0.57 0.93 3.78 3.02 3.53 3.34 4.10 0.37 -4.39 -2.40 -0.14 0.28 0.84 0.59 -0.63 -2.98 -5.51 -6.12 -4.13 -2.43 -2.43 -2.25 -2.46 -3.20 -3.88 -4.42 -3.77 -4.29 -5.70 -8.88
-4.35 -8.05 -2.68 -4.06 -0.13 3.37 1.37 -4.07 -3.70 0.39 2.66 2.45 0.77 -6.44 -2.87 0.74 1.48 5.89 6.94 9.25 8.71 6.60 3.60 4.89 4.21 2.30 -2.16 -1.94 -1.80 0.08 0.88 -1.06 -0.38 0.50 0.82 0.17 -1.16 -3.52 -4.60 -6.05 -9.50 -7.50 -5.87 -6.06 -6.60 -6.29 -7.10 -6.31 -5.73 -6.50 -7.01 -7.41 -8.53 -9.69
-10.10 -10.05 -8.96 -4.07 -1.25 -2.61 -3.20 -1.78 -1.43 0.59 -0.62 0.25 0.96 -7.87 -10.04 -3.14 1.56 3.82 6.67 5.53 9.45 8.84 5.40 0.61 -0.81 -0.99 -1.42 -0.61 0.66 -0.31 -1.34 -1.49 -0.51 2.47 -0.26 -2.06 -4.91 -5.16 -8.06 -9.50 -9.72 -8.22 -6.36 -5.74 -6.75 -7.72 -7.33 -8.18 -6.76 -8.07 -8.21 -10.70 -11.21 -11.25

GFSWCAN_sfc_wetblb_090.txt.gz
Wetbulb
42.24 41.94 41.89 42.45 42.39 42.54 42.68 42.85 43.09 43.96 43.30 43.17 43.25 43.27 43.42 43.84 44.37 44.13 41.17 42.32 38.11 32.37 35.96 36.53 36.71 33.93 33.75 32.85 29.15 32.89 33.73 34.64 33.74 30.25 30.13 30.01 29.74 31.28 30.93 32.23 30.68 29.61 28.95 29.71 28.80 26.09 22.99 32.56 37.76 31.92 32.06 34.16 33.84 32.06
42.22 42.05 42.04 41.76 42.19 42.20 41.85 42.76 42.96 43.35 43.31 42.75 42.78 43.15 43.47 44.13 44.59 44.69 39.51 42.25 41.01 35.38 35.74 39.53 39.89 40.66 38.88 37.67 34.34 35.07 33.42 33.27 34.88 31.77 31.70 31.98 30.63 33.97 30.74 28.51 34.67 29.52 29.01 28.69 27.86 26.33 30.75 31.83 31.03 32.57 33.35 31.33 32.29 31.66
42.01 41.55 41.82 41.98 41.61 41.75 42.00 42.40 42.57 42.20 42.33 42.48 42.94 43.41 44.01 44.37 44.52 44.54 41.63 40.49 37.72 34.25 33.96 36.87 36.76 40.15 41.42 41.10 41.96 32.64 37.74 37.80 35.84 38.73 33.92 33.28 29.09 34.27 30.70 29.20 29.95 30.85 32.69 31.40 30.77 29.52 29.08 30.43 31.51 31.60 31.52 29.93 30.77 30.94
41.35 40.81 40.49 41.29 41.61 41.82 42.15 42.37 42.40 42.20 42.45 43.00 43.58 43.65 43.72 44.38 44.87 44.40 41.20 41.33 38.79 36.98 31.95 35.14 40.02 38.53 41.36 41.84 40.91 40.50 38.63 39.08 38.48 36.72 34.57 33.83 31.33 35.99 32.04 30.47 30.07 28.76 30.32 28.27 29.05 30.77 31.29 29.09 29.27 29.80 29.67 29.89 27.89 28.03
40.34 40.67 40.35 41.04 41.25 41.88 41.78 41.43 41.61 41.73 42.23 43.02 42.91 43.24 44.04 44.73 45.00 45.42 43.30 41.49 43.27 37.21 32.47 34.31 39.62 39.29 41.31 40.96 39.67 40.19 38.72 36.94 36.36 34.37 34.09 32.99 36.33 35.25 33.82 33.32 27.49 28.84 26.79 27.40 26.91 30.15 29.11 26.74 28.33 28.77 26.29 25.73 27.20 26.06
40.48 40.61 40.33 41.12 41.34 41.29 41.54 41.50 41.29 41.63 42.82 42.71 43.12 44.01 44.71 45.01 44.48 42.69 33.99 41.81 42.72 40.45 35.69 30.87 38.85 37.33 39.99 39.89 38.80 38.28 38.74 38.03 37.64 35.17 35.12 37.44 39.06 34.94 31.64 27.56 27.55 30.11 30.94 31.12 29.39 30.37 28.70 28.23 27.65 27.71 25.32 24.48 24.90 24.53
40.69 40.35 40.22 41.06 41.65 41.52 41.05 41.18 41.37 42.31 42.43 42.63 43.48 44.08 45.31 46.00 44.59 38.88 38.30 43.07 43.61 43.18 35.04 29.65 33.58 37.99 39.92 39.31 39.69 39.06 39.12 39.98 38.25 36.35 34.85 35.75 34.63 35.32 31.48 26.80 26.83 29.43 30.02 31.08 32.26 30.70 27.10 27.51 24.95 26.63 25.57 24.98 24.95 24.53
40.17 40.10 40.54 41.26 41.35 41.24 41.38 41.67 41.85 42.22 42.34 43.07 43.75 44.82 45.67 45.53 43.90 39.92 45.09 43.45 43.42 38.28 35.91 28.24 31.26 34.63 40.26 36.60 36.24 41.14 37.01 37.64 37.53 35.70 36.21 34.72 34.13 32.49 24.14 25.05 26.29 27.72 29.03 28.09 28.98 29.64 27.89 28.03 27.11 26.50 27.16 26.12 23.92 22.78
39.76 40.29 40.83 40.99 41.24 41.24 41.60 41.60 41.81 41.92 42.70 43.33 44.27 45.42 43.21 40.58 36.93 39.99 43.42 43.41 44.25 39.24 32.53 30.19 28.81 30.00 37.89 36.33 39.02 37.41 37.88 32.38 39.18 33.40 33.29 33.96 30.99 25.63 24.91 24.66 24.44 25.04 25.08 26.59 27.39 27.95 27.51 26.22 25.88 25.88 26.07 25.41 23.47 22.20
39.59 40.44 40.69 40.94 40.79 41.09 41.24 41.49 41.60 42.33 43.08 43.77 43.07 37.86 31.85 38.20 44.04 42.50 38.73 35.44 35.26 36.60 35.48 30.99 36.42 32.42 37.22 34.43 34.49 34.93 35.44 32.12 27.66 33.21 35.64 32.60 24.85 24.97 24.97 25.04 25.39 25.49 26.67 28.56 25.93 24.04 24.76 23.84 23.78 23.19 22.83 23.45 22.85 21.55
40.12 40.07 40.31 40.10 40.07 40.40 40.47 40.87 41.93 42.73 43.34 40.61 34.90 34.37 40.12 43.58 38.50 35.40 31.99 31.10 31.52 29.40 33.20 32.79 34.90 33.49 39.30 32.89 33.31 34.49 33.29 33.40 27.37 32.20 31.00 29.56 25.82 23.96 25.43 24.37 25.56 25.94 26.61 26.84 27.04 26.27 26.37 25.40 23.30 21.76 20.97 21.14 20.64 19.65
40.20 40.01 39.94 39.70 39.71 39.89 40.63 41.57 42.35 41.87 40.85 38.64 40.55 42.03 40.95 36.72 34.75 31.14 29.33 31.05 29.28 28.68 33.81 31.52 31.60 35.19 35.75 37.24 34.82 33.45 29.59 32.92 28.00 34.27 30.62 27.80 23.90 24.49 24.63 23.57 23.86 24.64 24.81 24.58 25.27 24.10 24.14 23.44 23.40 22.13 20.65 18.85 17.08 15.38
39.57 39.55 39.37 39.48 39.71 40.05 40.95 42.15 42.69 43.42 43.24 42.13 38.71 33.28 34.07 33.31 28.74 26.57 23.05 26.79 28.82 32.64 34.13 33.53 30.80 35.54 35.67 36.95 34.53 33.40 30.38 30.90 34.78 30.28 29.43 26.12 24.25 24.28 23.78 23.58 22.82 23.43 23.16 22.39 21.69 22.09 21.62 20.27 19.73 18.19 15.55 14.79 14.88 12.61
39.19 39.31 39.55 40.31 41.13 41.76 42.32 42.69 43.10 43.67 41.29 34.33 32.86 28.21 28.88 27.55 29.51 31.00 31.59 34.17 35.68 35.49 34.59 33.62 33.82 34.67 36.57 31.65 33.84 29.60 32.00 32.66 26.44 25.55 26.50 24.80 23.64 23.29 23.73 23.10 21.86 19.58 19.46 19.26 18.30 17.25 15.53 14.07 13.04 13.24 13.67 13.66 12.86 11.72
39.92 40.30 40.28 40.41 41.20 41.98 42.46 43.68 44.25 39.68 36.03 34.43 33.60 28.37 27.68 33.04 32.05 32.54 33.30 32.86 33.46 37.18 36.75 34.75 34.80 35.31 32.58 31.49 31.97 29.85 27.43 24.68 26.74 29.02 27.01 25.09 23.94 22.12 20.35 19.60 17.35 15.78 15.28 16.23 16.74 14.98 13.99 13.68 13.38 12.55 13.12 14.42 13.02 11.51
39.58 39.12 39.15 40.82 41.35 42.36 43.51 43.76 38.42 35.75 34.05 30.03 28.19 27.93 28.55 29.97 29.76 31.44 32.03 31.09 35.62 35.96 38.47 38.31 32.26 30.34 30.27 31.55 27.38 27.02 26.14 25.95 28.99 26.70 25.71 23.86 20.74 19.51 18.88 18.39 17.43 17.25 17.23 16.83 16.31 16.35 15.84 14.79 15.35 15.41 14.23 13.84 12.91 13.23
40.73 37.80 40.54 43.14 43.21 43.27 42.32 34.89 33.09 31.04 30.25 26.22 27.08 27.86 30.22 31.85 32.33 31.43 33.09 32.78 34.30 35.58 33.06 34.31 28.75 28.90 29.24 27.74 25.85 28.56 28.84 27.31 24.01 24.13 25.03 24.02 20.32 18.71 17.58 16.69 16.21 17.09 17.42 17.71 17.48 17.18 16.27 16.39 15.86 17.28 17.03 16.58 17.14 15.70
37.11 40.22 44.17 44.14 43.17 37.03 33.24 33.75 30.83 27.59 23.49 27.03 27.13 27.67 28.41 28.92 30.84 30.58 31.25 33.88 33.82 33.84 32.72 30.76 32.67 28.03 27.55 25.99 28.03 25.72 22.77 22.13 24.53 23.89 22.90 21.41 19.84 18.47 19.28 19.01 18.46 19.11 18.82 18.23 18.23 17.81 17.63 18.75 20.12 21.40 19.17 18.86 18.19 17.95
38.91 39.87 41.27 41.31 39.02 34.56 30.79 30.13 31.61 23.82 24.97 26.54 26.42 27.83 28.57 27.71 28.29 29.96 31.17 31.83 31.24 31.82 32.11 29.79 27.95 28.86 29.55 27.83 26.14 23.55 22.72 22.93 20.69 21.12 20.48 20.30 20.28 19.42 19.66 19.79 19.63 20.31 19.73 20.19 21.22 22.48 22.48 20.36 21.21 21.70 21.53 21.43 20.28 21.20
40.36 39.60 39.04 38.90 38.19 32.14 28.06 27.38 32.46 26.93 25.06 26.39 27.93 26.69 27.10 27.45 28.40 29.10 29.81 29.92 29.87 29.01 27.26 26.88 28.28 27.21 26.80 25.22 24.60 24.67 24.92 24.54 22.14 19.89 19.77 20.96 21.54 20.90 21.49 22.09 23.14 22.55 22.45 22.11 21.89 20.75 21.31 20.72 21.34 20.92 20.27 18.98 18.99 19.20
38.66 37.87 38.26 37.49 34.43 33.43 30.51 28.66 26.57 27.44 26.77 25.41 26.48 27.33 25.40 27.54 27.55 28.22 27.92 27.27 28.04 26.01 25.81 25.43 25.47 23.40 22.70 23.23 25.67 25.62 24.51 25.37 24.52 24.55 22.65 21.15 23.31 24.10 22.98 23.71 23.46 23.64 22.67 22.75 22.06 20.53 18.65 21.10 21.06 20.13 20.07 19.57 18.66 18.87
37.98 38.03 37.12 36.36 31.83 30.76 29.07 31.03 27.97 28.83 27.09 26.41 26.35 26.84 25.69 26.04 26.15 26.37 25.73 26.29 25.18 24.23 25.02 25.03 23.27 22.38 21.87 22.56 24.05 25.98 25.12 24.46 24.81 24.20 23.16 22.74 22.34 22.82 22.97 23.28 22.95 22.48 22.74 22.56 21.95 20.67 20.68 20.53 19.97 19.06 19.08 18.98 14.20 17.88
37.84 37.11 34.75 32.16 27.14 27.16 25.31 32.40 26.35 26.31 23.24 23.41 25.38 22.61 23.05 24.04 23.93 24.85 24.15 23.21 23.29 23.43 24.31 24.07 23.27 24.23 23.56 23.59 23.83 24.05 24.72 24.46 24.09 24.13 23.70 24.65 24.54 24.73 23.82 23.29 24.03 22.04 20.66 20.34 21.40 20.72 19.78 12.18 13.66 17.10 17.53 16.51 16.96 16.77
34.40 29.89 27.22 26.88 26.82 23.25 28.49 25.86 27.79 25.32 24.96 23.16 22.15 19.04 19.84 23.03 23.23 23.15 22.61 22.50 22.34 22.75 22.64 22.32 23.54 22.49 23.18 23.03 23.26 22.94 23.72 25.90 24.49 24.18 24.14 22.97 21.45 20.78 22.28 21.24 21.42 21.77 21.87 20.47 19.64 19.20 18.21 18.02 9.04 16.03 15.52 14.42 14.62 12.89
26.86 23.04 25.56 22.04 25.67 23.70 22.18 22.44 22.04 22.57 19.69 20.76 19.19 19.20 20.42 22.37 20.58 19.73 20.70 20.78 20.57 22.16 22.34 23.60 24.23 24.64 23.83 24.02 23.20 21.72 22.58 24.52 23.17 20.98 22.16 23.51 21.14 19.00 18.55 18.63 18.45 18.50 19.40 19.03 17.43 17.57 17.44 15.42 14.28 13.55 13.28 12.78 11.69 11.18
19.25 19.60 21.58 22.69 23.42 22.58 22.31 19.42 19.96 19.82 20.14 18.72 19.41 21.42 23.09 21.47 17.74 20.06 20.22 21.05 21.45 22.15 22.55 23.73 24.20 23.22 22.39 23.75 21.96 21.46 21.31 24.15 23.65 21.14 19.27 20.90 20.98 20.62 18.48 16.87 16.39 16.49 18.02 19.00 17.35 16.16 14.43 12.43 11.82 8.37 11.10 8.53 5.08 6.77
18.14 17.79 20.15 21.06 22.73 22.76 21.39 21.77 22.18 22.18 18.79 18.42 20.04 18.57 19.50 17.96 19.85 18.11 19.17 19.91 21.98 24.27 26.07 26.51 26.02 24.94 22.76 21.40 20.94 20.75 21.01 21.24 21.43 20.05 19.20 18.12 17.40 18.41 20.63 18.75 16.10 17.65 15.66 14.42 14.75 14.13 12.85 11.37 10.53 9.81 9.87 11.38 10.31 8.41
17.09 17.28 17.52 15.19 15.40 16.86 14.47 15.30 15.99 15.26 16.61 18.75 20.60 17.28 17.72 16.61 16.51 16.58 18.50 20.09 21.83 23.06 21.49 21.96 24.78 24.65 23.02 20.60 18.82 17.46 15.72 14.37 13.90 14.88 15.22 14.35 13.79 14.17 13.73 13.92 12.68 10.75 11.99 12.23 12.46 11.29 11.72 11.64 11.19 9.97 8.62 7.95 7.78 8.56
13.88 14.93 16.04 7.41 10.74 11.57 10.94 11.72 12.94 14.75 14.92 17.61 16.53 13.18 12.09 13.55 14.51 15.83 18.10 19.62 20.82 21.07 18.70 16.84 15.48 16.53 15.52 15.79 17.25 17.75 17.49 17.54 15.47 11.57 12.09 12.60 12.27 11.73 12.41 12.40 11.78 10.84 11.90 11.17 6.58 8.16 7.08 9.16 8.72 8.68 6.63 7.68 7.65 6.65
11.96 14.86 10.74 7.25 6.88 8.58 11.02 12.66 13.38 13.87 14.26 15.11 16.25 14.04 13.32 14.32 15.07 17.34 19.01 19.10 20.31 21.07 20.19 18.52 16.98 18.04 15.33 14.78 11.41 10.98 12.45 13.95 15.12 16.75 15.14 13.84 14.58 12.75 10.89 10.54 9.89 9.06 10.62 11.19 10.52 9.40 4.40 8.04 6.41 7.33 6.81 6.84 7.79 6.14
13.69 15.18 10.89 10.85 9.19 12.32 13.15 13.03 13.71 13.79 14.08 13.82 13.11 14.76 12.51 14.27 15.75 15.44 15.64 16.20 15.83 15.68 15.89 15.00 15.23 16.84 15.84 14.33 14.76 12.88 12.31 11.95 7.15 8.98 12.15 12.00 11.53 11.39 10.18 8.65 8.28 8.67 8.88 8.67 8.34 8.64 7.91 7.41 7.62 5.31 4.97 3.56 2.42 1.39
12.96 9.62 9.48 7.63 9.20 12.46 14.08 15.12 14.83 14.57 14.63 15.33 12.73 12.77 12.02 14.85 12.35 13.85 12.40 16.16 16.24 16.57 14.27 16.42 14.26 12.94 14.10 13.80 13.11 12.63 11.28 9.83 9.04 9.49 10.15 10.56 9.91 8.10 6.99 5.71 5.25 7.34 7.07 6.31 6.15 5.80 2.65 2.40 3.83 3.28 2.84 2.11 0.67 -0.95
9.13 10.46 10.28 10.84 9.87 10.26 11.61 12.85 11.46 11.25 13.63 13.18 11.86 10.77 10.10 12.84 10.52 11.55 13.17 12.36 16.38 16.86 15.37 14.29 11.99 10.82 9.66 10.29 9.98 8.76 8.58 8.81 7.92 7.70 6.45 5.47 5.05 5.31 5.53 5.13 5.20 5.13 3.44 5.89 5.75 4.24 1.62 1.59 2.21 1.08 0.76 -1.30 -2.11 -2.55

GFSWCAN_sfc_wetblb_093.txt.gz
Wetbulb
44.06 44.11 43.72 43.47 43.47 43.44 43.02 42.58 43.52 43.82 43.91 43.58 43.74 43.81 44.12 43.95 44.13 45.32 43.42 45.09 40.66 37.64 38.15 39.48 39.63 36.27 36.71 36.46 32.44 35.95 36.90 36.87 35.53 31.20 30.81 31.50 30.86 32.95 32.67 33.87 31.37 30.84 29.55 30.47 31.09 28.83 25.61 33.39 37.27 30.05 30.44 34.11 34.30 31.91
43.64 43.50 43.40 43.33 42.98 43.07 43.04 43.23 43.37 43.74 43.98 43.89 43.76 43.68 43.78 43.90 44.30 44.95 40.56 44.72 43.28 36.69 38.47 42.69 42.49 43.11 41.32 40.20 37.29 37.87 34.72 35.54 36.73 32.12 32.39 33.25 32.51 34.54 32.91 28.86 36.33 30.21 30.39 28.53 28.61 26.67 31.86 32.39 31.25 32.59 33.96 32.02 32.57 32.17
43.13 42.92 42.83 42.88 42.65 42.42 42.81 42.95 43.18 43.57 43.72 43.48 43.19 43.27 43.62 44.05 44.47 44.54 42.94 42.07 39.11 35.90 36.82 39.65 39.70 42.76 43.62 43.44 44.47 35.82 39.83 39.12 37.30 38.64 34.01 34.59 31.23 36.04 30.38 30.30 32.02 32.76 35.18 32.00 30.48 30.25 29.64 31.08 32.13 31.87 31.36 30.02 31.02 31.15
42.65 42.93 42.55 42.23 42.02 42.35 42.41 42.54 42.65 43.52 43.31 42.73 42.93 43.30 43.98 44.34 44.73 44.40 42.87 43.54 42.10 37.20 32.31 37.45 43.13 41.64 44.46 44.23 43.26 42.93 40.78 41.87 41.07 39.95 35.56 35.43 32.95 37.78 32.91 33.45 30.62 29.86 32.51 30.74 29.51 31.09 31.01 29.22 29.71 30.20 30.25 30.11 28.94 29.15
42.46 42.35 41.99 42.42 42.19 41.89 42.04 42.15 42.77 42.63 42.47 42.79 43.28 43.81 43.76 43.96 44.85 45.84 46.07 45.49 43.00 37.43 32.70 36.14 42.21 42.19 43.66 43.77 42.21 42.59 41.41 40.07 38.60 34.87 33.91 34.14 36.97 35.70 37.21 36.30 29.17 30.23 27.53 27.79 26.80 31.08 29.23 26.90 28.76 29.65 27.57 27.11 28.59 28.05
41.75 41.82 41.72 41.90 41.91 42.15 42.04 42.46 42.21 41.87 42.20 42.82 43.17 43.22 43.71 44.44 44.81 43.47 34.96 44.84 45.36 42.11 35.36 30.82 41.67 39.99 42.07 43.31 41.63 40.63 41.40 40.94 38.49 35.16 34.89 37.39 39.69 37.43 32.44 28.67 28.40 31.22 31.56 33.19 30.11 31.13 29.80 29.06 28.82 28.76 26.94 26.42 26.95 26.60
41.39 41.33 41.37 41.60 41.68 41.96 42.40 42.34 41.97 41.55 42.13 43.03 42.92 43.33 44.33 44.79 44.35 39.45 39.01 42.32 44.61 43.12 37.53 31.31 35.26 40.25 41.55 42.09 42.12 41.35 41.41 41.39 39.28 37.73 36.11 36.63 36.42 36.96 32.99 29.21 28.25 30.31 31.35 32.66 33.69 32.52 28.75 28.74 26.18 28.19 27.64 27.34 27.54 26.94
41.19 41.16 41.02 41.43 41.50 41.97 42.22 42.15 41.54 41.77 42.72 42.68 43.03 44.00 45.05 45.30 43.38 39.57 45.28 45.20 44.97 40.17 39.87 29.04 32.65 36.54 41.59 35.97 35.30 42.38 38.82 37.71 37.53 37.78 39.50 35.50 36.72 33.95 26.39 27.03 28.71 30.32 29.94 30.18 30.72 30.84 29.45 29.42 28.92 28.28 29.17 28.36 25.85 24.55
40.97 40.65 41.18 41.24 41.58 42.14 41.93 41.95 41.69 42.47 42.58 42.60 43.47 44.22 42.97 40.89 37.63 41.02 44.12 44.08 45.58 40.21 33.25 31.44 29.92 31.50 41.82 37.77 38.84 39.71 40.27 33.21 40.98 35.39 36.63 37.33 33.77 26.76 26.84 27.52 27.20 27.94 28.46 27.59 29.45 31.43 30.78 29.44 28.73 29.01 28.68 27.43 25.40 24.33
40.65 40.39 40.76 41.09 41.46 41.67 41.91 42.05 42.07 42.17 42.43 43.03 42.40 36.72 31.92 38.03 44.04 42.88 39.09 36.33 36.47 36.82 37.73 32.59 38.18 34.43 38.96 37.42 36.38 36.01 38.21 33.47 30.30 34.89 39.54 33.49 26.91 27.38 27.14 27.62 28.33 28.77 30.03 30.49 27.80 26.52 27.68 26.68 26.10 25.90 25.76 26.38 25.51 24.36
40.09 40.09 40.60 41.25 41.44 41.41 41.72 41.69 41.87 42.14 42.32 39.29 34.61 34.26 40.80 43.63 39.93 37.57 32.45 32.47 32.17 29.72 34.43 33.72 35.95 33.99 41.77 34.12 33.08 39.15 33.98 35.14 28.43 33.74 33.06 31.50 26.96 26.12 28.39 27.26 28.77 29.73 30.49 30.38 30.63 29.94 29.72 28.10 25.69 24.69 24.01 23.99 23.39 21.92
40.11 40.33 40.80 41.00 41.07 40.95 40.96 41.16 41.69 41.67 40.17 39.02 39.70 41.81 39.72 35.99 35.89 32.46 30.62 32.44 30.50 30.58 35.96 33.00 33.17 36.60 39.62 41.38 35.26 35.64 31.20 34.31 28.75 37.16 32.08 28.75 26.02 27.89 27.59 27.22 27.75 28.74 28.73 28.21 28.94 27.95 27.82 26.94 26.73 25.38 23.70 21.25 19.06 16.44
39.98 40.74 40.76 40.72 40.73 40.61 40.50 40.85 41.93 42.03 43.01 42.10 38.95 34.59 33.79 33.90 30.11 28.29 24.63 27.81 30.81 35.57 37.12 35.36 32.24 36.74 37.90 38.00 34.67 34.85 29.16 30.70 37.82 31.55 31.04 28.28 27.38 27.82 27.99 27.05 26.40 27.36 27.10 26.54 25.83 26.08 25.46 23.84 22.93 20.77 17.80 16.85 16.56 14.87
40.20 40.54 40.53 40.49 40.70 40.59 40.93 41.73 42.44 41.66 40.65 34.93 33.36 29.57 30.49 28.81 31.12 33.04 34.29 36.55 39.02 38.57 37.09 35.22 34.79 35.38 36.99 33.67 34.58 29.51 34.35 33.99 28.84 27.40 28.46 28.10 26.50 26.07 26.81 26.61 25.85 23.74 23.57 23.26 22.24 20.77 18.67 17.26 16.38 16.62 16.28 16.11 15.32 13.90
39.99 40.22 40.32 40.33 40.76 40.94 41.49 42.14 42.59 41.19 36.54 34.28 35.08 29.52 30.02 35.93 35.09 34.63 35.71 35.62 37.67 39.68 37.41 35.08 37.64 36.58 34.78 32.51 34.18 31.67 28.66 26.52 28.14 29.93 29.59 28.11 26.71 25.46 24.62 24.33 21.99 20.63 20.02 19.83 19.52 17.79 16.75 16.61 16.18 15.86 16.62 17.09 15.74 14.57
39.81 39.91 39.35 40.42 41.12 41.20 41.96 42.09 39.24 36.93 36.37 34.90 32.41 30.57 32.28 32.63 32.10 33.01 33.37 33.37 37.45 38.92 38.94 38.32 32.89 32.01 31.54 32.51 29.36 27.55 27.41 27.66 30.16 29.16 28.52 26.91 24.57 24.22 23.24 22.02 20.69 21.14 21.60 20.92 19.57 19.23 18.35 17.09 17.66 18.15 17.56 16.91 15.83 15.83
39.60 37.62 40.52 40.92 41.27 41.69 41.41 34.84 33.55 32.83 34.22 31.03 30.12 30.65 33.37 33.19 34.10 34.10 35.00 36.03 38.70 37.07 34.38 35.68 29.49 29.63 34.28 29.06 27.81 33.23 30.31 29.22 28.27 26.95 27.54 26.73 24.57 22.97 21.82 20.97 20.32 21.01 21.27 21.39 20.79 20.03 19.27 19.69 18.20 18.62 18.90 18.70 18.79 18.50
36.52 39.22 40.03 41.72 41.48 38.18 33.37 34.26 33.84 31.91 26.85 30.73 30.62 30.08 30.70 31.15 32.65 32.65 32.89 35.53 36.16 35.84 35.76 32.93 36.15 30.88 30.20 28.97 31.63 30.97 28.29 28.54 28.36 27.33 25.98 25.64 23.88 22.00 22.49 21.92 21.69 22.46 21.85 20.81 20.37 19.98 20.02 19.98 21.91 23.56 21.66 21.49 20.78 20.67
39.81 42.60 42.46 42.54 38.86 35.43 32.63 32.63 34.12 28.01 28.15 29.21 29.47 30.43 31.42 31.26 32.19 32.87 33.31 35.01 35.28 35.61 38.46 35.54 31.64 32.06 34.10 33.57 31.20 29.76 28.53 27.54 25.04 24.73 24.28 24.03 23.54 22.88 22.95 23.14 22.89 22.87 22.05 21.79 22.55 23.75 24.44 23.50 24.23 24.83 24.63 24.17 23.20 23.83
42.29 43.68 41.35 41.30 40.18 34.34 29.89 30.21 35.78 30.70 28.02 29.11 30.82 29.72 31.19 30.70 30.91 32.16 32.74 32.91 34.43 34.89 33.74 31.95 32.98 32.66 32.21 30.32 32.03 30.90 29.37 28.38 25.91 22.84 22.43 23.63 24.35 24.04 24.04 23.88 24.43 24.32 24.21 24.48 24.64 24.01 24.30 23.87 24.58 23.97 22.55 21.16 20.84 21.55
37.25 37.03 38.93 39.70 35.30 34.31 32.28 31.40 30.74 31.29 28.88 28.71 29.28 30.78 28.32 30.01 29.91 30.74 30.57 33.48 32.07 33.28 33.21 33.64 31.05 28.06 27.77 29.12 31.46 30.49 28.77 28.60 28.43 28.14 25.74 23.70 25.34 25.95 25.16 26.42 25.83 26.45 25.54 25.15 25.06 23.65 21.92 24.47 24.47 23.68 22.72 22.50 21.87 21.28
37.55 38.61 37.18 37.48 33.11 32.02 31.09 34.61 31.66 32.19 30.24 28.32 28.83 31.07 28.20 28.48 28.79 29.64 32.17 30.78 31.35 31.89 32.66 31.88 29.93 26.92 26.22 26.71 28.01 29.55 29.55 29.81 29.84 28.88 28.06 26.73 25.66 25.40 25.42 25.78 25.66 24.64 25.29 25.26 25.62 24.64 24.52 24.46 23.35 22.38 21.39 21.67 18.82 19.97
38.57 38.25 35.37 32.89 29.31 29.50 26.53 34.54 28.44 29.19 25.67 26.10 28.13 26.62 27.27 27.80 30.08 30.61 28.92 31.16 29.99 30.13 29.93 29.28 27.70 29.10 27.67 27.95 28.13 27.91 28.62 28.66 27.89 27.59 27.33 28.09 27.78 28.05 26.50 25.84 26.62 25.38 24.52 24.44 25.60 24.84 23.95 17.44 18.87 18.83 20.68 19.42 19.69 19.12
36.82 32.29 30.87 29.59 29.10 25.28 29.73 27.27 29.80 27.29 27.43 26.17 25.92 23.54 25.04 27.20 28.26 27.44 27.90 29.59 28.50 27.30 27.22 25.75 27.74 26.28 26.65 26.14 26.14 26.42 28.04 29.86 28.19 27.69 28.56 26.96 25.47 25.32 26.31 25.87 25.96 26.24 26.01 25.33 23.83 23.19 22.20 21.60 16.48 18.79 19.03 17.42 17.50 16.59
29.97 26.00 29.12 24.64 29.49 26.52 24.89 25.10 25.28 25.64 23.70 25.29 23.97 23.91 24.80 27.13 25.60 26.38 26.35 28.10 25.66 25.52 25.85 27.38 28.31 28.44 27.18 27.56 26.99 26.74 28.61 29.05 27.18 25.41 26.88 27.81 26.32 24.35 23.57 23.56 23.42 23.15 24.31 23.07 21.46 21.11 20.71 20.09 18.58 17.40 16.67 16.27 15.24 14.34
23.13 23.27 25.25 25.90 26.02 26.29 26.16 23.17 23.86 24.17 24.64 24.06 24.46 26.82 27.30 26.43 24.02 24.71 26.73 27.03 25.57 25.77 25.59 27.11 28.29 27.42 27.06 27.83 25.46 25.40 26.75 29.44 28.17 25.30 24.98 25.71 25.32 24.81 22.57 20.43 19.83 20.20 22.90 23.34 22.36 19.95 18.79 17.65 15.51 12.74 14.07 14.20 10.71 10.24
22.06 21.79 24.41 26.54 27.23 27.43 26.08 26.81 27.87 26.82 23.53 22.90 24.42 24.13 24.35 21.99 24.19 23.63 23.46 25.64 26.09 27.20 28.05 29.24 29.52 27.97 27.20 26.79 27.03 26.58 27.47 27.58 27.26 24.86 24.58 23.78 23.18 24.19 24.80 22.61 20.13 21.06 21.38 20.15 19.79 18.22 16.84 15.90 14.58 13.38 13.25 14.44 14.34 13.07
21.90 23.13 20.52 22.08 22.88 25.23 21.48 23.34 23.20 22.25 23.74 26.40 27.01 22.91 22.64 23.21 21.88 20.24 21.84 24.45 28.08 28.57 28.64 29.15 29.91 29.12 26.99 25.58 25.05 23.54 21.78 20.74 20.35 20.47 20.08 19.85 20.15 19.99 19.23 19.05 17.80 16.11 17.76 17.20 17.04 15.95 15.96 15.56 14.70 13.58 12.40 11.78 11.44 12.31
20.17 22.06 21.41 13.19 17.87 19.23 18.60 19.46 20.41 20.49 20.51 23.50 24.62 20.80 18.33 17.91 19.12 20.48 21.43 24.26 25.87 24.59 23.47 22.73 23.27 24.62 23.72 24.22 24.45 24.01 23.50 22.82 20.33 16.74 16.63 16.75 15.67 15.80 18.22 17.41 16.84 16.96 17.11 15.10 10.78 12.40 10.67 12.63 12.12 11.73 11.12 11.56 11.84 11.73
17.09 22.01 17.79 13.60 13.33 15.41 16.95 18.52 18.56 18.90 19.70 20.38 20.90 18.40 17.90 17.70 18.71 21.82 22.47 23.47 24.74 25.02 24.11 23.52 22.37 22.51 21.01 20.71 19.28 19.00 20.82 21.54 22.50 20.63 18.51 17.68 18.62 16.94 16.23 15.43 14.85 14.49 16.14 16.14 14.97 13.75 8.50 11.51 11.78 11.80 11.13 11.17 11.54 10.90
20.30 21.67 17.54 17.78 15.05 16.96 17.05 18.16 19.23 19.36 20.29 19.35 21.31 20.77 17.83 17.52 18.90 20.15 21.07 22.72 24.04 23.80 23.22 22.49 22.52 23.48 21.59 19.59 19.17 17.34 15.35 16.37 14.99 16.95 18.73 18.28 16.89 16.82 15.91 14.33 14.10 14.33 13.97 13.48 12.65 12.63 11.37 10.59 11.65 10.41 9.52 8.18 6.98 6.26
20.05 16.66 15.90 13.21 13.99 16.44 18.50 20.00 19.71 19.32 18.87 19.28 17.52 18.69 17.65 19.42 16.34 17.89 18.17 22.29 22.68 22.97 22.52 22.35 21.26 21.18 22.69 21.34 19.29 19.13 17.99 15.49 15.13 15.51 15.94 16.14 15.15 13.45 12.50 11.68 11.51 12.83 11.62 10.82 10.90 10.38 8.22 7.58 8.20 7.92 7.33 6.56 5.15 3.60
16.66 17.81 17.41 15.77 14.06 14.93 16.51 17.67 16.82 15.78 18.25 17.59 17.22 19.04 18.40 19.21 14.52 16.33 18.14 18.71 22.33 22.17 22.08 20.58 19.21 18.65 17.13 16.32 15.92 15.14 15.02 14.61 12.83 12.18 11.40 11.11 10.63 11.03 11.61 11.37 11.10 10.38 8.55 10.33 10.48 9.19 6.96 6.08 6.04 4.79 4.67 3.35 2.27 1.60

GFSWCAN_sfc_wetblb_096.txt.gz
Wetbulb
45.40 45.16 44.97 44.56 44.23 44.03 44.17 44.01 43.91 44.06 44.30 43.39 43.44 43.96 44.01 44.15 43.91 44.44 43.42 45.96 40.79 36.52 37.76 39.96 40.08 36.38 36.74 36.05 31.32 35.53 36.12 36.49 34.18 30.65 29.65 29.65 30.09 32.19 31.48 32.69 30.76 27.69 27.85 27.31 30.26 27.11 22.42 31.09 33.51 26.83 30.32 33.07 32.47 30.17
44.64 44.64 44.22 43.95 43.80 43.51 43.50 43.44 43.71 43.60 44.04 43.93 43.91 43.89 43.98 43.96 43.74 44.71 41.64 44.50 44.67 38.31 37.34 41.54 41.88 43.03 41.26 40.14 36.65 37.18 35.37 35.64 35.67 30.80 31.58 32.11 30.79 33.78 32.16 27.15 34.54 26.45 29.59 27.84 26.75 25.80 30.53 30.84 30.12 31.75 32.23 30.07 30.28 29.97
44.18 44.05 43.86 43.62 43.46 43.36 43.38 43.48 43.83 43.41 44.05 43.85 43.69 43.73 43.61 43.73 43.98 44.03 43.18 43.33 41.33 35.39 37.53 39.76 40.05 43.74 44.53 43.26 44.35 35.04 38.56 38.80 37.22 39.08 34.42 33.47 31.41 34.32 28.50 29.01 32.24 32.94 34.48 30.89 29.64 28.79 28.27 29.65 31.32 30.89 30.14 28.85 29.65 30.22
43.78 43.47 43.32 43.18 43.07 43.15 43.15 43.71 43.88 43.95 43.75 43.51 43.34 43.27 43.42 43.61 44.30 44.15 41.99 42.77 41.86 38.52 32.11 37.07 44.05 42.04 44.93 44.51 43.21 42.93 40.61 41.73 41.33 39.90 35.26 34.01 32.91 37.25 32.72 32.77 28.88 29.66 32.28 30.34 28.39 29.45 28.96 27.83 29.17 29.91 29.72 30.16 28.69 29.16
43.11 43.14 43.25 43.04 42.94 43.10 43.02 43.06 43.06 43.50 43.31 42.96 42.83 43.02 43.34 44.11 44.42 45.10 46.57 43.97 44.73 38.40 31.91 34.76 41.37 43.44 43.84 43.90 42.44 42.50 41.18 39.41 37.84 35.38 35.01 33.46 36.59 35.79 36.93 34.20 26.36 29.75 26.09 26.60 24.82 30.44 27.39 26.23 28.79 29.12 27.26 27.29 28.47 27.51
42.11 42.81 42.80 42.76 42.86 42.42 43.03 42.37 42.96 42.76 42.60 42.73 42.91 43.54 43.67 43.79 44.45 43.69 35.00 44.63 45.74 43.68 34.83 29.97 41.86 41.32 42.50 43.35 42.14 40.82 41.07 39.82 38.63 35.39 35.29 37.46 39.72 36.24 31.69 27.35 28.30 30.42 32.17 33.17 28.69 30.23 28.63 28.54 28.17 28.59 26.75 26.93 27.78 27.20
42.14 42.33 42.42 42.69 42.78 42.53 42.36 42.83 42.92 42.28 42.45 42.40 43.25 43.12 43.35 44.67 45.02 39.19 37.84 41.52 45.15 44.01 36.15 31.60 34.04 40.77 41.68 41.85 41.61 40.62 41.47 39.56 38.91 36.68 36.15 36.88 36.71 36.91 32.54 26.66 28.38 30.49 32.36 33.79 34.07 31.02 27.99 29.02 25.71 28.11 27.94 27.75 27.87 27.02
42.20 42.11 42.06 42.22 42.28 42.54 42.70 42.72 42.05 41.67 41.94 42.60 42.86 43.06 43.93 44.41 42.79 40.06 45.35 45.29 45.34 39.95 38.20 29.32 31.06 36.52 41.99 37.51 36.73 41.76 38.37 39.04 37.24 36.86 38.43 35.92 36.53 34.13 25.12 28.06 29.76 29.92 30.46 31.32 30.72 31.31 29.53 29.87 29.90 29.28 29.47 28.10 25.27 24.02
41.57 41.51 41.60 41.56 41.72 42.21 42.68 42.48 41.59 41.72 42.34 42.77 42.97 43.60 43.13 40.99 37.07 40.20 44.83 44.57 45.81 40.29 32.87 32.09 28.42 30.61 41.39 38.09 39.67 38.60 38.72 33.32 39.35 35.39 35.88 36.27 34.00 25.90 27.23 27.76 28.29 29.98 29.97 29.03 31.97 31.72 31.14 29.20 29.19 28.98 28.33 27.09 24.72 24.03
41.46 41.22 41.21 41.25 41.59 42.05 42.09 42.19 41.96 42.47 42.73 42.86 43.08 37.72 31.63 37.36 43.96 43.41 39.90 36.63 36.97 38.13 37.10 31.96 36.79 32.82 38.96 37.18 36.08 36.43 37.38 33.92 30.36 35.09 38.60 33.28 26.05 27.91 29.12 29.49 29.33 29.80 31.21 31.26 28.48 27.48 27.97 26.34 26.16 26.00 25.49 25.71 24.66 23.03
40.94 41.02 41.13 41.27 41.47 41.83 42.05 42.07 42.28 42.54 42.57 40.03 35.21 33.79 40.72 44.17 40.70 38.07 32.07 32.03 33.16 29.79 34.12 33.96 35.71 34.65 40.99 34.26 34.11 37.86 34.01 34.85 28.14 33.04 32.67 31.30 26.33 26.44 28.26 28.23 29.90 30.86 31.99 31.31 31.16 30.28 29.73 27.93 25.44 24.55 23.69 23.32 21.89 19.52
40.38 40.27 40.40 41.17 41.39 41.68 41.67 41.92 42.43 41.51 39.98 39.17 39.43 41.09 40.03 36.38 33.97 31.86 30.01 32.87 30.99 29.43 35.81 33.42 34.02 36.68 38.94 40.99 35.53 35.68 30.68 33.89 27.14 36.74 32.36 28.90 26.60 28.62 27.78 27.51 28.62 29.44 29.48 28.96 29.61 28.14 27.89 27.03 26.56 24.62 22.62 19.36 16.65 15.62
40.49 40.54 40.71 41.52 41.44 41.32 41.53 41.71 42.05 42.48 42.93 41.13 37.73 33.61 33.19 33.89 27.82 26.78 24.31 27.68 30.34 35.93 38.60 36.87 33.22 36.54 38.36 38.81 34.98 33.52 27.88 29.05 36.66 31.76 29.28 27.04 27.85 28.31 27.71 27.40 26.82 28.08 27.83 27.17 26.26 26.05 24.26 22.38 21.90 19.62 16.21 15.74 15.81 14.74
40.83 40.99 41.27 41.37 41.46 41.41 41.54 41.52 41.71 41.34 38.22 33.41 32.34 29.08 30.20 28.21 30.26 32.91 34.77 36.59 39.80 40.15 37.52 36.51 34.61 34.93 37.72 33.55 33.70 28.15 33.46 32.98 28.06 26.92 27.66 27.21 28.01 28.35 28.07 27.44 26.13 24.42 24.36 23.14 21.43 20.25 18.72 16.96 15.51 15.45 15.24 14.91 13.33 12.27
40.46 40.66 41.14 41.06 41.30 41.30 41.18 41.55 42.02 40.81 33.94 32.54 32.69 28.75 30.00 35.92 35.44 34.17 35.98 36.48 38.99 40.23 37.98 36.14 36.54 36.56 34.27 31.92 32.94 31.78 29.56 26.51 28.61 28.95 28.98 28.78 28.01 26.73 25.91 24.74 23.39 21.67 21.13 20.39 19.32 17.47 16.43 16.32 15.75 15.68 15.97 16.25 15.23 13.01
40.27 40.20 39.23 41.05 41.06 40.57 41.30 41.44 39.18 37.25 33.94 33.58 33.56 31.68 34.17 33.38 31.99 33.08 33.81 33.81 39.32 39.67 40.24 38.52 33.68 32.04 30.84 31.70 29.76 28.13 27.59 26.95 28.76 28.50 28.46 27.94 26.18 25.71 24.18 23.18 22.24 22.35 22.08 20.95 19.41 18.59 17.90 15.99 16.79 17.59 17.68 16.47 14.59 15.21
39.69 37.21 40.39 40.90 40.87 40.93 40.50 36.54 34.53 31.99 33.08 32.72 31.33 32.72 33.62 34.17 33.44 33.26 35.08 36.72 40.28 38.70 33.20 34.55 29.13 28.44 34.02 29.10 27.89 33.12 30.16 29.25 28.42 27.56 28.22 27.08 25.37 23.56 22.74 22.26 22.56 22.78 22.10 21.77 20.96 19.99 19.67 20.09 18.36 18.30 17.70 17.52 18.01 18.81
37.58 39.76 40.87 41.19 40.81 37.47 35.26 35.08 33.44 33.38 29.73 32.45 30.47 31.21 33.44 33.62 33.08 33.62 35.51 37.57 37.41 35.85 35.14 32.72 35.98 31.12 29.90 28.57 30.78 30.86 28.91 29.37 29.75 27.87 26.71 26.24 24.47 23.68 23.41 22.37 23.07 23.34 22.71 21.63 20.72 20.35 20.08 19.12 19.76 21.99 22.05 22.14 21.25 20.89
39.26 40.75 40.97 40.94 39.56 37.13 33.44 32.85 34.05 29.66 30.03 31.29 31.40 32.42 33.14 33.05 34.43 35.69 34.98 35.95 37.35 38.71 36.69 35.64 30.91 30.63 33.70 32.81 30.97 30.19 29.47 28.22 25.68 25.47 24.81 24.66 24.28 23.90 23.66 23.98 24.03 23.25 22.00 21.24 21.91 22.60 23.41 23.95 24.17 24.28 23.85 23.39 22.47 23.53
40.03 40.10 40.67 40.72 40.26 35.54 31.59 32.17 37.16 31.35 28.26 30.14 32.22 30.31 32.19 31.95 32.84 33.53 34.00 33.95 34.19 34.68 33.01 32.23 33.07 31.93 31.73 30.83 34.08 32.55 30.98 29.31 25.88 22.60 21.96 23.10 24.50 24.38 24.03 23.95 24.10 23.97 23.21 23.91 24.98 25.51 24.34 23.52 23.79 23.31 21.95 20.40 20.09 20.87
38.55 38.07 40.68 39.67 36.84 35.17 33.77 32.69 32.67 32.13 30.74 30.32 32.04 31.20 28.99 29.95 29.43 30.25 31.18 33.69 32.04 32.34 32.13 34.73 31.55 29.08 30.46 32.17 33.40 32.24 30.12 28.83 27.20 26.23 23.66 22.43 24.94 25.55 25.06 26.53 25.84 25.68 25.05 24.61 24.40 23.13 22.52 23.87 24.03 23.11 22.42 22.45 22.33 21.35
35.46 38.99 34.27 37.37 33.89 33.53 32.13 35.44 32.78 33.52 31.07 29.44 29.57 31.26 28.32 27.82 28.29 30.09 33.58 31.14 31.49 34.02 34.22 33.97 31.58 27.74 28.19 28.80 29.88 30.65 30.60 30.89 30.94 29.34 28.08 26.20 25.04 25.02 25.75 26.24 25.74 25.85 26.34 26.40 25.91 25.24 24.42 24.27 23.14 22.04 21.40 21.63 18.88 20.62
39.82 38.69 35.56 34.21 30.33 30.05 28.15 35.59 29.74 30.36 26.26 27.01 29.63 27.36 27.64 28.69 31.00 32.97 28.86 31.44 32.57 33.26 32.33 31.99 29.93 30.52 29.33 29.75 30.29 30.22 31.18 29.78 28.14 27.66 27.03 28.12 28.14 29.06 27.57 27.12 27.65 26.44 25.35 25.11 25.57 24.78 23.52 16.88 15.88 19.12 20.48 19.94 20.25 19.98
38.09 33.68 31.43 30.22 30.10 26.47 30.77 28.74 30.81 28.81 28.25 26.74 26.67 25.06 26.53 27.76 29.80 28.03 27.28 30.33 30.33 30.27 29.72 28.52 29.45 27.23 27.81 27.39 27.05 27.56 29.64 30.63 28.55 29.02 29.76 28.18 26.49 26.10 26.88 26.59 27.12 27.28 26.40 25.74 23.95 23.46 22.20 21.74 15.92 19.25 19.83 18.76 18.04 17.34
31.20 27.07 30.25 26.58 29.94 27.29 25.17 25.71 26.53 26.59 25.12 26.69 26.11 25.78 26.26 28.49 25.29 25.62 26.59 29.01 28.30 28.14 28.14 28.87 28.99 28.41 27.10 28.32 28.23 28.71 30.53 29.40 27.12 26.26 28.69 28.48 27.42 26.39 25.23 24.84 24.45 23.42 24.29 23.56 21.50 21.66 21.34 20.80 19.35 18.29 17.37 16.61 15.62 14.76
24.60 24.99 27.00 27.25 27.91 27.43 26.72 24.22 24.99 25.78 26.12 25.40 26.50 28.46 28.49 26.61 24.66 24.51 27.81 28.31 27.52 28.16 27.91 29.27 29.34 28.37 28.20 28.47 25.92 26.79 28.31 30.40 28.84 26.48 26.85 27.37 26.21 25.51 23.08 20.70 19.35 19.29 22.77 23.60 22.39 20.44 19.81 18.90 16.63 14.54 14.08 14.15 7.21 10.73
23.47 23.19 25.91 29.26 29.62 29.36 27.85 29.51 30.17 27.95 24.90 24.68 25.59 24.87 25.17 22.55 24.35 23.91 25.18 26.39 28.18 29.32 29.97 31.02 31.53 30.15 28.32 27.78 28.46 28.86 29.81 29.79 28.79 26.07 25.93 24.54 24.41 25.03 25.13 22.99 21.05 20.59 22.08 20.82 19.92 18.38 17.27 16.68 15.10 14.10 13.89 14.58 14.91 14.36
23.68 25.29 21.81 24.96 25.52 27.48 25.39 26.28 25.56 25.50 26.56 29.12 27.83 23.92 24.04 24.73 21.87 22.45 23.32 26.36 29.89 29.85 30.66 31.55 31.77 31.31 28.79 27.05 25.84 25.07 23.60 23.10 22.14 22.07 21.75 21.38 21.13 20.67 19.23 18.18 16.48 17.65 17.09 17.18 16.97 16.26 15.99 15.35 14.48 14.01 13.30 12.36 12.07 13.20
22.42 24.65 22.88 19.23 22.35 22.93 22.72 23.44 23.42 22.54 22.45 25.43 26.85 23.15 19.56 18.71 21.40 22.13 23.69 26.63 29.42 28.59 26.61 25.77 26.10 27.09 25.88 25.47 25.10 24.66 23.96 22.62 19.89 16.17 16.41 15.44 15.31 16.14 18.23 17.71 17.81 17.43 16.48 13.52 12.11 14.03 12.46 13.04 11.97 11.00 10.88 11.09 11.90 12.79
20.06 24.86 20.83 17.78 17.42 19.15 19.08 20.60 20.54 21.00 21.97 23.25 22.22 20.23 18.24 18.40 20.32 23.47 24.17 25.04 25.15 25.60 25.64 25.00 24.76 24.41 22.45 22.02 21.90 22.59 24.69 24.93 24.93 22.76 19.54 17.71 17.65 17.58 17.33 16.21 15.51 15.81 16.93 16.46 14.97 12.20 9.83 11.42 13.56 11.81 10.41 11.74 11.77 10.07
23.27 24.08 21.59 20.84 17.95 18.93 19.17 20.34 21.30 21.99 22.17 22.18 24.75 22.31 17.36 17.13 19.74 21.77 23.13 25.49 28.45 26.67 23.97 22.23 23.24 23.79 22.74 20.93 19.63 17.87 15.39 17.76 18.95 20.06 19.06 18.03 18.01 17.75 16.94 15.92 15.49 15.41 14.56 13.77 13.06 12.30 10.31 10.14 11.03 10.60 9.97 8.39 7.43 6.41
22.66 20.18 19.03 16.01 15.13 17.88 20.49 20.92 21.01 20.86 19.55 19.76 18.84 19.39 18.62 20.11 16.51 18.65 20.33 22.10 24.67 23.82 24.47 24.62 23.40 22.78 24.11 22.43 21.18 20.96 17.64 17.28 17.35 17.61 17.79 17.29 15.73 14.38 13.98 13.30 13.86 13.60 12.25 11.50 11.03 10.64 9.23 8.14 7.84 7.61 6.65 5.88 4.60 3.48
19.87 20.87 20.10 17.50 15.20 16.20 18.31 19.97 18.97 17.98 19.93 19.13 18.79 20.42 21.93 20.56 14.63 16.83 21.07 21.86 24.64 24.84 24.15 22.10 21.51 21.00 19.95 18.94 18.02 17.65 16.20 15.17 14.04 14.61 13.67 13.28 12.53 13.06 13.13 12.76 12.28 11.46 11.06 10.92 10.49 9.41 8.06 6.46 5.66 4.54 4.99 3.75 1.65 0.41

GFSWCAN_sfc_wetblb_099.txt.gz
Wetbulb
44.76 44.85 44.88 45.15 44.49 44.54 44.48 44.48 44.27 44.13 44.58 44.65 44.46 44.18 43.97 44.15 44.46 41.56 39.84 41.25 37.95 32.67 32.55 36.63 38.10 31.63 32.04 30.36 24.07 30.02 30.28 31.95 29.29 26.06 25.98 27.12 28.65 30.62 30.41 29.94 28.77 25.09 24.96 23.15 24.97 21.23 18.00 28.44 29.06 23.03 29.39 30.32 29.29 28.13
44.72 44.58 44.80 44.70 44.26 44.32 44.30 44.15 44.08 44.30 44.33 44.11 44.37 44.42 44.24 44.12 44.07 44.03 39.81 41.75 41.79 33.11 32.16 36.99 37.66 38.85 37.45 36.25 31.86 31.85 34.61 31.85 30.57 26.61 27.54 28.72 29.18 30.47 30.03 23.73 32.53 24.28 29.85 24.20 25.13 22.53 28.58 28.88 27.51 29.27 29.27 27.64 28.22 28.05
44.81 44.51 44.41 44.22 44.04 43.96 43.75 43.84 43.95 44.22 44.26 44.30 44.38 44.00 44.05 43.83 44.02 42.53 41.27 40.52 38.43 34.20 31.77 33.13 35.34 40.50 43.47 40.10 39.19 31.69 36.67 35.09 33.35 35.94 30.72 30.57 30.05 31.42 25.96 25.79 27.61 28.39 31.91 26.25 26.39 25.96 26.26 28.49 28.91 28.67 28.02 27.20 28.51 28.35
44.25 44.20 43.94 43.79 43.73 43.49 43.56 43.68 43.86 43.86 44.17 44.19 44.23 43.99 43.69 43.52 43.74 43.21 37.65 41.07 37.56 35.56 26.01 33.83 41.74 39.70 42.42 40.73 39.10 38.48 36.45 37.16 36.68 35.36 32.12 31.68 30.08 33.90 28.61 29.30 24.76 26.95 28.86 27.56 25.82 26.30 26.35 26.55 27.62 28.37 28.40 28.48 27.43 27.86
43.82 43.66 43.54 43.29 43.29 43.33 43.26 43.47 43.94 44.03 43.88 43.72 43.27 43.24 43.32 43.39 43.79 41.87 40.41 41.05 42.45 37.12 28.72 29.13 36.55 40.30 41.89 39.98 38.88 38.20 36.83 34.65 32.29 28.57 28.71 29.90 33.91 32.22 29.29 29.90 24.43 28.39 24.99 24.18 20.19 27.41 24.41 24.95 27.48 28.42 26.67 26.81 27.77 26.48
43.19 43.35 43.30 43.23 43.10 42.97 43.21 43.45 43.41 43.67 43.65 43.51 43.10 42.85 43.64 44.03 43.87 39.69 33.45 40.26 42.15 41.61 31.72 23.88 36.00 37.85 39.71 40.00 39.19 37.54 36.67 35.98 33.18 29.82 29.46 33.38 37.58 30.71 26.79 21.55 28.06 30.49 31.00 32.20 27.01 27.16 25.40 26.46 27.47 28.01 26.69 27.41 27.66 26.45
42.79 43.21 43.03 43.06 43.14 42.99 43.30 43.43 43.17 43.40 43.45 43.07 43.28 43.86 43.62 44.04 40.57 38.35 35.57 40.23 44.15 41.63 32.97 25.96 27.55 37.57 39.64 39.10 36.88 35.84 36.49 33.57 33.44 31.13 30.36 32.83 33.88 31.54 23.88 18.79 27.37 30.78 31.85 31.71 30.81 29.02 25.83 27.92 24.45 27.53 27.11 26.88 26.90 25.47
42.40 42.68 42.95 42.93 43.05 42.90 43.04 43.15 43.10 42.99 42.99 42.92 43.34 43.39 44.17 44.46 42.26 38.99 42.69 43.97 43.83 37.28 35.33 28.64 26.93 31.61 38.27 31.36 30.94 36.01 32.50 33.03 32.40 31.28 33.32 31.99 33.41 28.67 22.05 26.00 27.79 29.01 30.43 30.10 29.89 29.43 27.70 28.44 28.50 27.68 27.51 25.96 23.40 22.43
42.08 42.21 42.40 42.47 42.52 43.00 42.88 42.68 42.51 42.47 42.51 43.04 43.14 43.97 40.31 37.59 36.07 38.10 44.63 44.29 43.27 38.88 29.68 30.36 26.65 25.89 37.11 33.18 33.91 33.49 33.60 23.42 33.98 28.70 31.12 31.98 31.57 21.25 26.29 27.22 28.37 30.23 29.83 29.88 30.19 29.67 28.97 27.59 27.30 27.03 26.03 24.63 22.56 21.18
41.59 41.85 41.84 41.93 42.03 42.46 42.51 42.39 42.36 42.66 43.13 43.28 41.64 36.18 31.26 36.66 44.35 43.34 39.47 34.93 34.58 35.87 35.92 27.72 30.25 25.53 35.46 29.42 28.17 28.81 31.12 26.64 24.90 29.24 33.76 28.47 23.70 27.58 29.11 29.33 29.94 30.53 30.47 30.74 26.82 25.50 25.51 23.89 23.59 22.82 21.95 21.53 19.75 17.73
41.31 41.45 41.50 41.60 41.75 42.04 42.27 42.39 42.44 42.77 42.51 38.78 34.34 33.07 39.79 44.15 39.83 36.23 30.03 29.85 27.50 27.66 31.06 30.56 29.39 25.29 35.74 26.31 26.15 31.26 25.00 27.12 22.84 28.17 29.18 28.77 22.75 24.65 28.79 28.48 29.39 30.06 30.87 29.33 27.88 27.02 25.90 24.48 22.61 21.17 19.71 18.44 17.19 15.61
41.17 40.78 40.80 41.04 41.49 42.03 42.28 42.44 42.63 39.09 37.58 37.34 38.91 40.66 39.55 35.56 32.56 29.45 24.11 26.13 29.50 24.54 29.54 30.97 27.65 31.41 32.59 35.77 27.20 30.11 27.61 25.83 21.37 31.59 27.37 23.60 24.35 25.52 26.58 26.35 26.17 27.02 26.87 26.26 26.65 25.25 24.68 23.96 22.54 20.13 17.70 15.51 13.62 12.10
41.29 41.18 40.70 41.25 41.45 41.80 42.04 42.49 42.46 42.74 42.70 40.74 36.89 32.18 32.12 31.94 26.21 23.57 17.14 23.83 19.89 26.92 30.04 28.42 24.75 32.81 30.25 33.44 26.24 29.34 25.72 24.36 32.69 23.77 23.56 24.61 25.74 25.51 25.64 25.13 24.82 25.57 25.27 23.02 21.57 20.97 20.03 18.76 17.64 15.25 12.17 7.68 8.26 7.03
41.12 41.17 41.31 41.46 41.64 41.80 42.25 42.25 41.91 41.10 36.22 32.53 30.24 26.22 26.88 24.84 26.29 23.69 23.43 25.08 28.77 28.65 29.35 29.27 27.09 26.69 27.28 25.99 29.91 26.24 27.30 29.83 24.66 17.40 24.19 24.17 25.39 24.36 25.12 25.53 22.85 20.02 18.67 17.62 15.76 14.74 12.15 11.01 8.48 6.32 4.74 2.45 3.08 1.05
40.61 40.91 41.18 41.26 41.64 41.85 41.78 42.11 41.30 38.19 33.60 30.49 31.02 25.10 21.39 28.06 32.49 32.32 32.86 32.10 33.94 30.57 28.84 27.37 27.75 28.48 26.25 28.04 28.97 28.74 24.17 22.61 21.84 24.85 25.89 25.87 23.58 22.48 21.32 20.67 18.56 16.64 14.84 13.28 11.12 10.05 8.15 7.80 8.83 5.32 3.22 3.86 4.33 1.38
40.76 40.60 39.15 41.17 41.46 41.39 41.68 40.41 38.14 37.05 32.33 31.05 31.02 30.30 32.49 30.23 30.30 31.57 32.15 32.32 34.79 31.66 29.78 29.85 26.18 22.38 23.08 26.89 25.76 21.87 22.68 18.24 24.53 25.79 26.53 24.80 22.24 20.72 19.27 18.22 16.85 15.60 14.24 12.93 11.66 11.80 11.77 8.60 8.93 8.59 6.36 5.40 3.09 3.86
39.73 36.24 40.25 41.24 41.15 41.17 40.23 35.28 34.18 31.38 30.77 30.45 29.77 31.30 31.99 32.29 31.49 30.63 32.52 32.19 35.12 29.02 28.99 27.60 23.51 23.00 30.16 26.50 25.89 28.98 22.73 26.72 25.61 25.75 26.28 25.28 21.22 18.25 17.72 18.24 17.73 18.41 15.67 14.28 13.95 12.41 9.13 8.84 10.41 11.65 11.21 9.44 11.69 13.54
34.35 38.81 41.11 40.93 39.60 37.67 35.30 34.45 32.14 31.31 26.82 29.84 26.30 29.96 31.79 32.18 32.00 32.18 32.91 33.83 33.51 29.72 29.60 27.30 31.21 25.73 23.21 21.92 22.30 27.28 26.99 27.43 27.31 25.76 24.78 23.27 20.12 18.21 19.37 19.24 19.50 18.69 17.35 15.13 14.06 12.69 12.21 10.80 15.22 16.00 18.24 18.71 17.42 18.39
37.44 38.97 40.89 40.43 37.80 34.97 31.11 30.59 31.75 28.61 28.50 28.83 28.18 30.52 31.01 31.40 32.20 30.73 30.48 33.30 34.11 34.80 32.40 28.15 26.15 25.33 25.85 29.35 28.95 27.50 26.74 25.18 22.18 22.93 22.76 22.61 20.65 20.14 19.90 21.25 21.44 18.94 16.22 15.32 18.68 18.22 18.29 20.06 21.28 21.35 19.93 20.04 15.47 16.80
40.57 40.55 40.68 40.59 40.01 32.49 30.59 30.96 34.66 30.91 25.05 26.76 30.10 28.82 29.65 29.76 30.67 31.63 31.78 31.60 32.15 31.89 30.08 24.91 23.95 28.13 28.81 28.85 30.17 29.93 25.75 24.40 21.39 19.44 19.34 21.18 22.68 22.07 20.76 22.30 21.78 19.74 19.25 20.34 21.04 21.64 22.44 19.54 19.11 18.50 15.53 14.51 10.46 9.69
38.71 39.01 39.97 38.40 35.28 35.08 32.47 30.84 30.85 30.57 29.65 28.24 30.16 29.72 27.42 28.97 28.14 28.36 29.68 31.74 29.79 25.33 23.60 25.16 29.43 22.03 23.89 23.83 31.04 29.44 25.18 24.07 21.72 20.12 19.38 20.01 22.11 23.02 21.90 21.86 22.13 20.79 19.53 17.98 17.49 15.46 15.64 16.91 18.86 17.88 9.26 7.63 8.12 7.37
36.40 39.06 36.13 36.47 32.40 31.75 31.19 33.00 30.65 30.03 28.99 28.01 28.92 29.63 26.79 25.91 27.04 28.44 30.98 28.90 28.76 26.22 24.89 25.95 24.98 21.71 22.88 24.96 26.00 27.55 26.70 26.98 25.60 22.71 20.75 21.21 21.47 21.12 21.12 22.30 19.91 19.01 19.71 19.89 23.15 17.73 13.48 17.47 16.03 13.71 8.09 6.52 8.81 8.12
38.43 35.98 32.80 33.18 28.04 27.85 28.00 33.61 28.02 28.06 23.21 25.69 28.05 26.18 26.23 27.75 28.79 30.82 26.57 28.71 28.86 25.76 27.46 25.57 26.23 27.71 26.22 26.42 27.27 27.58 28.65 27.79 24.87 23.34 22.22 22.32 21.70 19.87 23.43 20.51 23.05 23.02 21.94 18.72 22.15 19.32 13.45 11.53 9.79 6.30 5.86 5.39 4.98 4.76
37.83 32.09 29.89 27.71 27.07 24.01 28.93 27.11 29.41 27.59 27.03 25.87 24.34 24.07 25.26 26.85 28.23 26.09 24.83 25.08 24.77 24.02 24.20 24.60 26.08 24.82 24.96 26.02 23.97 24.37 26.46 26.58 23.87 21.55 23.08 24.99 24.35 23.69 23.37 23.88 23.46 20.42 20.74 20.85 19.37 16.46 13.96 10.23 7.77 6.88 4.54 5.78 3.97 1.20
28.72 26.82 29.13 25.96 27.26 24.56 23.59 22.69 22.47 23.49 17.08 20.95 23.48 23.81 25.38 26.71 22.97 22.91 21.86 23.30 25.44 19.72 20.19 25.70 24.91 24.23 19.69 19.09 20.74 22.56 26.15 25.93 23.89 24.30 24.01 24.72 22.66 21.29 21.18 20.23 18.21 18.18 19.00 16.12 10.26 9.85 8.08 6.57 4.24 3.87 3.11 -0.21 -0.10 -2.24
23.84 25.34 24.98 25.50 24.94 22.34 23.23 19.41 19.84 21.46 24.41 23.96 25.09 25.86 21.23 23.83 21.81 21.41 21.57 25.36 26.64 27.34 26.80 27.47 26.38 25.14 23.68 24.59 22.27 23.18 23.97 26.29 25.87 21.55 22.33 24.34 21.69 17.97 14.43 12.86 10.48 10.31 14.68 11.93 13.39 8.41 9.97 8.81 3.27 2.41 0.04 0.65 -0.46 -1.21
21.99 22.58 23.93 27.34 27.64 28.14 24.99 25.73 26.96 22.85 20.99 21.95 24.96 20.22 23.33 20.40 18.49 18.87 20.01 21.79 25.01 25.00 27.60 28.55 28.29 27.24 25.62 23.25 23.39 24.39 24.93 24.49 22.90 20.79 20.22 19.05 17.90 17.42 15.79 13.75 12.62 12.05 13.75 12.75 10.12 5.75 3.39 2.30 1.15 0.33 -0.34 -1.72 -1.19 -0.88
21.29 23.83 19.56 24.41 22.91 24.03 24.75 24.90 23.03 22.83 21.90 26.30 23.18 20.23 21.11 14.77 12.96 17.36 19.68 19.95 24.77 22.14 24.16 28.32 29.21 27.86 23.37 21.25 20.06 19.39 18.62 18.89 18.35 17.68 16.89 15.73 14.30 11.78 9.63 12.17 13.96 13.63 10.30 9.64 6.53 6.69 4.45 1.84 0.34 -0.23 -1.61 -2.14 -3.34 -4.31
20.72 23.96 22.81 19.96 21.63 18.61 20.16 20.67 22.08 20.17 19.89 21.08 20.40 17.11 13.95 16.21 18.75 17.46 17.63 23.43 26.78 27.02 23.47 21.79 22.15 22.55 21.65 21.44 20.99 20.14 18.76 18.29 14.96 9.92 4.51 2.85 1.94 5.72 5.03 6.42 10.77 8.83 6.23 6.35 11.87 6.45 5.23 2.59 0.90 -0.48 -1.14 -2.27 -3.81 -1.92
19.99 24.59 19.58 17.60 14.02 16.32 13.59 15.91 15.70 15.63 17.74 19.04 18.25 16.98 15.32 13.03 12.05 15.28 17.57 20.31 23.07 22.21 21.94 22.06 21.67 20.66 19.39 18.75 19.02 18.52 18.74 17.90 12.74 12.39 9.31 4.51 4.51 10.18 8.27 7.36 5.48 5.67 5.96 6.85 3.05 1.68 9.13 3.80 5.97 -0.04 -1.10 -4.28 -6.19 -8.16
22.44 23.23 20.39 19.45 15.20 16.55 17.08 14.91 14.97 16.36 16.61 17.19 21.58 13.24 8.26 9.39 12.38 15.22 15.95 15.68 23.23 22.22 21.06 20.86 20.37 20.37 19.89 18.89 15.56 13.69 11.63 15.01 12.73 13.85 14.70 14.06 13.12 11.55 10.38 7.89 4.42 5.48 5.71 5.44 4.96 1.45 -0.63 -1.87 -3.20 -5.85 -5.42 -7.28 -9.68 -10.04
21.00 19.90 16.73 13.02 13.55 17.74 17.51 16.91 16.47 15.56 12.54 13.31 12.99 9.94 10.48 11.73 7.50 9.75 14.97 18.19 22.13 19.23 18.16 20.24 19.76 20.01 19.65 18.75 17.49 16.85 15.54 14.82 14.84 14.62 12.96 11.94 9.85 9.08 8.22 7.23 7.16 6.60 4.45 1.52 0.40 -0.02 -2.80 -4.39 -7.63 -8.55 -10.77 -8.94 -10.75 -12.93
18.75 19.17 16.18 13.30 11.12 11.86 15.49 17.40 17.22 15.40 17.54 16.15 9.33 11.02 15.33 13.76 5.87 8.60 15.65 18.63 18.03 22.13 19.72 18.01 17.42 17.23 16.64 15.87 14.52 13.24 12.94 13.10 13.62 13.50 11.65 9.77 8.18 9.18 6.55 5.56 2.95 1.03 1.56 2.11 -0.44 -0.63 -2.62 -6.56 -9.54 -9.85 -10.26 -15.11 -17.64 -19.27

GFSWCAN_sfc_wetblb_105.txt.gz
Wetbulb
43.99 43.77 44.36 44.40 44.35 44.61 45.07 44.92 44.55 44.73 44.73 44.33 44.18 44.71 44.90 45.35 44.73 39.52 36.65 38.75 33.78 27.42 30.17 34.70 34.88 28.49 27.83 27.39 22.31 27.38 25.91 28.02 27.10 23.80 25.17 24.28 24.19 27.37 26.30 27.68 26.40 23.40 22.10 20.58 22.79 20.32 17.51 24.98 25.93 22.13 25.09 26.90 25.01 23.11
44.24 44.24 44.33 44.28 44.56 44.81 44.76 44.78 44.76 44.84 44.65 44.64 44.91 44.57 44.71 45.12 44.85 41.61 35.31 38.92 37.11 31.07 30.27 33.94 34.67 34.45 33.03 32.61 29.19 31.10 27.63 28.27 26.12 25.58 27.33 27.97 24.39 25.46 23.64 18.07 28.84 21.64 24.50 21.23 21.67 19.02 24.61 25.98 25.21 28.03 28.40 25.40 24.31 22.85
44.36 44.32 44.32 44.29 44.42 44.58 44.53 44.70 44.56 44.44 44.66 44.87 44.82 44.23 44.47 45.09 44.95 42.19 36.40 35.60 33.59 27.88 28.99 31.37 32.59 37.07 38.40 36.67 35.82 28.87 30.95 32.30 31.43 32.53 29.04 29.39 27.02 29.73 24.89 21.62 23.60 25.72 28.95 22.23 21.77 23.09 24.52 24.60 25.87 26.36 26.08 24.54 25.51 25.02
44.46 44.25 44.34 44.28 44.40 44.32 44.10 44.30 44.09 44.35 44.47 44.51 44.12 44.06 44.11 44.44 44.33 41.13 36.21 36.17 34.51 29.93 24.49 29.04 37.56 34.58 38.94 38.67 36.02 35.00 34.00 33.88 33.09 32.01 28.66 26.64 28.73 32.77 27.29 24.61 21.59 24.47 26.03 23.61 21.65 23.31 24.07 24.68 25.08 25.27 25.61 26.14 25.04 24.63
44.48 44.04 43.36 43.90 44.05 44.05 44.14 44.09 44.22 44.12 43.94 44.02 43.68 43.62 43.70 43.96 43.61 39.54 37.24 37.12 37.80 30.77 24.26 26.63 32.84 36.99 38.01 37.16 35.81 34.81 33.96 31.36 28.76 27.35 26.31 29.58 32.93 32.00 26.23 25.63 20.64 27.67 23.62 18.51 19.45 23.20 23.14 21.83 26.01 26.50 24.41 23.49 24.37 23.50
44.23 44.03 43.67 43.73 43.86 43.90 43.81 43.95 44.17 44.07 43.90 43.81 43.36 43.28 44.04 43.89 41.78 35.47 29.06 37.99 38.93 36.40 27.41 20.87 31.23 33.27 35.48 35.91 35.01 34.21 33.46 31.29 29.43 28.19 27.54 29.48 37.24 29.20 24.03 20.46 26.29 24.84 28.25 26.39 23.94 26.54 24.69 25.34 25.87 26.62 24.17 23.92 24.24 22.77
43.61 43.55 43.50 43.30 43.58 43.55 43.50 43.81 43.98 43.90 43.80 43.65 43.35 43.74 43.70 43.25 39.47 35.18 31.47 40.12 42.50 36.95 27.86 21.50 25.08 34.68 37.46 35.54 33.30 32.69 32.77 30.52 30.03 28.57 28.42 32.84 32.46 27.88 21.64 17.61 26.28 25.67 24.47 25.47 26.52 25.64 23.34 24.54 22.83 25.79 25.64 25.35 24.72 21.70
43.42 43.29 43.06 43.03 43.50 43.20 43.36 43.56 43.64 43.62 43.51 43.36 43.87 43.87 43.85 42.60 40.06 35.22 37.22 44.16 40.70 33.74 32.35 20.19 24.06 30.62 37.35 28.91 28.44 32.05 29.58 29.62 29.32 28.04 28.90 30.04 31.86 22.64 18.55 24.03 27.99 28.79 26.89 25.93 26.66 27.89 25.12 25.32 25.02 24.23 24.13 22.17 20.36 19.02
42.81 42.83 42.71 42.77 43.00 43.18 43.18 43.34 43.39 43.30 43.78 43.91 43.93 41.79 37.64 35.09 31.63 33.98 42.99 41.49 38.31 33.86 24.84 21.84 19.60 24.76 33.40 29.81 30.09 29.84 29.58 21.24 28.99 25.43 27.34 32.30 27.10 19.40 18.39 25.46 26.13 26.20 25.54 25.09 25.93 25.77 25.28 24.33 22.96 22.33 21.83 21.05 18.95 17.73
42.86 42.76 42.60 42.48 42.75 42.88 42.87 43.16 43.29 43.40 43.74 42.71 37.76 31.96 27.85 32.88 41.72 42.59 35.50 28.48 28.36 30.51 33.88 23.14 26.03 22.62 31.48 24.66 24.91 25.53 26.70 23.87 24.45 27.61 29.72 25.27 22.48 26.98 24.63 25.43 27.04 28.87 27.02 27.45 24.56 24.14 24.71 22.58 21.82 21.71 20.87 20.28 18.93 17.47
42.60 42.80 42.71 42.66 42.69 42.72 42.83 42.87 42.93 42.94 40.88 35.36 33.35 32.36 38.89 42.97 38.41 34.40 29.25 27.43 26.50 23.64 27.18 25.25 26.02 22.01 31.08 23.76 23.60 27.32 22.17 24.16 21.20 26.60 27.57 24.68 21.05 24.40 28.24 28.87 30.68 31.46 30.90 29.18 27.11 26.80 25.94 24.83 21.90 19.69 18.70 18.04 16.68 15.03
41.72 41.72 42.17 42.85 42.74 42.70 42.71 42.59 42.20 37.18 35.34 36.32 38.73 40.53 38.91 35.16 31.56 27.83 24.67 24.98 26.44 22.71 23.76 24.14 24.50 28.29 29.56 31.34 25.13 26.64 23.34 23.12 19.32 31.66 28.40 21.25 19.75 26.47 27.17 26.71 27.86 26.68 26.74 26.32 26.36 24.23 23.45 22.56 21.45 19.28 16.91 14.82 12.39 10.39
41.60 41.02 41.08 41.95 42.29 42.17 43.01 42.57 41.97 41.91 41.84 39.88 36.54 32.01 29.88 30.38 22.97 22.35 15.58 22.34 15.90 22.90 25.87 23.56 22.06 27.62 27.01 28.70 23.40 24.54 17.68 16.25 29.19 24.16 24.57 20.32 24.31 26.24 24.97 24.56 23.76 24.17 24.57 23.90 22.76 22.45 21.02 19.10 17.34 14.63 10.66 4.08 5.89 4.89
41.50 41.07 40.91 41.90 42.07 42.12 42.20 42.28 41.90 39.68 37.44 32.41 28.80 23.77 24.69 21.14 24.81 17.70 18.97 17.96 23.72 22.64 24.26 24.21 23.61 25.11 24.18 23.94 18.93 15.90 21.92 27.64 17.10 17.67 19.53 18.20 23.64 23.47 23.97 24.03 22.75 19.80 19.04 18.57 15.93 15.33 12.48 10.05 4.30 2.12 2.90 0.32 2.82 -0.60
41.46 41.31 41.10 41.53 42.01 42.06 41.74 41.06 39.98 36.98 33.17 29.01 29.88 21.46 23.10 23.94 27.94 30.35 32.13 29.43 27.33 24.04 26.11 25.30 24.74 25.19 21.80 25.53 27.89 24.38 21.31 19.78 17.29 15.81 15.84 20.13 23.24 23.13 21.92 20.19 17.22 14.77 13.17 12.41 10.37 8.63 5.17 4.52 5.46 0.70 -4.34 -2.77 0.02 -3.65
41.04 40.21 37.15 41.46 41.56 41.33 40.30 37.75 35.56 36.17 32.45 30.07 28.87 27.31 28.81 28.00 28.19 30.04 30.97 29.76 32.51 28.61 24.94 27.75 24.28 19.88 22.11 19.24 24.75 17.36 18.05 15.04 15.52 16.14 20.77 20.99 21.01 19.85 19.51 19.17 16.59 14.30 12.63 10.06 9.01 8.32 6.98 5.05 5.63 4.39 -0.13 -2.09 -4.72 -2.80
38.68 32.83 40.77 40.81 40.95 39.51 38.47 32.58 30.82 28.54 28.50 26.71 28.29 27.47 30.93 30.63 28.82 30.06 31.31 31.83 32.08 26.81 21.12 25.97 16.54 18.37 24.97 22.17 22.57 21.00 14.44 20.12 21.75 24.41 24.89 24.91 21.88 15.37 14.66 15.65 15.41 14.27 12.03 9.48 7.53 8.26 4.09 3.21 4.93 7.75 7.37 4.45 6.22 8.38
32.66 38.12 41.40 41.09 37.75 34.96 31.47 30.69 30.89 29.86 26.01 27.34 25.97 27.01 29.66 31.69 31.66 31.17 31.72 32.17 32.29 29.32 26.57 24.26 28.85 25.97 23.65 19.42 16.02 16.17 17.42 24.45 25.27 24.92 23.80 22.36 19.77 14.53 15.93 13.61 13.62 13.80 11.86 10.12 10.18 8.72 7.56 7.49 11.17 11.10 13.84 14.31 13.65 14.04
37.31 39.14 40.64 39.60 34.00 27.36 20.85 26.27 30.08 23.50 26.28 28.21 28.58 29.25 29.61 29.82 30.73 30.10 31.03 31.88 32.89 31.78 27.42 24.57 23.68 21.09 17.43 20.84 21.43 14.64 11.80 16.29 21.12 19.86 21.15 21.58 20.38 16.56 14.24 14.49 13.56 12.29 12.53 11.87 14.44 13.87 13.82 15.83 15.68 15.69 16.30 17.52 13.22 13.02
41.04 40.72 40.21 39.84 37.37 27.91 25.25 26.50 31.17 28.15 22.20 21.90 29.19 28.35 28.63 28.26 29.15 30.15 30.44 30.81 31.31 31.04 27.93 22.29 19.92 18.38 20.39 20.72 21.90 19.16 16.70 18.87 20.81 19.40 17.54 16.72 18.79 16.83 15.75 16.57 15.98 15.70 15.40 16.63 17.00 16.24 16.58 16.13 16.68 16.02 14.33 14.29 9.43 7.90
38.44 38.95 39.71 35.45 30.63 32.08 30.95 28.29 26.61 27.99 26.57 23.72 28.58 28.79 26.07 28.57 27.75 27.99 28.72 30.91 29.05 28.68 21.75 20.46 16.09 15.61 18.07 20.35 22.91 22.91 21.98 22.05 17.72 18.13 15.74 15.31 17.69 18.79 18.34 18.50 18.58 17.59 16.22 15.51 14.66 12.04 13.33 13.75 14.12 13.76 4.49 2.75 2.37 5.40
37.00 37.92 33.01 32.72 28.05 29.21 28.44 31.18 29.76 27.93 24.69 26.91 28.57 28.06 19.35 20.37 17.92 23.89 25.60 24.86 27.42 23.28 22.39 20.26 20.16 19.38 20.93 22.71 21.96 24.68 23.57 23.81 21.65 19.54 18.48 19.68 18.16 18.65 19.04 17.94 17.65 13.76 13.94 12.49 14.34 11.72 11.17 13.02 13.11 11.12 5.26 1.01 3.29 3.62
36.88 33.77 28.83 29.71 25.89 25.11 23.37 32.48 26.15 25.54 19.26 26.18 27.57 22.15 16.54 16.52 20.18 28.19 22.64 26.24 24.00 21.27 21.95 22.39 23.94 26.63 24.54 23.85 24.82 25.01 25.43 23.50 20.81 20.52 19.86 19.98 19.78 17.61 17.34 16.21 15.96 13.66 12.06 13.30 15.42 12.73 7.77 9.28 9.14 7.18 5.02 2.36 -1.74 -3.28
34.55 27.49 24.51 22.02 24.26 14.65 24.29 24.80 29.10 26.63 22.16 22.58 24.18 21.57 20.77 20.63 27.46 23.51 22.96 21.75 19.73 17.07 20.55 22.08 23.56 21.82 22.20 23.54 20.14 20.99 22.77 22.29 19.84 16.88 19.34 19.50 18.11 18.19 18.34 17.20 16.83 17.72 16.23 16.99 16.22 12.73 12.49 9.54 8.46 6.47 -1.00 -4.16 -6.69 -6.69
18.59 15.23 25.23 18.89 24.68 22.44 18.37 18.67 21.17 21.44 12.52 22.75 22.53 17.92 23.69 25.07 17.08 20.73 19.37 18.65 19.37 12.25 12.29 18.00 20.44 20.56 18.05 13.04 15.16 17.73 21.51 22.51 20.19 18.68 15.74 19.51 16.67 19.07 17.52 16.38 15.17 14.43 16.94 14.96 11.01 10.91 4.07 1.28 -1.70 -1.37 -4.34 -4.88 -2.66 -6.02
16.48 15.22 22.32 22.05 14.80 18.21 19.00 14.08 14.60 15.74 20.04 17.23 14.17 19.22 16.57 22.66 19.66 15.28 18.66 16.49 24.97 16.63 22.93 22.90 16.23 19.77 19.55 20.01 18.72 18.58 19.75 22.98 22.50 18.54 19.88 21.57 20.39 16.68 14.66 14.35 11.82 11.77 12.24 14.01 13.16 10.34 6.01 0.27 -0.95 -0.38 -3.30 -2.95 -5.07 -7.24
20.59 20.42 23.04 27.68 24.81 24.75 18.00 16.91 21.73 19.40 19.92 18.44 20.51 14.72 12.97 13.57 11.76 15.39 14.22 17.22 21.88 24.82 24.47 26.82 26.41 25.61 24.03 21.81 20.80 20.72 21.09 20.90 19.73 18.68 16.38 15.70 15.73 17.24 18.16 15.70 13.40 10.22 6.30 10.01 8.72 9.09 5.25 2.72 1.15 -0.33 -1.16 -9.05 -9.41 -9.41
18.13 18.60 18.39 22.74 22.04 20.94 16.54 13.97 14.43 12.69 12.79 18.94 17.77 12.35 14.56 15.52 13.13 8.82 11.46 16.40 20.91 24.90 23.83 22.52 22.71 22.05 19.98 19.44 18.84 16.73 14.95 15.11 15.03 15.63 15.52 14.13 12.29 11.53 12.73 11.95 11.14 10.58 4.42 2.01 2.91 4.82 4.86 3.11 1.47 -0.33 -1.00 -3.80 -9.59 -13.04
14.25 13.59 17.31 13.39 16.37 19.25 18.48 15.73 15.61 13.99 15.85 16.01 14.73 8.92 8.75 9.39 6.39 6.00 9.81 14.39 21.67 20.91 16.06 14.82 16.29 18.28 18.09 18.22 18.05 17.41 17.58 19.09 18.69 14.78 11.53 8.83 8.30 8.27 5.82 6.96 5.17 4.10 5.19 6.92 9.45 5.19 3.84 2.46 0.41 -0.78 -2.53 -4.37 -9.59 -11.64
12.92 17.51 13.09 11.05 17.35 16.75 10.01 11.34 9.26 9.01 10.08 10.65 12.17 12.01 9.47 5.22 4.45 5.76 10.94 10.04 12.36 6.88 4.66 7.91 12.83 18.25 16.89 15.44 14.64 14.34 15.08 15.32 16.32 17.32 13.62 10.46 9.36 7.99 5.65 6.00 4.63 3.32 6.12 7.06 6.85 6.58 8.73 1.07 0.91 -7.10 -7.81 -11.14 -15.25 -19.57
20.99 20.36 15.22 12.78 9.73 7.64 9.09 12.38 13.97 16.19 9.86 7.18 6.23 5.51 4.28 1.11 4.40 4.45 6.70 8.41 9.46 11.65 14.19 14.45 14.96 15.48 15.93 15.58 15.47 14.71 12.08 13.11 14.84 13.47 12.15 11.51 9.47 6.81 5.84 5.62 4.87 5.00 4.56 3.46 2.24 0.34 -3.12 -7.54 -7.02 -9.69 -12.19 -15.94 -21.92 -24.64
20.19 19.58 14.08 10.36 9.79 13.11 16.45 16.56 16.19 14.36 7.07 7.11 6.29 -0.35 1.09 1.52 3.51 2.18 8.00 8.57 11.78 11.14 10.64 14.17 13.92 10.87 15.39 16.09 15.57 14.86 14.66 13.68 12.55 11.83 11.60 10.94 8.79 6.97 6.29 5.81 4.60 3.52 1.58 -0.62 -2.87 -5.78 -6.32 -8.14 -10.41 -13.45 -17.05 -23.01 -26.64 -27.91
15.61 12.22 13.82 13.38 12.36 12.00 13.12 14.55 14.36 11.88 8.70 4.71 1.46 -1.48 1.18 3.98 3.92 3.96 8.79 9.25 9.76 10.24 10.19 12.22 13.91 14.64 13.51 12.92 11.84 11.88 12.30 12.89 13.97 14.36 12.27 10.46 8.29 7.73 6.15 4.64 3.48 1.84 -0.92 -4.87 -6.77 -7.33 -8.02 -9.30 -14.92 -21.75 -23.74 -26.64 -28.99 -29.90

GFSWCAN_sfc_wetblb_108.txt.gz
Wetbulb
44.04 43.95 44.15 44.49 44.55 44.59 44.53 44.56 44.68 44.66 44.84 44.98 45.41 45.93 45.80 45.05 43.89 39.06 35.96 36.84 33.29 28.14 30.28 34.31 33.75 29.06 27.98 26.42 21.34 26.62 24.73 26.23 26.19 22.79 24.38 23.49 23.30 23.72 25.94 26.14 24.91 22.30 21.56 20.15 22.55 20.89 17.26 24.18 26.31 22.70 23.28 24.79 23.09 21.05
43.82 43.84 43.49 44.26 44.47 44.49 44.49 44.57 44.62 44.75 44.92 44.99 45.29 45.60 45.39 45.10 44.21 40.59 33.80 36.76 36.18 32.14 30.94 33.97 34.27 33.56 30.70 31.08 28.79 30.43 26.54 27.53 24.83 24.98 27.44 25.64 24.63 26.95 22.07 16.90 27.53 21.58 22.84 20.56 20.17 18.27 23.55 25.18 24.98 26.99 26.82 23.74 22.60 21.40
43.77 44.07 44.12 44.10 44.22 44.12 44.36 44.64 44.55 44.89 44.91 44.80 44.99 45.34 45.13 44.84 43.91 40.21 34.68 34.15 33.40 30.59 30.87 31.63 31.44 35.76 37.05 35.07 34.89 28.80 29.49 31.27 29.58 30.87 29.24 26.86 26.14 30.09 24.03 21.03 23.71 26.13 27.62 21.13 20.47 23.08 22.84 23.81 24.89 25.41 25.13 22.92 23.35 22.92
43.95 43.82 44.08 44.08 44.27 44.13 44.20 44.28 44.39 44.54 44.49 44.57 44.61 44.80 44.75 44.48 44.04 41.18 35.83 35.33 33.64 30.33 25.78 29.20 36.05 34.23 37.46 37.00 35.32 34.18 32.79 32.61 31.77 30.55 27.96 28.09 26.52 33.40 24.71 23.25 21.40 23.98 25.00 22.81 20.63 23.01 23.69 23.61 23.29 24.44 24.52 23.62 22.34 23.02
43.94 43.90 43.87 43.90 43.99 43.99 43.80 43.95 44.02 44.42 44.29 43.72 43.78 43.98 44.17 43.80 43.05 39.88 37.47 37.23 36.62 30.91 25.32 26.34 31.90 35.33 36.87 36.71 34.93 34.23 32.93 30.36 28.14 26.37 26.12 29.44 32.33 30.13 23.83 24.87 19.56 27.60 24.08 17.37 13.29 21.90 21.17 22.17 21.53 24.66 22.20 21.55 22.35 22.33
43.44 43.76 43.79 43.76 43.97 43.71 43.84 43.81 43.78 43.89 43.86 43.73 43.66 44.06 43.68 43.30 40.35 35.09 29.84 37.28 38.52 33.35 27.92 21.62 30.29 32.12 34.25 34.53 33.43 32.88 32.11 29.97 28.62 27.49 26.57 28.98 36.79 26.88 15.49 18.65 25.90 24.23 28.44 26.44 23.71 24.76 22.67 25.06 24.01 23.98 23.74 23.08 23.33 22.04
43.53 43.59 43.67 43.75 43.81 43.66 43.72 43.57 43.41 43.63 43.65 43.42 43.59 43.88 43.73 43.34 38.95 33.85 31.54 36.07 41.43 34.84 27.06 21.66 26.33 32.86 35.15 33.99 32.04 31.52 31.42 29.10 29.14 28.00 27.28 31.84 31.90 28.73 15.11 15.24 24.90 24.06 26.07 25.56 26.30 25.44 22.83 22.27 21.60 24.17 23.77 24.12 23.10 20.24
43.17 43.30 43.34 43.36 43.45 43.47 43.49 43.60 43.61 43.58 43.60 43.71 43.60 43.38 42.62 42.32 40.00 34.93 37.69 42.54 38.01 32.38 29.14 20.13 25.95 30.84 36.81 28.50 28.09 30.44 28.55 28.88 28.72 27.36 28.02 29.41 30.57 24.56 17.62 21.79 24.45 24.07 24.03 24.78 26.35 26.64 24.63 24.60 24.08 22.98 22.66 21.42 19.31 17.96
42.90 42.97 42.93 43.06 43.31 43.51 43.25 43.27 43.32 43.35 43.67 43.79 42.52 41.08 37.35 34.88 31.94 34.43 42.00 39.83 36.81 31.88 23.33 21.24 22.11 23.14 32.13 29.00 29.17 29.10 28.81 20.97 28.33 24.41 26.47 32.55 26.69 17.13 18.83 25.92 26.12 25.08 24.98 25.23 25.42 24.54 24.26 23.51 22.71 21.96 21.14 20.19 18.28 17.41
42.64 42.50 42.80 42.91 42.90 42.95 42.94 43.03 43.41 43.64 43.04 41.50 37.13 31.14 25.31 34.15 41.42 41.44 34.64 27.91 27.57 29.74 30.23 22.36 25.19 27.50 31.21 24.10 24.46 24.82 25.98 23.16 24.93 29.72 29.65 24.85 19.04 27.07 23.65 26.87 27.30 27.72 26.48 25.84 23.27 22.08 22.80 21.57 20.98 20.66 20.28 20.21 18.71 17.41
42.71 42.75 42.71 42.80 43.02 42.99 43.01 43.25 43.14 41.82 40.11 34.79 31.80 32.53 38.78 42.88 35.26 30.57 23.55 21.91 23.07 22.75 25.80 24.46 25.04 24.16 30.13 22.76 27.39 27.84 23.64 24.61 20.82 25.50 27.08 22.82 19.51 24.90 25.90 26.65 28.44 27.38 27.39 26.62 26.45 26.52 25.46 23.45 21.93 20.13 18.98 18.63 17.62 16.13
42.12 42.01 42.65 42.72 42.84 42.79 42.95 42.84 40.96 36.49 34.39 35.90 38.17 39.87 38.27 34.55 31.26 25.55 24.11 25.62 25.18 22.22 23.11 22.93 23.60 27.44 29.66 30.56 25.55 27.35 22.40 21.99 17.81 30.95 26.13 20.62 20.36 27.21 28.29 28.25 29.50 28.09 27.96 27.37 26.81 24.87 24.24 23.75 22.14 20.09 17.70 15.28 12.99 10.18
42.26 42.36 42.27 42.37 42.31 42.12 42.28 42.08 41.97 42.37 41.61 39.75 35.27 32.48 29.04 29.29 22.23 14.83 14.44 21.57 17.14 22.39 23.22 22.61 21.15 25.89 26.34 27.94 22.88 23.73 15.50 14.86 28.33 25.78 24.07 20.32 25.65 27.45 27.47 26.20 25.67 26.16 26.81 25.03 24.06 23.75 22.54 20.35 18.31 15.08 10.68 5.61 5.30 3.18
41.56 42.12 42.21 41.66 42.28 42.51 42.48 42.07 41.09 39.41 37.38 31.45 28.22 22.79 21.59 19.77 24.07 17.71 18.28 16.97 22.05 21.18 22.84 23.52 23.24 24.33 23.30 23.25 17.00 14.64 18.45 23.26 13.54 15.77 19.03 18.21 25.90 25.48 25.55 25.92 24.33 22.69 21.77 21.24 19.79 18.49 14.57 11.46 5.59 3.30 3.87 1.89 2.08 0.06
41.33 41.51 41.81 41.35 40.75 41.91 41.55 40.57 39.58 36.31 32.24 28.76 28.87 22.24 22.59 23.61 27.28 24.56 28.86 29.65 29.50 22.99 25.34 24.87 24.71 27.22 24.03 23.31 23.73 19.85 19.51 14.69 15.13 15.07 14.42 16.10 24.02 23.65 22.38 21.19 19.65 18.10 17.51 16.19 14.65 11.27 7.70 5.20 4.96 -0.56 -5.83 -3.70 1.14 -1.97
40.76 39.22 37.85 41.16 41.62 41.01 39.28 37.23 35.23 34.78 30.08 29.54 28.94 26.87 27.72 27.21 27.64 29.69 30.19 30.27 31.54 30.01 24.72 26.81 26.55 21.91 22.26 18.01 24.23 15.19 17.39 13.64 14.62 17.07 18.70 15.38 20.72 20.80 20.41 20.35 18.33 16.01 15.20 11.75 9.68 9.09 6.66 4.97 5.96 3.94 -1.39 -3.77 -5.84 -2.30
37.89 32.65 40.54 41.19 39.76 38.87 38.08 31.76 28.47 27.58 26.55 27.21 26.02 27.73 30.35 30.11 27.68 29.21 30.71 30.97 32.23 29.58 19.16 25.96 16.14 17.60 23.80 21.69 20.54 19.74 13.86 14.51 14.69 21.30 24.85 22.24 18.32 16.92 16.66 16.27 15.69 14.58 12.30 10.73 8.24 7.68 4.28 2.95 4.49 6.57 6.43 2.76 4.86 6.53
32.07 37.73 40.59 39.39 35.92 32.87 30.61 28.55 30.50 26.84 25.63 26.87 22.98 27.75 29.07 31.47 30.52 29.86 30.68 31.77 32.03 30.53 28.76 23.21 27.91 25.37 20.36 15.60 14.88 13.91 24.65 24.74 22.05 22.32 22.59 23.22 20.51 13.94 16.58 16.09 15.65 15.34 13.04 10.33 9.66 7.31 6.20 7.17 10.12 9.46 12.22 12.20 11.82 12.47
36.16 39.24 39.89 38.51 33.26 26.39 20.75 24.15 28.81 22.48 25.67 26.30 28.04 28.85 29.04 29.45 30.16 30.10 30.78 31.75 32.55 32.18 27.08 23.69 23.62 19.34 16.88 15.58 16.95 17.74 13.93 18.61 22.04 20.98 15.36 20.59 19.90 16.90 14.50 13.62 13.51 13.14 12.61 11.38 12.84 11.96 11.81 14.40 14.05 13.70 14.47 15.45 11.14 11.60
40.87 40.52 39.14 39.58 35.85 27.03 24.61 25.43 30.87 27.67 22.92 25.11 29.06 28.08 27.98 27.91 28.94 29.75 30.05 30.67 31.04 30.71 28.27 20.82 18.23 18.04 18.76 18.43 19.81 19.81 16.62 19.17 21.35 19.82 18.28 13.36 19.27 17.00 14.28 15.59 14.57 14.22 13.68 15.40 15.59 14.37 15.08 14.49 14.93 14.90 13.63 13.13 8.82 7.14
38.36 37.88 37.91 34.29 30.00 30.89 28.76 27.44 25.78 27.25 28.88 25.28 28.70 28.44 26.25 28.55 27.62 27.90 28.23 30.49 28.84 24.83 20.26 19.09 14.83 13.77 16.72 17.95 21.78 20.38 19.76 21.30 18.28 19.26 17.34 15.30 14.27 16.73 16.76 16.47 16.63 15.97 14.87 14.49 13.62 12.28 12.52 13.22 13.18 13.21 3.96 0.69 -1.33 0.92
35.87 37.18 32.56 32.45 27.67 27.31 26.27 30.45 29.56 28.63 26.65 28.05 27.92 28.14 21.10 19.28 23.70 25.54 26.37 22.48 22.49 20.85 20.58 19.04 19.47 18.65 20.25 22.13 21.18 23.98 22.26 22.80 20.43 17.52 16.29 17.58 17.14 16.77 16.78 15.80 16.00 13.10 13.02 12.20 14.27 11.65 10.69 12.28 11.19 9.52 2.44 -2.93 2.03 2.55
36.07 32.42 27.46 28.14 20.41 22.40 18.77 31.85 25.48 26.53 21.35 25.42 27.40 23.68 16.05 13.51 19.69 27.17 15.99 21.46 20.47 19.36 19.30 20.97 23.11 26.40 23.76 23.02 24.02 24.30 24.44 22.74 19.72 18.49 17.09 16.44 17.35 14.94 16.70 15.71 14.22 12.70 11.64 11.39 14.66 12.45 8.41 7.86 6.95 5.85 3.93 -0.14 -2.81 -6.92
34.12 25.73 15.50 19.28 20.25 12.05 23.64 22.93 27.87 25.52 22.93 23.15 19.30 15.54 16.76 18.90 25.81 17.05 16.16 18.94 18.72 15.74 19.05 21.07 21.81 20.69 21.42 22.40 18.69 19.18 20.89 20.56 17.48 13.54 16.73 18.31 17.11 17.24 18.10 17.04 15.38 14.78 15.17 15.45 15.99 10.96 7.91 4.37 6.45 5.77 1.05 -2.62 -10.91 -9.64
18.66 16.50 17.57 17.23 23.53 20.76 19.16 17.43 21.06 20.38 17.72 21.53 14.67 11.57 16.79 23.91 18.47 12.29 16.19 18.53 12.34 16.62 10.45 16.02 19.17 18.97 20.59 21.63 21.25 17.69 19.54 20.73 18.50 16.86 14.27 18.35 16.93 18.01 17.03 16.27 13.82 13.07 15.85 13.87 8.78 7.13 6.50 6.20 5.05 4.51 -2.58 -5.83 -2.82 -8.74
9.92 10.10 16.23 15.09 20.13 19.30 19.35 13.01 11.93 11.93 11.28 11.01 13.44 18.57 16.03 22.42 18.95 12.66 18.28 13.09 15.15 24.29 15.19 23.22 23.42 20.17 22.77 23.21 21.18 18.45 18.30 20.84 20.38 15.80 17.52 19.95 19.73 17.86 15.03 13.83 11.71 10.26 11.30 13.36 12.70 10.25 7.24 5.47 4.52 0.09 -6.19 -5.13 -5.84 -6.22
17.68 11.97 20.97 25.17 23.83 21.48 13.25 11.59 18.44 16.83 18.90 15.31 14.79 13.52 12.63 10.93 12.06 16.27 15.86 15.81 16.34 20.49 24.27 25.36 26.15 25.71 24.28 22.56 21.19 19.85 19.75 19.64 19.06 17.73 16.76 15.85 15.87 16.77 16.62 14.64 12.26 12.22 11.24 13.24 13.03 12.00 8.58 4.64 0.52 -2.08 -7.46 -13.63 -12.18 -7.29
20.58 21.07 16.27 22.04 23.44 21.94 11.10 8.87 8.86 12.54 15.80 19.28 18.59 14.68 12.95 12.66 14.50 11.34 11.02 11.70 16.69 22.90 22.72 20.55 21.56 23.08 19.88 16.72 16.83 15.45 14.55 14.89 15.03 15.57 15.51 13.97 11.62 10.03 11.55 10.98 11.24 12.82 9.26 8.83 7.72 6.41 5.89 2.73 0.08 -1.33 0.36 -1.88 -10.55 -14.71
16.65 15.32 19.94 17.15 17.97 21.24 22.04 18.95 16.63 15.53 16.83 18.35 15.70 11.02 11.41 10.33 5.03 4.32 7.42 10.86 17.88 22.46 15.67 14.59 16.92 16.54 15.77 16.25 16.94 17.30 17.32 18.63 18.04 14.75 11.35 8.50 7.05 8.40 7.79 8.72 8.65 8.48 8.92 8.94 11.11 7.06 4.27 3.85 2.34 0.64 -3.67 -7.13 -13.28 -16.79
11.07 13.80 10.91 7.77 12.33 15.50 15.61 15.35 13.97 11.99 14.19 13.19 12.86 11.30 8.78 4.24 2.60 4.77 5.73 5.91 11.30 9.69 6.96 7.67 6.44 10.16 11.90 11.90 12.39 13.09 13.81 13.86 15.76 17.22 14.14 10.67 9.76 7.98 8.11 8.62 8.46 8.64 10.47 9.85 7.86 6.26 7.37 1.21 -0.57 -9.27 -12.46 -15.85 -18.20 -19.47
18.10 15.21 8.50 7.14 6.69 4.66 7.33 7.28 6.80 11.31 12.64 11.00 9.16 10.74 7.97 1.23 3.64 1.33 3.41 3.93 4.26 6.23 9.25 9.68 9.80 11.35 15.25 15.11 14.62 14.95 12.47 12.55 15.51 14.75 13.19 11.49 10.29 8.39 7.09 6.05 6.22 6.27 6.01 4.94 2.13 -0.50 -2.76 -6.04 -8.52 -12.78 -14.09 -15.71 -21.25 -24.87
15.67 16.99 12.81 6.93 4.72 9.35 12.27 11.74 11.75 9.59 2.15 4.81 4.96 -1.49 0.66 2.16 5.83 1.69 5.06 4.97 7.77 8.01 5.39 6.52 8.88 6.29 13.18 16.43 15.74 15.39 14.65 11.87 11.52 11.77 11.56 10.92 8.70 7.25 6.71 5.82 5.22 3.57 1.99 -0.40 -1.44 -3.36 -6.03 -9.34 -12.82 -13.93 -15.56 -19.63 -25.96 -29.04
14.13 12.53 11.63 12.82 10.02 9.32 10.19 13.26 11.49 9.51 5.26 3.75 1.20 -3.29 -2.39 4.22 7.09 1.73 3.87 5.62 5.97 5.97 6.37 8.51 11.63 11.92 11.86 11.64 11.63 12.01 12.45 12.84 13.70 14.08 11.70 10.29 8.89 8.33 5.87 4.59 3.28 1.64 -0.60 -2.92 -4.57 -6.05 -8.49 -11.19 -15.73 -19.31 -20.56 -23.96 -29.58 -30.67

GFSWCAN_sfc_wetblb_111.txt.gz
Wetbulb
44.34 44.01 44.09 43.93 43.83 44.14 44.87 45.29 45.60 45.92 45.87 45.90 45.75 45.62 45.29 44.24 43.02 38.94 36.13 36.91 35.46 31.45 32.48 35.41 34.51 30.82 30.07 29.39 26.52 28.81 29.84 29.67 29.26 26.28 27.02 26.13 24.62 27.24 26.77 26.10 25.16 23.12 21.73 21.97 24.31 21.18 18.41 24.88 27.18 24.36 24.69 25.10 23.22 21.92
44.21 43.89 43.57 43.44 44.23 44.33 44.52 44.87 45.15 45.34 45.60 45.53 45.61 45.66 45.31 44.43 43.34 39.99 35.48 37.43 37.19 34.23 33.15 35.47 35.80 36.02 34.79 33.40 32.01 31.66 29.58 29.80 30.96 28.33 28.63 28.77 25.93 27.86 25.11 21.85 28.12 23.01 23.68 21.47 20.81 20.12 24.20 26.20 26.04 28.23 27.65 24.26 23.14 22.37
43.64 43.18 43.86 44.06 43.85 44.20 44.53 44.71 44.62 45.14 45.43 45.57 45.45 45.20 44.64 44.22 43.22 39.94 35.89 35.98 36.01 33.05 32.56 33.49 33.08 37.29 38.58 37.60 38.20 31.55 32.95 33.70 32.15 33.86 32.66 31.01 26.51 31.00 24.46 23.42 25.09 26.97 28.17 22.45 22.14 22.78 23.32 24.59 26.12 26.45 26.49 24.29 24.30 23.81
43.55 43.68 44.02 44.05 43.99 44.25 44.37 44.53 44.60 44.90 45.02 45.15 45.24 45.13 44.86 44.36 43.68 41.03 36.76 36.60 34.97 32.81 28.60 31.32 37.23 35.65 38.93 39.17 37.63 36.65 35.38 34.81 34.63 34.50 32.21 31.67 28.25 33.13 26.20 26.14 24.57 26.16 27.07 23.75 21.35 23.13 23.67 23.95 25.48 25.30 24.54 24.27 23.27 22.93
43.01 43.82 43.75 43.59 43.81 44.00 44.21 44.23 44.22 44.22 44.66 44.82 44.92 44.67 44.34 43.80 43.17 40.75 38.73 38.02 36.85 33.90 28.86 29.56 33.83 36.23 38.22 38.32 36.75 36.51 35.55 33.41 32.46 31.13 31.20 30.25 32.74 30.30 27.78 26.86 23.91 28.29 24.39 21.73 22.16 24.56 24.16 22.92 25.43 25.69 23.57 22.92 23.15 22.38
43.45 43.64 43.72 43.60 43.64 43.83 43.91 43.97 43.92 43.99 44.19 44.30 43.99 43.93 43.40 42.78 39.32 36.12 31.49 37.63 39.91 35.17 31.77 26.85 32.53 34.52 36.68 37.32 36.58 35.68 34.81 32.85 32.64 31.94 30.83 33.19 35.99 31.34 24.45 23.31 26.07 26.57 29.20 28.28 24.31 26.49 25.23 25.50 25.53 25.68 24.10 24.40 24.05 22.92
43.51 43.69 43.52 43.48 43.58 43.55 43.56 43.58 43.60 43.97 44.22 44.43 44.29 44.21 43.83 43.42 40.80 35.18 32.16 37.91 40.94 36.69 31.55 27.51 29.48 33.38 36.21 35.35 34.09 33.87 33.92 32.74 33.53 31.79 31.37 33.98 32.59 29.72 23.82 23.02 25.75 26.58 27.21 26.75 27.15 26.05 23.61 24.98 23.19 25.50 24.87 24.79 23.94 22.27
43.55 43.52 43.58 43.37 43.42 43.35 43.34 43.34 43.64 43.81 43.94 44.05 43.28 43.15 42.74 42.42 40.12 37.09 39.70 41.56 38.60 32.72 31.29 25.70 27.76 32.11 36.05 31.61 31.54 32.90 32.43 32.84 31.57 30.71 31.94 32.35 31.12 28.26 23.82 23.15 25.14 26.27 26.29 26.71 27.01 27.84 26.39 26.01 25.50 24.41 23.83 22.35 20.39 18.94
43.09 43.12 43.20 43.15 43.33 43.25 43.13 43.45 43.67 43.70 43.60 42.24 41.38 40.41 37.58 35.54 34.06 36.70 42.40 39.16 37.60 34.00 26.72 25.80 26.21 24.83 33.92 31.20 32.14 32.48 31.95 28.83 31.35 30.00 30.83 32.21 29.24 25.46 24.06 25.01 24.44 25.14 25.54 25.84 25.89 25.27 24.98 24.05 23.03 22.57 22.32 21.58 20.16 18.98
42.81 42.74 43.14 43.11 43.00 43.02 43.00 43.56 43.72 42.84 41.64 40.76 37.66 31.78 29.13 36.17 41.23 40.02 34.38 29.63 29.76 30.36 30.93 26.47 27.63 28.27 32.69 29.25 29.76 30.25 29.96 28.65 27.20 30.68 32.38 29.29 27.30 27.56 28.06 28.75 27.59 27.24 27.67 26.94 23.98 22.29 23.57 22.77 22.21 21.79 21.65 22.13 21.55 19.72
42.82 42.85 42.81 43.02 43.02 43.09 43.28 43.33 41.79 41.01 39.80 35.64 33.73 33.08 39.02 42.28 35.83 31.28 24.74 25.06 26.57 25.19 28.17 27.45 28.71 29.55 32.81 28.70 29.46 30.26 28.15 28.28 24.04 28.27 28.79 26.76 25.06 25.98 27.61 28.78 29.69 29.51 28.10 27.79 28.00 27.41 26.85 25.16 23.04 21.89 21.13 20.76 19.90 18.55
42.54 42.73 42.79 42.97 43.02 43.18 42.54 41.30 40.57 37.36 35.49 37.71 36.98 40.12 37.77 34.20 29.36 24.30 23.64 25.24 25.53 23.81 26.65 27.57 28.23 30.13 31.66 33.08 31.03 29.37 25.79 26.33 21.71 31.24 28.68 24.63 25.07 27.06 27.82 28.48 28.79 28.26 28.10 28.03 28.32 26.46 25.76 24.92 24.02 22.17 20.41 18.99 17.27 15.00
42.67 42.55 42.42 42.70 42.65 42.25 42.79 42.84 42.51 42.24 41.00 37.93 34.76 32.42 29.18 28.38 20.19 16.61 14.72 22.17 22.22 25.95 27.19 28.10 27.22 30.15 30.73 30.88 27.25 26.87 22.15 21.76 28.94 25.52 25.00 24.94 26.76 28.41 28.64 29.46 28.93 29.06 28.85 27.17 26.30 25.92 24.77 22.57 21.18 18.94 15.08 12.21 10.77 8.83
42.47 42.34 42.13 42.35 42.52 42.32 42.07 41.46 41.53 39.90 35.61 31.57 26.63 22.16 20.19 21.24 22.24 21.02 22.29 21.77 25.31 25.75 27.41 28.42 27.85 29.55 28.07 27.20 23.25 21.91 23.34 26.66 20.57 19.25 21.72 25.30 27.08 28.08 28.28 28.33 27.14 26.10 25.19 24.29 22.88 21.69 18.88 15.82 12.42 11.45 10.47 8.50 6.87 5.57
41.86 41.21 41.05 41.70 41.96 41.34 40.73 40.12 39.30 36.03 32.04 28.55 27.81 21.95 23.15 26.15 28.19 28.30 28.92 30.36 29.69 27.46 28.65 29.33 29.02 29.81 26.00 24.20 25.82 22.74 21.73 19.10 20.18 21.72 23.99 24.34 27.23 26.18 25.45 25.87 24.55 22.77 21.19 20.53 19.93 17.43 14.05 12.06 10.73 6.20 5.80 7.16 7.37 4.36
41.28 40.26 38.97 41.51 40.79 39.72 38.24 36.60 34.97 34.10 29.98 28.55 28.48 27.06 27.83 27.97 29.01 31.29 31.46 30.53 31.42 31.04 28.91 30.52 28.31 23.82 22.87 22.81 23.82 18.74 19.73 18.75 23.61 23.34 26.52 21.53 24.18 24.69 24.24 23.75 22.40 20.75 20.19 17.46 15.68 14.30 11.86 10.31 10.31 8.20 5.33 6.74 5.46 6.68
38.98 36.44 40.55 39.93 39.04 38.15 37.92 32.04 30.52 28.00 27.34 26.87 26.01 27.78 31.08 29.95 28.89 30.38 31.83 31.52 32.81 30.14 26.27 27.07 19.61 20.65 26.15 21.74 21.34 23.03 22.34 24.64 22.86 26.65 25.75 21.98 22.60 21.83 21.55 20.53 19.40 17.90 16.14 14.63 12.90 12.50 10.06 8.88 8.29 9.41 9.99 8.34 8.69 10.15
34.96 39.39 40.31 38.82 34.70 32.21 29.16 30.03 29.39 27.31 25.38 26.21 25.19 28.14 29.99 31.56 30.08 30.09 31.30 32.39 32.52 30.72 29.66 26.52 27.88 25.02 21.90 19.70 22.45 23.94 25.59 27.24 25.15 25.25 26.16 24.33 21.62 19.52 21.18 19.82 18.44 18.02 15.73 13.80 13.03 10.92 9.44 10.16 12.26 14.03 14.52 13.11 13.45 13.97
38.02 38.29 38.73 37.99 33.31 27.37 23.69 25.97 28.98 23.17 26.25 27.90 28.18 29.08 29.72 29.99 30.78 30.96 31.25 31.99 32.92 32.70 29.85 28.94 25.85 23.56 24.22 23.69 25.91 25.30 22.64 26.17 24.87 22.91 21.19 22.81 22.72 18.86 17.54 17.61 16.80 16.32 14.94 13.58 13.89 14.15 14.28 15.39 16.89 16.95 16.98 16.73 16.38 17.02
39.74 39.35 39.14 38.19 35.21 27.38 24.72 25.16 31.02 27.84 23.94 26.94 29.26 28.37 28.30 28.47 29.32 30.34 30.60 30.97 31.56 31.48 27.85 25.07 24.08 25.26 25.62 26.67 25.50 27.79 25.32 23.27 23.49 21.78 20.92 19.45 20.71 18.77 18.16 18.68 18.51 17.36 16.19 16.47 16.57 15.80 15.95 16.81 17.52 18.08 18.65 18.22 18.25 18.75
37.86 37.20 37.16 32.88 29.47 28.13 26.82 26.48 25.94 27.50 28.84 26.44 28.73 28.19 26.69 28.98 28.10 28.41 29.06 30.89 30.19 26.56 24.89 24.92 23.90 23.19 21.89 23.71 25.76 23.96 22.98 24.19 23.98 25.15 23.65 19.09 19.16 19.53 18.47 18.80 18.37 17.91 17.35 17.06 16.37 15.92 16.34 18.00 18.63 18.88 18.39 18.57 17.24 17.90
35.69 36.47 29.97 30.76 27.28 26.56 25.78 30.23 29.47 29.17 28.00 28.26 27.97 27.84 23.90 21.37 25.55 27.12 28.94 24.36 25.49 25.03 25.25 24.93 25.22 23.89 24.50 25.49 25.24 25.74 24.21 24.01 21.59 19.35 17.93 18.92 18.31 18.24 17.99 18.20 17.98 17.01 17.40 17.29 17.88 16.88 17.82 18.49 18.81 18.08 17.03 13.55 12.76 14.31
35.38 31.27 27.16 26.73 19.40 16.94 19.26 30.74 26.26 27.29 23.10 25.59 27.48 23.58 20.44 17.90 21.39 27.49 21.23 23.82 23.48 23.00 22.97 24.75 25.89 27.12 25.33 24.87 24.98 24.93 25.08 23.63 22.04 20.92 19.68 20.48 20.31 19.68 18.90 18.66 18.95 17.09 16.26 16.93 18.71 17.80 17.84 15.53 13.82 14.78 13.10 13.57 13.71 10.85
33.52 24.22 15.53 18.24 19.28 13.37 22.47 20.19 27.85 25.24 25.06 22.90 21.61 17.30 17.93 22.80 27.05 21.21 20.13 21.58 22.29 19.79 22.73 22.70 24.45 24.03 24.22 23.94 22.73 22.50 22.82 22.59 20.12 18.39 20.29 19.99 18.80 18.66 19.40 18.73 18.59 19.18 19.89 18.47 18.59 17.81 16.19 16.61 12.98 13.64 13.06 12.04 10.64 10.96
22.30 18.63 14.13 7.10 22.87 18.85 19.40 14.96 19.63 19.57 13.44 18.47 17.23 12.97 20.65 25.93 18.66 17.70 18.78 19.74 18.77 23.17 20.24 20.64 22.71 23.10 25.77 25.23 23.37 22.36 21.20 22.25 20.90 19.38 19.09 20.52 19.43 19.03 18.32 18.44 18.14 18.80 19.18 17.39 15.52 15.34 13.97 13.63 13.50 12.73 11.92 11.38 9.33 7.52
8.36 9.45 13.94 12.50 19.39 18.49 18.73 16.86 17.18 12.92 11.09 11.02 14.90 16.99 19.55 19.93 18.25 14.27 18.58 16.39 20.37 25.07 19.74 21.62 24.44 25.00 24.80 24.78 23.82 22.39 22.10 22.52 21.47 19.70 19.56 21.06 20.64 19.45 17.80 16.82 16.87 17.43 18.15 20.49 17.19 15.19 13.53 13.08 12.06 9.94 8.08 5.74 2.21 4.33
8.94 10.36 19.01 22.97 23.72 21.14 14.68 12.82 19.68 14.97 12.36 11.80 13.43 17.23 13.65 13.62 14.85 16.76 17.10 17.38 18.57 22.54 24.00 25.85 26.15 26.72 25.74 23.35 21.81 21.19 21.51 21.01 20.61 19.47 18.71 18.47 18.76 20.57 21.06 19.14 18.44 19.82 17.73 19.29 18.05 16.86 14.12 12.78 10.82 8.40 3.78 2.19 3.37 6.16
18.43 17.74 16.10 16.61 22.78 22.05 15.58 9.35 9.07 12.33 15.49 20.44 17.89 15.22 12.31 13.45 15.96 18.07 17.72 17.27 17.68 21.81 22.53 21.61 21.46 23.36 23.43 20.34 17.76 17.19 15.98 16.47 16.08 16.38 16.97 15.79 13.61 13.59 13.83 14.92 16.52 17.38 17.77 18.02 16.81 15.65 14.26 11.84 7.76 5.55 5.73 3.44 -0.58 -0.52
19.87 16.30 19.13 15.98 17.28 18.88 19.37 20.09 17.87 17.79 18.17 19.24 17.21 15.47 15.77 16.44 13.32 12.82 13.92 15.16 15.08 22.45 19.37 18.43 17.73 17.68 16.84 17.27 17.63 18.40 19.06 20.12 19.60 16.47 15.03 14.23 15.16 12.89 11.94 12.69 12.89 13.22 13.74 13.12 13.05 11.19 9.63 8.44 6.59 4.42 1.42 -1.79 -5.48 -6.85
14.58 14.00 11.74 9.23 12.63 17.67 19.75 16.11 18.33 17.38 17.72 18.09 17.04 15.35 14.28 12.87 11.18 8.32 10.94 12.75 15.80 19.00 19.29 19.81 18.38 18.50 14.22 14.65 14.78 16.29 17.50 19.51 20.69 21.12 17.52 15.60 15.69 11.12 12.81 13.18 13.40 13.53 13.93 12.19 9.12 6.75 6.51 1.93 1.16 -2.51 -4.70 -5.94 -5.67 -7.66
17.33 14.51 8.61 8.51 10.34 9.30 9.19 6.48 5.94 8.26 7.33 9.34 9.36 13.89 11.55 8.49 9.33 7.88 9.37 8.57 8.02 8.68 13.05 13.32 14.60 17.25 15.54 15.39 16.22 16.48 16.08 16.29 17.49 17.01 15.75 13.51 12.61 12.02 11.42 10.87 11.35 10.76 8.92 6.94 5.14 3.73 1.48 0.05 -1.37 -3.46 -5.10 -7.97 -10.87 -10.08
17.66 16.49 11.87 8.80 7.72 8.18 9.27 8.61 9.18 9.65 5.87 4.56 5.64 0.02 4.53 6.80 10.05 8.11 9.47 8.84 11.70 13.10 10.69 11.86 13.66 14.14 16.25 18.56 18.24 17.34 16.20 13.93 13.37 13.17 13.28 12.53 11.27 10.17 9.49 9.15 9.01 7.97 6.03 4.35 3.10 1.53 0.25 -1.49 -3.20 -4.68 -7.50 -10.36 -12.31 -13.23
13.23 12.59 13.91 13.70 10.39 10.35 11.43 14.30 12.61 9.55 4.04 3.28 3.06 0.54 1.83 6.68 10.07 6.63 7.61 8.19 9.56 12.15 11.40 11.22 11.96 13.02 13.52 13.84 13.78 13.64 13.66 14.12 14.19 14.44 12.61 11.53 9.99 9.46 8.42 7.87 7.08 5.47 3.51 1.88 0.24 -1.25 -3.03 -4.79 -6.99 -8.80 -11.08 -13.35 -14.91 -15.45

GFSWCAN_sfc_wetblb_114.txt.gz
Wetbulb
42.74 42.87 42.89 43.53 43.87 43.95 44.35 44.64 44.77 45.07 45.14 45.37 45.35 46.19 45.84 45.04 43.74 44.28 40.55 42.36 42.91 38.43 37.10 38.90 38.53 36.15 36.06 37.07 32.49 35.29 34.74 34.41 33.98 31.36 32.58 31.80 29.12 30.51 29.55 29.59 27.74 27.51 27.53 27.74 28.58 26.47 22.34 28.25 29.72 27.15 27.39 28.50 28.08 28.18
42.36 41.98 43.71 44.07 44.18 44.26 44.46 44.68 44.79 44.81 45.15 45.40 45.64 45.35 44.88 43.92 42.74 45.27 39.98 42.61 45.73 40.09 35.94 40.35 39.73 40.04 39.88 39.65 38.28 37.48 35.74 35.85 38.22 35.89 35.73 33.53 28.30 29.61 29.10 25.86 30.57 26.23 28.72 29.12 25.70 25.06 26.94 29.09 29.00 31.56 31.51 28.89 28.71 27.59
42.68 42.91 43.65 44.18 44.60 44.69 44.68 44.63 44.81 45.05 45.10 45.17 45.31 45.42 45.00 44.20 44.05 44.73 42.24 43.70 43.24 38.80 37.11 37.96 36.63 41.54 43.76 42.84 44.28 37.51 39.23 38.74 37.91 41.45 36.21 34.31 28.76 33.32 27.97 29.84 27.90 28.16 29.59 26.35 26.66 25.32 25.92 27.63 29.18 30.64 30.97 28.94 28.82 27.88
43.42 43.28 43.79 43.86 44.32 44.62 44.62 44.75 44.84 44.92 45.24 45.26 45.12 44.98 44.81 44.56 44.37 45.28 42.09 42.78 43.31 39.29 33.08 34.06 41.61 39.68 43.01 44.28 43.43 43.66 41.25 41.17 41.70 42.06 37.30 34.30 30.51 36.19 30.88 31.46 30.86 30.64 29.76 26.41 23.85 25.36 26.64 26.91 27.97 28.44 28.06 27.93 26.77 26.80
43.44 43.61 43.76 43.99 44.15 44.16 44.32 44.55 44.69 44.89 44.95 45.19 45.14 44.96 44.78 44.87 44.73 45.09 44.86 43.73 43.21 40.24 32.72 34.29 40.27 40.78 42.74 43.26 42.09 42.83 41.74 40.62 39.66 37.88 35.60 31.94 33.86 34.11 35.30 33.25 30.35 31.37 29.22 27.50 28.93 28.73 29.33 27.22 27.67 28.61 26.80 26.10 26.23 25.58
43.26 43.47 43.51 43.67 43.76 43.76 43.83 44.01 44.24 44.38 44.22 44.54 44.48 44.19 43.24 41.66 41.32 44.48 38.37 44.08 43.95 45.09 36.74 31.47 38.43 38.37 40.85 42.31 41.64 40.99 40.86 40.51 41.58 40.24 35.56 36.02 37.68 36.05 31.39 32.04 29.05 29.94 31.38 31.37 28.85 30.86 30.31 28.71 28.39 29.77 27.74 27.06 27.70 27.29
43.26 43.32 43.49 43.56 43.60 43.55 43.60 43.88 44.12 44.46 44.65 44.50 44.52 44.37 44.51 44.29 44.78 39.34 37.48 42.43 42.40 46.43 37.90 31.91 32.38 38.56 40.46 40.60 41.41 40.71 41.33 40.58 40.77 39.10 38.35 36.82 36.78 36.43 34.86 31.17 28.31 29.04 29.69 30.38 31.11 29.66 25.39 27.58 25.82 28.69 28.38 28.02 28.48 27.76
43.27 43.25 43.35 43.37 43.41 43.38 43.51 43.93 44.23 44.15 44.17 43.69 43.12 43.05 43.67 44.43 43.93 40.37 42.80 42.36 43.54 40.87 39.62 31.32 30.40 35.03 40.21 36.64 36.16 41.48 39.30 40.45 38.53 38.09 38.83 37.54 36.76 36.95 30.27 27.66 28.24 28.92 29.05 29.35 30.05 31.30 30.03 30.18 28.91 28.20 29.08 28.07 26.00 25.03
43.00 43.02 42.98 43.09 43.09 43.45 43.47 43.75 43.76 42.93 41.98 41.78 41.42 42.66 44.01 41.29 39.21 40.79 42.42 41.87 44.80 41.23 33.80 34.19 29.47 28.44 39.70 37.54 39.49 39.17 40.37 34.73 38.98 36.17 36.37 36.32 34.46 30.55 31.34 28.14 27.79 28.27 29.03 28.67 29.25 30.32 29.69 28.10 27.32 27.33 27.22 26.86 25.73 23.90
42.79 42.86 42.87 42.71 43.01 43.35 43.39 42.87 42.32 41.85 41.63 42.01 42.54 38.63 32.48 39.35 41.81 42.18 41.72 38.24 37.80 38.39 38.56 32.96 37.09 30.74 37.94 37.30 36.08 36.46 38.15 34.37 30.72 34.54 38.04 33.62 33.29 31.69 31.69 32.45 31.75 30.96 31.50 30.34 26.79 25.59 27.13 26.27 26.34 26.60 26.75 27.63 26.23 24.38
43.18 43.13 42.79 42.79 43.14 42.92 42.25 41.90 41.53 41.65 42.58 41.01 37.07 35.30 41.78 42.57 41.64 37.58 31.99 31.62 33.87 30.75 35.56 34.61 34.09 33.25 39.74 34.25 33.58 37.95 33.63 34.14 27.69 31.02 30.44 30.26 30.86 30.85 32.52 32.32 32.66 32.53 31.27 31.73 31.67 30.78 30.34 29.19 27.36 26.29 26.10 26.01 25.15 23.77
42.64 43.12 42.97 42.94 42.58 42.59 42.59 42.27 42.56 41.99 40.44 40.11 41.07 42.52 42.13 37.51 33.57 29.45 27.36 29.50 30.41 28.09 33.07 33.16 34.58 37.16 38.27 40.93 36.42 35.46 30.20 32.22 24.72 33.42 30.14 27.66 31.62 31.67 32.49 32.20 32.38 32.71 31.03 30.38 31.38 30.09 30.09 29.00 28.37 27.07 25.56 24.02 22.88 21.77
42.92 42.88 42.82 42.93 43.08 42.75 42.60 42.35 42.07 41.75 42.18 42.42 38.22 34.07 33.69 30.84 25.99 24.74 21.51 25.89 28.01 31.97 33.75 34.78 33.41 37.79 37.73 39.01 34.33 32.69 27.39 27.95 34.58 28.09 27.93 31.55 31.06 31.22 32.16 32.49 31.66 32.20 31.56 30.51 29.69 29.45 28.78 27.79 27.59 25.70 23.31 21.01 18.28 16.74
42.52 42.56 42.24 42.12 41.97 41.72 42.03 41.72 41.06 41.21 40.94 34.34 31.13 25.16 26.78 25.32 27.53 28.60 29.69 31.11 31.73 34.34 35.16 36.68 34.06 35.64 36.21 32.87 32.24 27.40 30.03 31.18 25.52 23.32 24.45 33.50 30.55 30.94 31.76 31.95 30.67 29.95 29.80 29.12 27.98 27.28 25.18 22.70 21.52 20.73 18.78 17.44 14.74 13.09
42.19 42.06 41.71 41.53 41.16 40.62 40.12 39.93 39.65 41.18 37.30 32.20 32.25 24.83 27.08 30.59 32.10 31.94 32.35 33.12 32.87 36.91 37.08 35.33 34.76 35.91 31.79 29.52 31.28 28.78 24.51 23.02 26.74 28.44 33.35 33.09 31.29 30.91 30.46 31.16 30.90 29.08 27.52 27.05 26.33 23.73 21.42 18.85 17.79 15.84 15.41 16.49 15.20 12.12
40.89 40.85 40.08 40.21 39.76 39.41 38.69 38.90 39.51 39.12 35.16 33.12 31.85 29.74 31.81 32.50 31.59 32.68 33.41 33.04 37.19 37.80 38.08 37.13 31.19 28.26 26.09 29.50 25.81 23.17 23.89 23.95 30.73 33.67 33.00 30.94 29.23 30.45 30.09 29.88 29.43 28.70 27.91 26.69 25.18 22.84 20.47 17.91 16.59 15.97 14.84 14.52 13.39 13.76
40.17 37.88 39.48 38.98 38.31 37.69 38.17 37.86 37.28 33.07 31.40 30.49 30.12 32.32 32.86 33.22 31.96 32.86 35.58 35.84 38.69 37.39 31.62 32.96 27.17 24.78 29.65 26.12 23.49 30.36 30.02 33.09 32.32 31.70 33.32 30.91 29.54 29.63 28.98 27.48 25.87 25.33 24.78 23.73 21.80 20.94 19.66 18.15 14.37 14.56 14.49 14.56 16.06 16.19
38.07 39.99 38.75 37.89 37.59 36.62 36.31 36.02 33.66 31.56 28.05 30.63 30.47 30.85 32.57 33.04 33.95 34.86 35.75 36.64 37.41 35.16 33.56 30.84 33.74 28.49 27.49 25.33 28.96 33.90 33.71 31.29 30.19 31.01 31.59 29.51 29.29 28.21 28.38 26.87 24.70 24.20 23.09 21.12 20.61 18.41 16.38 15.40 17.63 19.54 19.27 17.97 18.64 18.65
39.06 39.67 39.31 38.51 36.75 34.79 31.56 31.81 33.53 27.41 29.41 31.73 33.33 34.01 33.81 33.54 34.71 35.53 35.79 35.50 36.46 37.60 36.28 32.83 29.49 30.10 31.42 34.50 34.49 31.41 31.05 31.21 30.72 30.22 28.75 28.34 28.07 26.35 26.05 25.11 23.88 23.09 21.41 20.25 19.94 20.67 20.59 21.16 23.61 23.23 22.28 21.21 22.45 22.76
38.86 38.89 38.40 37.20 37.95 33.63 28.05 29.01 35.05 29.87 27.87 29.86 32.66 31.18 31.60 31.93 32.72 34.04 34.38 33.50 34.18 35.21 32.48 30.98 32.24 35.41 36.08 36.93 36.76 36.76 35.35 33.00 31.39 29.32 28.38 27.65 27.00 24.95 25.57 25.01 25.68 23.76 22.30 21.72 22.16 21.54 21.39 22.11 23.44 23.75 23.57 23.69 24.27 23.60
37.82 37.55 37.89 38.05 35.88 35.14 31.48 29.92 28.00 29.88 29.67 28.48 29.70 29.98 29.30 31.54 31.30 31.33 31.85 32.93 33.01 32.43 31.74 34.88 35.18 34.13 31.55 32.24 34.14 34.26 32.27 32.38 32.82 33.80 32.26 27.88 27.01 27.83 25.95 26.94 25.14 25.27 24.43 24.08 22.67 22.20 22.20 23.30 23.78 24.39 24.19 25.36 26.28 26.18
37.58 36.68 37.07 35.96 31.84 31.39 30.29 32.42 30.49 31.29 30.03 29.29 28.90 29.46 27.75 27.57 28.36 29.61 31.40 31.30 31.30 34.23 35.37 35.22 34.92 34.06 32.48 30.57 32.36 31.79 30.88 30.11 28.53 26.80 26.38 27.31 26.65 26.18 26.09 26.22 25.58 25.36 25.84 25.96 25.49 23.87 24.46 25.48 25.12 25.07 25.78 24.89 23.80 23.57
36.23 35.50 33.50 31.26 26.23 26.96 25.48 33.05 27.95 27.84 24.47 27.16 28.53 25.15 26.46 27.98 29.16 31.24 28.24 31.20 33.23 33.35 32.61 32.85 32.01 31.43 31.92 29.72 29.43 29.25 29.56 29.54 30.21 29.61 27.53 29.45 29.27 28.84 27.75 26.72 27.74 26.64 25.69 25.58 26.59 25.56 25.06 24.15 24.30 25.39 23.98 23.27 22.60 20.35
35.44 30.03 25.73 24.75 25.59 22.34 26.83 26.45 29.71 27.19 26.90 26.07 25.11 21.51 24.96 26.34 28.67 27.05 25.94 30.60 32.18 30.30 30.20 29.14 31.76 29.83 29.36 28.85 30.92 29.92 28.90 30.32 29.11 28.03 28.46 27.71 26.78 26.04 26.93 26.65 26.79 27.40 27.67 26.04 25.43 25.34 24.28 24.71 22.45 22.69 22.54 22.25 21.87 20.39
26.41 23.04 24.94 19.46 24.93 22.09 21.45 23.59 24.57 24.31 21.73 22.90 21.51 23.76 24.75 27.65 25.51 24.15 24.88 29.95 29.63 29.35 28.64 28.22 30.40 31.51 32.08 31.16 30.40 27.76 25.75 29.25 28.89 27.24 26.99 28.21 27.17 25.10 24.63 24.85 25.07 25.84 26.66 25.85 24.43 23.85 23.78 23.05 23.38 22.34 21.66 21.45 19.26 17.88
19.75 21.39 22.02 21.23 22.24 20.53 21.68 19.71 21.12 22.43 23.50 22.03 23.49 26.36 27.71 25.95 22.54 23.01 26.89 29.17 29.38 28.70 28.55 28.64 29.72 30.83 29.88 29.27 28.24 25.55 24.99 27.30 28.61 27.91 25.83 26.74 26.92 26.84 24.97 23.05 22.33 22.29 25.38 26.38 24.15 22.88 22.10 22.27 21.40 20.45 19.86 17.70 15.25 15.53
18.92 20.30 25.17 27.16 26.82 24.33 23.40 24.43 25.10 24.75 21.60 21.54 25.26 24.11 24.46 20.04 21.49 26.95 27.81 27.44 28.57 28.28 27.84 27.88 27.72 30.25 30.68 28.01 25.93 26.08 26.42 27.24 27.16 26.62 26.56 25.95 26.55 28.01 27.67 25.58 23.72 24.74 25.18 25.27 25.15 24.56 22.39 21.21 19.87 19.19 17.15 15.93 15.43 14.90
24.42 24.63 21.47 24.47 24.09 26.94 23.41 23.37 23.32 23.14 25.93 27.81 26.29 22.44 21.56 22.68 25.57 27.70 27.70 26.43 26.69 26.87 26.84 26.82 26.71 27.67 29.10 26.08 25.80 25.13 23.56 22.65 22.33 23.21 23.46 22.90 22.63 22.93 23.31 25.04 24.99 23.52 25.50 25.83 26.06 24.97 23.44 21.45 18.73 16.16 14.64 12.38 10.95 12.62
23.09 26.53 26.04 20.95 23.88 25.65 25.79 25.52 26.25 28.09 27.96 28.40 27.05 26.31 26.49 26.30 25.13 26.36 25.59 25.48 25.45 26.02 26.92 27.10 25.71 25.59 24.95 24.85 25.09 25.64 25.09 25.54 24.29 21.81 21.65 21.48 22.17 20.07 21.39 22.25 22.58 22.10 21.53 20.50 20.34 21.28 19.73 17.99 16.55 13.98 11.50 9.29 7.40 6.85
23.11 26.38 24.43 21.25 21.15 23.27 27.56 26.96 27.95 25.38 24.70 25.44 24.78 23.97 23.30 24.09 23.05 20.98 22.82 24.48 25.35 26.59 27.34 27.21 26.60 26.19 24.44 24.60 22.77 22.53 25.36 26.82 27.32 26.29 23.51 22.58 23.16 19.75 20.21 20.27 20.15 20.37 20.11 18.53 15.33 12.44 10.60 8.22 7.10 5.77 5.03 4.72 4.08 2.13
23.93 24.37 23.42 23.13 23.00 24.39 22.43 21.32 22.00 22.42 22.61 23.38 21.13 23.10 25.67 21.61 22.21 19.80 20.25 19.91 20.21 20.99 22.73 24.44 24.44 25.02 23.60 23.25 24.41 23.10 22.38 24.67 24.39 24.36 24.38 21.42 20.18 19.86 19.68 19.15 18.98 18.15 16.44 15.16 13.73 12.43 10.73 9.76 8.50 6.58 5.17 2.59 0.21 0.41
23.36 23.11 22.09 19.50 21.54 20.77 20.73 22.15 23.09 22.98 22.11 21.46 22.67 17.97 19.76 20.34 22.37 19.56 16.48 17.19 20.06 21.22 19.66 22.22 23.40 23.27 24.03 25.28 25.14 24.83 23.56 21.88 20.56 19.61 19.57 19.59 18.11 17.38 17.24 16.66 16.39 15.75 14.44 12.77 11.91 10.37 9.39 8.13 7.04 4.70 2.12 -0.08 -1.23 -2.41
20.08 20.95 20.34 20.21 18.71 17.40 19.92 19.76 19.07 18.84 18.48 18.59 19.43 16.79 18.28 19.09 19.22 16.51 17.44 16.57 16.32 17.87 20.91 20.96 20.66 21.48 20.97 21.13 20.77 19.81 19.46 19.42 18.68 17.73 16.51 15.78 15.24 15.06 14.96 14.66 13.95 12.73 11.61 10.61 9.44 8.23 6.72 4.79 3.27 1.16 -0.98 -3.40 -4.40 -4.58

GFSWCAN_sfc_wetblb_117.txt.gz
Wetbulb
43.30 42.74 44.21 47.06 46.82 46.46 46.05 45.06 45.56 45.79 46.12 46.65 47.42 48.05 46.85 46.12 46.33 44.51 42.41 47.21 45.87 40.89 40.46 41.23 42.69 40.36 40.33 39.77 34.94 38.04 36.56 37.31 35.92 31.63 32.90 33.48 33.08 34.19 32.45 33.72 31.38 30.84 29.82 29.23 30.23 27.91 24.70 32.03 32.84 28.04 30.83 33.07 33.85 33.02
43.26 42.84 43.62 44.63 44.95 45.50 45.71 46.21 46.19 46.17 45.85 45.33 45.26 45.18 45.47 45.42 45.89 45.94 42.26 47.87 48.73 42.72 40.69 44.55 43.98 45.05 44.54 43.94 41.20 40.36 38.67 38.42 39.60 36.31 37.66 38.13 33.55 33.07 32.71 28.56 35.01 28.85 32.73 30.08 29.20 27.31 29.41 31.73 32.58 34.89 34.99 32.44 32.10 30.52
44.10 43.84 43.76 43.76 43.94 44.14 44.05 44.47 44.67 44.59 44.54 44.58 44.83 45.02 44.40 45.23 46.01 46.12 45.43 46.93 45.45 40.45 39.99 41.35 38.86 43.45 46.51 47.10 48.10 38.94 41.39 43.16 41.15 45.26 39.35 38.67 30.33 35.74 31.27 32.62 32.44 31.74 33.21 32.06 29.27 28.00 28.00 30.10 32.56 34.43 34.51 32.04 31.98 31.71
43.92 43.85 43.85 43.90 44.13 44.20 44.38 44.21 44.23 44.32 44.57 44.71 44.72 44.75 44.92 45.94 46.82 47.66 45.65 47.65 46.12 41.33 34.51 34.96 44.45 41.74 45.78 46.43 45.62 46.78 45.14 44.95 45.31 44.56 37.19 36.23 33.03 38.40 33.22 34.85 34.93 34.21 33.02 30.04 27.38 27.90 28.55 29.73 31.01 31.43 30.62 30.77 29.83 30.25
43.51 43.71 43.95 44.15 44.44 44.55 44.68 44.37 44.73 44.78 44.89 45.21 45.35 45.71 46.19 46.50 46.73 47.95 47.33 47.41 47.69 41.59 33.92 35.15 41.16 43.05 45.08 45.35 44.77 45.77 45.38 44.19 42.80 39.47 36.43 33.70 36.27 35.56 36.24 36.84 33.87 34.92 32.89 30.20 30.55 30.90 31.30 29.14 29.88 30.87 29.11 28.44 29.17 28.36
43.51 43.61 43.78 43.89 43.98 43.95 43.90 44.01 44.22 44.38 44.40 44.63 44.97 44.89 44.49 44.49 47.10 45.47 40.10 46.73 48.11 46.27 37.21 32.29 40.46 40.27 42.90 44.03 43.32 43.27 44.29 44.92 44.75 42.10 36.64 38.12 39.24 37.35 32.17 31.95 31.47 33.22 33.22 34.17 31.05 34.66 32.76 30.40 30.54 31.60 30.05 29.89 30.60 29.85
43.40 43.45 43.42 43.75 43.87 44.05 44.33 44.28 44.42 44.65 44.68 44.91 44.95 45.02 44.78 44.56 45.49 41.56 39.27 43.12 44.73 48.10 38.70 33.26 33.71 39.93 42.57 42.09 42.37 41.75 43.19 43.62 43.14 42.15 38.20 36.32 37.53 37.38 33.64 30.50 31.25 31.28 32.46 34.06 34.29 31.64 28.11 29.40 28.12 30.99 31.27 31.45 31.48 31.10
43.26 43.23 43.38 43.86 44.02 44.11 43.65 43.64 43.57 43.98 44.02 44.50 44.78 45.01 44.86 44.64 44.89 41.70 43.87 44.73 46.02 43.71 41.75 33.75 32.18 35.28 41.88 38.12 37.49 43.83 40.08 41.17 41.15 40.71 40.84 38.49 38.48 37.45 30.37 30.67 30.47 30.79 32.10 32.43 32.61 34.57 32.40 32.57 31.64 30.78 32.04 31.86 29.85 29.13
42.84 43.14 43.26 43.66 43.64 43.14 42.73 42.78 42.86 42.86 42.73 43.67 44.73 45.16 45.68 43.91 40.54 40.94 42.25 44.68 49.05 44.19 36.10 35.29 31.14 29.33 41.41 39.15 39.83 40.31 42.09 36.58 40.99 37.92 39.00 38.87 36.85 32.08 33.74 30.58 29.52 31.08 30.74 30.91 32.75 33.66 32.90 30.90 30.52 30.33 31.02 30.67 29.32 28.23
42.77 43.00 43.17 42.93 42.69 42.37 42.15 42.30 42.76 43.00 43.19 44.25 45.30 40.59 33.76 41.22 42.58 43.45 44.65 40.83 41.29 41.46 40.46 35.62 38.80 33.05 38.93 38.02 37.73 37.31 39.75 35.76 31.73 36.33 40.07 35.09 35.05 35.36 35.81 35.46 34.70 33.95 34.70 33.96 30.87 29.16 30.14 29.75 29.79 30.20 30.36 31.16 30.26 28.57
43.02 43.11 42.59 42.21 42.30 42.43 42.78 43.13 43.25 43.40 44.64 44.29 39.66 37.24 42.32 42.19 44.17 40.85 35.91 35.11 36.95 33.48 36.69 36.13 36.64 35.19 41.58 35.30 34.96 39.87 35.04 35.93 28.91 32.98 32.13 31.58 32.05 33.31 35.94 35.78 36.21 35.90 35.29 34.62 34.48 33.68 33.30 32.37 30.75 30.16 30.16 30.30 29.14 27.83
42.51 42.66 43.38 43.39 43.42 43.34 43.23 43.37 43.86 44.16 42.82 41.71 42.10 44.06 44.04 40.13 37.09 32.37 30.71 33.49 33.83 30.65 35.77 35.02 36.23 38.55 40.16 43.19 36.15 37.27 31.84 33.77 26.65 36.38 30.00 28.86 31.78 34.85 34.94 35.21 34.80 35.07 34.35 33.57 34.60 33.14 32.84 32.34 32.04 30.91 30.12 28.67 27.02 26.39
43.10 42.89 42.52 42.87 43.03 42.94 42.68 42.54 42.16 41.89 42.71 45.10 40.44 35.39 36.42 34.30 29.50 29.26 24.37 28.96 29.86 33.54 36.76 37.26 35.26 38.20 39.93 40.29 35.53 34.58 29.47 29.41 35.89 29.07 29.79 32.63 34.61 34.78 34.12 34.05 33.38 34.20 33.32 32.37 32.72 32.91 32.08 31.30 31.40 29.75 27.71 25.86 22.78 20.94
42.53 42.36 41.78 41.61 41.10 40.97 41.08 41.22 41.43 43.43 43.92 37.80 34.17 27.38 30.37 28.35 28.63 29.42 32.61 32.92 34.17 37.11 38.28 38.80 37.12 36.22 38.45 33.79 35.00 29.97 30.98 32.54 26.29 25.37 27.49 34.17 33.13 33.62 33.54 33.17 32.99 32.16 31.79 31.21 31.41 30.95 29.84 28.39 27.58 26.53 23.51 22.13 20.73 17.99
42.01 41.88 41.33 40.16 40.27 40.11 39.69 40.31 41.59 45.03 41.42 34.90 34.21 26.55 29.14 32.69 33.08 32.51 34.92 34.42 37.37 40.11 39.16 37.26 37.03 37.16 33.99 31.30 33.45 30.44 26.34 25.32 28.28 30.02 32.25 33.08 33.21 33.15 32.87 33.20 32.24 30.93 30.04 29.74 29.63 27.10 25.39 24.40 22.57 21.38 20.91 20.80 19.78 17.46
41.09 41.39 39.91 39.65 39.29 39.76 40.13 42.56 43.59 43.14 39.62 35.37 33.61 31.92 34.67 32.30 31.40 33.05 33.41 34.68 40.20 40.21 40.30 38.90 32.97 29.33 28.30 31.44 27.20 25.45 25.88 26.30 31.05 32.62 32.25 32.05 32.14 32.32 32.50 32.49 32.23 31.60 31.29 29.90 28.33 26.11 23.86 22.14 20.97 20.97 20.49 18.93 17.29 17.84
41.38 38.94 39.19 38.97 39.42 39.56 40.80 42.29 40.59 36.23 34.11 32.40 31.01 33.41 33.59 33.23 32.14 32.68 37.52 37.86 42.75 38.88 33.44 35.05 29.56 25.68 32.60 27.98 26.62 33.36 30.66 31.71 31.41 31.73 32.60 32.34 31.14 32.14 32.14 31.78 31.23 30.94 30.35 29.03 27.18 25.57 23.64 23.34 19.98 19.02 17.81 18.08 19.18 19.07
39.22 40.38 39.67 39.50 39.89 40.77 40.44 40.19 36.90 34.48 29.74 33.60 31.59 31.78 33.80 34.32 33.77 34.32 38.60 40.55 39.64 37.10 35.14 31.41 35.91 28.10 29.39 26.72 29.95 34.70 33.39 31.75 31.44 31.36 31.38 30.51 31.67 31.52 31.69 30.14 29.37 29.41 28.43 27.10 26.15 24.35 21.99 19.26 20.44 21.57 21.07 20.64 21.25 20.88
39.51 39.88 38.75 38.89 39.03 38.59 34.78 35.26 37.38 29.39 31.17 33.50 34.47 35.11 35.15 35.45 37.37 38.12 39.12 40.10 40.63 40.99 37.69 36.26 31.21 31.70 32.26 36.10 32.87 32.14 32.14 33.26 31.37 31.37 29.47 30.34 30.28 29.92 29.82 29.15 28.58 27.78 26.15 25.24 23.25 22.94 22.78 23.80 25.06 24.45 23.18 22.78 23.08 23.37
39.37 39.45 38.94 38.42 40.32 36.26 30.89 32.65 38.02 31.89 29.47 31.72 34.19 32.74 33.29 33.09 36.07 35.43 38.32 37.72 37.68 36.90 33.94 32.82 33.80 35.78 36.45 37.22 38.21 37.36 36.08 34.51 34.62 32.73 30.36 30.06 30.36 29.54 28.98 29.03 29.15 27.31 25.80 25.11 25.48 24.92 24.17 24.90 25.87 25.62 24.93 25.43 26.15 25.62
40.61 39.84 39.84 41.08 39.36 37.50 34.08 32.47 29.98 31.92 32.40 30.28 32.58 32.88 31.85 35.13 33.67 34.58 35.47 36.37 34.27 34.77 34.07 36.80 36.48 35.49 36.33 35.84 38.14 38.48 36.10 37.39 37.25 36.78 34.96 30.88 30.88 31.30 29.55 30.39 28.65 28.31 27.18 26.63 25.37 25.27 25.34 25.71 26.32 26.93 26.68 27.37 28.70 27.78
39.42 38.65 39.75 38.76 34.48 34.30 32.28 34.65 31.19 33.47 31.82 30.60 31.50 31.17 29.50 29.50 31.23 33.04 35.19 32.74 34.27 36.37 37.18 37.73 37.26 37.46 35.87 34.66 35.73 35.89 34.96 34.41 33.05 32.00 31.92 31.84 30.48 30.30 29.73 29.72 28.61 28.22 28.34 28.15 27.49 26.38 26.99 27.83 27.64 27.46 27.54 28.34 27.29 25.97
38.60 38.39 36.37 34.49 29.38 29.60 27.30 35.46 29.52 29.69 27.14 28.53 29.89 27.20 27.17 27.92 29.41 33.24 29.63 34.05 35.94 36.78 37.07 36.82 35.34 35.18 35.27 33.44 33.13 33.15 33.50 34.07 34.73 33.78 32.49 34.36 33.68 32.66 30.99 29.66 30.38 29.38 28.11 28.18 29.31 27.95 28.47 28.15 27.41 28.58 27.47 26.26 25.55 23.51
36.92 32.32 28.67 27.97 28.67 24.81 29.15 27.92 30.22 27.94 28.38 27.61 27.21 23.81 25.82 27.72 30.00 28.86 28.04 34.35 35.69 35.34 34.81 32.40 35.61 34.32 34.01 32.65 34.93 33.68 33.21 35.20 33.63 31.41 33.63 32.74 30.65 29.67 29.96 29.26 29.72 29.91 30.37 29.56 29.00 28.91 28.00 27.73 27.25 26.54 25.78 24.60 23.86 22.85
28.32 25.72 28.21 23.44 28.32 25.70 24.04 25.63 25.92 26.43 23.61 25.11 22.97 25.86 26.69 29.03 27.09 27.68 27.25 33.31 33.93 31.13 31.79 32.70 33.90 33.09 31.75 31.86 32.75 32.53 30.04 33.51 33.36 31.39 31.11 33.20 31.66 29.24 27.67 27.85 28.04 29.13 30.91 28.80 27.79 27.24 26.31 26.88 26.43 25.54 25.20 25.22 23.27 21.87
22.27 25.67 25.29 24.98 25.39 23.91 25.05 21.67 22.85 23.95 26.02 23.97 25.30 28.50 28.65 27.97 24.68 25.16 29.72 30.64 32.32 29.70 29.50 29.61 30.13 30.56 31.16 33.72 32.93 30.56 29.81 31.07 32.38 30.62 29.79 31.53 30.30 28.18 26.47 24.79 24.45 25.44 28.99 30.63 28.28 26.52 25.70 25.17 24.89 24.42 24.60 23.43 21.99 20.19
20.51 23.41 28.23 30.90 29.19 27.94 26.57 27.67 28.39 26.42 23.19 23.15 26.94 25.67 25.34 21.29 23.49 29.59 32.27 31.76 30.45 29.62 30.21 30.05 29.53 30.08 30.71 31.22 30.62 29.90 30.70 30.67 30.67 29.55 29.92 29.70 29.62 29.32 29.26 27.29 26.01 27.33 28.19 28.56 28.36 27.40 25.45 25.08 24.46 23.83 21.70 21.09 20.52 19.52
27.22 27.35 23.09 25.82 26.11 28.91 24.87 25.77 24.66 24.17 27.45 30.90 29.00 23.90 22.53 24.65 27.60 31.18 30.84 30.18 29.79 30.41 30.05 30.10 30.21 30.50 30.64 30.23 29.74 28.43 27.42 27.33 27.13 27.41 27.01 26.67 26.72 27.31 28.04 28.42 28.34 27.16 28.43 28.93 28.44 28.25 27.00 25.46 23.59 21.50 20.09 18.65 17.54 17.84
25.97 28.72 27.66 23.36 25.16 26.32 26.84 26.73 28.09 30.97 31.69 32.00 28.58 28.15 29.76 31.22 31.04 30.73 30.02 30.63 30.04 30.13 28.88 28.38 28.10 28.74 28.29 28.10 28.32 28.87 28.21 28.32 26.64 24.05 24.11 23.95 23.36 22.54 25.64 26.11 26.61 27.02 27.07 26.75 26.17 26.64 25.22 23.30 21.68 19.49 17.21 15.84 14.18 13.51
25.91 29.78 26.11 24.41 23.36 24.35 29.69 30.00 30.02 28.65 30.32 30.39 30.19 30.36 29.84 30.19 28.76 28.23 28.83 29.36 28.70 28.39 28.87 29.52 29.61 29.16 27.93 27.41 25.55 26.27 28.73 29.92 30.28 29.23 26.04 25.07 24.35 24.00 24.57 24.43 24.06 24.02 23.45 21.38 18.37 16.50 15.79 14.66 13.29 11.82 10.65 9.74 9.16 7.56
28.82 27.24 25.84 26.60 25.81 28.55 27.42 26.60 27.32 27.53 27.53 27.80 28.17 27.32 29.32 28.09 27.97 25.19 25.29 24.28 24.91 25.73 26.02 26.66 27.29 28.36 27.34 26.98 26.96 25.36 24.67 27.49 27.39 28.11 28.50 26.13 25.17 24.41 24.13 23.40 22.76 21.84 19.31 17.83 17.41 16.47 15.13 14.37 13.13 11.47 10.54 8.24 5.76 5.79
26.66 26.07 25.57 22.89 25.92 26.60 26.20 26.05 26.59 25.84 26.90 25.53 26.52 25.72 25.42 25.52 25.36 22.46 20.59 22.07 23.79 24.00 24.58 25.69 27.49 27.04 28.07 29.36 28.94 28.41 28.42 26.25 25.58 25.74 25.31 24.61 23.58 22.60 22.12 21.74 21.47 21.08 19.73 18.31 17.14 15.29 14.09 12.97 11.46 9.01 6.98 5.60 4.63 2.96
24.77 24.89 24.53 24.45 24.07 22.20 25.06 24.22 23.93 23.37 23.42 23.21 24.23 23.19 23.86 23.51 22.83 19.86 21.91 21.08 20.52 20.74 22.80 24.45 25.10 25.91 25.85 26.33 25.60 25.05 24.62 24.14 24.03 22.79 22.04 21.12 20.52 20.38 20.84 20.24 19.28 17.82 16.15 15.32 14.39 13.42 11.81 9.90 8.27 6.52 4.38 2.29 1.62 0.91

GFSWCAN_sfc_wetblb_120.txt.gz
Wetbulb
43.10 45.38 46.18 45.44 46.50 44.55 44.23 45.22 45.48 45.14 45.21 45.12 45.52 45.90 46.45 46.93 47.28 46.55 44.04 49.08 45.07 43.24 43.02 45.58 46.41 41.61 40.80 39.41 34.68 37.89 35.80 36.88 35.58 31.58 30.73 30.67 32.18 33.30 32.74 34.56 30.99 29.11 27.50 27.34 28.25 25.82 24.14 34.75 33.78 28.42 31.69 35.57 35.16 33.17
43.88 44.85 45.27 45.21 47.16 47.38 44.56 44.84 45.62 45.48 45.64 45.38 45.43 45.93 46.45 46.76 47.67 47.44 43.06 48.63 48.88 43.90 42.00 46.15 45.64 45.80 45.01 44.30 41.23 40.03 38.17 37.68 38.97 34.35 35.61 36.52 32.90 34.42 33.37 28.28 37.44 29.85 33.12 30.07 27.18 27.38 31.14 33.45 33.67 36.05 36.35 34.22 32.83 30.77
43.62 44.28 45.00 45.10 44.96 47.25 44.91 44.46 44.92 45.52 45.50 45.55 45.52 46.16 46.74 47.29 47.55 47.24 44.83 46.82 43.40 39.51 39.16 40.15 38.60 44.50 48.23 47.89 48.68 38.30 41.36 42.41 41.62 44.68 40.79 37.41 32.16 36.09 30.67 32.20 33.32 34.04 35.26 32.16 29.42 28.95 29.46 31.84 34.44 35.33 34.88 32.92 32.53 31.25
43.45 43.61 44.23 44.86 45.16 45.15 45.41 45.51 45.71 45.69 45.83 46.00 46.45 46.68 46.92 47.03 47.56 47.33 43.89 47.45 45.39 41.37 33.99 35.57 44.43 42.05 46.77 48.10 47.76 47.78 46.21 46.61 45.88 44.06 39.20 36.73 34.19 38.97 34.72 35.90 34.37 35.41 34.16 31.61 28.05 29.20 29.60 30.92 32.95 32.66 31.93 32.17 31.08 31.05
43.45 43.01 43.16 43.63 44.26 44.67 45.21 45.37 45.48 45.64 45.99 46.22 46.32 46.36 46.59 47.26 47.23 46.55 46.34 47.65 47.37 40.29 33.09 34.59 41.76 43.78 45.48 45.67 45.41 46.15 45.54 44.50 42.01 38.62 37.18 34.11 36.87 36.08 36.94 36.19 34.51 36.12 34.00 29.73 30.30 32.07 31.68 30.41 31.99 31.86 29.95 29.56 29.79 29.20
43.63 43.57 43.26 43.32 43.37 43.37 43.50 43.79 44.07 44.68 45.11 45.34 45.46 46.04 46.43 46.43 46.77 45.18 39.05 47.80 48.72 44.65 36.21 30.82 40.61 40.54 43.31 44.70 44.03 44.20 45.20 44.71 43.04 40.25 37.63 38.42 39.69 37.54 33.01 31.11 33.58 33.57 34.78 36.05 32.80 34.97 33.51 32.11 31.68 31.62 29.69 30.23 30.65 30.03
43.96 43.95 43.80 43.77 43.79 44.19 44.31 44.08 44.01 44.03 44.32 45.07 45.79 46.55 46.79 46.68 46.14 41.35 38.92 44.48 45.28 48.23 38.85 32.76 32.67 40.04 42.80 42.52 42.25 42.05 43.73 42.75 42.30 40.41 38.23 36.75 37.09 37.73 34.12 30.34 32.21 32.23 33.35 35.22 34.53 31.94 28.70 29.93 28.74 31.58 31.46 31.64 31.97 30.77
43.30 43.07 42.77 42.90 43.04 43.56 44.18 44.31 44.67 44.91 45.08 45.15 45.17 45.09 44.92 44.99 45.05 41.63 44.31 45.79 44.72 44.74 41.15 33.74 31.81 35.14 41.95 37.60 36.50 42.14 39.14 40.57 40.50 39.34 39.70 37.08 37.75 37.36 30.59 31.98 31.45 31.52 33.82 33.21 32.79 34.85 31.76 32.19 31.77 31.04 32.24 31.43 29.42 28.63
42.91 42.50 42.28 42.28 42.42 42.55 42.64 43.27 43.97 44.76 45.25 45.43 45.72 46.13 46.50 43.90 40.01 41.92 42.64 43.00 51.62 44.63 36.37 34.78 30.93 29.00 40.92 38.74 39.42 39.70 40.71 36.49 39.65 36.47 37.31 37.65 35.80 32.20 34.93 31.84 30.70 31.25 32.08 31.64 33.29 32.98 32.09 30.37 30.29 30.69 30.81 30.62 28.85 27.73
42.25 42.24 42.23 42.39 42.79 43.19 43.41 43.44 43.81 44.26 44.77 45.87 45.78 40.33 34.06 40.49 42.09 42.58 44.45 40.98 41.94 41.51 40.78 35.42 37.80 32.76 39.36 38.13 36.38 36.68 38.03 35.09 30.79 35.23 39.17 33.84 34.34 36.51 37.27 36.20 34.34 33.95 34.68 34.36 31.17 29.33 29.99 29.35 29.89 30.21 30.61 31.50 30.67 28.49
43.46 43.30 43.31 43.15 43.06 43.39 44.09 44.19 44.38 45.09 45.25 43.96 40.32 38.64 42.24 43.40 43.58 41.51 37.54 35.48 36.55 33.00 37.58 37.57 37.56 35.50 40.93 36.18 34.86 38.48 35.07 35.18 28.39 32.94 32.20 30.92 30.75 33.94 37.07 36.11 36.25 36.37 36.06 35.41 35.01 34.40 33.36 32.56 30.96 30.85 30.89 31.33 30.23 28.35
43.12 43.36 43.15 42.93 42.62 42.64 42.79 42.86 45.25 45.43 43.70 42.43 42.05 44.75 44.22 40.67 38.30 32.43 30.93 33.80 33.75 29.62 35.51 36.03 37.25 38.75 40.10 41.54 36.27 36.73 31.67 33.32 26.24 36.71 30.73 27.11 31.96 36.01 36.25 35.55 35.29 35.92 35.64 35.06 35.46 33.57 33.34 32.55 32.75 31.93 31.32 29.85 27.64 24.75
42.07 41.81 41.70 41.72 41.90 42.03 42.48 42.91 43.05 43.04 43.35 45.37 40.56 36.26 36.33 35.95 29.58 28.83 24.24 29.06 29.48 34.95 38.04 38.12 35.46 38.27 39.58 39.82 35.81 34.10 30.42 28.96 35.94 29.10 28.10 31.76 34.02 35.19 34.95 34.18 33.93 35.06 34.58 33.99 33.72 33.63 32.91 31.98 32.11 30.72 25.62 23.60 22.42 20.33
41.60 41.26 40.85 41.14 41.39 41.54 41.78 42.38 42.89 44.88 44.35 38.84 34.37 27.71 30.82 27.78 28.48 30.54 32.69 33.59 36.21 38.15 38.52 39.13 37.31 35.94 38.29 33.28 35.36 28.89 31.34 32.54 26.57 25.12 27.06 32.73 34.32 34.33 34.32 33.61 32.32 32.03 31.58 32.25 31.93 31.65 30.20 28.76 25.37 24.59 24.23 23.10 20.31 18.27
41.31 40.98 40.36 40.06 40.69 41.46 42.10 42.51 43.23 46.24 42.39 35.06 34.26 27.49 28.74 31.42 31.99 34.03 37.12 37.70 39.93 41.53 39.83 37.76 37.73 36.69 33.79 30.98 33.05 29.86 26.19 24.51 27.44 28.21 31.62 32.84 34.18 33.29 32.89 33.27 31.45 30.18 29.54 29.56 29.96 27.47 26.00 24.51 23.30 22.12 22.02 21.28 20.09 18.52
42.56 41.48 38.83 40.99 41.02 41.34 42.23 44.38 44.22 43.48 40.67 35.00 34.00 31.21 32.91 32.56 31.50 32.80 34.25 36.03 41.51 41.48 41.29 38.50 32.96 29.60 28.66 30.82 28.08 26.96 26.62 25.87 29.49 30.97 32.25 32.97 32.62 32.62 32.80 31.66 31.16 30.79 30.32 29.23 27.87 26.61 24.69 23.42 22.13 21.53 21.27 19.59 18.21 18.18
41.02 37.05 39.39 40.33 41.12 41.62 42.86 42.89 41.81 37.74 33.83 32.73 31.85 32.44 33.71 32.62 31.52 32.62 37.65 38.61 42.44 39.08 33.24 34.81 29.12 26.53 33.03 28.17 27.43 32.32 29.28 30.19 31.34 31.53 31.60 32.71 32.26 32.26 32.26 31.54 30.71 30.45 29.86 29.35 27.48 25.59 24.04 23.86 21.58 20.12 17.47 17.68 19.00 18.89
39.04 40.13 40.00 40.40 41.70 42.44 42.06 42.61 38.48 35.03 30.51 33.74 31.69 32.08 34.07 34.80 34.07 35.16 38.25 40.90 39.83 36.76 35.37 31.54 35.67 29.44 29.58 27.15 29.14 31.91 30.86 30.95 31.99 31.36 30.67 31.54 32.08 32.26 32.80 31.70 31.41 31.04 30.08 28.32 26.43 24.91 23.27 20.35 20.60 20.31 19.70 19.62 19.93 19.83
39.09 40.01 40.44 40.88 40.65 39.65 35.68 36.47 38.23 30.47 32.15 34.53 35.14 36.45 36.14 35.57 37.52 38.08 39.89 40.48 40.19 40.24 38.58 35.77 31.64 31.00 31.46 33.38 31.68 31.00 31.90 32.51 30.22 29.94 29.04 30.85 31.16 31.32 31.14 30.97 30.54 29.88 28.58 27.44 25.77 24.36 22.80 23.39 24.32 23.83 22.46 22.46 21.32 22.13
41.39 40.20 40.16 41.15 42.01 37.05 32.35 33.58 38.74 32.79 29.74 32.30 34.85 33.36 33.13 33.63 36.04 35.41 38.99 38.16 37.83 37.82 34.10 33.08 32.66 33.84 33.81 33.87 35.50 34.93 33.27 33.24 32.24 29.77 27.51 28.18 29.84 30.19 29.41 29.01 28.57 28.02 26.76 26.15 26.26 25.10 24.32 25.07 25.89 24.59 23.61 23.68 23.16 22.60
40.85 40.09 40.70 41.71 39.47 37.75 34.37 33.07 30.68 32.56 32.50 30.69 33.01 33.00 31.82 35.21 33.73 34.90 35.97 37.17 35.79 34.91 32.97 35.48 33.96 35.29 36.28 36.91 38.17 38.06 36.50 36.18 34.13 33.90 32.16 28.97 30.47 30.83 29.51 30.53 28.94 28.25 26.62 25.97 25.33 24.91 24.68 25.59 25.46 25.41 25.05 26.98 27.88 26.69
39.44 39.89 39.87 38.85 34.97 34.53 32.61 35.32 32.27 34.10 31.93 31.13 31.27 31.32 29.94 30.43 31.16 33.03 35.09 33.38 33.94 34.67 35.98 36.07 36.41 36.33 35.28 35.01 35.52 36.60 35.87 34.72 34.07 33.96 33.27 31.79 30.38 29.92 30.05 29.68 29.01 28.49 28.39 28.57 27.44 26.24 26.83 27.20 27.24 26.75 27.32 28.63 28.08 26.68
39.63 39.29 36.77 35.33 30.04 29.29 27.91 35.86 29.62 30.84 28.02 28.68 30.30 27.63 27.19 27.89 29.99 33.87 29.65 33.62 34.71 35.90 36.92 36.07 35.38 36.44 34.38 34.53 34.33 34.34 34.92 35.40 34.74 33.19 33.44 33.01 32.90 32.84 31.53 30.43 31.05 30.07 28.81 28.54 29.21 28.19 28.38 27.58 27.28 27.43 28.73 27.65 25.59 24.77
38.23 32.83 29.59 28.57 28.82 24.93 30.24 28.44 31.20 28.72 29.34 28.24 27.71 25.09 26.07 27.90 31.01 30.04 29.24 34.04 34.16 35.56 34.58 33.91 36.11 34.53 34.55 34.19 33.89 32.60 33.75 35.21 32.18 32.02 33.72 31.77 29.36 29.60 30.00 29.49 30.61 30.97 31.01 30.21 29.46 29.07 29.12 28.10 27.96 27.87 27.09 25.51 23.99 23.38
28.24 26.07 28.75 24.34 29.71 26.46 25.02 25.81 26.45 26.62 24.53 26.00 25.00 26.69 26.66 29.49 27.82 28.36 28.66 31.74 32.81 30.58 29.95 32.11 34.11 33.14 31.72 32.21 31.91 31.87 31.97 33.47 31.99 29.47 31.86 32.64 30.69 29.13 27.94 28.49 29.49 30.62 32.54 30.67 29.23 29.11 27.94 28.09 28.08 26.69 25.90 24.10 22.96 22.94
22.91 26.23 25.92 25.75 25.82 24.82 25.19 22.37 24.04 24.83 25.93 25.09 25.87 28.31 29.35 28.46 25.37 25.13 29.47 29.78 30.98 29.61 29.54 29.85 30.89 30.70 31.01 31.78 31.40 30.98 30.56 32.03 32.97 29.96 29.61 31.23 30.10 29.34 27.18 25.87 26.06 27.47 31.14 31.89 30.45 28.20 27.29 27.16 26.46 25.44 25.63 25.11 22.60 20.94
22.21 24.35 28.36 31.64 29.76 28.60 26.70 27.99 28.22 26.70 23.73 23.89 26.55 25.24 25.72 21.96 23.26 29.02 30.74 30.50 29.54 29.73 29.98 29.85 30.27 30.18 30.33 29.87 30.01 30.53 31.02 30.93 31.10 29.29 29.83 29.04 29.21 30.33 30.09 27.62 25.89 27.67 30.07 31.07 30.55 28.98 26.81 26.49 26.16 25.60 23.71 22.81 21.58 20.25
27.31 28.35 24.15 26.42 27.00 28.83 25.39 25.90 24.78 24.37 26.98 30.42 28.75 23.70 23.19 25.08 26.80 29.38 28.96 29.76 29.62 30.17 29.86 29.73 29.90 30.12 29.79 29.38 29.19 28.26 27.49 28.00 28.46 27.60 26.77 26.68 27.34 28.35 28.83 29.53 29.26 28.81 30.39 30.83 30.52 29.12 28.46 27.00 24.14 22.39 21.15 19.76 19.14 19.20
26.79 28.80 27.78 23.77 25.61 26.24 27.13 26.96 27.86 30.51 31.31 31.42 27.73 27.59 28.86 30.99 30.41 30.00 29.76 29.98 30.12 29.52 28.48 28.18 28.02 29.03 28.82 28.69 29.23 29.42 28.72 28.47 26.26 23.65 24.14 21.20 21.58 23.07 27.60 28.19 28.46 29.24 29.51 29.03 28.34 28.11 26.23 24.25 22.89 20.89 18.88 17.57 16.43 15.69
26.47 30.08 26.65 24.97 23.44 24.10 29.19 28.94 29.80 29.64 31.00 30.50 30.79 31.53 30.58 29.68 27.93 29.47 29.09 29.02 28.52 28.30 29.34 30.27 29.90 29.71 27.90 27.71 26.20 27.01 29.78 30.48 30.45 29.41 26.82 24.56 22.75 25.20 25.47 25.58 25.27 24.54 22.49 20.06 18.56 17.73 18.39 16.65 15.97 14.42 13.07 12.02 11.21 9.91
28.27 27.24 25.73 26.50 26.07 29.48 28.65 27.96 28.46 28.02 27.87 28.34 30.12 28.00 29.51 28.47 26.12 25.15 24.03 24.18 25.23 26.36 26.39 27.26 28.06 29.16 28.24 28.05 26.94 25.35 24.90 28.61 28.37 28.21 27.32 26.39 25.86 25.79 25.31 24.26 22.78 20.97 19.58 18.83 17.44 15.85 15.08 14.07 12.64 11.04 10.01 8.34 6.56 5.82
26.62 25.95 26.48 23.50 26.77 27.21 27.91 26.44 26.91 26.07 28.09 26.19 27.00 28.05 26.71 25.69 25.59 22.38 21.17 22.70 24.70 24.84 26.00 26.82 28.25 28.32 29.73 29.47 29.16 29.43 29.09 27.27 27.01 27.11 25.84 25.76 24.30 23.96 23.42 22.45 21.99 21.71 20.61 18.97 18.10 16.60 14.80 13.44 11.91 9.42 7.45 6.38 5.48 3.29
26.41 26.45 26.31 25.35 24.37 23.42 26.06 24.53 24.75 24.20 25.65 24.09 25.43 25.53 25.52 23.95 21.25 20.05 22.93 22.69 21.47 22.04 22.95 24.22 25.66 26.33 26.89 27.05 26.30 25.87 25.83 26.21 26.03 25.03 23.96 23.41 22.81 22.96 22.99 22.46 21.48 19.57 17.90 16.72 15.77 14.43 11.86 10.06 8.69 7.45 5.25 3.15 1.91 0.88

GFSWCAN_sfc_wetblb_123.txt.gz
Wetbulb
43.82 44.72 44.86 44.70 43.72 43.84 44.57 44.61 44.56 44.64 44.47 44.21 44.91 45.03 45.29 45.87 46.14 44.49 41.29 46.49 43.39 36.16 37.33 41.53 42.63 37.73 38.70 36.15 30.79 34.18 32.44 33.44 32.89 29.25 28.57 28.00 26.66 28.02 30.37 32.08 28.37 26.77 23.42 23.19 25.15 24.06 21.53 33.20 32.67 27.48 29.14 31.80 32.46 31.87
45.32 45.43 45.28 45.27 45.49 45.74 44.40 44.55 44.80 44.50 44.03 44.16 44.82 44.94 45.29 45.83 46.14 46.09 39.24 45.74 47.77 38.81 37.83 42.73 42.88 42.33 44.35 40.54 36.86 37.47 35.46 35.12 34.63 31.30 31.09 30.26 28.14 29.14 29.72 27.69 34.96 26.59 28.37 24.95 26.84 23.44 28.98 30.90 29.48 33.24 33.43 30.28 29.18 28.14
45.45 44.84 46.73 47.16 46.73 45.84 44.56 44.13 44.59 44.66 44.27 44.55 44.94 45.20 45.61 45.99 46.53 45.46 40.92 44.90 43.23 38.63 36.35 36.68 37.15 43.56 46.62 44.25 45.04 35.29 37.86 39.04 38.29 39.76 35.24 33.82 28.66 33.05 28.20 27.94 29.22 30.34 33.95 26.43 25.20 26.12 29.00 30.99 32.52 33.04 32.85 30.08 28.82 27.92
45.27 44.47 44.53 45.19 44.93 44.09 43.81 44.71 44.33 44.46 44.46 44.28 44.98 45.37 45.77 46.20 46.80 45.76 41.58 46.26 43.15 38.14 32.90 35.33 43.23 41.22 45.42 46.06 44.32 43.80 42.02 42.54 41.55 39.74 33.82 31.66 30.62 35.76 28.48 30.68 29.51 29.07 30.21 27.17 25.17 27.10 28.04 30.69 31.61 30.79 30.31 30.39 28.17 27.64
44.43 44.93 44.26 44.58 44.61 44.68 44.91 44.73 44.70 44.70 44.67 44.91 45.27 45.69 46.07 46.68 46.96 45.01 43.70 46.71 45.06 38.96 32.62 34.42 39.24 42.68 44.48 45.16 44.60 44.59 42.55 39.69 37.18 34.08 32.49 29.95 33.06 31.48 29.21 30.50 25.86 29.80 25.17 23.36 20.77 27.78 26.98 26.36 30.37 31.37 29.09 28.45 28.69 27.21
43.85 44.49 44.88 44.63 44.48 44.86 44.84 44.79 44.78 44.66 44.65 45.12 45.65 46.09 46.43 46.51 46.28 43.91 36.88 44.57 46.74 41.64 33.30 28.94 38.90 39.71 42.16 42.95 42.76 42.09 41.67 40.07 38.18 35.23 32.26 33.72 38.38 33.30 25.14 23.81 29.72 33.30 33.44 30.76 27.86 31.15 29.19 29.90 29.45 31.11 29.67 29.68 29.59 28.00
43.38 43.85 44.30 45.04 45.24 45.20 45.15 45.06 45.25 45.08 45.06 45.50 45.91 46.21 46.33 46.80 45.50 40.36 37.41 42.22 45.79 42.36 35.09 30.57 31.32 38.75 42.28 42.30 40.16 39.22 40.72 39.13 38.34 36.47 32.10 32.61 33.94 33.26 30.30 20.63 26.01 32.35 28.88 31.01 30.98 30.15 28.37 28.66 27.31 29.99 30.66 30.92 31.34 29.64
42.73 43.68 43.84 44.08 44.34 44.91 45.12 45.39 45.69 45.72 46.09 46.25 46.33 46.38 46.51 45.95 44.64 40.21 42.46 45.92 44.91 40.33 38.79 29.84 30.16 32.88 40.73 33.59 32.50 37.90 34.58 35.40 34.97 34.70 33.84 31.83 31.27 30.24 20.94 29.81 26.98 29.84 31.12 29.98 29.82 31.87 29.57 30.70 30.90 30.65 31.37 30.55 28.02 26.67
43.01 43.06 43.01 43.84 44.21 44.22 44.65 45.13 45.48 45.62 45.98 46.09 46.00 46.21 43.92 41.55 38.09 39.57 43.55 44.21 44.54 40.23 31.49 30.96 27.73 25.86 37.69 34.86 34.64 34.54 34.94 27.18 33.39 29.09 30.87 32.61 26.67 23.52 26.29 29.34 27.98 30.11 30.68 29.57 31.15 30.18 30.17 29.29 29.76 30.32 30.05 28.71 26.57 24.85
42.77 42.66 43.06 43.22 43.47 43.97 44.42 44.85 45.05 45.44 45.76 45.93 43.98 37.51 32.63 38.22 42.61 43.28 42.32 36.55 37.55 37.23 37.13 30.52 33.23 29.22 35.54 32.22 30.72 29.60 31.27 28.25 24.65 28.16 32.90 26.55 23.65 32.77 33.77 32.00 31.22 31.30 33.30 31.61 28.57 26.66 28.42 28.02 28.90 29.48 28.91 28.88 27.72 25.63
42.56 42.38 42.42 42.76 43.44 43.83 44.36 44.51 44.75 45.41 45.61 40.97 36.85 34.58 39.89 43.47 41.71 38.06 31.89 30.88 32.11 29.54 33.27 32.53 32.91 31.58 36.38 28.54 27.70 31.49 26.40 26.62 23.26 26.88 25.65 23.60 22.89 27.66 32.62 31.96 32.54 32.82 34.61 33.87 31.58 30.61 30.62 30.55 29.63 29.82 29.63 29.09 27.25 25.74
42.21 42.17 42.23 42.28 42.91 43.46 43.73 43.99 44.92 42.49 40.43 40.39 40.07 42.70 42.09 38.75 34.46 29.78 27.16 29.73 29.55 26.83 31.00 29.90 31.04 34.01 34.25 36.28 29.65 30.24 26.32 25.95 20.60 29.21 22.70 18.39 29.08 33.04 32.51 33.22 32.98 34.95 34.12 33.71 33.52 31.03 31.26 31.49 31.21 30.95 30.23 27.69 24.85 22.50
41.17 41.32 41.66 42.02 42.57 43.25 43.53 43.95 44.04 43.90 43.76 41.95 38.89 33.73 32.83 30.35 22.77 22.22 18.98 25.58 24.80 28.71 29.99 30.20 29.61 32.63 33.75 34.60 28.04 27.48 21.88 19.93 29.69 16.99 19.72 25.39 29.72 33.51 32.64 32.55 32.23 32.93 32.23 31.70 30.18 30.80 32.16 31.87 31.48 27.90 22.95 22.24 21.25 19.28
40.90 40.69 41.19 41.82 42.08 42.84 43.48 43.85 44.32 44.16 41.55 33.95 29.04 21.39 25.26 24.52 24.51 29.18 27.77 27.41 29.04 31.32 32.87 31.90 28.99 29.41 28.49 27.37 25.86 20.03 25.93 25.95 16.55 14.03 23.78 29.31 30.84 30.81 30.97 31.17 31.02 29.67 30.17 29.46 27.68 29.31 28.26 25.18 23.77 23.64 22.71 21.56 20.15 17.99
42.08 40.61 40.14 40.81 42.12 42.87 43.64 44.29 44.70 43.20 37.57 30.56 30.56 22.57 24.40 29.36 30.85 31.94 33.22 32.20 33.35 33.01 31.98 30.66 30.38 30.67 26.29 23.86 26.07 24.02 21.44 15.48 20.19 20.99 27.94 29.58 31.25 29.65 30.18 29.72 27.32 27.21 27.31 27.42 26.53 24.52 23.72 23.69 22.56 21.17 21.45 20.73 19.69 17.86
41.35 40.17 38.17 41.53 42.16 43.34 43.78 43.83 42.35 40.86 35.65 31.86 31.39 26.71 29.25 30.25 31.71 32.87 32.89 31.76 35.49 32.49 31.58 31.49 27.15 22.14 22.69 24.85 23.27 19.38 21.98 19.20 25.93 28.23 30.13 31.32 31.62 31.61 30.49 27.59 27.20 27.98 27.63 26.08 24.95 24.52 23.46 22.77 21.63 20.05 19.53 19.11 17.76 17.09
40.55 35.03 41.00 41.85 42.38 43.18 43.83 40.38 36.23 33.18 31.76 30.43 30.42 32.16 30.87 31.55 31.55 32.16 33.25 31.97 35.58 31.08 25.20 28.61 22.21 23.68 26.93 22.57 23.14 25.54 22.53 27.24 29.15 29.18 29.86 31.08 31.77 31.58 29.87 27.13 26.71 27.10 26.11 24.87 23.01 22.64 21.55 20.98 20.21 18.53 16.36 16.40 17.32 16.80
35.83 38.44 41.55 42.14 41.80 41.25 37.99 38.05 32.89 31.50 29.85 31.65 28.89 30.55 31.41 32.86 32.13 32.50 32.38 32.39 32.54 30.15 29.67 27.82 30.20 26.15 18.95 22.17 19.87 27.42 28.30 29.21 29.61 29.02 29.22 31.55 32.09 31.76 30.75 29.06 27.48 26.78 25.38 23.55 22.69 21.36 19.81 18.39 18.26 17.75 17.96 18.78 18.61 18.74
39.12 39.18 40.88 41.69 40.54 36.29 31.09 32.01 33.99 27.94 30.63 31.94 32.32 31.35 31.29 32.09 32.77 30.21 30.85 33.54 35.71 35.90 32.27 29.99 27.36 24.32 26.04 29.80 28.82 28.70 29.33 29.17 27.58 27.65 28.62 30.19 31.05 30.81 30.50 29.52 27.80 27.02 25.22 23.75 23.22 21.57 20.84 22.08 21.18 19.75 18.82 19.23 17.14 17.91
41.26 40.87 40.45 41.65 41.41 33.33 30.00 29.40 35.40 29.72 27.91 30.68 31.36 30.57 31.12 31.33 29.01 32.21 31.64 30.94 31.58 30.73 30.40 28.31 29.56 31.05 31.17 30.84 32.26 30.42 30.98 30.39 27.28 26.15 25.85 27.17 29.13 28.93 28.75 28.16 26.24 26.89 25.80 25.58 25.42 23.44 22.23 22.48 22.63 20.68 19.87 19.99 18.43 17.61
39.31 38.62 40.60 39.48 35.44 34.94 32.24 30.25 30.11 30.01 29.60 27.37 29.44 31.09 29.98 31.74 27.54 28.45 28.17 31.50 30.32 29.27 27.27 28.90 31.53 30.67 31.41 32.02 33.77 33.30 31.48 32.04 30.98 29.89 27.25 25.88 27.70 28.50 28.49 28.58 26.56 25.76 24.15 23.51 22.02 22.53 22.57 22.78 22.49 22.10 20.58 20.86 20.15 19.81
36.33 40.20 35.92 36.65 31.29 31.55 29.19 32.13 29.97 31.02 29.67 29.94 29.45 30.28 28.59 26.94 28.05 25.27 29.30 28.79 31.04 30.57 31.70 31.49 30.96 29.33 29.81 30.23 29.41 31.18 30.43 30.41 30.19 27.97 28.26 27.22 27.88 26.93 27.55 26.93 25.64 23.90 23.54 23.29 22.63 21.69 21.30 22.43 22.08 21.34 19.42 21.35 22.85 22.84
38.19 37.34 32.85 32.36 24.87 23.50 22.55 31.16 26.57 28.68 24.20 25.56 29.09 26.63 26.05 26.43 27.56 29.80 26.03 30.90 30.58 31.87 31.06 30.07 31.08 31.64 29.97 30.14 29.98 30.19 31.01 31.52 30.56 28.28 28.66 29.78 29.67 29.26 28.79 27.59 26.44 26.95 24.61 23.74 24.92 23.15 21.71 22.27 21.00 20.88 23.69 23.79 22.96 21.85
37.38 30.17 23.15 23.07 24.41 20.18 25.51 21.99 27.50 25.86 26.63 25.64 23.81 23.67 24.59 26.03 27.22 26.85 27.61 30.24 30.19 30.50 28.67 30.27 31.84 29.64 29.62 31.29 30.07 29.42 29.18 31.43 29.55 28.17 29.84 29.08 27.97 27.40 28.16 27.36 27.78 27.77 28.15 26.90 25.13 22.92 23.16 22.37 21.49 23.25 23.41 22.35 21.50 20.58
20.11 19.74 20.86 14.37 24.17 18.61 17.73 18.82 19.72 22.84 17.44 24.19 20.51 20.55 24.17 27.80 21.67 20.16 23.69 28.12 28.62 27.84 28.03 29.64 30.17 30.61 29.12 28.66 28.69 26.03 27.65 30.00 29.33 27.90 28.60 29.71 27.76 27.24 26.49 26.81 26.64 27.20 29.70 26.85 23.95 24.26 23.88 24.37 24.94 24.56 22.40 21.38 20.60 19.63
13.39 18.72 18.47 19.46 18.87 19.01 21.28 13.94 15.29 17.10 18.58 16.29 20.55 24.58 23.25 21.79 16.21 18.70 25.30 26.62 27.84 27.30 27.63 28.02 28.58 28.43 28.19 29.99 28.12 27.39 24.45 28.81 29.71 26.65 27.78 29.00 28.01 26.97 25.49 24.41 23.49 23.64 26.95 26.71 26.79 24.76 24.78 25.13 24.17 22.47 20.82 20.86 21.07 17.42
12.75 15.79 25.12 28.78 26.87 26.24 20.60 22.33 24.97 19.77 14.64 13.49 17.57 17.27 15.65 10.25 12.61 24.51 27.08 27.54 26.58 27.63 28.12 28.55 28.98 28.84 28.41 27.59 27.58 26.88 26.17 26.04 26.66 25.46 25.39 25.19 25.63 26.91 25.70 25.05 23.82 22.37 22.34 26.92 28.21 25.77 24.74 23.81 23.58 23.82 21.98 19.82 18.15 17.55
22.25 24.72 15.95 24.98 24.28 24.61 16.36 17.24 16.00 14.73 19.04 26.07 22.05 13.45 12.63 15.37 21.18 26.02 25.71 26.77 27.62 28.24 27.55 27.69 28.28 28.55 27.66 26.74 26.43 25.80 25.39 23.93 20.55 21.12 20.94 21.43 22.02 22.70 22.82 24.55 24.09 25.31 24.44 28.51 27.90 26.53 26.39 25.27 22.05 20.55 19.24 17.90 17.52 17.09
20.98 23.91 26.26 21.55 23.38 24.43 19.48 20.07 21.01 24.51 25.79 23.68 18.18 21.69 23.07 26.11 27.40 26.98 26.39 27.18 27.80 27.65 27.12 26.13 26.06 27.49 27.02 26.36 27.16 26.95 25.85 25.25 19.03 16.94 12.14 12.59 19.10 19.80 24.39 23.98 23.43 24.91 26.77 26.86 26.08 23.80 22.71 21.38 19.19 17.77 16.59 14.80 13.26 11.77
20.86 26.03 20.56 15.66 12.58 17.06 25.12 26.60 26.66 27.34 27.52 27.24 24.53 25.07 24.85 25.72 25.25 26.55 26.27 26.51 25.92 26.53 27.67 28.74 27.41 27.29 25.91 25.51 24.34 25.14 27.69 28.05 26.73 25.80 20.55 11.80 13.06 22.14 21.71 19.49 17.94 19.08 19.49 18.73 17.84 17.42 18.52 16.02 15.43 13.23 11.06 9.69 8.36 6.79
26.70 25.75 22.36 20.26 17.92 25.63 26.64 26.43 27.19 26.55 25.95 26.15 28.05 26.29 26.46 24.12 21.96 21.28 19.76 21.80 23.46 24.57 24.84 25.41 26.70 27.76 26.89 26.51 25.36 24.39 22.91 23.33 21.84 21.32 21.99 22.44 20.91 21.15 19.35 17.36 17.83 17.76 17.10 15.94 14.91 13.51 12.31 11.11 9.83 8.38 7.05 4.65 2.92 1.82
25.51 24.16 24.85 21.95 24.65 26.40 27.08 24.78 24.89 24.59 26.69 25.59 25.08 26.30 25.48 25.03 21.02 14.77 15.80 18.66 20.56 21.66 23.30 21.68 23.32 25.95 24.56 24.02 25.51 24.63 23.81 24.37 24.46 23.73 23.11 22.72 21.06 19.41 18.62 18.46 18.10 17.45 16.41 15.53 13.90 12.67 11.21 9.64 7.52 5.16 3.72 2.37 0.38 -1.64
25.05 25.29 22.38 20.87 23.19 23.14 23.86 18.50 22.96 23.09 24.03 20.41 22.82 21.66 22.48 19.90 13.81 14.04 17.01 15.33 16.02 17.41 17.26 19.04 22.04 21.76 21.02 20.29 19.61 20.50 22.31 23.56 23.15 23.24 21.91 21.21 20.37 20.51 20.08 19.56 18.18 17.04 15.29 13.69 12.14 9.93 7.75 6.30 5.25 2.89 0.20 -1.24 -2.53 -5.30

GFSWCAN_sfc_wetblb_126.txt.gz
Wetbulb
43.68 43.73 43.20 42.58 42.57 42.78 42.82 42.94 42.93 43.23 43.07 43.69 44.18 44.79 45.08 45.15 45.42 43.00 39.06 43.83 38.72 36.35 35.31 39.35 40.86 34.76 35.59 33.93 29.32 32.34 32.46 33.01 29.92 27.54 26.71 26.07 26.03 29.18 29.50 31.55 29.02 27.19 24.78 24.41 25.60 21.92 19.15 31.98 32.05 25.81 27.62 30.61 31.07 29.35
44.41 44.52 44.11 44.12 44.12 44.13 43.81 43.60 43.45 43.03 43.35 43.45 44.05 44.48 44.99 45.43 45.70 44.92 36.15 44.36 43.83 38.22 36.51 39.66 40.32 42.36 40.10 40.16 34.15 33.39 32.11 31.38 30.86 28.98 29.69 31.20 27.14 29.22 28.28 24.78 34.24 26.56 28.58 23.66 25.19 23.92 27.97 29.87 29.58 31.61 32.66 29.66 29.54 29.54
45.02 44.87 45.54 45.40 45.17 44.75 44.16 44.47 43.97 43.53 43.52 43.57 43.96 44.49 45.22 45.56 45.89 44.47 36.91 43.16 42.27 37.40 35.06 35.18 35.89 41.72 44.07 43.42 43.91 32.93 34.14 36.96 35.27 38.16 35.17 34.07 29.39 30.71 26.72 28.28 30.53 32.09 33.78 27.55 26.37 26.96 27.59 29.41 30.40 32.16 31.09 28.62 28.66 29.03
44.68 44.23 45.51 46.62 46.17 45.12 45.06 44.29 44.46 44.00 43.41 43.47 43.80 44.36 44.92 45.67 45.70 44.72 39.30 43.50 40.77 38.27 32.24 34.88 42.51 41.76 45.58 45.82 44.27 43.22 41.08 41.26 40.25 39.09 34.96 33.02 29.71 34.86 27.91 31.58 30.99 29.28 30.75 27.01 24.84 24.27 27.57 28.50 28.30 28.71 27.29 26.92 26.54 27.07
44.78 44.52 43.80 45.16 45.46 45.23 45.65 44.70 44.13 44.11 44.02 43.75 43.49 44.51 45.48 45.65 45.80 43.22 39.82 44.30 43.98 38.67 31.46 34.43 39.62 41.75 43.87 43.21 43.58 43.56 41.55 39.50 36.91 33.78 31.42 30.00 32.23 30.90 27.90 30.43 26.71 29.68 26.32 23.58 22.47 27.39 27.08 23.46 27.48 28.86 26.62 25.34 25.77 24.61
44.80 44.84 44.40 44.12 43.91 43.97 44.07 44.24 44.17 44.48 44.42 43.78 44.72 45.11 45.34 45.23 45.30 41.07 34.29 41.53 44.28 43.41 33.81 29.68 38.91 39.61 42.56 43.01 42.85 42.13 40.76 39.58 38.43 34.67 31.65 32.42 36.03 30.14 21.41 22.71 28.27 30.37 30.45 29.50 26.80 29.64 27.99 27.74 28.15 29.02 27.17 26.99 27.14 25.97
44.77 44.74 44.51 44.31 43.87 44.06 44.22 44.27 44.40 44.07 44.20 44.41 44.80 45.11 45.49 45.04 42.36 36.07 35.07 39.69 43.47 43.06 32.55 29.76 31.43 38.46 41.31 41.36 40.63 39.43 40.85 39.16 37.57 34.40 31.55 31.37 31.30 31.62 23.30 18.96 25.49 27.16 28.39 29.53 29.83 29.51 28.03 27.67 27.02 29.07 28.87 28.79 29.75 27.65
44.70 44.93 44.68 44.51 44.13 43.93 43.80 43.76 44.16 44.42 44.68 44.73 45.11 45.36 45.20 45.22 43.71 39.83 42.79 44.29 44.05 39.28 35.43 26.34 30.03 33.63 40.91 34.59 32.01 37.39 33.66 35.42 34.70 34.37 32.86 30.58 30.19 26.25 20.79 21.72 24.98 28.23 28.90 28.73 28.97 30.17 29.30 29.00 29.28 29.13 30.39 29.72 27.05 25.59
44.13 44.73 44.63 44.56 44.32 44.09 44.16 44.30 44.64 44.87 45.08 45.58 45.39 45.36 43.75 39.95 36.69 40.24 44.60 45.74 44.40 38.72 28.82 27.85 26.21 25.68 37.23 34.16 34.34 34.19 34.41 30.09 33.78 29.52 30.34 30.68 24.84 23.42 25.58 26.27 26.38 27.73 28.01 27.39 29.09 29.09 28.74 27.70 28.44 29.42 30.06 29.03 26.35 25.60
43.54 44.27 44.61 44.71 44.48 44.35 44.50 44.81 44.96 45.41 45.39 45.20 43.01 37.29 32.27 39.33 44.86 44.97 41.86 36.91 35.19 36.05 34.82 29.20 31.55 27.22 34.45 31.66 31.09 30.43 30.64 27.99 24.75 27.65 30.94 26.08 23.42 30.89 32.65 30.84 30.41 29.73 30.77 30.12 25.99 26.17 27.89 27.78 27.98 28.73 29.42 29.08 28.02 25.95
43.69 43.94 44.47 44.85 44.89 44.74 44.78 44.90 45.04 44.98 45.02 40.63 33.90 34.14 40.21 45.05 40.16 35.90 30.82 30.57 30.48 28.35 30.64 29.69 32.01 31.08 36.64 30.44 29.32 30.19 25.77 26.58 23.77 26.14 25.57 22.42 22.05 26.37 30.91 30.36 30.82 31.11 31.45 30.98 29.71 29.15 29.26 29.19 28.85 29.44 28.81 28.86 26.40 24.65
43.33 43.58 44.02 44.43 44.69 44.30 43.98 44.25 44.56 42.16 39.40 38.57 40.31 42.29 41.25 37.74 32.60 28.28 25.00 28.12 27.72 26.80 28.99 30.22 31.21 33.68 33.45 34.10 28.90 28.96 26.26 24.78 19.75 26.23 21.40 17.07 23.73 30.72 30.45 30.32 30.31 31.60 33.23 32.08 30.31 28.82 28.59 29.95 31.09 30.62 29.80 27.53 25.04 23.61
42.29 42.98 43.47 43.77 44.38 44.96 45.02 45.02 44.82 44.44 43.41 41.18 37.63 33.06 31.90 28.05 21.03 20.21 18.54 23.97 22.44 28.36 30.77 31.00 29.10 32.52 32.74 32.49 27.48 26.79 20.54 19.20 26.27 14.20 18.85 21.15 26.60 32.47 32.38 32.31 31.36 32.48 32.21 31.66 29.74 28.69 29.57 31.18 31.70 30.59 25.92 24.53 22.61 20.90
41.20 42.06 42.83 43.40 43.82 44.31 44.91 45.11 44.96 43.44 39.79 32.22 28.61 22.03 24.46 19.80 23.86 26.89 27.46 27.87 29.42 31.08 32.85 31.37 28.89 29.93 26.79 27.81 24.17 18.44 23.00 24.97 13.51 12.51 20.33 23.30 30.43 30.58 30.90 30.98 30.14 29.51 29.60 29.54 29.19 30.64 29.49 26.98 25.02 24.59 23.54 23.18 21.18 18.86
40.93 41.50 41.74 42.20 43.43 44.19 44.36 44.32 43.91 41.00 34.95 29.80 29.11 21.69 22.57 28.57 31.08 32.09 31.67 29.48 28.81 29.99 30.13 29.69 28.05 28.15 24.80 22.37 24.04 22.23 17.28 12.90 18.13 18.47 27.56 27.03 30.06 28.06 29.68 29.91 28.62 26.05 25.51 27.36 27.21 24.44 23.33 23.81 23.05 21.83 22.56 22.71 21.31 18.96
40.77 39.44 38.63 42.50 43.19 44.14 43.38 42.10 39.58 37.37 31.94 30.20 30.28 25.24 30.45 30.83 31.64 30.77 29.22 32.58 33.73 28.90 29.28 28.94 24.97 20.27 20.34 23.15 22.24 17.15 20.16 16.53 19.52 27.45 29.49 30.84 30.14 30.25 29.37 28.82 27.37 25.13 24.59 22.61 23.33 22.95 22.90 22.53 21.74 20.69 20.92 20.54 19.79 18.97
39.74 34.19 40.77 42.60 42.70 42.51 43.37 36.78 33.11 31.34 31.22 30.07 29.03 31.89 31.12 31.65 31.28 31.88 32.44 31.79 33.39 30.25 23.31 26.58 19.75 21.45 25.26 20.55 22.96 27.75 18.03 17.49 27.92 28.28 29.45 30.56 31.32 30.02 28.71 27.67 24.26 22.75 21.15 20.56 21.89 22.05 21.50 20.74 20.49 19.54 17.39 17.67 19.00 19.16
33.80 36.22 41.89 43.00 40.90 38.89 34.27 34.07 30.80 29.98 30.07 30.49 27.91 30.52 30.37 31.80 31.28 31.25 30.73 30.82 31.27 28.21 27.96 26.18 28.19 24.66 17.51 21.48 23.23 23.24 27.31 27.84 28.14 28.20 29.23 31.64 31.79 29.98 29.48 27.24 23.26 22.24 20.19 17.69 19.29 20.16 19.27 19.60 19.95 19.75 19.28 19.38 19.04 18.52
38.22 38.55 41.51 42.47 38.92 33.60 30.04 30.44 32.06 28.20 29.80 31.29 31.82 30.74 27.99 27.46 29.24 30.20 29.76 30.41 33.52 34.02 30.80 28.93 26.54 26.86 26.67 27.24 22.03 27.89 28.28 27.60 26.26 27.03 28.52 30.33 31.58 30.23 29.28 27.75 23.53 20.24 21.12 20.79 21.94 20.71 20.88 21.84 20.80 19.43 19.12 19.46 17.61 18.28
40.95 40.51 40.90 41.21 39.69 31.15 28.69 27.81 33.22 28.76 26.60 29.57 27.59 26.27 26.18 26.77 27.89 29.08 27.90 29.53 29.97 29.45 29.08 28.55 28.43 29.84 29.84 28.99 27.34 30.19 29.52 28.68 27.23 25.62 25.76 27.64 29.03 29.25 28.85 28.40 27.46 24.89 23.62 24.04 23.36 22.03 21.73 21.72 21.00 19.80 19.10 18.28 16.93 16.64
36.74 36.61 39.01 36.78 33.31 32.44 29.60 27.91 28.56 28.22 28.14 26.27 29.16 30.38 27.17 29.47 25.62 25.42 25.58 29.25 28.71 27.85 28.95 30.55 30.02 29.08 31.67 31.82 30.69 31.70 30.37 29.15 27.86 26.43 23.73 25.75 27.82 28.24 28.10 27.39 26.80 25.15 23.87 23.08 21.18 21.45 22.00 22.26 21.18 20.47 19.61 18.45 18.12 18.56
33.35 38.89 32.40 33.84 28.79 29.29 27.27 29.01 27.94 28.59 27.89 27.93 28.80 29.72 27.45 23.22 18.05 21.88 27.48 27.73 28.85 29.86 29.16 28.49 26.39 27.13 30.78 30.97 31.14 31.52 31.55 31.59 29.41 25.59 25.17 26.84 26.72 26.47 26.68 25.76 25.17 19.27 20.48 20.03 22.39 21.73 22.22 22.22 22.42 20.83 20.38 19.71 19.75 20.41
35.83 34.02 29.09 27.99 21.75 19.92 20.98 26.78 25.06 27.56 22.54 24.34 28.32 25.83 25.26 22.40 23.53 28.96 24.23 30.10 29.27 30.75 30.38 31.02 31.47 31.22 28.99 29.39 29.74 29.90 30.56 30.29 27.49 26.62 27.05 28.16 28.49 27.67 27.06 26.46 25.67 23.99 22.01 20.89 22.71 21.83 20.93 20.01 20.02 19.83 20.86 20.82 20.87 21.48
34.16 28.08 19.92 19.35 21.27 13.28 21.48 18.36 25.34 24.85 24.96 25.72 23.07 22.62 23.89 23.94 26.02 26.65 27.59 28.54 28.95 29.57 28.65 29.88 29.15 29.08 29.84 29.89 29.12 28.10 29.05 30.80 29.25 28.39 28.94 28.86 27.43 26.76 27.42 26.86 27.48 27.56 26.99 25.28 22.85 20.04 18.46 17.64 19.65 21.95 22.21 21.50 20.37 19.05
17.63 17.14 15.52 8.40 18.62 15.11 12.35 12.92 15.36 19.83 13.61 18.86 18.13 16.33 17.04 27.42 21.35 17.98 25.62 26.69 26.67 26.78 27.64 29.36 29.79 29.97 28.11 27.03 27.23 26.61 27.87 30.04 28.75 27.10 27.85 28.75 27.10 26.81 26.35 26.21 25.65 26.67 27.98 25.00 19.59 18.89 19.45 21.60 22.77 22.17 21.44 20.69 18.74 17.93
9.33 13.47 14.35 11.93 12.73 14.90 17.34 10.16 10.46 12.46 13.19 11.77 15.43 21.74 21.80 16.64 11.92 20.86 24.59 25.40 26.57 26.07 26.51 26.90 27.50 27.45 27.82 28.82 27.03 26.47 25.76 26.60 27.95 26.02 26.89 28.69 27.41 25.91 25.11 24.42 23.39 24.07 25.19 24.97 23.98 21.97 21.45 22.83 21.92 20.43 21.05 20.28 17.98 14.76
9.19 9.86 22.20 26.27 25.24 23.91 15.46 16.18 21.50 14.52 9.13 10.08 12.11 9.28 8.28 5.97 10.68 23.39 25.80 26.22 25.84 26.29 27.60 27.96 28.29 28.54 27.21 26.26 26.21 25.75 24.23 25.31 26.17 25.29 25.10 23.90 23.62 24.59 25.53 24.58 23.14 21.68 22.34 24.84 25.09 24.59 23.61 22.93 20.71 20.92 21.03 18.67 17.28 14.65
17.48 19.95 10.65 15.76 15.60 19.10 9.35 9.03 9.12 10.18 16.78 25.08 17.33 8.50 10.23 16.22 16.82 24.10 24.66 26.04 26.77 27.33 27.13 27.38 27.96 27.59 26.68 25.47 25.05 24.56 23.05 22.12 20.40 18.92 17.92 18.80 18.65 19.25 17.64 16.78 18.40 21.16 18.42 24.53 25.84 25.95 24.76 24.30 22.44 20.24 18.71 17.30 15.09 13.63
14.63 17.54 20.07 10.90 11.29 14.70 15.65 17.35 20.23 24.70 26.31 18.63 12.63 17.34 22.79 24.56 25.17 25.01 25.01 25.98 27.06 27.04 25.21 24.68 25.09 26.21 25.88 25.05 25.35 24.71 24.60 21.14 14.56 8.80 5.62 5.99 7.25 18.13 19.48 19.48 22.87 24.16 24.79 24.39 25.33 23.85 22.11 21.62 20.01 18.01 15.51 12.99 11.64 11.11
15.51 18.73 12.62 5.95 7.69 16.43 22.87 24.52 24.50 25.24 25.87 26.37 25.24 25.19 24.56 23.54 22.61 22.74 23.05 23.41 23.62 23.90 25.53 26.99 26.32 25.67 24.24 24.04 23.72 24.18 25.60 25.00 24.43 18.84 10.38 6.29 9.45 12.92 9.90 11.82 16.14 18.58 19.79 18.49 17.21 16.81 17.79 14.90 14.83 12.47 10.50 8.77 7.16 5.21
25.47 13.30 11.19 10.81 16.33 23.68 24.18 24.96 25.92 25.42 24.96 25.25 26.43 24.97 22.11 20.24 17.23 18.30 13.61 17.30 19.46 22.39 23.28 23.45 24.75 26.11 25.88 24.87 23.75 23.76 21.75 20.33 15.33 16.44 18.41 18.04 15.52 11.98 13.04 15.58 16.24 16.63 16.31 15.16 14.12 13.24 12.03 10.85 9.59 7.65 5.90 4.50 3.44 1.79
18.30 18.04 15.69 14.49 15.03 20.94 25.24 22.94 22.84 23.22 23.86 22.82 21.93 23.53 23.40 22.59 15.25 10.67 14.25 12.30 14.42 14.81 14.76 15.33 16.86 19.25 20.73 20.86 21.86 21.12 20.55 21.27 19.35 20.40 20.12 18.36 16.84 16.29 16.55 16.50 16.28 15.63 14.03 12.26 11.55 10.31 9.17 7.56 6.24 4.60 2.64 1.18 -0.09 -1.39
22.29 22.67 16.63 13.65 21.17 20.31 16.54 9.49 15.12 20.35 17.05 12.66 13.23 11.63 13.16 11.68 7.50 9.85 12.95 10.56 11.39 11.41 11.24 12.13 14.44 17.26 16.49 15.93 15.82 18.54 19.94 20.65 21.10 21.56 19.92 18.96 17.96 18.20 17.35 16.46 15.52 14.21 12.53 10.47 9.07 7.37 5.82 4.25 2.35 0.40 -0.84 -2.08 -3.83 -5.25

GFSWCAN_sfc_wetblb_129.txt.gz
Wetbulb
42.28 42.08 41.83 41.50 41.60 41.92 41.85 42.10 42.69 43.13 43.34 43.64 43.80 44.06 44.43 45.16 45.19 42.74 39.01 40.38 38.09 34.22 36.23 39.03 39.26 33.59 33.90 33.29 27.94 30.95 33.41 35.00 31.45 29.06 27.30 25.28 22.79 27.11 25.38 28.60 26.70 25.29 22.91 22.33 24.74 21.96 19.05 32.32 31.30 25.78 27.09 28.61 28.89 27.35
43.13 42.53 42.15 41.83 41.83 41.98 41.93 42.14 42.27 42.71 42.87 43.25 43.32 43.85 44.38 44.90 45.28 44.31 37.09 41.67 41.09 35.57 35.75 40.05 41.38 42.05 39.31 38.32 33.54 32.83 32.42 30.95 31.00 30.90 28.77 28.61 28.10 25.47 25.15 20.91 33.94 26.83 29.09 25.71 26.90 25.59 28.90 30.09 28.60 30.59 30.88 29.51 28.25 27.30
44.70 44.29 43.91 43.43 42.50 42.54 42.15 42.25 42.13 42.53 42.76 43.01 43.21 43.63 44.07 44.88 45.12 44.03 37.22 40.52 39.95 35.77 34.55 35.41 35.73 42.03 44.12 42.74 41.43 33.75 32.52 35.07 33.17 33.91 29.89 29.81 24.32 29.23 26.08 26.12 29.59 31.11 33.24 28.23 29.32 28.75 28.89 29.34 29.73 30.41 30.27 29.39 29.08 28.72
44.31 44.25 44.72 44.77 44.02 43.40 42.86 42.83 42.27 42.54 42.63 42.93 43.24 43.69 43.99 44.76 44.98 44.27 38.68 40.56 39.56 36.67 30.93 34.93 40.67 40.56 44.65 44.37 43.07 42.79 39.48 38.64 37.72 36.19 32.49 30.12 30.75 34.95 28.42 31.49 29.98 29.42 32.64 30.54 27.61 25.61 28.01 28.99 29.35 29.70 27.03 27.73 28.01 26.61
44.31 44.64 45.32 46.14 45.08 44.09 43.76 42.95 43.04 42.45 42.97 43.19 43.43 44.05 44.40 45.09 45.41 43.49 38.87 40.84 41.51 35.00 28.56 33.81 38.43 41.19 44.28 43.56 42.01 42.93 41.10 38.70 36.33 32.89 33.87 33.01 33.84 33.15 30.32 30.88 27.92 31.56 30.17 26.61 24.85 29.18 29.37 24.93 25.97 28.31 25.94 25.01 26.66 25.51
44.11 44.67 45.64 46.10 45.37 44.36 43.77 43.67 43.40 43.27 42.82 43.30 43.56 44.38 44.62 45.05 45.02 40.27 33.80 41.64 43.69 41.93 32.39 29.92 38.81 39.37 41.78 42.79 42.10 40.61 40.83 39.60 37.17 33.17 31.36 33.19 36.16 31.97 23.12 23.67 29.99 30.75 28.69 29.81 27.85 29.72 27.64 25.83 26.91 27.58 25.88 25.26 25.98 25.76
43.90 44.35 44.91 45.03 44.73 44.29 44.09 44.04 43.70 43.41 43.15 43.37 43.79 44.26 44.81 44.71 41.69 34.40 31.85 39.19 44.76 43.52 34.29 30.44 31.97 38.95 41.51 42.19 40.93 40.09 41.87 40.31 37.86 34.28 31.70 31.60 31.40 30.07 22.86 21.75 26.26 26.37 28.47 29.92 29.54 29.23 26.91 26.52 23.95 27.38 26.81 26.33 28.24 26.05
43.59 44.02 44.09 44.35 44.78 44.69 43.98 43.90 43.65 43.51 43.62 43.72 44.08 44.43 44.51 44.32 42.40 36.68 41.02 44.69 43.39 38.43 37.22 29.08 30.07 34.85 40.56 35.14 34.91 39.29 36.55 37.98 36.48 34.93 32.16 30.13 30.09 26.54 22.02 23.25 24.55 28.42 29.05 28.68 28.91 29.01 28.39 28.09 27.39 27.03 27.73 26.86 24.64 24.05
43.46 43.74 43.84 43.56 43.68 43.80 43.83 43.82 43.78 43.51 43.36 43.57 44.14 44.60 42.43 37.64 34.89 37.25 44.56 44.43 42.64 39.18 31.07 29.74 25.60 26.08 39.17 35.52 34.44 34.50 34.90 28.72 32.63 29.57 30.66 31.05 25.66 23.59 25.57 26.57 26.04 27.68 28.32 27.74 28.07 27.94 27.19 27.33 26.69 26.94 27.25 25.42 24.24 24.39
43.68 43.48 43.55 43.47 43.49 43.40 43.20 43.22 43.29 43.65 43.85 44.44 42.05 36.66 31.88 37.57 44.81 44.34 41.08 34.21 34.75 36.98 35.20 27.62 28.66 27.38 34.34 32.35 31.06 30.23 30.07 28.11 25.86 28.57 31.87 26.52 23.95 29.91 30.96 30.91 29.65 29.35 29.69 28.56 25.75 26.36 27.37 26.97 27.86 28.46 28.01 27.19 27.09 26.22
44.29 44.08 43.87 43.83 43.89 43.85 44.06 43.94 43.93 43.91 43.37 37.78 35.77 34.37 39.87 45.12 39.50 35.45 31.08 30.86 31.81 29.80 28.88 28.53 29.38 29.91 35.84 30.30 29.76 31.46 27.60 28.24 24.09 25.73 25.17 22.81 22.10 26.79 30.11 29.63 29.54 29.89 30.20 29.40 28.21 28.51 28.34 28.50 29.07 29.26 28.47 28.57 28.17 26.00
44.96 44.75 44.56 44.45 44.25 44.24 44.14 44.21 43.96 39.68 37.53 38.26 40.51 42.54 41.63 37.01 32.91 29.54 27.38 26.68 26.50 26.78 28.03 27.16 29.97 32.92 33.06 35.72 30.66 29.79 27.72 25.68 20.25 25.03 21.23 16.86 21.77 29.25 29.62 29.69 29.72 30.15 29.99 29.23 28.93 28.42 28.17 28.75 30.19 29.63 28.76 26.88 25.83 25.13
44.45 44.45 44.90 44.78 44.45 44.63 44.63 44.69 44.48 44.05 43.28 38.90 35.56 29.80 31.23 26.85 17.12 19.64 15.10 22.16 19.56 26.76 27.92 29.53 29.06 31.43 33.33 32.95 27.74 27.61 20.87 18.84 25.53 19.53 19.63 20.53 24.84 29.25 29.04 28.94 29.24 30.26 30.68 30.03 28.34 27.86 28.32 29.01 30.00 28.94 26.16 25.04 23.54 21.92
43.08 43.70 44.42 44.67 44.63 44.64 44.66 44.87 44.79 42.95 37.96 29.91 25.24 17.69 23.85 16.68 22.14 23.34 25.29 26.02 28.10 29.22 32.28 32.39 28.61 31.57 28.58 27.38 22.64 18.80 22.05 24.71 14.01 11.49 18.88 19.13 27.21 30.28 29.96 29.20 28.81 29.32 29.70 29.46 28.88 26.52 28.50 29.21 26.04 27.10 24.20 23.81 22.38 20.28
41.96 42.20 42.56 43.06 44.41 44.59 44.56 43.99 43.35 40.24 34.95 29.25 28.34 19.61 20.72 27.68 29.81 31.54 30.45 26.28 26.85 29.82 31.46 30.43 27.55 29.27 25.77 22.38 24.08 22.32 19.59 14.80 17.39 16.37 21.50 28.53 25.60 29.80 29.73 29.71 29.06 27.53 24.74 28.24 27.36 27.75 25.69 23.36 22.87 22.57 24.69 24.44 23.28 20.24
41.23 40.35 39.10 43.18 44.07 43.79 42.46 41.11 38.95 37.31 32.46 30.70 29.85 27.50 30.61 30.46 30.89 24.78 24.16 28.62 30.60 27.99 29.62 29.57 24.61 20.14 19.24 22.24 21.20 16.23 19.82 15.46 15.76 19.13 29.42 24.94 28.93 29.59 29.31 28.90 27.88 25.41 24.27 26.07 23.82 21.24 20.81 21.13 21.21 21.23 22.01 21.43 20.85 20.21
39.40 33.94 41.12 42.80 42.31 42.05 42.12 35.76 32.90 31.92 31.07 29.29 25.48 31.64 31.08 31.44 30.55 31.46 31.82 29.82 32.86 29.53 24.32 26.30 18.93 20.19 24.65 19.29 21.42 24.00 15.12 15.25 26.21 27.22 29.13 30.54 30.28 29.23 28.62 27.72 26.21 22.67 20.08 18.80 17.92 20.32 18.75 19.51 20.81 20.25 18.11 18.80 20.11 19.93
33.16 35.40 42.44 42.40 40.05 37.47 33.53 32.75 29.97 29.47 28.77 30.30 28.42 29.78 30.86 30.55 27.78 26.71 29.41 29.39 31.98 28.11 27.22 25.67 27.46 23.03 14.34 19.15 23.14 25.57 26.73 26.72 27.85 28.11 29.18 31.40 30.56 29.46 29.24 27.43 25.35 21.17 17.91 15.58 17.22 17.00 19.48 19.42 19.98 19.86 19.55 20.09 19.30 19.03
37.45 38.41 41.72 42.00 38.17 31.94 28.71 29.54 31.23 27.42 29.20 31.08 30.80 27.88 28.29 28.67 30.45 30.80 30.52 31.64 33.16 32.84 30.28 28.53 25.45 24.60 23.79 26.99 26.49 24.92 27.28 26.85 25.85 27.04 28.66 30.66 30.41 28.99 27.89 26.55 24.22 19.67 18.20 16.83 20.85 20.28 20.95 22.49 21.53 20.67 19.98 20.08 18.42 18.74
40.14 40.29 40.30 40.41 38.65 30.72 28.60 28.08 32.83 28.39 27.07 28.84 29.95 28.54 25.46 27.36 28.71 25.96 28.95 29.91 30.38 29.62 28.90 28.22 27.71 28.91 28.31 27.92 23.87 28.95 28.62 28.33 27.42 25.78 25.91 27.75 29.18 28.62 27.47 26.78 25.11 23.04 22.21 22.74 22.46 21.68 21.95 21.04 20.91 20.54 20.31 19.90 18.68 18.02
35.51 35.85 38.00 35.52 31.99 31.18 28.13 27.20 27.41 28.11 27.88 26.25 28.26 27.56 25.77 26.37 23.87 22.84 25.04 28.58 27.96 29.88 28.18 29.77 29.06 24.98 30.52 29.56 30.96 30.59 27.06 26.89 24.08 23.92 23.95 25.77 27.78 28.18 27.90 27.67 26.39 24.75 21.29 21.26 19.04 20.21 20.87 20.74 19.89 20.00 18.37 16.50 16.18 17.93
32.29 37.77 30.76 31.85 28.55 28.81 27.09 27.98 27.15 27.53 26.66 25.91 25.07 26.55 21.13 16.33 18.89 20.27 26.40 25.18 28.18 29.02 29.97 29.57 26.37 28.47 30.72 30.47 30.41 31.30 31.35 31.02 29.71 26.79 24.94 26.62 26.28 26.43 25.69 25.27 24.81 20.73 19.89 19.46 20.99 19.37 19.16 21.66 20.97 20.08 19.00 17.62 18.22 17.66
34.52 32.22 27.88 27.24 22.01 20.59 22.33 26.36 24.82 26.85 19.46 22.72 26.74 24.42 20.60 15.71 20.50 27.72 26.62 27.13 27.58 29.92 28.99 30.20 29.82 30.58 29.97 30.26 29.95 29.86 30.26 28.71 26.99 27.41 26.45 27.81 27.83 27.21 26.35 25.87 25.25 23.50 21.73 21.14 22.16 21.04 20.49 20.32 20.18 19.10 18.36 18.30 18.57 18.05
32.68 26.18 18.76 19.05 21.45 13.50 20.73 18.33 25.35 24.87 25.39 24.01 24.15 22.32 21.21 17.68 24.54 26.84 24.29 27.46 27.75 29.22 28.66 29.92 29.34 28.00 27.86 28.81 28.12 28.08 29.30 30.14 28.77 27.65 28.50 28.18 26.56 26.36 26.88 26.41 26.34 26.27 25.75 24.10 22.30 19.87 18.53 17.42 17.24 18.33 18.23 17.60 18.27 18.87
18.78 17.52 15.61 9.61 18.15 14.19 11.73 11.39 13.30 18.47 13.19 18.70 16.14 19.87 14.50 26.62 22.68 20.63 24.22 25.33 26.04 26.24 27.15 29.01 29.76 29.54 26.87 26.32 26.70 26.86 28.10 29.54 28.24 26.84 27.35 28.61 26.47 26.51 25.79 25.77 25.54 25.89 26.82 21.75 14.79 11.75 14.09 18.49 19.49 19.58 18.96 18.39 17.27 15.81
11.39 11.89 12.89 10.05 11.02 14.47 15.68 10.62 9.54 11.68 10.92 10.97 14.05 16.64 20.85 16.52 11.85 20.68 23.68 24.27 25.60 25.40 25.79 26.18 27.06 27.30 27.30 28.10 26.44 26.08 25.94 27.09 28.47 25.77 26.07 27.78 27.15 25.68 24.78 23.87 23.19 23.87 24.09 23.34 19.88 17.75 18.53 20.41 19.52 18.76 18.10 17.92 17.18 13.97
13.47 10.71 20.79 26.50 24.73 22.52 13.86 13.80 19.61 13.30 7.69 9.63 10.82 6.85 6.32 4.78 15.65 22.43 25.14 25.32 25.15 25.80 27.32 27.58 27.93 27.83 26.80 25.61 25.33 24.81 24.65 25.37 25.92 24.67 23.99 23.72 24.05 23.94 25.14 24.18 22.92 22.07 19.39 23.55 23.59 21.55 21.05 21.09 19.87 19.97 18.40 17.20 16.00 14.10
20.55 16.94 10.25 13.76 13.71 16.47 7.26 6.52 6.41 11.55 15.53 23.81 14.80 6.83 9.21 14.30 17.25 22.76 23.89 25.73 26.25 27.18 26.86 27.04 27.29 26.93 25.99 24.86 24.08 23.56 22.61 21.94 21.27 18.16 15.82 15.28 15.51 16.34 17.91 16.63 15.01 20.59 17.37 21.34 24.95 25.27 23.36 21.67 21.43 19.39 17.00 15.29 13.30 13.63
15.71 16.39 16.16 8.67 9.31 12.96 18.24 15.19 21.28 23.78 25.40 22.14 11.40 13.89 19.41 22.53 22.33 23.29 24.23 25.37 26.83 26.57 24.79 24.26 24.51 25.69 25.16 23.78 24.26 23.87 23.20 21.52 14.45 9.24 5.38 3.60 4.87 14.15 14.57 16.95 23.37 24.17 24.49 23.76 24.79 24.33 22.92 21.82 20.53 18.88 15.27 12.95 11.42 10.17
13.49 17.81 10.93 1.97 13.99 16.00 21.38 23.14 22.60 24.01 24.87 25.25 25.68 25.02 23.40 21.05 19.10 20.36 20.85 21.39 21.71 21.87 23.15 24.75 25.61 24.78 23.34 23.36 22.83 23.02 23.02 15.97 12.81 15.69 7.83 7.13 9.72 7.81 11.17 8.78 12.69 17.25 18.31 17.19 15.97 15.70 17.31 14.21 14.12 11.74 9.93 8.56 7.28 6.23
19.46 9.18 8.63 9.25 20.22 22.22 23.51 24.32 24.62 24.76 24.47 24.69 26.58 24.32 18.31 14.00 16.63 16.28 14.60 14.13 15.51 20.57 21.05 20.49 21.95 24.94 24.75 23.78 19.90 17.56 18.27 17.13 15.49 14.65 14.98 14.36 12.09 11.38 12.97 14.51 15.74 16.00 15.74 14.78 13.70 12.59 11.33 9.95 9.02 7.78 6.40 4.65 3.79 2.66
8.75 19.47 11.26 10.89 14.66 22.34 21.75 15.17 22.90 22.42 21.71 20.66 19.54 15.26 16.10 15.54 9.00 6.35 11.06 7.98 11.08 10.95 10.30 11.05 10.99 13.08 16.45 16.00 17.30 21.99 20.12 18.02 17.69 18.11 17.05 16.00 15.01 15.36 15.47 14.73 13.99 13.54 12.43 11.36 10.82 10.30 8.95 7.68 6.21 4.59 2.68 1.13 -0.34 -1.92
20.51 21.96 14.04 11.03 19.43 16.32 9.65 6.71 8.40 13.73 11.67 9.73 7.56 6.92 8.11 10.03 7.24 6.92 8.08 3.91 6.36 6.96 8.76 9.94 9.90 11.33 12.00 11.81 13.15 16.57 19.46 18.96 18.73 19.74 18.29 17.54 16.41 15.74 14.70 13.97 13.37 12.22 10.55 9.04 8.37 7.25 5.63 4.01 1.95 0.32 -1.21 -2.67 -4.26 -5.49

GFSWCAN_sfc_wetblb_132.txt.gz
Wetbulb
42.12 41.53 41.47 41.59 41.62 41.70 42.18 42.71 42.97 43.27 43.61 44.12 44.58 44.39 44.35 44.49 44.46 41.68 35.81 39.49 36.66 34.15 35.06 38.60 39.30 33.20 33.31 33.06 28.03 30.94 32.12 33.15 28.79 29.70 28.91 27.44 24.41 26.05 25.60 27.02 25.65 23.92 22.17 19.19 22.95 22.01 18.28 32.49 30.91 25.72 27.60 28.39 28.79 27.24
42.15 41.85 41.59 41.40 41.75 41.61 42.06 42.16 42.71 43.00 43.35 43.68 43.58 44.06 43.96 44.20 44.50 42.85 35.01 39.66 40.07 34.06 34.69 39.71 39.83 39.86 39.57 38.08 34.86 32.34 31.94 31.52 31.33 28.45 27.05 26.30 22.71 23.20 24.73 19.93 30.28 24.76 26.16 24.08 26.93 25.13 30.91 32.38 30.65 30.88 30.86 29.90 28.18 26.87
43.73 42.75 41.79 41.51 41.58 41.85 41.55 41.85 41.98 42.61 43.22 43.36 43.41 43.61 44.01 44.60 45.01 42.86 37.75 40.09 38.07 33.35 31.98 32.33 32.73 41.11 43.57 42.21 41.56 33.13 32.20 34.50 32.38 33.39 29.41 28.63 24.35 27.76 23.72 23.00 27.95 29.55 31.76 27.22 28.44 30.07 30.47 30.84 30.56 30.77 30.59 30.47 28.81 27.85
44.05 44.50 43.86 42.28 41.89 41.83 41.78 41.39 41.67 42.09 42.54 43.23 43.44 43.54 43.91 44.60 44.84 43.32 39.26 39.09 37.18 34.42 25.31 29.16 40.82 37.77 41.97 43.54 43.42 40.94 37.72 37.24 36.05 34.33 29.32 28.71 26.35 31.11 23.05 28.22 26.70 27.35 31.42 29.28 27.31 30.20 30.27 30.52 30.39 30.74 29.33 28.80 27.97 26.20
43.82 44.20 44.33 43.69 42.54 42.15 41.89 41.72 41.52 41.78 42.35 42.83 43.22 43.55 43.95 44.63 44.62 42.44 40.66 39.47 39.79 33.35 25.85 28.12 38.69 41.02 42.52 43.94 42.30 42.77 40.88 38.32 35.17 31.72 32.72 29.93 31.30 32.58 32.08 31.70 29.94 30.87 29.83 29.43 26.97 31.81 31.01 28.00 26.59 30.28 27.69 26.49 26.80 25.31
44.68 44.95 44.84 44.43 43.55 42.49 42.07 41.93 41.73 41.89 42.18 42.96 43.34 43.65 43.91 43.93 44.07 40.01 32.73 40.06 41.26 38.49 32.62 28.60 37.98 38.29 41.26 42.81 41.50 40.59 40.42 39.91 38.37 35.35 33.78 34.48 36.06 32.57 25.91 26.72 30.13 33.07 31.11 31.66 29.39 30.37 28.36 27.02 26.73 27.74 27.40 26.34 27.03 26.35
45.29 46.08 45.49 44.50 44.20 43.09 42.61 42.02 42.07 42.04 42.40 42.98 43.58 43.67 43.79 43.65 41.15 35.68 32.80 37.50 42.72 40.09 33.56 28.65 27.87 38.85 41.34 41.83 39.76 40.10 41.97 39.84 38.39 34.82 30.96 30.93 30.98 32.56 21.51 20.32 30.12 27.58 27.78 30.44 30.15 29.38 26.27 26.46 23.96 27.34 26.92 26.29 28.43 24.96
44.58 45.67 45.03 44.45 44.15 43.05 42.90 42.21 42.42 42.56 42.82 43.03 43.52 43.79 43.84 43.66 42.46 37.69 40.19 43.28 42.72 37.85 36.78 27.86 28.55 32.14 40.90 35.52 35.46 39.32 37.32 38.76 37.05 35.55 31.48 30.24 29.13 25.42 25.18 27.70 26.22 28.91 29.77 28.90 28.81 28.40 28.15 27.38 26.46 25.69 25.91 25.16 23.98 23.32
43.97 43.86 44.05 43.84 43.47 43.28 43.04 42.60 42.47 43.06 43.20 43.37 43.60 43.77 41.68 39.16 34.30 36.31 44.57 43.96 42.71 38.24 30.93 29.96 26.48 26.39 39.12 35.25 35.84 35.63 36.48 30.84 34.74 29.76 31.08 30.95 25.74 24.81 28.85 28.20 26.61 28.37 28.69 27.84 27.75 26.55 26.53 26.93 25.66 25.11 24.94 24.26 23.75 22.94
43.58 43.80 43.87 43.59 43.46 43.24 43.17 42.77 43.13 43.23 43.60 43.61 41.23 35.62 30.70 36.75 44.49 44.15 40.30 34.99 34.78 35.06 35.20 27.36 29.35 30.46 36.24 32.67 31.45 31.58 31.84 29.54 27.68 29.90 31.36 26.63 26.34 30.92 30.50 29.75 29.44 29.54 28.98 28.58 26.05 26.21 26.35 25.66 25.78 25.23 25.62 25.03 25.02 24.65
43.62 43.54 43.41 43.53 43.47 43.29 43.04 43.13 43.28 43.61 43.18 38.69 33.20 32.56 37.65 44.22 38.65 32.89 30.28 29.68 30.81 29.34 32.25 30.27 30.55 31.01 35.87 30.18 29.81 31.06 28.79 28.02 22.96 25.73 27.52 25.84 23.73 27.04 29.89 29.31 29.16 29.57 28.85 28.78 28.60 28.44 28.32 27.84 27.14 28.35 27.23 27.17 26.62 25.95
43.95 43.57 43.19 42.77 42.94 42.99 43.30 43.16 43.05 40.26 37.66 37.48 38.80 41.00 39.78 36.48 32.50 29.34 28.11 29.50 29.18 28.33 27.86 29.38 29.54 32.21 32.50 35.59 31.60 31.09 27.66 25.57 21.22 26.31 22.98 18.50 22.93 28.74 28.94 28.95 28.98 29.47 29.14 28.80 28.75 28.30 27.97 28.47 30.17 30.11 28.69 27.24 25.81 25.05
44.01 43.83 43.85 43.44 43.22 43.21 43.12 42.79 43.25 43.77 42.79 37.90 36.28 32.73 30.12 29.15 14.76 19.10 18.15 21.23 18.01 25.35 26.42 28.41 27.53 30.61 32.29 31.77 27.51 27.21 22.20 21.01 26.20 20.70 20.10 21.01 24.10 28.63 27.94 28.57 28.50 29.62 29.27 28.32 27.53 27.71 27.72 27.41 29.42 28.90 25.08 24.48 23.69 22.03
43.96 43.64 43.53 43.31 43.33 43.56 44.55 44.68 44.41 41.71 36.34 28.48 25.96 14.64 20.05 12.51 17.72 18.70 21.15 20.73 24.45 25.20 28.69 27.79 25.84 29.13 28.35 27.66 25.08 22.87 22.33 24.66 15.80 14.02 18.61 17.92 25.83 26.87 27.45 28.49 28.40 27.72 29.52 29.62 29.07 26.92 24.39 28.81 27.78 24.99 23.51 23.06 22.23 20.19
43.73 43.84 44.16 43.87 44.64 44.74 44.57 44.52 43.98 38.82 31.63 26.52 25.02 16.77 20.15 25.58 25.85 30.62 27.00 24.65 24.97 28.73 29.33 27.33 27.30 29.25 26.84 24.28 24.93 23.01 20.83 17.45 18.27 16.33 16.40 28.17 25.22 30.35 30.02 29.70 28.58 27.71 21.87 19.11 18.94 23.19 28.35 26.04 25.10 20.53 22.36 23.34 21.94 20.18
42.54 41.54 39.52 43.58 44.52 44.77 44.33 42.56 38.37 35.73 29.96 28.37 28.83 27.85 30.08 29.72 29.76 29.46 28.83 21.97 28.01 27.25 29.07 29.12 26.17 22.88 21.61 22.69 20.57 16.00 19.32 15.57 15.11 22.24 27.83 25.33 27.47 29.18 29.67 29.31 28.55 27.40 27.68 27.67 27.39 26.53 24.78 23.15 19.84 17.98 21.85 21.04 20.43 20.13
40.10 34.48 40.67 42.83 42.12 41.73 41.51 35.20 31.65 29.67 28.18 27.96 27.69 31.38 31.22 30.83 29.97 29.39 22.53 25.48 28.69 29.05 24.43 26.32 19.79 20.01 24.46 19.09 20.45 22.19 14.64 14.42 25.65 27.47 29.57 30.15 29.23 28.90 28.81 27.75 26.48 24.99 22.01 23.39 23.03 22.36 17.45 18.45 19.59 19.34 18.16 17.11 20.09 20.48
33.86 36.29 42.60 42.19 39.39 37.41 33.50 32.74 30.31 29.57 28.54 30.21 25.68 28.79 29.02 27.44 27.54 26.25 28.37 29.93 32.21 29.02 27.99 26.11 27.13 21.83 12.46 17.40 20.84 24.70 26.43 25.97 27.50 28.22 29.56 30.81 29.65 29.15 29.14 27.36 25.99 23.61 17.54 16.95 16.49 14.83 15.30 16.31 18.23 18.16 19.40 19.92 19.52 19.33
37.35 38.72 41.48 41.35 38.20 32.66 29.38 30.15 31.24 26.84 27.90 30.28 29.92 29.89 28.56 27.87 30.25 29.78 28.96 31.40 32.70 31.75 29.95 27.19 23.56 23.11 23.79 26.67 26.67 26.62 26.57 26.81 25.96 26.98 28.81 30.60 29.44 28.36 27.32 25.95 23.58 20.25 17.10 14.87 19.89 18.40 19.24 21.40 20.47 20.07 19.83 20.14 18.55 18.96
39.64 40.03 39.90 40.10 38.28 30.66 28.78 28.13 32.17 28.55 26.74 28.40 29.65 29.12 26.09 26.90 26.98 26.28 28.36 29.49 30.40 29.34 28.23 25.62 26.25 28.13 27.92 27.32 23.75 28.95 28.26 28.11 27.71 25.94 26.22 27.86 28.74 27.76 26.85 26.35 24.48 22.40 20.49 21.59 20.70 19.59 20.50 20.13 21.04 20.62 20.45 20.14 18.67 17.92
34.88 35.55 37.16 35.13 31.58 30.69 28.02 27.07 27.16 28.00 28.41 27.28 27.88 27.75 26.26 27.71 26.37 25.31 26.80 29.25 28.37 29.55 28.05 28.63 28.29 28.50 30.24 30.45 30.72 29.18 26.94 26.71 26.66 27.36 25.78 26.25 27.72 28.10 27.47 26.53 25.26 23.82 20.43 18.10 16.68 17.61 17.73 19.02 19.17 20.22 18.90 18.65 19.67 19.41
31.42 36.26 29.66 31.29 29.08 28.63 26.69 27.16 27.44 27.60 26.31 26.28 26.10 26.32 21.68 21.52 19.67 21.04 26.89 25.39 27.67 28.04 29.17 29.52 29.18 30.05 30.04 29.90 30.26 30.85 30.20 30.44 29.25 26.86 26.22 26.81 26.01 25.98 25.44 25.21 24.97 23.00 21.03 18.19 19.77 17.41 18.93 19.94 19.73 19.06 16.96 16.49 17.25 18.12
33.33 31.18 27.11 27.01 22.02 20.11 21.40 25.87 24.99 26.04 18.92 21.92 25.33 22.40 18.57 15.34 19.89 27.15 25.50 26.45 26.59 29.70 29.99 29.62 29.96 30.90 29.80 30.24 30.22 29.95 29.40 28.51 27.14 27.18 27.04 27.79 27.47 26.64 25.94 25.46 25.38 23.65 21.90 19.39 20.06 19.07 17.88 19.16 17.20 16.50 16.94 15.70 15.44 15.85
31.67 24.64 17.44 17.11 20.31 12.75 19.72 17.39 25.71 24.44 22.41 21.82 20.36 17.26 17.74 16.03 24.42 23.02 23.67 25.29 25.70 28.49 29.37 29.71 30.03 28.43 28.87 29.12 27.86 27.85 29.17 29.89 28.11 27.43 28.30 27.42 25.86 25.90 26.29 25.92 25.71 25.81 25.42 23.54 22.01 19.31 18.84 16.70 17.12 16.73 16.67 15.61 14.99 15.53
19.42 17.02 14.78 9.05 17.63 13.54 11.09 11.25 13.45 17.79 13.10 16.71 16.81 20.68 15.28 25.68 22.76 18.26 21.60 23.31 25.29 25.70 26.68 28.51 29.43 28.88 26.29 26.00 26.34 26.48 27.60 29.16 27.81 26.30 26.97 28.25 26.25 26.09 25.38 25.36 24.81 25.13 25.70 18.45 11.89 10.59 14.39 16.26 16.76 16.35 15.40 15.98 15.88 15.89
12.03 14.61 13.14 10.72 12.16 14.35 14.59 10.30 8.97 12.01 10.84 14.17 13.82 15.67 21.84 20.06 11.16 18.70 22.61 21.52 24.81 24.61 24.99 26.11 26.48 26.92 26.53 27.42 26.08 25.62 25.26 26.67 28.11 25.44 25.23 26.62 26.14 25.48 24.19 23.11 22.78 22.57 22.59 21.73 17.67 14.22 15.33 17.11 16.72 15.99 14.87 15.28 14.61 13.71
12.78 10.97 20.35 26.01 23.67 20.99 11.97 12.06 18.05 12.07 7.05 8.08 9.39 5.88 5.67 8.81 17.08 19.49 22.38 23.98 22.78 25.54 27.08 27.35 27.74 27.47 26.40 25.01 24.56 24.23 24.29 24.78 25.50 24.26 24.03 23.21 22.85 22.48 23.98 23.82 22.86 21.39 19.35 22.06 20.86 19.33 18.84 18.38 17.54 17.17 16.51 15.77 14.68 13.83
19.81 16.68 11.09 14.74 15.14 15.51 5.97 5.84 6.23 12.78 17.43 22.11 13.00 5.64 7.20 11.18 16.91 21.44 23.25 25.13 26.04 26.87 26.47 26.47 26.89 26.53 25.33 24.19 23.58 23.31 22.26 21.56 21.41 20.09 16.17 13.46 11.62 13.28 16.26 17.71 21.49 24.02 23.62 20.36 21.85 22.29 21.54 20.49 19.48 17.80 15.62 13.85 12.41 13.22
15.89 14.30 13.76 6.63 7.33 15.32 17.82 12.32 17.62 22.09 24.42 23.02 13.33 17.48 19.83 20.38 18.04 20.50 22.46 24.35 26.59 26.33 24.37 24.02 24.08 24.76 24.06 22.85 23.49 23.11 22.85 21.88 15.26 9.34 4.81 3.12 3.37 11.46 13.20 15.10 19.45 23.21 24.14 23.80 23.40 22.58 22.62 22.21 19.29 16.90 13.82 11.86 10.34 10.66
13.73 15.31 9.13 5.01 9.39 14.52 20.01 21.83 21.46 23.26 24.38 24.64 25.07 24.05 21.84 18.77 17.94 19.25 19.96 21.24 21.51 21.44 21.84 23.29 24.73 24.36 22.95 22.95 22.07 19.46 14.94 8.67 9.59 12.25 8.37 6.78 10.60 5.47 15.59 11.80 17.82 18.11 17.61 16.55 15.81 15.50 17.10 14.01 13.90 11.53 9.91 8.34 7.08 6.02
15.05 7.01 7.06 11.80 18.76 21.16 22.76 23.80 23.98 24.13 23.40 24.11 25.10 22.65 17.63 13.70 12.59 14.38 14.61 14.29 15.74 19.43 20.32 19.76 20.84 21.02 19.45 20.75 18.75 11.86 12.19 13.00 14.76 15.39 15.23 12.20 10.96 9.62 12.09 13.14 14.68 15.47 14.69 13.74 13.00 12.06 11.15 10.11 9.01 7.75 6.53 5.13 4.29 3.15
9.89 11.07 7.13 8.59 14.52 21.01 19.56 16.85 21.16 21.96 12.44 10.42 9.97 10.85 12.90 10.06 6.18 3.61 6.32 5.42 6.28 5.69 6.50 4.95 10.31 11.19 11.26 11.81 12.40 14.76 17.17 14.24 13.72 12.10 14.66 14.54 14.08 14.29 14.07 13.53 13.29 13.54 12.25 11.34 10.28 9.72 9.50 8.01 6.51 5.08 3.52 2.15 1.09 -0.15
17.23 20.15 12.49 9.05 16.72 13.53 12.52 5.11 6.89 9.03 7.09 6.44 9.69 3.46 5.58 9.99 9.00 4.92 5.52 1.14 3.82 3.85 4.78 5.65 5.77 7.01 8.37 10.14 11.82 15.43 16.05 15.74 16.08 18.88 17.34 16.46 14.93 14.46 13.10 12.36 11.39 11.13 10.13 8.82 7.97 7.19 6.13 4.85 3.34 1.59 0.01 -1.59 -3.95 -5.49

GFSWCAN_sfc_wetblb_135.txt.gz
Wetbulb
42.26 41.73 41.61 41.38 41.47 41.50 41.99 42.09 42.51 42.87 43.45 43.89 44.20 44.75 44.98 44.63 45.38 40.82 37.88 41.03 38.21 33.62 35.25 38.57 38.80 34.31 34.40 34.04 29.96 33.04 33.28 33.71 31.78 29.55 29.25 28.95 27.58 29.29 28.27 29.66 27.46 26.75 25.34 24.41 25.93 23.16 20.44 34.77 33.30 29.22 34.82 33.49 33.67 32.83
42.54 42.14 41.68 41.31 41.47 41.61 41.91 42.11 42.25 42.89 43.07 43.48 44.09 44.53 44.39 43.99 44.59 41.46 35.38 40.74 40.30 35.13 35.95 39.88 39.99 40.43 38.28 38.72 35.11 34.95 34.11 33.46 34.63 32.36 31.42 31.31 27.87 28.55 28.98 25.76 32.03 27.26 31.16 27.88 28.75 28.68 34.41 36.86 36.87 37.25 35.59 35.16 33.03 32.94
43.41 42.37 41.97 41.91 41.39 41.52 41.87 42.04 42.36 42.86 42.88 43.45 43.76 44.37 44.47 43.84 43.28 42.51 38.49 38.71 37.65 33.40 33.04 33.94 32.99 38.94 43.63 43.03 43.51 34.60 34.71 37.02 35.42 37.38 33.29 32.36 29.03 30.80 27.18 28.24 31.11 32.29 34.26 31.20 30.47 33.39 33.68 34.98 35.30 35.40 35.22 35.33 34.39 33.41
44.45 44.01 42.67 42.13 41.77 41.56 41.66 41.86 42.05 42.45 42.80 43.17 43.73 44.40 44.26 43.61 44.32 42.46 38.47 39.20 37.29 33.89 26.18 29.64 40.16 36.82 42.11 41.07 41.31 42.43 39.87 38.97 38.65 37.32 33.88 32.34 30.63 33.90 30.53 31.77 31.42 33.49 33.93 32.15 31.13 32.97 33.68 35.36 34.87 36.12 34.41 34.03 32.15 30.84
44.33 44.15 43.63 42.38 41.72 41.41 41.68 41.93 42.00 42.35 42.94 42.57 42.98 43.67 43.56 43.81 44.22 41.59 40.13 39.66 39.90 33.43 26.52 28.74 37.48 41.15 42.72 43.60 42.21 43.04 41.76 39.28 37.43 34.25 32.99 31.96 33.57 34.35 33.47 32.81 30.75 34.00 32.65 31.88 31.77 35.91 36.62 35.19 31.63 33.49 33.34 31.88 32.16 29.83
44.39 44.21 44.30 42.72 41.78 41.61 41.74 41.73 42.12 42.30 43.03 43.18 42.72 44.00 43.37 42.98 42.81 39.70 33.28 40.14 41.73 40.19 31.03 26.90 37.88 38.01 41.03 42.72 41.52 41.48 41.59 39.96 39.72 36.25 34.28 35.88 38.01 35.09 30.18 29.24 34.30 35.72 35.51 36.45 36.79 33.37 32.76 30.86 30.48 31.66 32.58 31.92 31.51 30.41
44.67 44.46 44.32 43.06 42.04 41.72 41.96 41.64 41.82 42.22 42.93 43.08 42.70 42.89 43.14 42.89 39.62 35.46 33.40 38.26 42.03 41.38 32.76 27.72 29.17 38.37 40.99 41.73 41.18 39.78 41.98 40.31 38.57 36.42 34.84 34.37 34.47 36.33 32.01 26.86 32.33 33.67 33.65 33.09 32.72 32.11 30.70 30.10 31.68 30.93 30.75 30.38 31.68 29.86
44.70 44.48 44.36 42.71 42.25 41.95 41.96 41.60 41.82 42.17 42.76 43.30 43.10 43.29 43.33 42.38 41.40 37.28 40.93 42.72 42.05 37.85 35.79 27.08 28.18 32.41 40.62 34.98 33.81 40.24 37.18 37.63 37.69 35.96 34.68 33.18 33.15 32.74 27.91 30.16 30.33 31.50 32.13 31.76 31.61 31.49 31.44 30.90 30.40 29.62 29.54 29.05 27.86 27.39
44.45 44.02 42.93 42.65 42.29 41.78 41.72 41.67 42.01 42.45 42.91 43.38 43.41 43.15 40.56 37.91 33.81 36.38 43.09 43.15 42.01 37.38 29.00 28.90 26.42 25.98 38.21 35.64 35.20 36.20 37.50 31.21 35.36 33.52 33.34 33.59 31.17 28.35 31.68 32.23 29.34 31.34 32.36 32.30 30.37 29.81 29.94 30.12 29.34 28.71 28.31 27.82 27.35 26.35
43.86 43.14 42.81 42.45 42.09 41.78 41.70 41.93 42.29 42.96 43.18 43.09 40.25 35.30 30.74 36.08 41.50 43.47 38.87 34.72 34.03 34.38 35.22 29.92 31.95 30.19 35.57 33.26 33.19 32.86 34.02 31.41 28.88 32.80 33.50 30.67 29.83 33.30 33.73 33.53 33.40 32.85 32.39 31.00 28.88 27.61 28.63 28.43 28.68 27.71 27.44 28.25 28.20 26.94
43.21 42.97 42.72 42.27 42.14 41.98 42.07 42.55 42.66 42.83 42.43 38.08 33.79 32.74 37.95 43.42 39.46 34.55 30.14 29.28 29.93 28.25 31.09 31.90 32.25 32.22 36.89 31.35 30.23 33.27 30.18 30.38 25.99 29.86 30.00 28.66 27.24 30.72 32.28 32.08 32.41 32.70 32.10 32.21 32.39 32.19 31.91 31.30 29.70 28.46 28.19 28.00 27.69 26.99
43.79 43.37 42.86 42.57 42.61 42.48 42.69 42.68 42.55 39.67 36.70 36.84 39.01 40.95 39.56 35.63 31.77 27.84 27.58 29.85 27.37 26.86 31.60 30.45 31.57 34.35 34.66 37.03 33.14 31.44 28.73 27.99 23.85 29.52 27.92 24.41 28.51 30.53 30.95 30.67 30.59 31.74 31.88 31.32 31.91 31.23 30.87 30.70 30.96 30.49 29.63 28.10 27.50 26.38
43.26 43.23 43.14 43.13 42.69 42.87 42.90 42.48 42.08 42.16 42.58 39.75 35.84 32.97 31.69 29.82 23.97 23.09 21.43 25.54 24.58 28.15 29.25 32.44 31.20 33.37 33.38 33.58 30.93 29.74 26.30 25.34 28.48 24.96 24.74 27.41 28.04 30.51 30.57 30.64 30.70 32.00 31.88 31.38 30.49 30.63 30.55 30.41 31.73 30.86 28.60 26.27 23.50 21.93
42.66 42.46 42.64 43.00 42.93 42.54 42.38 43.12 43.89 41.47 36.51 29.00 26.30 20.92 25.35 18.29 20.16 22.33 25.02 26.06 28.64 29.96 30.48 32.14 29.86 32.16 31.23 29.15 27.43 25.34 24.63 26.61 21.93 20.75 23.40 25.51 29.18 29.13 29.62 30.56 30.85 29.86 28.99 29.94 30.07 28.93 26.59 29.18 28.87 27.37 23.56 22.89 22.12 21.00
43.06 42.96 43.06 42.49 42.57 43.81 44.17 43.26 42.74 39.10 33.29 27.80 26.15 20.20 20.98 25.49 27.07 31.03 29.99 28.63 28.82 30.55 32.04 31.03 30.69 30.92 28.11 25.22 26.29 25.18 23.90 21.34 22.50 23.03 24.64 29.29 28.99 30.35 30.83 30.77 29.95 27.65 24.43 25.03 25.39 25.68 29.33 28.76 26.63 25.28 24.07 23.71 22.84 21.47
43.21 42.13 40.88 43.94 44.66 44.77 43.79 40.89 38.72 36.75 31.72 29.25 29.66 27.77 30.24 29.81 29.53 30.35 30.78 28.36 29.73 30.38 31.71 32.08 28.05 25.32 24.44 25.16 22.60 22.05 21.85 19.79 22.96 24.71 28.49 30.03 29.89 31.03 31.20 30.90 30.13 29.47 29.15 28.08 29.06 28.64 27.60 26.29 25.31 24.81 23.33 22.27 21.55 21.37
40.45 35.19 40.78 43.38 43.95 42.93 42.73 35.31 30.91 29.47 27.94 27.90 28.70 31.35 31.24 30.83 30.26 30.46 27.19 29.14 30.87 32.00 29.18 28.48 22.64 22.61 26.51 22.78 22.28 24.71 22.39 23.38 26.85 28.40 31.05 31.18 30.53 30.12 29.39 28.89 27.84 27.91 27.48 27.05 26.29 26.19 24.57 23.83 22.25 22.30 20.87 21.37 22.10 22.30
35.42 37.09 42.45 42.78 41.03 38.47 32.56 31.77 29.91 29.44 27.73 29.80 27.77 28.77 29.74 29.33 30.18 28.05 28.02 30.09 32.84 30.75 30.77 28.48 29.38 24.65 22.37 21.93 22.60 26.80 26.82 27.75 29.35 29.91 30.90 30.63 30.25 30.04 29.85 28.13 27.18 25.65 24.63 24.63 23.92 21.41 19.71 20.67 21.44 22.06 21.48 21.76 21.41 21.05
38.10 39.13 41.66 41.27 38.31 32.79 30.20 30.58 31.65 26.81 27.87 29.50 30.00 30.66 29.87 30.42 32.07 30.19 31.19 33.09 33.56 33.18 31.59 29.71 26.25 24.49 24.56 27.24 27.08 28.06 27.55 28.27 27.87 28.80 30.18 30.26 30.00 28.80 27.80 26.59 24.95 23.16 21.28 20.99 22.04 22.26 22.39 22.94 23.13 22.46 22.18 22.05 21.26 21.30
39.58 39.78 39.48 39.84 38.63 31.72 29.47 29.10 32.95 29.33 26.86 28.79 30.76 29.63 29.81 29.40 30.26 30.71 31.59 31.48 32.44 31.60 28.97 26.58 25.95 28.08 28.76 28.97 28.62 29.68 29.40 29.60 29.17 27.43 27.40 28.45 28.85 27.94 27.25 26.48 24.83 23.25 23.11 23.46 23.03 22.25 22.89 22.39 22.61 22.47 22.77 22.37 21.50 20.70
35.33 35.37 36.60 35.62 31.74 30.90 28.91 28.12 27.80 28.93 29.12 27.36 29.45 29.12 27.81 29.38 27.47 27.84 28.70 30.34 29.98 29.44 27.30 28.87 29.02 29.51 30.48 30.34 30.84 30.14 29.24 30.28 28.74 28.95 28.10 27.07 28.59 28.45 27.61 26.58 25.35 24.08 23.24 22.59 22.24 22.04 21.40 22.74 22.29 22.37 22.75 22.11 22.32 21.89
32.03 35.60 30.31 32.24 29.92 29.58 28.03 28.30 28.37 28.39 27.47 27.43 27.34 27.37 24.48 25.25 24.77 26.19 28.40 27.03 27.45 28.13 29.89 29.61 29.76 30.23 30.18 30.08 30.62 30.72 30.79 30.39 29.02 27.97 28.26 28.45 27.13 26.77 26.26 26.15 25.33 24.30 23.89 23.15 23.33 22.47 22.94 22.53 22.53 22.03 21.09 20.79 21.18 21.42
33.02 31.51 28.21 28.04 23.59 22.30 22.94 27.88 26.40 26.87 22.59 24.72 26.05 23.33 22.55 21.64 23.71 28.56 26.07 27.52 27.40 30.11 30.52 30.44 30.55 31.06 29.99 30.19 29.99 29.91 30.12 29.57 28.34 28.17 28.12 28.48 28.43 28.24 27.24 26.81 26.77 25.44 23.74 23.60 24.03 22.81 22.55 21.18 19.75 20.29 19.59 19.77 20.15 19.85
30.84 24.24 17.57 17.57 20.90 14.66 20.18 18.54 26.11 24.47 23.15 23.15 21.79 18.70 19.56 20.57 25.30 23.97 23.01 25.14 27.32 29.67 30.00 29.89 29.98 28.73 29.22 29.18 28.08 28.18 29.34 29.98 28.29 28.44 29.08 27.97 27.17 27.30 27.77 27.16 27.11 27.52 27.31 25.91 24.34 23.57 22.36 21.25 19.63 19.60 18.91 18.04 18.73 18.52
19.23 16.95 15.57 9.69 17.76 13.61 12.07 11.84 13.98 18.40 15.96 17.43 19.24 20.58 20.51 25.87 23.50 19.31 20.77 23.22 26.21 27.11 28.22 29.96 29.85 29.03 27.11 26.65 26.99 27.07 27.86 29.72 28.04 26.68 27.84 29.29 27.97 27.68 27.28 27.32 27.32 27.64 26.73 23.68 21.62 21.15 20.34 20.02 19.78 19.31 18.63 18.19 17.61 17.77
14.06 16.44 14.40 12.26 13.02 15.08 15.34 11.57 9.70 13.56 13.22 16.70 16.97 19.32 22.53 21.31 15.19 18.74 21.67 22.96 25.44 25.49 26.19 27.43 27.73 26.99 26.64 27.71 26.66 26.11 25.74 27.24 28.88 26.25 25.50 26.67 26.59 27.76 27.51 26.60 26.25 26.64 27.15 25.99 21.90 19.73 18.91 19.52 19.15 18.40 18.24 17.52 17.26 17.36
12.80 12.06 20.87 24.81 23.02 20.59 14.09 14.65 18.35 13.73 8.92 9.67 12.60 11.62 12.44 13.58 16.66 18.98 22.75 24.34 24.84 26.40 27.82 28.11 28.62 28.08 25.98 24.90 24.85 24.69 24.91 25.41 26.32 25.19 24.63 23.66 23.32 22.87 24.91 27.06 26.40 26.50 24.85 25.22 23.42 21.78 20.29 19.24 18.99 18.90 18.35 18.90 18.17 17.18
18.93 18.45 10.53 17.12 18.82 16.36 8.13 9.51 10.06 14.70 19.49 20.81 14.21 7.35 10.23 12.18 14.85 20.45 23.00 25.24 26.65 27.39 26.97 26.83 27.29 26.99 25.89 24.98 24.36 23.83 23.00 22.95 22.25 21.22 20.18 19.36 18.81 19.87 21.63 23.20 24.52 24.72 25.66 26.07 24.68 23.27 22.73 21.32 20.31 19.41 18.35 17.16 15.83 16.90
14.46 15.51 13.99 7.57 8.83 15.99 16.87 12.96 15.81 21.96 23.81 23.39 19.91 18.94 19.32 18.26 18.26 19.59 21.81 24.17 27.00 26.86 25.15 24.63 24.68 25.55 24.65 24.25 24.85 24.94 24.26 23.92 22.49 16.38 14.54 16.87 16.20 19.83 18.57 21.12 24.21 25.26 26.13 26.12 23.71 23.99 23.74 22.57 21.12 19.09 17.03 15.82 15.17 15.16
13.84 14.70 9.57 8.29 5.19 14.63 19.91 19.47 21.51 23.53 24.34 24.84 25.07 23.05 20.46 18.36 18.10 19.13 20.46 22.27 23.29 23.03 23.00 24.06 25.13 25.69 24.88 24.70 24.35 22.50 20.18 19.52 19.83 19.58 18.18 18.30 18.87 16.46 20.24 20.48 20.79 20.24 20.37 20.14 19.49 18.60 18.37 16.19 15.51 13.69 11.97 11.10 10.87 9.99
13.97 8.36 9.09 12.92 18.37 21.77 22.92 24.00 24.29 24.51 24.10 24.24 25.17 22.34 18.68 16.43 16.08 15.57 15.40 15.36 17.24 20.55 22.18 21.98 21.24 20.52 22.55 21.97 23.00 19.23 19.02 20.44 16.98 18.85 19.71 17.98 13.79 16.07 15.69 16.67 17.49 17.80 17.43 16.70 16.01 15.28 14.14 13.27 12.50 10.92 9.97 8.37 7.51 7.27
12.23 12.98 9.71 8.64 13.61 19.54 19.30 19.22 20.97 21.73 16.05 15.33 18.73 11.69 15.00 13.99 12.06 9.87 10.13 10.52 11.44 12.04 7.92 9.57 16.15 16.72 13.28 14.02 15.30 17.11 17.68 18.76 18.01 16.03 15.69 15.93 15.60 15.43 15.56 15.64 15.83 15.76 14.85 14.14 13.59 12.70 12.30 10.99 9.98 8.72 7.15 6.07 5.38 4.47
15.25 18.37 16.88 11.02 13.40 15.87 14.11 9.71 9.28 10.00 8.67 11.17 10.91 7.29 11.03 12.75 11.25 10.05 8.07 5.66 10.51 11.08 10.79 10.91 11.37 11.69 12.14 12.65 15.19 17.03 16.71 17.53 17.32 18.19 17.13 16.18 14.87 14.90 14.76 14.39 14.29 13.34 12.44 11.42 10.71 10.16 8.91 7.93 6.62 5.52 4.29 2.88 1.49 0.24